<?xml version="1.0" encoding="UTF-8" standalone="no" ?>
<gpx xmlns="http://www.topografix.com/GPX/1/1" xmlns:xsi="http://www.w3.org/2001/XMLSchema-instance" xsi:schemaLocation="http://www.topografix.com/GPX/1/1 http://www.topografix.com/GPX/1/1/gpx.xsd" version="1.1" creator="VisuGPX - https://www.visugpx.com">
  <metadata>
    <name>Champagnat Cyclisme sur route</name>
  </metadata>
  <trk>
    <name><![CDATA[Champagnat Cyclisme sur route_1]]></name>
    <trkseg>
      <trkpt lat="46.48287" lon="5.36842">
        <ele>265.2</ele>
        <time>2021-10-30T11:15:17Z</time>
      </trkpt>
      <trkpt lat="46.48274" lon="5.36819">
        <ele>264.2</ele>
        <time>2021-10-30T11:15:19Z</time>
      </trkpt>
      <trkpt lat="46.48266" lon="5.36809">
        <ele>263</ele>
        <time>2021-10-30T11:15:20Z</time>
      </trkpt>
      <trkpt lat="46.48257" lon="5.36801">
        <ele>262.4</ele>
        <time>2021-10-30T11:15:21Z</time>
      </trkpt>
      <trkpt lat="46.48248" lon="5.36793">
        <ele>261.2</ele>
        <time>2021-10-30T11:15:22Z</time>
      </trkpt>
      <trkpt lat="46.4823" lon="5.36777">
        <ele>260.2</ele>
        <time>2021-10-30T11:15:24Z</time>
      </trkpt>
      <trkpt lat="46.48212" lon="5.36761">
        <ele>258.8</ele>
        <time>2021-10-30T11:15:26Z</time>
      </trkpt>
      <trkpt lat="46.48194" lon="5.36746">
        <ele>257.2</ele>
        <time>2021-10-30T11:15:28Z</time>
      </trkpt>
      <trkpt lat="46.48187" lon="5.36741">
        <ele>256</ele>
        <time>2021-10-30T11:15:29Z</time>
      </trkpt>
      <trkpt lat="46.48168" lon="5.36726">
        <ele>254.4</ele>
        <time>2021-10-30T11:15:31Z</time>
      </trkpt>
      <trkpt lat="46.48151" lon="5.36712">
        <ele>253.4</ele>
        <time>2021-10-30T11:15:33Z</time>
      </trkpt>
      <trkpt lat="46.48128" lon="5.36693">
        <ele>251.4</ele>
        <time>2021-10-30T11:15:36Z</time>
      </trkpt>
      <trkpt lat="46.48115" lon="5.36677">
        <ele>250.2</ele>
        <time>2021-10-30T11:15:39Z</time>
      </trkpt>
      <trkpt lat="46.48121" lon="5.36658">
        <ele>249.4</ele>
        <time>2021-10-30T11:15:42Z</time>
      </trkpt>
      <trkpt lat="46.48126" lon="5.36653">
        <ele>249</ele>
        <time>2021-10-30T11:15:43Z</time>
      </trkpt>
      <trkpt lat="46.48144" lon="5.36635">
        <ele>248.2</ele>
        <time>2021-10-30T11:15:46Z</time>
      </trkpt>
      <trkpt lat="46.4815" lon="5.36629">
        <ele>247.8</ele>
        <time>2021-10-30T11:15:47Z</time>
      </trkpt>
      <trkpt lat="46.48161" lon="5.36618">
        <ele>247</ele>
        <time>2021-10-30T11:15:49Z</time>
      </trkpt>
      <trkpt lat="46.48176" lon="5.36606">
        <ele>246.6</ele>
        <time>2021-10-30T11:15:51Z</time>
      </trkpt>
      <trkpt lat="46.48182" lon="5.36601">
        <ele>246.2</ele>
        <time>2021-10-30T11:15:52Z</time>
      </trkpt>
      <trkpt lat="46.48208" lon="5.36593">
        <ele>245.8</ele>
        <time>2021-10-30T11:15:55Z</time>
      </trkpt>
      <trkpt lat="46.48221" lon="5.36584">
        <ele>245.8</ele>
        <time>2021-10-30T11:15:57Z</time>
      </trkpt>
      <trkpt lat="46.48226" lon="5.36573">
        <ele>245.8</ele>
        <time>2021-10-30T11:15:58Z</time>
      </trkpt>
      <trkpt lat="46.48231" lon="5.36553">
        <ele>245.6</ele>
        <time>2021-10-30T11:16:00Z</time>
      </trkpt>
      <trkpt lat="46.48236" lon="5.36545">
        <ele>245.4</ele>
        <time>2021-10-30T11:16:01Z</time>
      </trkpt>
      <trkpt lat="46.48274" lon="5.36504">
        <ele>244.6</ele>
        <time>2021-10-30T11:16:07Z</time>
      </trkpt>
      <trkpt lat="46.48288" lon="5.36489">
        <ele>244.2</ele>
        <time>2021-10-30T11:16:09Z</time>
      </trkpt>
      <trkpt lat="46.48327" lon="5.36447">
        <ele>243.2</ele>
        <time>2021-10-30T11:16:15Z</time>
      </trkpt>
      <trkpt lat="46.48365" lon="5.36405">
        <ele>242</ele>
        <time>2021-10-30T11:16:20Z</time>
      </trkpt>
      <trkpt lat="46.4838" lon="5.36388">
        <ele>241.4</ele>
        <time>2021-10-30T11:16:22Z</time>
      </trkpt>
      <trkpt lat="46.48395" lon="5.36373">
        <ele>241</ele>
        <time>2021-10-30T11:16:25Z</time>
      </trkpt>
      <trkpt lat="46.4841" lon="5.36359">
        <ele>240.4</ele>
        <time>2021-10-30T11:16:26Z</time>
      </trkpt>
      <trkpt lat="46.48418" lon="5.36354">
        <ele>239.8</ele>
        <time>2021-10-30T11:16:27Z</time>
      </trkpt>
      <trkpt lat="46.48427" lon="5.3635">
        <ele>239.6</ele>
        <time>2021-10-30T11:16:28Z</time>
      </trkpt>
      <trkpt lat="46.48461" lon="5.36342">
        <ele>239.2</ele>
        <time>2021-10-30T11:16:32Z</time>
      </trkpt>
      <trkpt lat="46.48517" lon="5.36334">
        <ele>239.2</ele>
        <time>2021-10-30T11:16:39Z</time>
      </trkpt>
      <trkpt lat="46.48525" lon="5.36333">
        <ele>239.2</ele>
        <time>2021-10-30T11:16:40Z</time>
      </trkpt>
      <trkpt lat="46.48582" lon="5.36325">
        <ele>239.2</ele>
        <time>2021-10-30T11:16:47Z</time>
      </trkpt>
      <trkpt lat="46.48591" lon="5.36324">
        <ele>239.2</ele>
        <time>2021-10-30T11:16:48Z</time>
      </trkpt>
      <trkpt lat="46.486" lon="5.36323">
        <ele>238.6</ele>
        <time>2021-10-30T11:16:49Z</time>
      </trkpt>
      <trkpt lat="46.48617" lon="5.36313">
        <ele>238.2</ele>
        <time>2021-10-30T11:16:51Z</time>
      </trkpt>
      <trkpt lat="46.4863" lon="5.36291">
        <ele>237.4</ele>
        <time>2021-10-30T11:16:53Z</time>
      </trkpt>
      <trkpt lat="46.48637" lon="5.36263">
        <ele>236.6</ele>
        <time>2021-10-30T11:16:55Z</time>
      </trkpt>
      <trkpt lat="46.48639" lon="5.36248">
        <ele>236.4</ele>
        <time>2021-10-30T11:16:56Z</time>
      </trkpt>
      <trkpt lat="46.4864" lon="5.36234">
        <ele>235.2</ele>
        <time>2021-10-30T11:16:57Z</time>
      </trkpt>
      <trkpt lat="46.48643" lon="5.36205">
        <ele>234</ele>
        <time>2021-10-30T11:16:59Z</time>
      </trkpt>
      <trkpt lat="46.48646" lon="5.36162">
        <ele>233</ele>
        <time>2021-10-30T11:17:02Z</time>
      </trkpt>
      <trkpt lat="46.48647" lon="5.36148">
        <ele>232.6</ele>
        <time>2021-10-30T11:17:03Z</time>
      </trkpt>
      <trkpt lat="46.48649" lon="5.36135">
        <ele>232.4</ele>
        <time>2021-10-30T11:17:04Z</time>
      </trkpt>
      <trkpt lat="46.48659" lon="5.36084">
        <ele>231.8</ele>
        <time>2021-10-30T11:17:08Z</time>
      </trkpt>
      <trkpt lat="46.48671" lon="5.3603">
        <ele>231.4</ele>
        <time>2021-10-30T11:17:13Z</time>
      </trkpt>
      <trkpt lat="46.48677" lon="5.35993">
        <ele>231.4</ele>
        <time>2021-10-30T11:17:17Z</time>
      </trkpt>
      <trkpt lat="46.48677" lon="5.35983">
        <ele>231.6</ele>
        <time>2021-10-30T11:17:18Z</time>
      </trkpt>
      <trkpt lat="46.48681" lon="5.35953">
        <ele>232.8</ele>
        <time>2021-10-30T11:17:21Z</time>
      </trkpt>
      <trkpt lat="46.48686" lon="5.35921">
        <ele>233.2</ele>
        <time>2021-10-30T11:17:24Z</time>
      </trkpt>
      <trkpt lat="46.48699" lon="5.3588">
        <ele>233.4</ele>
        <time>2021-10-30T11:17:29Z</time>
      </trkpt>
      <trkpt lat="46.48711" lon="5.35852">
        <ele>233</ele>
        <time>2021-10-30T11:17:34Z</time>
      </trkpt>
      <trkpt lat="46.48717" lon="5.35837">
        <ele>232.6</ele>
        <time>2021-10-30T11:17:39Z</time>
      </trkpt>
      <trkpt lat="46.48718" lon="5.35836">
        <ele>232.2</ele>
        <time>2021-10-30T11:17:42Z</time>
      </trkpt>
      <trkpt lat="46.4872" lon="5.35831">
        <ele>232.2</ele>
        <time>2021-10-30T11:17:48Z</time>
      </trkpt>
      <trkpt lat="46.48729" lon="5.35809">
        <ele>231.8</ele>
        <time>2021-10-30T11:17:54Z</time>
      </trkpt>
      <trkpt lat="46.48732" lon="5.35803">
        <ele>231.8</ele>
        <time>2021-10-30T11:17:55Z</time>
      </trkpt>
      <trkpt lat="46.48737" lon="5.35791">
        <ele>231.4</ele>
        <time>2021-10-30T11:17:57Z</time>
      </trkpt>
      <trkpt lat="46.48743" lon="5.35777">
        <ele>231</ele>
        <time>2021-10-30T11:17:59Z</time>
      </trkpt>
      <trkpt lat="46.48747" lon="5.3577">
        <ele>230.8</ele>
        <time>2021-10-30T11:18:00Z</time>
      </trkpt>
      <trkpt lat="46.4876" lon="5.35736">
        <ele>230.6</ele>
        <time>2021-10-30T11:18:04Z</time>
      </trkpt>
      <trkpt lat="46.48768" lon="5.3572">
        <ele>230.6</ele>
        <time>2021-10-30T11:18:06Z</time>
      </trkpt>
      <trkpt lat="46.48788" lon="5.35678">
        <ele>230.4</ele>
        <time>2021-10-30T11:18:11Z</time>
      </trkpt>
      <trkpt lat="46.48812" lon="5.35621">
        <ele>230.4</ele>
        <time>2021-10-30T11:18:18Z</time>
      </trkpt>
      <trkpt lat="46.48826" lon="5.35589">
        <ele>230.6</ele>
        <time>2021-10-30T11:18:22Z</time>
      </trkpt>
      <trkpt lat="46.48836" lon="5.35575">
        <ele>230.8</ele>
        <time>2021-10-30T11:18:24Z</time>
      </trkpt>
      <trkpt lat="46.48847" lon="5.35567">
        <ele>230.8</ele>
        <time>2021-10-30T11:18:26Z</time>
      </trkpt>
      <trkpt lat="46.48853" lon="5.35564">
        <ele>230.8</ele>
        <time>2021-10-30T11:18:27Z</time>
      </trkpt>
      <trkpt lat="46.48861" lon="5.35563">
        <ele>230.8</ele>
        <time>2021-10-30T11:18:28Z</time>
      </trkpt>
      <trkpt lat="46.48891" lon="5.35561">
        <ele>230.6</ele>
        <time>2021-10-30T11:18:32Z</time>
      </trkpt>
      <trkpt lat="46.48938" lon="5.35558">
        <ele>229.6</ele>
        <time>2021-10-30T11:18:38Z</time>
      </trkpt>
      <trkpt lat="46.48982" lon="5.35555">
        <ele>228.2</ele>
        <time>2021-10-30T11:18:43Z</time>
      </trkpt>
      <trkpt lat="46.4899" lon="5.35555">
        <ele>228</ele>
        <time>2021-10-30T11:18:44Z</time>
      </trkpt>
      <trkpt lat="46.49039" lon="5.35552">
        <ele>227.2</ele>
        <time>2021-10-30T11:18:50Z</time>
      </trkpt>
      <trkpt lat="46.49046" lon="5.35552">
        <ele>227.2</ele>
        <time>2021-10-30T11:18:51Z</time>
      </trkpt>
      <trkpt lat="46.49101" lon="5.35548">
        <ele>228</ele>
        <time>2021-10-30T11:18:59Z</time>
      </trkpt>
      <trkpt lat="46.49108" lon="5.35548">
        <ele>228.2</ele>
        <time>2021-10-30T11:19:00Z</time>
      </trkpt>
      <trkpt lat="46.49134" lon="5.35547">
        <ele>229</ele>
        <time>2021-10-30T11:19:04Z</time>
      </trkpt>
      <trkpt lat="46.49141" lon="5.35547">
        <ele>229.2</ele>
        <time>2021-10-30T11:19:05Z</time>
      </trkpt>
      <trkpt lat="46.49159" lon="5.35546">
        <ele>229.8</ele>
        <time>2021-10-30T11:19:08Z</time>
      </trkpt>
      <trkpt lat="46.49165" lon="5.35546">
        <ele>229.8</ele>
        <time>2021-10-30T11:19:09Z</time>
      </trkpt>
      <trkpt lat="46.49182" lon="5.35547">
        <ele>230.4</ele>
        <time>2021-10-30T11:19:12Z</time>
      </trkpt>
      <trkpt lat="46.49207" lon="5.35546">
        <ele>231</ele>
        <time>2021-10-30T11:19:16Z</time>
      </trkpt>
      <trkpt lat="46.4923" lon="5.35543">
        <ele>231.4</ele>
        <time>2021-10-30T11:19:19Z</time>
      </trkpt>
      <trkpt lat="46.49238" lon="5.35542">
        <ele>231.4</ele>
        <time>2021-10-30T11:19:20Z</time>
      </trkpt>
      <trkpt lat="46.49277" lon="5.35536">
        <ele>231.8</ele>
        <time>2021-10-30T11:19:25Z</time>
      </trkpt>
      <trkpt lat="46.493" lon="5.35536">
        <ele>231.8</ele>
        <time>2021-10-30T11:19:28Z</time>
      </trkpt>
      <trkpt lat="46.49312" lon="5.35537">
        <ele>231.8</ele>
        <time>2021-10-30T11:19:30Z</time>
      </trkpt>
      <trkpt lat="46.4932" lon="5.35535">
        <ele>231.6</ele>
        <time>2021-10-30T11:19:31Z</time>
      </trkpt>
      <trkpt lat="46.49345" lon="5.35534">
        <ele>231.6</ele>
        <time>2021-10-30T11:19:34Z</time>
      </trkpt>
      <trkpt lat="46.49401" lon="5.3554">
        <ele>231</ele>
        <time>2021-10-30T11:19:41Z</time>
      </trkpt>
      <trkpt lat="46.49436" lon="5.35554">
        <ele>230</ele>
        <time>2021-10-30T11:19:46Z</time>
      </trkpt>
      <trkpt lat="46.49496" lon="5.3558">
        <ele>229.4</ele>
        <time>2021-10-30T11:19:54Z</time>
      </trkpt>
      <trkpt lat="46.49534" lon="5.35596">
        <ele>229</ele>
        <time>2021-10-30T11:19:59Z</time>
      </trkpt>
      <trkpt lat="46.49549" lon="5.35602">
        <ele>229</ele>
        <time>2021-10-30T11:20:01Z</time>
      </trkpt>
      <trkpt lat="46.49603" lon="5.3562">
        <ele>228.2</ele>
        <time>2021-10-30T11:20:08Z</time>
      </trkpt>
      <trkpt lat="46.49619" lon="5.35625">
        <ele>227.8</ele>
        <time>2021-10-30T11:20:10Z</time>
      </trkpt>
      <trkpt lat="46.49659" lon="5.35638">
        <ele>227.2</ele>
        <time>2021-10-30T11:20:15Z</time>
      </trkpt>
      <trkpt lat="46.49673" lon="5.35642">
        <ele>226.6</ele>
        <time>2021-10-30T11:20:17Z</time>
      </trkpt>
      <trkpt lat="46.49688" lon="5.35647">
        <ele>226.2</ele>
        <time>2021-10-30T11:20:20Z</time>
      </trkpt>
      <trkpt lat="46.49692" lon="5.35648">
        <ele>226</ele>
        <time>2021-10-30T11:20:21Z</time>
      </trkpt>
      <trkpt lat="46.49697" lon="5.35642">
        <ele>225.6</ele>
        <time>2021-10-30T11:20:23Z</time>
      </trkpt>
      <trkpt lat="46.49702" lon="5.3563">
        <ele>225.6</ele>
        <time>2021-10-30T11:20:25Z</time>
      </trkpt>
      <trkpt lat="46.49705" lon="5.35617">
        <ele>225.4</ele>
        <time>2021-10-30T11:20:27Z</time>
      </trkpt>
      <trkpt lat="46.4971" lon="5.35578">
        <ele>225</ele>
        <time>2021-10-30T11:20:31Z</time>
      </trkpt>
      <trkpt lat="46.49714" lon="5.35537">
        <ele>224.4</ele>
        <time>2021-10-30T11:20:35Z</time>
      </trkpt>
      <trkpt lat="46.49715" lon="5.35527">
        <ele>224.2</ele>
        <time>2021-10-30T11:20:36Z</time>
      </trkpt>
      <trkpt lat="46.49724" lon="5.35449">
        <ele>223.6</ele>
        <time>2021-10-30T11:20:43Z</time>
      </trkpt>
      <trkpt lat="46.49726" lon="5.35437">
        <ele>223.4</ele>
        <time>2021-10-30T11:20:44Z</time>
      </trkpt>
      <trkpt lat="46.49728" lon="5.35426">
        <ele>223.4</ele>
        <time>2021-10-30T11:20:45Z</time>
      </trkpt>
      <trkpt lat="46.49729" lon="5.35414">
        <ele>223.4</ele>
        <time>2021-10-30T11:20:46Z</time>
      </trkpt>
      <trkpt lat="46.49733" lon="5.35354">
        <ele>222.8</ele>
        <time>2021-10-30T11:20:51Z</time>
      </trkpt>
      <trkpt lat="46.49731" lon="5.35318">
        <ele>222.4</ele>
        <time>2021-10-30T11:20:54Z</time>
      </trkpt>
      <trkpt lat="46.49727" lon="5.35299">
        <ele>222.2</ele>
        <time>2021-10-30T11:20:56Z</time>
      </trkpt>
      <trkpt lat="46.49716" lon="5.35244">
        <ele>222.2</ele>
        <time>2021-10-30T11:21:02Z</time>
      </trkpt>
      <trkpt lat="46.49701" lon="5.35173">
        <ele>223</ele>
        <time>2021-10-30T11:21:09Z</time>
      </trkpt>
      <trkpt lat="46.49691" lon="5.35119">
        <ele>222.8</ele>
        <time>2021-10-30T11:21:14Z</time>
      </trkpt>
      <trkpt lat="46.4968" lon="5.35065">
        <ele>222.6</ele>
        <time>2021-10-30T11:21:19Z</time>
      </trkpt>
      <trkpt lat="46.4967" lon="5.35004">
        <ele>222.8</ele>
        <time>2021-10-30T11:21:25Z</time>
      </trkpt>
      <trkpt lat="46.49664" lon="5.34979">
        <ele>223.2</ele>
        <time>2021-10-30T11:21:28Z</time>
      </trkpt>
      <trkpt lat="46.49661" lon="5.34963">
        <ele>223.6</ele>
        <time>2021-10-30T11:21:30Z</time>
      </trkpt>
      <trkpt lat="46.49652" lon="5.3492">
        <ele>224.4</ele>
        <time>2021-10-30T11:21:35Z</time>
      </trkpt>
      <trkpt lat="46.49649" lon="5.34904">
        <ele>224.8</ele>
        <time>2021-10-30T11:21:37Z</time>
      </trkpt>
      <trkpt lat="46.49633" lon="5.34825">
        <ele>224.8</ele>
        <time>2021-10-30T11:21:46Z</time>
      </trkpt>
      <trkpt lat="46.49631" lon="5.34815">
        <ele>224.8</ele>
        <time>2021-10-30T11:21:47Z</time>
      </trkpt>
      <trkpt lat="46.49626" lon="5.34758">
        <ele>224.4</ele>
        <time>2021-10-30T11:21:52Z</time>
      </trkpt>
      <trkpt lat="46.49627" lon="5.34731">
        <ele>223.8</ele>
        <time>2021-10-30T11:21:54Z</time>
      </trkpt>
      <trkpt lat="46.49628" lon="5.34708">
        <ele>223.2</ele>
        <time>2021-10-30T11:21:56Z</time>
      </trkpt>
      <trkpt lat="46.49629" lon="5.34696">
        <ele>222.8</ele>
        <time>2021-10-30T11:21:57Z</time>
      </trkpt>
      <trkpt lat="46.49633" lon="5.34667">
        <ele>222</ele>
        <time>2021-10-30T11:21:59Z</time>
      </trkpt>
      <trkpt lat="46.49636" lon="5.3464">
        <ele>220.8</ele>
        <time>2021-10-30T11:22:01Z</time>
      </trkpt>
      <trkpt lat="46.49638" lon="5.34612">
        <ele>219.2</ele>
        <time>2021-10-30T11:22:03Z</time>
      </trkpt>
      <trkpt lat="46.49646" lon="5.34558">
        <ele>217.8</ele>
        <time>2021-10-30T11:22:07Z</time>
      </trkpt>
      <trkpt lat="46.49651" lon="5.34529">
        <ele>217.2</ele>
        <time>2021-10-30T11:22:09Z</time>
      </trkpt>
      <trkpt lat="46.49654" lon="5.34521">
        <ele>216.8</ele>
        <time>2021-10-30T11:22:10Z</time>
      </trkpt>
      <trkpt lat="46.49663" lon="5.34487">
        <ele>216.4</ele>
        <time>2021-10-30T11:22:13Z</time>
      </trkpt>
      <trkpt lat="46.49678" lon="5.34432">
        <ele>217.6</ele>
        <time>2021-10-30T11:22:19Z</time>
      </trkpt>
      <trkpt lat="46.49682" lon="5.34417">
        <ele>218</ele>
        <time>2021-10-30T11:22:21Z</time>
      </trkpt>
      <trkpt lat="46.49691" lon="5.34385">
        <ele>218.6</ele>
        <time>2021-10-30T11:22:25Z</time>
      </trkpt>
      <trkpt lat="46.49693" lon="5.34377">
        <ele>219</ele>
        <time>2021-10-30T11:22:26Z</time>
      </trkpt>
      <trkpt lat="46.49701" lon="5.34348">
        <ele>220</ele>
        <time>2021-10-30T11:22:30Z</time>
      </trkpt>
      <trkpt lat="46.49704" lon="5.3434">
        <ele>220</ele>
        <time>2021-10-30T11:22:31Z</time>
      </trkpt>
      <trkpt lat="46.49706" lon="5.34334">
        <ele>220.4</ele>
        <time>2021-10-30T11:22:32Z</time>
      </trkpt>
      <trkpt lat="46.49713" lon="5.34315">
        <ele>220.8</ele>
        <time>2021-10-30T11:22:35Z</time>
      </trkpt>
      <trkpt lat="46.49724" lon="5.34292">
        <ele>221.2</ele>
        <time>2021-10-30T11:22:38Z</time>
      </trkpt>
      <trkpt lat="46.49728" lon="5.34284">
        <ele>221.4</ele>
        <time>2021-10-30T11:22:39Z</time>
      </trkpt>
      <trkpt lat="46.4975" lon="5.34245">
        <ele>221.6</ele>
        <time>2021-10-30T11:22:44Z</time>
      </trkpt>
      <trkpt lat="46.49789" lon="5.34179">
        <ele>222.2</ele>
        <time>2021-10-30T11:22:53Z</time>
      </trkpt>
      <trkpt lat="46.49796" lon="5.34166">
        <ele>222.2</ele>
        <time>2021-10-30T11:22:55Z</time>
      </trkpt>
      <trkpt lat="46.49833" lon="5.34104">
        <ele>222.2</ele>
        <time>2021-10-30T11:23:04Z</time>
      </trkpt>
      <trkpt lat="46.49838" lon="5.34097">
        <ele>222.2</ele>
        <time>2021-10-30T11:23:05Z</time>
      </trkpt>
      <trkpt lat="46.4987" lon="5.34052">
        <ele>222</ele>
        <time>2021-10-30T11:23:11Z</time>
      </trkpt>
      <trkpt lat="46.49916" lon="5.34002">
        <ele>222</ele>
        <time>2021-10-30T11:23:20Z</time>
      </trkpt>
      <trkpt lat="46.49926" lon="5.33992">
        <ele>222.2</ele>
        <time>2021-10-30T11:23:22Z</time>
      </trkpt>
      <trkpt lat="46.49934" lon="5.33983">
        <ele>222.6</ele>
        <time>2021-10-30T11:23:24Z</time>
      </trkpt>
      <trkpt lat="46.49953" lon="5.33966">
        <ele>223.4</ele>
        <time>2021-10-30T11:23:28Z</time>
      </trkpt>
      <trkpt lat="46.49961" lon="5.33957">
        <ele>223.6</ele>
        <time>2021-10-30T11:23:30Z</time>
      </trkpt>
      <trkpt lat="46.49971" lon="5.33946">
        <ele>224</ele>
        <time>2021-10-30T11:23:32Z</time>
      </trkpt>
      <trkpt lat="46.4998" lon="5.33936">
        <ele>224.4</ele>
        <time>2021-10-30T11:23:34Z</time>
      </trkpt>
      <trkpt lat="46.49987" lon="5.33929">
        <ele>224.4</ele>
        <time>2021-10-30T11:23:35Z</time>
      </trkpt>
      <trkpt lat="46.50018" lon="5.33893">
        <ele>225</ele>
        <time>2021-10-30T11:23:41Z</time>
      </trkpt>
      <trkpt lat="46.50055" lon="5.33853">
        <ele>225</ele>
        <time>2021-10-30T11:23:47Z</time>
      </trkpt>
      <trkpt lat="46.50095" lon="5.3381">
        <ele>223.6</ele>
        <time>2021-10-30T11:23:53Z</time>
      </trkpt>
      <trkpt lat="46.50101" lon="5.33802">
        <ele>223.4</ele>
        <time>2021-10-30T11:23:54Z</time>
      </trkpt>
      <trkpt lat="46.50127" lon="5.33774">
        <ele>222</ele>
        <time>2021-10-30T11:23:58Z</time>
      </trkpt>
      <trkpt lat="46.50139" lon="5.33761">
        <ele>221.8</ele>
        <time>2021-10-30T11:24:00Z</time>
      </trkpt>
      <trkpt lat="46.50185" lon="5.3371">
        <ele>221.8</ele>
        <time>2021-10-30T11:24:08Z</time>
      </trkpt>
      <trkpt lat="46.50231" lon="5.33661">
        <ele>222.8</ele>
        <time>2021-10-30T11:24:16Z</time>
      </trkpt>
      <trkpt lat="46.50243" lon="5.33649">
        <ele>222.8</ele>
        <time>2021-10-30T11:24:18Z</time>
      </trkpt>
      <trkpt lat="46.5029" lon="5.33597">
        <ele>222.6</ele>
        <time>2021-10-30T11:24:26Z</time>
      </trkpt>
      <trkpt lat="46.50315" lon="5.33571">
        <ele>222.4</ele>
        <time>2021-10-30T11:24:30Z</time>
      </trkpt>
      <trkpt lat="46.50362" lon="5.33521">
        <ele>221.6</ele>
        <time>2021-10-30T11:24:38Z</time>
      </trkpt>
      <trkpt lat="46.50374" lon="5.33509">
        <ele>221.4</ele>
        <time>2021-10-30T11:24:40Z</time>
      </trkpt>
      <trkpt lat="46.50422" lon="5.33455">
        <ele>221</ele>
        <time>2021-10-30T11:24:48Z</time>
      </trkpt>
      <trkpt lat="46.50427" lon="5.3345">
        <ele>221</ele>
        <time>2021-10-30T11:24:49Z</time>
      </trkpt>
      <trkpt lat="46.50434" lon="5.33441">
        <ele>220.6</ele>
        <time>2021-10-30T11:24:50Z</time>
      </trkpt>
      <trkpt lat="46.50449" lon="5.33415">
        <ele>220.2</ele>
        <time>2021-10-30T11:24:53Z</time>
      </trkpt>
      <trkpt lat="46.50454" lon="5.33405">
        <ele>220.2</ele>
        <time>2021-10-30T11:24:54Z</time>
      </trkpt>
      <trkpt lat="46.50457" lon="5.33395">
        <ele>220</ele>
        <time>2021-10-30T11:24:55Z</time>
      </trkpt>
      <trkpt lat="46.50464" lon="5.33364">
        <ele>219.6</ele>
        <time>2021-10-30T11:24:58Z</time>
      </trkpt>
      <trkpt lat="46.50465" lon="5.33352">
        <ele>219.6</ele>
        <time>2021-10-30T11:24:59Z</time>
      </trkpt>
      <trkpt lat="46.50464" lon="5.33331">
        <ele>219.4</ele>
        <time>2021-10-30T11:25:01Z</time>
      </trkpt>
      <trkpt lat="46.50465" lon="5.33271">
        <ele>219.2</ele>
        <time>2021-10-30T11:25:07Z</time>
      </trkpt>
      <trkpt lat="46.50462" lon="5.33203">
        <ele>219.6</ele>
        <time>2021-10-30T11:25:14Z</time>
      </trkpt>
      <trkpt lat="46.50463" lon="5.33142">
        <ele>219.4</ele>
        <time>2021-10-30T11:25:20Z</time>
      </trkpt>
      <trkpt lat="46.50466" lon="5.33088">
        <ele>218.6</ele>
        <time>2021-10-30T11:25:24Z</time>
      </trkpt>
      <trkpt lat="46.50466" lon="5.33074">
        <ele>218</ele>
        <time>2021-10-30T11:25:25Z</time>
      </trkpt>
      <trkpt lat="46.5047" lon="5.33015">
        <ele>216.2</ele>
        <time>2021-10-30T11:25:29Z</time>
      </trkpt>
      <trkpt lat="46.50472" lon="5.32968">
        <ele>214.8</ele>
        <time>2021-10-30T11:25:32Z</time>
      </trkpt>
      <trkpt lat="46.50473" lon="5.32937">
        <ele>213.4</ele>
        <time>2021-10-30T11:25:34Z</time>
      </trkpt>
      <trkpt lat="46.50473" lon="5.32906">
        <ele>212.4</ele>
        <time>2021-10-30T11:25:36Z</time>
      </trkpt>
      <trkpt lat="46.50474" lon="5.32892">
        <ele>211.6</ele>
        <time>2021-10-30T11:25:37Z</time>
      </trkpt>
      <trkpt lat="46.50475" lon="5.32828">
        <ele>209.8</ele>
        <time>2021-10-30T11:25:41Z</time>
      </trkpt>
      <trkpt lat="46.50475" lon="5.32815">
        <ele>209.4</ele>
        <time>2021-10-30T11:25:42Z</time>
      </trkpt>
      <trkpt lat="46.50475" lon="5.328">
        <ele>208.6</ele>
        <time>2021-10-30T11:25:43Z</time>
      </trkpt>
      <trkpt lat="46.50476" lon="5.32766">
        <ele>207.6</ele>
        <time>2021-10-30T11:25:45Z</time>
      </trkpt>
      <trkpt lat="46.50476" lon="5.32723">
        <ele>206.2</ele>
        <time>2021-10-30T11:25:48Z</time>
      </trkpt>
      <trkpt lat="46.50477" lon="5.32696">
        <ele>205.8</ele>
        <time>2021-10-30T11:25:50Z</time>
      </trkpt>
      <trkpt lat="46.50478" lon="5.3263">
        <ele>205.2</ele>
        <time>2021-10-30T11:25:55Z</time>
      </trkpt>
      <trkpt lat="46.50475" lon="5.32554">
        <ele>204.2</ele>
        <time>2021-10-30T11:26:01Z</time>
      </trkpt>
      <trkpt lat="46.50475" lon="5.32541">
        <ele>204</ele>
        <time>2021-10-30T11:26:02Z</time>
      </trkpt>
      <trkpt lat="46.50468" lon="5.32456">
        <ele>203.6</ele>
        <time>2021-10-30T11:26:09Z</time>
      </trkpt>
      <trkpt lat="46.50454" lon="5.32377">
        <ele>203</ele>
        <time>2021-10-30T11:26:16Z</time>
      </trkpt>
      <trkpt lat="46.50451" lon="5.32364">
        <ele>203</ele>
        <time>2021-10-30T11:26:17Z</time>
      </trkpt>
      <trkpt lat="46.50438" lon="5.32303">
        <ele>202.8</ele>
        <time>2021-10-30T11:26:23Z</time>
      </trkpt>
      <trkpt lat="46.50431" lon="5.32241">
        <ele>202.8</ele>
        <time>2021-10-30T11:26:29Z</time>
      </trkpt>
      <trkpt lat="46.50431" lon="5.32162">
        <ele>202.6</ele>
        <time>2021-10-30T11:26:36Z</time>
      </trkpt>
      <trkpt lat="46.50431" lon="5.3215">
        <ele>202.4</ele>
        <time>2021-10-30T11:26:37Z</time>
      </trkpt>
      <trkpt lat="46.50432" lon="5.32115">
        <ele>202</ele>
        <time>2021-10-30T11:26:40Z</time>
      </trkpt>
      <trkpt lat="46.50434" lon="5.32032">
        <ele>200.8</ele>
        <time>2021-10-30T11:26:47Z</time>
      </trkpt>
      <trkpt lat="46.50437" lon="5.31953">
        <ele>199.8</ele>
        <time>2021-10-30T11:26:54Z</time>
      </trkpt>
      <trkpt lat="46.50437" lon="5.3193">
        <ele>199.6</ele>
        <time>2021-10-30T11:26:56Z</time>
      </trkpt>
      <trkpt lat="46.50435" lon="5.31854">
        <ele>199.6</ele>
        <time>2021-10-30T11:27:03Z</time>
      </trkpt>
      <trkpt lat="46.50419" lon="5.31785">
        <ele>199.4</ele>
        <time>2021-10-30T11:27:10Z</time>
      </trkpt>
      <trkpt lat="46.504" lon="5.31728">
        <ele>199</ele>
        <time>2021-10-30T11:27:16Z</time>
      </trkpt>
      <trkpt lat="46.50368" lon="5.3167">
        <ele>198.8</ele>
        <time>2021-10-30T11:27:23Z</time>
      </trkpt>
      <trkpt lat="46.50343" lon="5.31645">
        <ele>198.6</ele>
        <time>2021-10-30T11:27:27Z</time>
      </trkpt>
      <trkpt lat="46.50337" lon="5.3164">
        <ele>198.6</ele>
        <time>2021-10-30T11:27:28Z</time>
      </trkpt>
      <trkpt lat="46.50288" lon="5.31603">
        <ele>198</ele>
        <time>2021-10-30T11:27:36Z</time>
      </trkpt>
      <trkpt lat="46.50276" lon="5.31592">
        <ele>198</ele>
        <time>2021-10-30T11:27:38Z</time>
      </trkpt>
      <trkpt lat="46.50248" lon="5.31564">
        <ele>198</ele>
        <time>2021-10-30T11:27:43Z</time>
      </trkpt>
      <trkpt lat="46.50243" lon="5.31558">
        <ele>198</ele>
        <time>2021-10-30T11:27:44Z</time>
      </trkpt>
      <trkpt lat="46.50233" lon="5.31544">
        <ele>198.2</ele>
        <time>2021-10-30T11:27:46Z</time>
      </trkpt>
      <trkpt lat="46.50218" lon="5.31516">
        <ele>198.6</ele>
        <time>2021-10-30T11:27:50Z</time>
      </trkpt>
      <trkpt lat="46.50207" lon="5.31489">
        <ele>199.6</ele>
        <time>2021-10-30T11:27:54Z</time>
      </trkpt>
      <trkpt lat="46.50203" lon="5.31477">
        <ele>200</ele>
        <time>2021-10-30T11:27:56Z</time>
      </trkpt>
      <trkpt lat="46.50197" lon="5.31459">
        <ele>200.8</ele>
        <time>2021-10-30T11:27:59Z</time>
      </trkpt>
      <trkpt lat="46.50192" lon="5.31441">
        <ele>201.4</ele>
        <time>2021-10-30T11:28:02Z</time>
      </trkpt>
      <trkpt lat="46.50187" lon="5.31423">
        <ele>202</ele>
        <time>2021-10-30T11:28:05Z</time>
      </trkpt>
      <trkpt lat="46.50176" lon="5.31394">
        <ele>203.4</ele>
        <time>2021-10-30T11:28:10Z</time>
      </trkpt>
      <trkpt lat="46.50166" lon="5.31366">
        <ele>204.4</ele>
        <time>2021-10-30T11:28:15Z</time>
      </trkpt>
      <trkpt lat="46.50157" lon="5.31342">
        <ele>205</ele>
        <time>2021-10-30T11:28:19Z</time>
      </trkpt>
      <trkpt lat="46.5015" lon="5.31322">
        <ele>205.6</ele>
        <time>2021-10-30T11:28:22Z</time>
      </trkpt>
      <trkpt lat="46.50141" lon="5.31295">
        <ele>206.2</ele>
        <time>2021-10-30T11:28:26Z</time>
      </trkpt>
      <trkpt lat="46.50131" lon="5.31266">
        <ele>206.6</ele>
        <time>2021-10-30T11:28:30Z</time>
      </trkpt>
      <trkpt lat="46.50123" lon="5.31242">
        <ele>206.6</ele>
        <time>2021-10-30T11:28:33Z</time>
      </trkpt>
      <trkpt lat="46.50098" lon="5.31169">
        <ele>205.6</ele>
        <time>2021-10-30T11:28:41Z</time>
      </trkpt>
      <trkpt lat="46.50095" lon="5.31159">
        <ele>205.4</ele>
        <time>2021-10-30T11:28:42Z</time>
      </trkpt>
      <trkpt lat="46.50078" lon="5.3111">
        <ele>204.4</ele>
        <time>2021-10-30T11:28:47Z</time>
      </trkpt>
      <trkpt lat="46.50069" lon="5.31083">
        <ele>204</ele>
        <time>2021-10-30T11:28:50Z</time>
      </trkpt>
      <trkpt lat="46.50053" lon="5.31038">
        <ele>204.6</ele>
        <time>2021-10-30T11:28:56Z</time>
      </trkpt>
      <trkpt lat="46.50048" lon="5.31021">
        <ele>205.6</ele>
        <time>2021-10-30T11:28:59Z</time>
      </trkpt>
      <trkpt lat="46.50043" lon="5.31004">
        <ele>206.6</ele>
        <time>2021-10-30T11:29:02Z</time>
      </trkpt>
      <trkpt lat="46.50039" lon="5.30993">
        <ele>207</ele>
        <time>2021-10-30T11:29:04Z</time>
      </trkpt>
      <trkpt lat="46.50034" lon="5.30976">
        <ele>207.8</ele>
        <time>2021-10-30T11:29:07Z</time>
      </trkpt>
      <trkpt lat="46.50032" lon="5.3097">
        <ele>208</ele>
        <time>2021-10-30T11:29:08Z</time>
      </trkpt>
      <trkpt lat="46.50023" lon="5.30948">
        <ele>209.2</ele>
        <time>2021-10-30T11:29:12Z</time>
      </trkpt>
      <trkpt lat="46.50014" lon="5.30921">
        <ele>210.4</ele>
        <time>2021-10-30T11:29:17Z</time>
      </trkpt>
      <trkpt lat="46.50003" lon="5.30895">
        <ele>211.6</ele>
        <time>2021-10-30T11:29:22Z</time>
      </trkpt>
      <trkpt lat="46.49996" lon="5.30873">
        <ele>212.8</ele>
        <time>2021-10-30T11:29:26Z</time>
      </trkpt>
      <trkpt lat="46.49987" lon="5.30849">
        <ele>214</ele>
        <time>2021-10-30T11:29:30Z</time>
      </trkpt>
      <trkpt lat="46.49979" lon="5.30826">
        <ele>214.8</ele>
        <time>2021-10-30T11:29:34Z</time>
      </trkpt>
      <trkpt lat="46.49973" lon="5.30807">
        <ele>215.2</ele>
        <time>2021-10-30T11:29:37Z</time>
      </trkpt>
      <trkpt lat="46.49965" lon="5.30774">
        <ele>215.8</ele>
        <time>2021-10-30T11:29:42Z</time>
      </trkpt>
      <trkpt lat="46.4996" lon="5.30754">
        <ele>216.2</ele>
        <time>2021-10-30T11:29:45Z</time>
      </trkpt>
      <trkpt lat="46.49955" lon="5.30726">
        <ele>216.6</ele>
        <time>2021-10-30T11:29:49Z</time>
      </trkpt>
      <trkpt lat="46.49947" lon="5.30679">
        <ele>216.6</ele>
        <time>2021-10-30T11:29:55Z</time>
      </trkpt>
      <trkpt lat="46.49934" lon="5.30611">
        <ele>215.6</ele>
        <time>2021-10-30T11:30:02Z</time>
      </trkpt>
      <trkpt lat="46.49933" lon="5.306">
        <ele>215.2</ele>
        <time>2021-10-30T11:30:03Z</time>
      </trkpt>
      <trkpt lat="46.49932" lon="5.30565">
        <ele>214.2</ele>
        <time>2021-10-30T11:30:06Z</time>
      </trkpt>
      <trkpt lat="46.49933" lon="5.30554">
        <ele>213.4</ele>
        <time>2021-10-30T11:30:07Z</time>
      </trkpt>
      <trkpt lat="46.49934" lon="5.30542">
        <ele>213.2</ele>
        <time>2021-10-30T11:30:08Z</time>
      </trkpt>
      <trkpt lat="46.49939" lon="5.30519">
        <ele>212.6</ele>
        <time>2021-10-30T11:30:10Z</time>
      </trkpt>
      <trkpt lat="46.49942" lon="5.30507">
        <ele>212.6</ele>
        <time>2021-10-30T11:30:11Z</time>
      </trkpt>
      <trkpt lat="46.49957" lon="5.30474">
        <ele>212.4</ele>
        <time>2021-10-30T11:30:14Z</time>
      </trkpt>
      <trkpt lat="46.4997" lon="5.30455">
        <ele>212</ele>
        <time>2021-10-30T11:30:16Z</time>
      </trkpt>
      <trkpt lat="46.49986" lon="5.30439">
        <ele>211.4</ele>
        <time>2021-10-30T11:30:18Z</time>
      </trkpt>
      <trkpt lat="46.49995" lon="5.30432">
        <ele>210.8</ele>
        <time>2021-10-30T11:30:19Z</time>
      </trkpt>
      <trkpt lat="46.50021" lon="5.30411">
        <ele>209.6</ele>
        <time>2021-10-30T11:30:22Z</time>
      </trkpt>
      <trkpt lat="46.50038" lon="5.30397">
        <ele>209</ele>
        <time>2021-10-30T11:30:24Z</time>
      </trkpt>
      <trkpt lat="46.50045" lon="5.30389">
        <ele>208.6</ele>
        <time>2021-10-30T11:30:25Z</time>
      </trkpt>
      <trkpt lat="46.50052" lon="5.3038">
        <ele>208.2</ele>
        <time>2021-10-30T11:30:26Z</time>
      </trkpt>
      <trkpt lat="46.50064" lon="5.3036">
        <ele>208</ele>
        <time>2021-10-30T11:30:28Z</time>
      </trkpt>
      <trkpt lat="46.50069" lon="5.3035">
        <ele>207.8</ele>
        <time>2021-10-30T11:30:29Z</time>
      </trkpt>
      <trkpt lat="46.50079" lon="5.30319">
        <ele>207.8</ele>
        <time>2021-10-30T11:30:32Z</time>
      </trkpt>
      <trkpt lat="46.50087" lon="5.3027">
        <ele>208.4</ele>
        <time>2021-10-30T11:30:37Z</time>
      </trkpt>
      <trkpt lat="46.50088" lon="5.30244">
        <ele>209.2</ele>
        <time>2021-10-30T11:30:40Z</time>
      </trkpt>
      <trkpt lat="46.50089" lon="5.30228">
        <ele>209.4</ele>
        <time>2021-10-30T11:30:42Z</time>
      </trkpt>
      <trkpt lat="46.50089" lon="5.3022">
        <ele>209.6</ele>
        <time>2021-10-30T11:30:43Z</time>
      </trkpt>
      <trkpt lat="46.50089" lon="5.30189">
        <ele>209.6</ele>
        <time>2021-10-30T11:30:46Z</time>
      </trkpt>
      <trkpt lat="46.50089" lon="5.30151">
        <ele>209.8</ele>
        <time>2021-10-30T11:30:50Z</time>
      </trkpt>
      <trkpt lat="46.50089" lon="5.30133">
        <ele>210</ele>
        <time>2021-10-30T11:30:52Z</time>
      </trkpt>
      <trkpt lat="46.50089" lon="5.3011">
        <ele>210.2</ele>
        <time>2021-10-30T11:30:54Z</time>
      </trkpt>
      <trkpt lat="46.50088" lon="5.30048">
        <ele>211.2</ele>
        <time>2021-10-30T11:31:00Z</time>
      </trkpt>
      <trkpt lat="46.50083" lon="5.29987">
        <ele>211.4</ele>
        <time>2021-10-30T11:31:06Z</time>
      </trkpt>
      <trkpt lat="46.50076" lon="5.29959">
        <ele>211.4</ele>
        <time>2021-10-30T11:31:09Z</time>
      </trkpt>
      <trkpt lat="46.5007" lon="5.29941">
        <ele>211.4</ele>
        <time>2021-10-30T11:31:11Z</time>
      </trkpt>
      <trkpt lat="46.50043" lon="5.29893">
        <ele>211</ele>
        <time>2021-10-30T11:31:17Z</time>
      </trkpt>
      <trkpt lat="46.5002" lon="5.29868">
        <ele>210</ele>
        <time>2021-10-30T11:31:21Z</time>
      </trkpt>
      <trkpt lat="46.50007" lon="5.29858">
        <ele>209.8</ele>
        <time>2021-10-30T11:31:23Z</time>
      </trkpt>
      <trkpt lat="46.50001" lon="5.29855">
        <ele>209.6</ele>
        <time>2021-10-30T11:31:24Z</time>
      </trkpt>
      <trkpt lat="46.49994" lon="5.29853">
        <ele>209.6</ele>
        <time>2021-10-30T11:31:25Z</time>
      </trkpt>
      <trkpt lat="46.49967" lon="5.29849">
        <ele>209.6</ele>
        <time>2021-10-30T11:31:29Z</time>
      </trkpt>
      <trkpt lat="46.49936" lon="5.29842">
        <ele>209.8</ele>
        <time>2021-10-30T11:31:34Z</time>
      </trkpt>
      <trkpt lat="46.49897" lon="5.29829">
        <ele>210.8</ele>
        <time>2021-10-30T11:31:41Z</time>
      </trkpt>
      <trkpt lat="46.49886" lon="5.29825">
        <ele>211</ele>
        <time>2021-10-30T11:31:43Z</time>
      </trkpt>
      <trkpt lat="46.49881" lon="5.29822">
        <ele>211.4</ele>
        <time>2021-10-30T11:31:44Z</time>
      </trkpt>
      <trkpt lat="46.49876" lon="5.29819">
        <ele>211.4</ele>
        <time>2021-10-30T11:31:45Z</time>
      </trkpt>
      <trkpt lat="46.49863" lon="5.29814">
        <ele>211.8</ele>
        <time>2021-10-30T11:31:47Z</time>
      </trkpt>
      <trkpt lat="46.49848" lon="5.29808">
        <ele>212.4</ele>
        <time>2021-10-30T11:31:50Z</time>
      </trkpt>
      <trkpt lat="46.4982" lon="5.29799">
        <ele>213.2</ele>
        <time>2021-10-30T11:31:55Z</time>
      </trkpt>
      <trkpt lat="46.49809" lon="5.29795">
        <ele>213.4</ele>
        <time>2021-10-30T11:31:57Z</time>
      </trkpt>
      <trkpt lat="46.49782" lon="5.29787">
        <ele>213.4</ele>
        <time>2021-10-30T11:32:02Z</time>
      </trkpt>
      <trkpt lat="46.49754" lon="5.29782">
        <ele>213.4</ele>
        <time>2021-10-30T11:32:07Z</time>
      </trkpt>
      <trkpt lat="46.49745" lon="5.29774">
        <ele>213.4</ele>
        <time>2021-10-30T11:32:09Z</time>
      </trkpt>
      <trkpt lat="46.49724" lon="5.29728">
        <ele>213.4</ele>
        <time>2021-10-30T11:32:15Z</time>
      </trkpt>
      <trkpt lat="46.49699" lon="5.29685">
        <ele>213.2</ele>
        <time>2021-10-30T11:32:21Z</time>
      </trkpt>
      <trkpt lat="46.49669" lon="5.29632">
        <ele>213.4</ele>
        <time>2021-10-30T11:32:29Z</time>
      </trkpt>
      <trkpt lat="46.49644" lon="5.29586">
        <ele>214.4</ele>
        <time>2021-10-30T11:32:36Z</time>
      </trkpt>
      <trkpt lat="46.49641" lon="5.29581">
        <ele>214.4</ele>
        <time>2021-10-30T11:32:37Z</time>
      </trkpt>
      <trkpt lat="46.49611" lon="5.29528">
        <ele>215</ele>
        <time>2021-10-30T11:32:45Z</time>
      </trkpt>
      <trkpt lat="46.4958" lon="5.29472">
        <ele>214.8</ele>
        <time>2021-10-30T11:32:53Z</time>
      </trkpt>
      <trkpt lat="46.49548" lon="5.29413">
        <ele>214.4</ele>
        <time>2021-10-30T11:33:01Z</time>
      </trkpt>
      <trkpt lat="46.49526" lon="5.29372">
        <ele>213.8</ele>
        <time>2021-10-30T11:33:06Z</time>
      </trkpt>
      <trkpt lat="46.49522" lon="5.29362">
        <ele>213.6</ele>
        <time>2021-10-30T11:33:07Z</time>
      </trkpt>
      <trkpt lat="46.49518" lon="5.29351">
        <ele>213.2</ele>
        <time>2021-10-30T11:33:08Z</time>
      </trkpt>
      <trkpt lat="46.49515" lon="5.29337">
        <ele>212.6</ele>
        <time>2021-10-30T11:33:09Z</time>
      </trkpt>
      <trkpt lat="46.49513" lon="5.29327">
        <ele>212.4</ele>
        <time>2021-10-30T11:33:10Z</time>
      </trkpt>
      <trkpt lat="46.49512" lon="5.29314">
        <ele>212</ele>
        <time>2021-10-30T11:33:11Z</time>
      </trkpt>
      <trkpt lat="46.49511" lon="5.293">
        <ele>211.6</ele>
        <time>2021-10-30T11:33:12Z</time>
      </trkpt>
      <trkpt lat="46.49511" lon="5.29287">
        <ele>210.8</ele>
        <time>2021-10-30T11:33:13Z</time>
      </trkpt>
      <trkpt lat="46.49513" lon="5.2927">
        <ele>210.6</ele>
        <time>2021-10-30T11:33:14Z</time>
      </trkpt>
      <trkpt lat="46.49515" lon="5.29256">
        <ele>209.6</ele>
        <time>2021-10-30T11:33:15Z</time>
      </trkpt>
      <trkpt lat="46.49519" lon="5.29242">
        <ele>209</ele>
        <time>2021-10-30T11:33:16Z</time>
      </trkpt>
      <trkpt lat="46.49522" lon="5.29231">
        <ele>208.8</ele>
        <time>2021-10-30T11:33:17Z</time>
      </trkpt>
      <trkpt lat="46.49528" lon="5.29218">
        <ele>208.6</ele>
        <time>2021-10-30T11:33:18Z</time>
      </trkpt>
      <trkpt lat="46.49541" lon="5.29189">
        <ele>207.4</ele>
        <time>2021-10-30T11:33:20Z</time>
      </trkpt>
      <trkpt lat="46.49552" lon="5.29165">
        <ele>205.6</ele>
        <time>2021-10-30T11:33:22Z</time>
      </trkpt>
      <trkpt lat="46.49558" lon="5.29151">
        <ele>205.2</ele>
        <time>2021-10-30T11:33:23Z</time>
      </trkpt>
      <trkpt lat="46.49563" lon="5.29133">
        <ele>204</ele>
        <time>2021-10-30T11:33:24Z</time>
      </trkpt>
      <trkpt lat="46.49567" lon="5.29118">
        <ele>203.4</ele>
        <time>2021-10-30T11:33:25Z</time>
      </trkpt>
      <trkpt lat="46.49572" lon="5.29088">
        <ele>202.8</ele>
        <time>2021-10-30T11:33:27Z</time>
      </trkpt>
      <trkpt lat="46.49582" lon="5.29035">
        <ele>201.6</ele>
        <time>2021-10-30T11:33:30Z</time>
      </trkpt>
      <trkpt lat="46.49584" lon="5.29021">
        <ele>200.2</ele>
        <time>2021-10-30T11:33:31Z</time>
      </trkpt>
      <trkpt lat="46.49587" lon="5.29005">
        <ele>198.6</ele>
        <time>2021-10-30T11:33:32Z</time>
      </trkpt>
      <trkpt lat="46.49594" lon="5.28968">
        <ele>196.6</ele>
        <time>2021-10-30T11:33:34Z</time>
      </trkpt>
      <trkpt lat="46.496" lon="5.28939">
        <ele>195.4</ele>
        <time>2021-10-30T11:33:36Z</time>
      </trkpt>
      <trkpt lat="46.49606" lon="5.28904">
        <ele>193.8</ele>
        <time>2021-10-30T11:33:38Z</time>
      </trkpt>
      <trkpt lat="46.49612" lon="5.28873">
        <ele>193</ele>
        <time>2021-10-30T11:33:40Z</time>
      </trkpt>
      <trkpt lat="46.49614" lon="5.28861">
        <ele>192.8</ele>
        <time>2021-10-30T11:33:41Z</time>
      </trkpt>
      <trkpt lat="46.49629" lon="5.28777">
        <ele>191.8</ele>
        <time>2021-10-30T11:33:47Z</time>
      </trkpt>
      <trkpt lat="46.49645" lon="5.28701">
        <ele>191.8</ele>
        <time>2021-10-30T11:33:53Z</time>
      </trkpt>
      <trkpt lat="46.49648" lon="5.28687">
        <ele>191.8</ele>
        <time>2021-10-30T11:33:54Z</time>
      </trkpt>
      <trkpt lat="46.49668" lon="5.28609">
        <ele>192</ele>
        <time>2021-10-30T11:34:01Z</time>
      </trkpt>
      <trkpt lat="46.49671" lon="5.28596">
        <ele>192.2</ele>
        <time>2021-10-30T11:34:02Z</time>
      </trkpt>
      <trkpt lat="46.49684" lon="5.28528">
        <ele>193.4</ele>
        <time>2021-10-30T11:34:09Z</time>
      </trkpt>
      <trkpt lat="46.49691" lon="5.28494">
        <ele>193.8</ele>
        <time>2021-10-30T11:34:12Z</time>
      </trkpt>
      <trkpt lat="46.49692" lon="5.28483">
        <ele>193.8</ele>
        <time>2021-10-30T11:34:13Z</time>
      </trkpt>
      <trkpt lat="46.49696" lon="5.28451">
        <ele>194</ele>
        <time>2021-10-30T11:34:16Z</time>
      </trkpt>
      <trkpt lat="46.4971" lon="5.2837">
        <ele>193.6</ele>
        <time>2021-10-30T11:34:23Z</time>
      </trkpt>
      <trkpt lat="46.49734" lon="5.28287">
        <ele>192.8</ele>
        <time>2021-10-30T11:34:31Z</time>
      </trkpt>
      <trkpt lat="46.49738" lon="5.28267">
        <ele>192.8</ele>
        <time>2021-10-30T11:34:33Z</time>
      </trkpt>
      <trkpt lat="46.49754" lon="5.28181">
        <ele>193.2</ele>
        <time>2021-10-30T11:34:41Z</time>
      </trkpt>
      <trkpt lat="46.49762" lon="5.28128">
        <ele>192.8</ele>
        <time>2021-10-30T11:34:46Z</time>
      </trkpt>
      <trkpt lat="46.49766" lon="5.28098">
        <ele>192.6</ele>
        <time>2021-10-30T11:34:49Z</time>
      </trkpt>
      <trkpt lat="46.49768" lon="5.28024">
        <ele>192.8</ele>
        <time>2021-10-30T11:34:56Z</time>
      </trkpt>
      <trkpt lat="46.49766" lon="5.27949">
        <ele>193.6</ele>
        <time>2021-10-30T11:35:04Z</time>
      </trkpt>
      <trkpt lat="46.49766" lon="5.27914">
        <ele>194.2</ele>
        <time>2021-10-30T11:35:08Z</time>
      </trkpt>
      <trkpt lat="46.49765" lon="5.2788">
        <ele>194.8</ele>
        <time>2021-10-30T11:35:12Z</time>
      </trkpt>
      <trkpt lat="46.49761" lon="5.27831">
        <ele>195.2</ele>
        <time>2021-10-30T11:35:18Z</time>
      </trkpt>
      <trkpt lat="46.49758" lon="5.27815">
        <ele>195.4</ele>
        <time>2021-10-30T11:35:20Z</time>
      </trkpt>
      <trkpt lat="46.49748" lon="5.2776">
        <ele>195.8</ele>
        <time>2021-10-30T11:35:27Z</time>
      </trkpt>
      <trkpt lat="46.49745" lon="5.27745">
        <ele>196.4</ele>
        <time>2021-10-30T11:35:29Z</time>
      </trkpt>
      <trkpt lat="46.49738" lon="5.27698">
        <ele>197.4</ele>
        <time>2021-10-30T11:35:36Z</time>
      </trkpt>
      <trkpt lat="46.49736" lon="5.27691">
        <ele>197.4</ele>
        <time>2021-10-30T11:35:37Z</time>
      </trkpt>
      <trkpt lat="46.4973" lon="5.27648">
        <ele>198.4</ele>
        <time>2021-10-30T11:35:44Z</time>
      </trkpt>
      <trkpt lat="46.49729" lon="5.27642">
        <ele>198.6</ele>
        <time>2021-10-30T11:35:45Z</time>
      </trkpt>
      <trkpt lat="46.49725" lon="5.27604">
        <ele>199.8</ele>
        <time>2021-10-30T11:35:51Z</time>
      </trkpt>
      <trkpt lat="46.49725" lon="5.27591">
        <ele>200.2</ele>
        <time>2021-10-30T11:35:53Z</time>
      </trkpt>
      <trkpt lat="46.49726" lon="5.27572">
        <ele>200.8</ele>
        <time>2021-10-30T11:35:56Z</time>
      </trkpt>
      <trkpt lat="46.49727" lon="5.27535">
        <ele>201.6</ele>
        <time>2021-10-30T11:36:02Z</time>
      </trkpt>
      <trkpt lat="46.49727" lon="5.27529">
        <ele>202</ele>
        <time>2021-10-30T11:36:03Z</time>
      </trkpt>
      <trkpt lat="46.49728" lon="5.27505">
        <ele>203</ele>
        <time>2021-10-30T11:36:07Z</time>
      </trkpt>
      <trkpt lat="46.49728" lon="5.27499">
        <ele>203.2</ele>
        <time>2021-10-30T11:36:08Z</time>
      </trkpt>
      <trkpt lat="46.49727" lon="5.27487">
        <ele>203.8</ele>
        <time>2021-10-30T11:36:10Z</time>
      </trkpt>
      <trkpt lat="46.49727" lon="5.27481">
        <ele>204</ele>
        <time>2021-10-30T11:36:11Z</time>
      </trkpt>
      <trkpt lat="46.49725" lon="5.27458">
        <ele>205.2</ele>
        <time>2021-10-30T11:36:15Z</time>
      </trkpt>
      <trkpt lat="46.49724" lon="5.27452">
        <ele>205.2</ele>
        <time>2021-10-30T11:36:16Z</time>
      </trkpt>
      <trkpt lat="46.49719" lon="5.27426">
        <ele>206.6</ele>
        <time>2021-10-30T11:36:21Z</time>
      </trkpt>
      <trkpt lat="46.49717" lon="5.27415">
        <ele>207.2</ele>
        <time>2021-10-30T11:36:23Z</time>
      </trkpt>
      <trkpt lat="46.49709" lon="5.27395">
        <ele>207.8</ele>
        <time>2021-10-30T11:36:27Z</time>
      </trkpt>
      <trkpt lat="46.497" lon="5.27375">
        <ele>208.4</ele>
        <time>2021-10-30T11:36:31Z</time>
      </trkpt>
      <trkpt lat="46.49695" lon="5.27366">
        <ele>209</ele>
        <time>2021-10-30T11:36:33Z</time>
      </trkpt>
      <trkpt lat="46.49687" lon="5.27349">
        <ele>210.4</ele>
        <time>2021-10-30T11:36:37Z</time>
      </trkpt>
      <trkpt lat="46.49685" lon="5.27344">
        <ele>210.6</ele>
        <time>2021-10-30T11:36:38Z</time>
      </trkpt>
      <trkpt lat="46.49673" lon="5.27318">
        <ele>211.4</ele>
        <time>2021-10-30T11:36:44Z</time>
      </trkpt>
      <trkpt lat="46.49666" lon="5.27306">
        <ele>212</ele>
        <time>2021-10-30T11:36:47Z</time>
      </trkpt>
      <trkpt lat="46.49658" lon="5.2729">
        <ele>212.6</ele>
        <time>2021-10-30T11:36:51Z</time>
      </trkpt>
      <trkpt lat="46.49651" lon="5.27272">
        <ele>213.4</ele>
        <time>2021-10-30T11:36:55Z</time>
      </trkpt>
      <trkpt lat="46.49647" lon="5.27258">
        <ele>213.6</ele>
        <time>2021-10-30T11:36:58Z</time>
      </trkpt>
      <trkpt lat="46.49641" lon="5.27234">
        <ele>214.6</ele>
        <time>2021-10-30T11:37:03Z</time>
      </trkpt>
      <trkpt lat="46.49641" lon="5.27229">
        <ele>214.8</ele>
        <time>2021-10-30T11:37:04Z</time>
      </trkpt>
      <trkpt lat="46.49638" lon="5.27197">
        <ele>215.8</ele>
        <time>2021-10-30T11:37:10Z</time>
      </trkpt>
      <trkpt lat="46.49638" lon="5.27181">
        <ele>216.2</ele>
        <time>2021-10-30T11:37:13Z</time>
      </trkpt>
      <trkpt lat="46.49639" lon="5.27169">
        <ele>216.8</ele>
        <time>2021-10-30T11:37:15Z</time>
      </trkpt>
      <trkpt lat="46.49642" lon="5.27141">
        <ele>217.6</ele>
        <time>2021-10-30T11:37:20Z</time>
      </trkpt>
      <trkpt lat="46.49643" lon="5.27135">
        <ele>217.8</ele>
        <time>2021-10-30T11:37:21Z</time>
      </trkpt>
      <trkpt lat="46.49652" lon="5.27103">
        <ele>218.4</ele>
        <time>2021-10-30T11:37:26Z</time>
      </trkpt>
      <trkpt lat="46.49662" lon="5.27069">
        <ele>218.8</ele>
        <time>2021-10-30T11:37:31Z</time>
      </trkpt>
      <trkpt lat="46.49664" lon="5.27062">
        <ele>218.8</ele>
        <time>2021-10-30T11:37:32Z</time>
      </trkpt>
      <trkpt lat="46.49679" lon="5.27014">
        <ele>218.8</ele>
        <time>2021-10-30T11:37:38Z</time>
      </trkpt>
      <trkpt lat="46.49702" lon="5.26946">
        <ele>218.4</ele>
        <time>2021-10-30T11:37:45Z</time>
      </trkpt>
      <trkpt lat="46.49709" lon="5.26924">
        <ele>217.8</ele>
        <time>2021-10-30T11:37:47Z</time>
      </trkpt>
      <trkpt lat="46.4972" lon="5.26891">
        <ele>217</ele>
        <time>2021-10-30T11:37:50Z</time>
      </trkpt>
      <trkpt lat="46.49726" lon="5.26869">
        <ele>216.6</ele>
        <time>2021-10-30T11:37:52Z</time>
      </trkpt>
      <trkpt lat="46.4974" lon="5.26806">
        <ele>215.8</ele>
        <time>2021-10-30T11:37:58Z</time>
      </trkpt>
      <trkpt lat="46.49743" lon="5.26745">
        <ele>216.4</ele>
        <time>2021-10-30T11:38:04Z</time>
      </trkpt>
      <trkpt lat="46.49734" lon="5.26673">
        <ele>216.6</ele>
        <time>2021-10-30T11:38:11Z</time>
      </trkpt>
      <trkpt lat="46.49725" lon="5.26641">
        <ele>216.6</ele>
        <time>2021-10-30T11:38:14Z</time>
      </trkpt>
      <trkpt lat="46.49717" lon="5.26621">
        <ele>216.4</ele>
        <time>2021-10-30T11:38:16Z</time>
      </trkpt>
      <trkpt lat="46.49696" lon="5.26569">
        <ele>215.4</ele>
        <time>2021-10-30T11:38:21Z</time>
      </trkpt>
      <trkpt lat="46.49687" lon="5.26547">
        <ele>214.2</ele>
        <time>2021-10-30T11:38:23Z</time>
      </trkpt>
      <trkpt lat="46.49677" lon="5.26523">
        <ele>213.2</ele>
        <time>2021-10-30T11:38:25Z</time>
      </trkpt>
      <trkpt lat="46.49672" lon="5.26511">
        <ele>212.2</ele>
        <time>2021-10-30T11:38:26Z</time>
      </trkpt>
      <trkpt lat="46.49666" lon="5.26498">
        <ele>211.8</ele>
        <time>2021-10-30T11:38:27Z</time>
      </trkpt>
      <trkpt lat="46.49656" lon="5.26472">
        <ele>210.8</ele>
        <time>2021-10-30T11:38:29Z</time>
      </trkpt>
      <trkpt lat="46.49648" lon="5.26445">
        <ele>209.6</ele>
        <time>2021-10-30T11:38:31Z</time>
      </trkpt>
      <trkpt lat="46.49645" lon="5.2643">
        <ele>209.2</ele>
        <time>2021-10-30T11:38:32Z</time>
      </trkpt>
      <trkpt lat="46.49639" lon="5.264">
        <ele>207.6</ele>
        <time>2021-10-30T11:38:34Z</time>
      </trkpt>
      <trkpt lat="46.49635" lon="5.26369">
        <ele>206.6</ele>
        <time>2021-10-30T11:38:36Z</time>
      </trkpt>
      <trkpt lat="46.49634" lon="5.26353">
        <ele>206</ele>
        <time>2021-10-30T11:38:37Z</time>
      </trkpt>
      <trkpt lat="46.49632" lon="5.26321">
        <ele>204.8</ele>
        <time>2021-10-30T11:38:39Z</time>
      </trkpt>
      <trkpt lat="46.4963" lon="5.26288">
        <ele>203.6</ele>
        <time>2021-10-30T11:38:41Z</time>
      </trkpt>
      <trkpt lat="46.49629" lon="5.26272">
        <ele>202.6</ele>
        <time>2021-10-30T11:38:42Z</time>
      </trkpt>
      <trkpt lat="46.49627" lon="5.26241">
        <ele>201.2</ele>
        <time>2021-10-30T11:38:44Z</time>
      </trkpt>
      <trkpt lat="46.49625" lon="5.26211">
        <ele>200.2</ele>
        <time>2021-10-30T11:38:46Z</time>
      </trkpt>
      <trkpt lat="46.49624" lon="5.26197">
        <ele>200.2</ele>
        <time>2021-10-30T11:38:47Z</time>
      </trkpt>
      <trkpt lat="46.49616" lon="5.26144">
        <ele>200</ele>
        <time>2021-10-30T11:38:51Z</time>
      </trkpt>
      <trkpt lat="46.49598" lon="5.26088">
        <ele>200.2</ele>
        <time>2021-10-30T11:38:56Z</time>
      </trkpt>
      <trkpt lat="46.49572" lon="5.26042">
        <ele>200.6</ele>
        <time>2021-10-30T11:39:01Z</time>
      </trkpt>
      <trkpt lat="46.49536" lon="5.25999">
        <ele>200.8</ele>
        <time>2021-10-30T11:39:07Z</time>
      </trkpt>
      <trkpt lat="46.49491" lon="5.25954">
        <ele>200.4</ele>
        <time>2021-10-30T11:39:14Z</time>
      </trkpt>
      <trkpt lat="46.49485" lon="5.25948">
        <ele>200.4</ele>
        <time>2021-10-30T11:39:15Z</time>
      </trkpt>
      <trkpt lat="46.49441" lon="5.25903">
        <ele>200.2</ele>
        <time>2021-10-30T11:39:22Z</time>
      </trkpt>
      <trkpt lat="46.49416" lon="5.25878">
        <ele>200.2</ele>
        <time>2021-10-30T11:39:26Z</time>
      </trkpt>
      <trkpt lat="46.49367" lon="5.25829">
        <ele>199.8</ele>
        <time>2021-10-30T11:39:34Z</time>
      </trkpt>
      <trkpt lat="46.49355" lon="5.25818">
        <ele>199.8</ele>
        <time>2021-10-30T11:39:36Z</time>
      </trkpt>
      <trkpt lat="46.49307" lon="5.2577">
        <ele>199.6</ele>
        <time>2021-10-30T11:39:44Z</time>
      </trkpt>
      <trkpt lat="46.49295" lon="5.25759">
        <ele>199.4</ele>
        <time>2021-10-30T11:39:46Z</time>
      </trkpt>
      <trkpt lat="46.49248" lon="5.25711">
        <ele>199.6</ele>
        <time>2021-10-30T11:39:54Z</time>
      </trkpt>
      <trkpt lat="46.49236" lon="5.25699">
        <ele>199.8</ele>
        <time>2021-10-30T11:39:56Z</time>
      </trkpt>
      <trkpt lat="46.49197" lon="5.2566">
        <ele>199.8</ele>
        <time>2021-10-30T11:40:03Z</time>
      </trkpt>
      <trkpt lat="46.49153" lon="5.25617">
        <ele>200.2</ele>
        <time>2021-10-30T11:40:11Z</time>
      </trkpt>
      <trkpt lat="46.49113" lon="5.2558">
        <ele>200.6</ele>
        <time>2021-10-30T11:40:19Z</time>
      </trkpt>
      <trkpt lat="46.49108" lon="5.25575">
        <ele>200.8</ele>
        <time>2021-10-30T11:40:20Z</time>
      </trkpt>
      <trkpt lat="46.49104" lon="5.2557">
        <ele>201</ele>
        <time>2021-10-30T11:40:21Z</time>
      </trkpt>
      <trkpt lat="46.4908" lon="5.25539">
        <ele>201.6</ele>
        <time>2021-10-30T11:40:27Z</time>
      </trkpt>
      <trkpt lat="46.49074" lon="5.25527">
        <ele>202</ele>
        <time>2021-10-30T11:40:29Z</time>
      </trkpt>
      <trkpt lat="46.49069" lon="5.25507">
        <ele>202.4</ele>
        <time>2021-10-30T11:40:32Z</time>
      </trkpt>
      <trkpt lat="46.49064" lon="5.2548">
        <ele>203</ele>
        <time>2021-10-30T11:40:36Z</time>
      </trkpt>
      <trkpt lat="46.49062" lon="5.25462">
        <ele>203.8</ele>
        <time>2021-10-30T11:40:39Z</time>
      </trkpt>
      <trkpt lat="46.49062" lon="5.25455">
        <ele>204</ele>
        <time>2021-10-30T11:40:40Z</time>
      </trkpt>
      <trkpt lat="46.49061" lon="5.25435">
        <ele>204.8</ele>
        <time>2021-10-30T11:40:43Z</time>
      </trkpt>
      <trkpt lat="46.4906" lon="5.25429">
        <ele>205</ele>
        <time>2021-10-30T11:40:44Z</time>
      </trkpt>
      <trkpt lat="46.49059" lon="5.25423">
        <ele>205.2</ele>
        <time>2021-10-30T11:40:45Z</time>
      </trkpt>
      <trkpt lat="46.49056" lon="5.25388">
        <ele>206.4</ele>
        <time>2021-10-30T11:40:50Z</time>
      </trkpt>
      <trkpt lat="46.49055" lon="5.2538">
        <ele>206.4</ele>
        <time>2021-10-30T11:40:51Z</time>
      </trkpt>
      <trkpt lat="46.49052" lon="5.25355">
        <ele>207.6</ele>
        <time>2021-10-30T11:40:54Z</time>
      </trkpt>
      <trkpt lat="46.49049" lon="5.25337">
        <ele>207.8</ele>
        <time>2021-10-30T11:40:56Z</time>
      </trkpt>
      <trkpt lat="46.49041" lon="5.25278">
        <ele>207.6</ele>
        <time>2021-10-30T11:41:02Z</time>
      </trkpt>
      <trkpt lat="46.49034" lon="5.25223">
        <ele>207</ele>
        <time>2021-10-30T11:41:07Z</time>
      </trkpt>
      <trkpt lat="46.4903" lon="5.25191">
        <ele>206.2</ele>
        <time>2021-10-30T11:41:10Z</time>
      </trkpt>
      <trkpt lat="46.49024" lon="5.25148">
        <ele>205.4</ele>
        <time>2021-10-30T11:41:14Z</time>
      </trkpt>
      <trkpt lat="46.49019" lon="5.25109">
        <ele>205</ele>
        <time>2021-10-30T11:41:18Z</time>
      </trkpt>
      <trkpt lat="46.49015" lon="5.25081">
        <ele>205.2</ele>
        <time>2021-10-30T11:41:21Z</time>
      </trkpt>
      <trkpt lat="46.49009" lon="5.2503">
        <ele>206.4</ele>
        <time>2021-10-30T11:41:27Z</time>
      </trkpt>
      <trkpt lat="46.49004" lon="5.24994">
        <ele>207</ele>
        <time>2021-10-30T11:41:32Z</time>
      </trkpt>
      <trkpt lat="46.49002" lon="5.24981">
        <ele>207.4</ele>
        <time>2021-10-30T11:41:34Z</time>
      </trkpt>
      <trkpt lat="46.48999" lon="5.24965">
        <ele>207.8</ele>
        <time>2021-10-30T11:41:37Z</time>
      </trkpt>
      <trkpt lat="46.48997" lon="5.24952">
        <ele>208</ele>
        <time>2021-10-30T11:41:39Z</time>
      </trkpt>
      <trkpt lat="46.48993" lon="5.2494">
        <ele>208.6</ele>
        <time>2021-10-30T11:41:41Z</time>
      </trkpt>
      <trkpt lat="46.48988" lon="5.24926">
        <ele>209</ele>
        <time>2021-10-30T11:41:43Z</time>
      </trkpt>
      <trkpt lat="46.48979" lon="5.24906">
        <ele>209.8</ele>
        <time>2021-10-30T11:41:46Z</time>
      </trkpt>
      <trkpt lat="46.48967" lon="5.24883">
        <ele>211.2</ele>
        <time>2021-10-30T11:41:50Z</time>
      </trkpt>
      <trkpt lat="46.48964" lon="5.24878">
        <ele>211.4</ele>
        <time>2021-10-30T11:41:51Z</time>
      </trkpt>
      <trkpt lat="46.48937" lon="5.24842">
        <ele>212.4</ele>
        <time>2021-10-30T11:41:58Z</time>
      </trkpt>
      <trkpt lat="46.48933" lon="5.24837">
        <ele>212.4</ele>
        <time>2021-10-30T11:41:59Z</time>
      </trkpt>
      <trkpt lat="46.48904" lon="5.24802">
        <ele>213.4</ele>
        <time>2021-10-30T11:42:06Z</time>
      </trkpt>
      <trkpt lat="46.48899" lon="5.24797">
        <ele>213.6</ele>
        <time>2021-10-30T11:42:07Z</time>
      </trkpt>
      <trkpt lat="46.48866" lon="5.24759">
        <ele>214.2</ele>
        <time>2021-10-30T11:42:15Z</time>
      </trkpt>
      <trkpt lat="46.48834" lon="5.24725">
        <ele>214.4</ele>
        <time>2021-10-30T11:42:22Z</time>
      </trkpt>
      <trkpt lat="46.4882" lon="5.2471">
        <ele>214.6</ele>
        <time>2021-10-30T11:42:25Z</time>
      </trkpt>
      <trkpt lat="46.48783" lon="5.24673">
        <ele>214.8</ele>
        <time>2021-10-30T11:42:33Z</time>
      </trkpt>
      <trkpt lat="46.48767" lon="5.24654">
        <ele>215</ele>
        <time>2021-10-30T11:42:37Z</time>
      </trkpt>
      <trkpt lat="46.48765" lon="5.24647">
        <ele>215.2</ele>
        <time>2021-10-30T11:42:38Z</time>
      </trkpt>
      <trkpt lat="46.48762" lon="5.24635">
        <ele>215.2</ele>
        <time>2021-10-30T11:42:40Z</time>
      </trkpt>
      <trkpt lat="46.48758" lon="5.24632">
        <ele>215.4</ele>
        <time>2021-10-30T11:42:41Z</time>
      </trkpt>
      <trkpt lat="46.48754" lon="5.2463">
        <ele>215.4</ele>
        <time>2021-10-30T11:42:42Z</time>
      </trkpt>
      <trkpt lat="46.48742" lon="5.24629">
        <ele>215.4</ele>
        <time>2021-10-30T11:42:44Z</time>
      </trkpt>
      <trkpt lat="46.48721" lon="5.24626">
        <ele>215.4</ele>
        <time>2021-10-30T11:42:47Z</time>
      </trkpt>
      <trkpt lat="46.48707" lon="5.24621">
        <ele>215</ele>
        <time>2021-10-30T11:42:49Z</time>
      </trkpt>
      <trkpt lat="46.48693" lon="5.24614">
        <ele>214.4</ele>
        <time>2021-10-30T11:42:51Z</time>
      </trkpt>
      <trkpt lat="46.4866" lon="5.24597">
        <ele>214</ele>
        <time>2021-10-30T11:42:56Z</time>
      </trkpt>
      <trkpt lat="46.48606" lon="5.24567">
        <ele>214.4</ele>
        <time>2021-10-30T11:43:05Z</time>
      </trkpt>
      <trkpt lat="46.48601" lon="5.24564">
        <ele>214.4</ele>
        <time>2021-10-30T11:43:06Z</time>
      </trkpt>
      <trkpt lat="46.48574" lon="5.24543">
        <ele>214.6</ele>
        <time>2021-10-30T11:43:11Z</time>
      </trkpt>
      <trkpt lat="46.48569" lon="5.24538">
        <ele>214.6</ele>
        <time>2021-10-30T11:43:12Z</time>
      </trkpt>
      <trkpt lat="46.4853" lon="5.24491">
        <ele>214.2</ele>
        <time>2021-10-30T11:43:20Z</time>
      </trkpt>
      <trkpt lat="46.48486" lon="5.24437">
        <ele>213.8</ele>
        <time>2021-10-30T11:43:28Z</time>
      </trkpt>
      <trkpt lat="46.4848" lon="5.2443">
        <ele>213.6</ele>
        <time>2021-10-30T11:43:29Z</time>
      </trkpt>
      <trkpt lat="46.48474" lon="5.24422">
        <ele>213.2</ele>
        <time>2021-10-30T11:43:30Z</time>
      </trkpt>
      <trkpt lat="46.48444" lon="5.24387">
        <ele>212.2</ele>
        <time>2021-10-30T11:43:35Z</time>
      </trkpt>
      <trkpt lat="46.48431" lon="5.24374">
        <ele>212</ele>
        <time>2021-10-30T11:43:37Z</time>
      </trkpt>
      <trkpt lat="46.48401" lon="5.2435">
        <ele>212</ele>
        <time>2021-10-30T11:43:42Z</time>
      </trkpt>
      <trkpt lat="46.48364" lon="5.24334">
        <ele>212.6</ele>
        <time>2021-10-30T11:43:48Z</time>
      </trkpt>
      <trkpt lat="46.48359" lon="5.24331">
        <ele>212.8</ele>
        <time>2021-10-30T11:43:49Z</time>
      </trkpt>
      <trkpt lat="46.48344" lon="5.2432">
        <ele>213.4</ele>
        <time>2021-10-30T11:43:52Z</time>
      </trkpt>
      <trkpt lat="46.48328" lon="5.243">
        <ele>214.6</ele>
        <time>2021-10-30T11:43:56Z</time>
      </trkpt>
      <trkpt lat="46.48315" lon="5.24283">
        <ele>215.6</ele>
        <time>2021-10-30T11:43:59Z</time>
      </trkpt>
      <trkpt lat="46.4831" lon="5.24278">
        <ele>216.2</ele>
        <time>2021-10-30T11:44:00Z</time>
      </trkpt>
      <trkpt lat="46.48299" lon="5.24272">
        <ele>216.6</ele>
        <time>2021-10-30T11:44:02Z</time>
      </trkpt>
      <trkpt lat="46.48293" lon="5.2427">
        <ele>216.8</ele>
        <time>2021-10-30T11:44:03Z</time>
      </trkpt>
      <trkpt lat="46.48251" lon="5.24258">
        <ele>220</ele>
        <time>2021-10-30T11:44:11Z</time>
      </trkpt>
      <trkpt lat="46.48234" lon="5.24254">
        <ele>217.6</ele>
        <time>2021-10-30T11:44:14Z</time>
      </trkpt>
      <trkpt lat="46.48206" lon="5.24251">
        <ele>218.2</ele>
        <time>2021-10-30T11:44:19Z</time>
      </trkpt>
      <trkpt lat="46.482" lon="5.24253">
        <ele>218.2</ele>
        <time>2021-10-30T11:44:20Z</time>
      </trkpt>
      <trkpt lat="46.48195" lon="5.24255">
        <ele>218.2</ele>
        <time>2021-10-30T11:44:21Z</time>
      </trkpt>
      <trkpt lat="46.48185" lon="5.24264">
        <ele>218.4</ele>
        <time>2021-10-30T11:44:23Z</time>
      </trkpt>
      <trkpt lat="46.48181" lon="5.24269">
        <ele>218.4</ele>
        <time>2021-10-30T11:44:24Z</time>
      </trkpt>
      <trkpt lat="46.48151" lon="5.24308">
        <ele>218</ele>
        <time>2021-10-30T11:44:30Z</time>
      </trkpt>
      <trkpt lat="46.48113" lon="5.24352">
        <ele>216.4</ele>
        <time>2021-10-30T11:44:37Z</time>
      </trkpt>
      <trkpt lat="46.48102" lon="5.24365">
        <ele>216.2</ele>
        <time>2021-10-30T11:44:39Z</time>
      </trkpt>
      <trkpt lat="46.48062" lon="5.24402">
        <ele>215.6</ele>
        <time>2021-10-30T11:44:46Z</time>
      </trkpt>
      <trkpt lat="46.48009" lon="5.24439">
        <ele>215.6</ele>
        <time>2021-10-30T11:44:55Z</time>
      </trkpt>
      <trkpt lat="46.47956" lon="5.24475">
        <ele>216</ele>
        <time>2021-10-30T11:45:04Z</time>
      </trkpt>
      <trkpt lat="46.47945" lon="5.24482">
        <ele>216</ele>
        <time>2021-10-30T11:45:06Z</time>
      </trkpt>
      <trkpt lat="46.47934" lon="5.24488">
        <ele>216.2</ele>
        <time>2021-10-30T11:45:08Z</time>
      </trkpt>
      <trkpt lat="46.4791" lon="5.24496">
        <ele>216.4</ele>
        <time>2021-10-30T11:45:12Z</time>
      </trkpt>
      <trkpt lat="46.47866" lon="5.24497">
        <ele>216.8</ele>
        <time>2021-10-30T11:45:19Z</time>
      </trkpt>
      <trkpt lat="46.4781" lon="5.24497">
        <ele>216</ele>
        <time>2021-10-30T11:45:27Z</time>
      </trkpt>
      <trkpt lat="46.4776" lon="5.24504">
        <ele>215.6</ele>
        <time>2021-10-30T11:45:34Z</time>
      </trkpt>
      <trkpt lat="46.47753" lon="5.24506">
        <ele>215.4</ele>
        <time>2021-10-30T11:45:35Z</time>
      </trkpt>
      <trkpt lat="46.47739" lon="5.2451">
        <ele>215</ele>
        <time>2021-10-30T11:45:37Z</time>
      </trkpt>
      <trkpt lat="46.47715" lon="5.24517">
        <ele>214.6</ele>
        <time>2021-10-30T11:45:41Z</time>
      </trkpt>
      <trkpt lat="46.47679" lon="5.24532">
        <ele>214.4</ele>
        <time>2021-10-30T11:45:47Z</time>
      </trkpt>
      <trkpt lat="46.47673" lon="5.24535">
        <ele>214.2</ele>
        <time>2021-10-30T11:45:48Z</time>
      </trkpt>
      <trkpt lat="46.47629" lon="5.2456">
        <ele>214.6</ele>
        <time>2021-10-30T11:45:55Z</time>
      </trkpt>
      <trkpt lat="46.47579" lon="5.2459">
        <ele>214.8</ele>
        <time>2021-10-30T11:46:03Z</time>
      </trkpt>
      <trkpt lat="46.47559" lon="5.24601">
        <ele>214.6</ele>
        <time>2021-10-30T11:46:06Z</time>
      </trkpt>
      <trkpt lat="46.47505" lon="5.2463">
        <ele>213.8</ele>
        <time>2021-10-30T11:46:14Z</time>
      </trkpt>
      <trkpt lat="46.47498" lon="5.24632">
        <ele>213.8</ele>
        <time>2021-10-30T11:46:15Z</time>
      </trkpt>
      <trkpt lat="46.47492" lon="5.24634">
        <ele>213.8</ele>
        <time>2021-10-30T11:46:16Z</time>
      </trkpt>
      <trkpt lat="46.47459" lon="5.24639">
        <ele>213.2</ele>
        <time>2021-10-30T11:46:21Z</time>
      </trkpt>
      <trkpt lat="46.47434" lon="5.24641">
        <ele>212.8</ele>
        <time>2021-10-30T11:46:25Z</time>
      </trkpt>
      <trkpt lat="46.47376" lon="5.24647">
        <ele>212.4</ele>
        <time>2021-10-30T11:46:34Z</time>
      </trkpt>
      <trkpt lat="46.4737" lon="5.24647">
        <ele>212.2</ele>
        <time>2021-10-30T11:46:35Z</time>
      </trkpt>
      <trkpt lat="46.47314" lon="5.24651">
        <ele>211.6</ele>
        <time>2021-10-30T11:46:43Z</time>
      </trkpt>
      <trkpt lat="46.47306" lon="5.24651">
        <ele>211.4</ele>
        <time>2021-10-30T11:46:44Z</time>
      </trkpt>
      <trkpt lat="46.47299" lon="5.24652">
        <ele>211.4</ele>
        <time>2021-10-30T11:46:45Z</time>
      </trkpt>
      <trkpt lat="46.47276" lon="5.24652">
        <ele>210.2</ele>
        <time>2021-10-30T11:46:48Z</time>
      </trkpt>
      <trkpt lat="46.47245" lon="5.24653">
        <ele>209.8</ele>
        <time>2021-10-30T11:46:52Z</time>
      </trkpt>
      <trkpt lat="46.47222" lon="5.24651">
        <ele>209</ele>
        <time>2021-10-30T11:46:55Z</time>
      </trkpt>
      <trkpt lat="46.47199" lon="5.24649">
        <ele>207.8</ele>
        <time>2021-10-30T11:46:58Z</time>
      </trkpt>
      <trkpt lat="46.47184" lon="5.24647">
        <ele>207</ele>
        <time>2021-10-30T11:47:00Z</time>
      </trkpt>
      <trkpt lat="46.47169" lon="5.24643">
        <ele>206.2</ele>
        <time>2021-10-30T11:47:02Z</time>
      </trkpt>
      <trkpt lat="46.4713" lon="5.24628">
        <ele>205.2</ele>
        <time>2021-10-30T11:47:07Z</time>
      </trkpt>
      <trkpt lat="46.4709" lon="5.24609">
        <ele>204</ele>
        <time>2021-10-30T11:47:12Z</time>
      </trkpt>
      <trkpt lat="46.47073" lon="5.24599">
        <ele>203.2</ele>
        <time>2021-10-30T11:47:14Z</time>
      </trkpt>
      <trkpt lat="46.47065" lon="5.24594">
        <ele>203</ele>
        <time>2021-10-30T11:47:15Z</time>
      </trkpt>
      <trkpt lat="46.47039" lon="5.24578">
        <ele>201.6</ele>
        <time>2021-10-30T11:47:18Z</time>
      </trkpt>
      <trkpt lat="46.47013" lon="5.2456">
        <ele>200.4</ele>
        <time>2021-10-30T11:47:21Z</time>
      </trkpt>
      <trkpt lat="46.47004" lon="5.24554">
        <ele>200.2</ele>
        <time>2021-10-30T11:47:22Z</time>
      </trkpt>
      <trkpt lat="46.46986" lon="5.24543">
        <ele>199.2</ele>
        <time>2021-10-30T11:47:24Z</time>
      </trkpt>
      <trkpt lat="46.46968" lon="5.24531">
        <ele>198.2</ele>
        <time>2021-10-30T11:47:26Z</time>
      </trkpt>
      <trkpt lat="46.46951" lon="5.2452">
        <ele>197</ele>
        <time>2021-10-30T11:47:28Z</time>
      </trkpt>
      <trkpt lat="46.46942" lon="5.24514">
        <ele>196.6</ele>
        <time>2021-10-30T11:47:29Z</time>
      </trkpt>
      <trkpt lat="46.46926" lon="5.24503">
        <ele>196</ele>
        <time>2021-10-30T11:47:31Z</time>
      </trkpt>
      <trkpt lat="46.46903" lon="5.24486">
        <ele>195.6</ele>
        <time>2021-10-30T11:47:34Z</time>
      </trkpt>
      <trkpt lat="46.46873" lon="5.24455">
        <ele>195.6</ele>
        <time>2021-10-30T11:47:39Z</time>
      </trkpt>
      <trkpt lat="46.46848" lon="5.24421">
        <ele>197.4</ele>
        <time>2021-10-30T11:47:44Z</time>
      </trkpt>
      <trkpt lat="46.46843" lon="5.24414">
        <ele>197.6</ele>
        <time>2021-10-30T11:47:45Z</time>
      </trkpt>
      <trkpt lat="46.46806" lon="5.24359">
        <ele>198.4</ele>
        <time>2021-10-30T11:47:53Z</time>
      </trkpt>
      <trkpt lat="46.46797" lon="5.24347">
        <ele>198.4</ele>
        <time>2021-10-30T11:47:55Z</time>
      </trkpt>
      <trkpt lat="46.46765" lon="5.24301">
        <ele>198.8</ele>
        <time>2021-10-30T11:48:02Z</time>
      </trkpt>
      <trkpt lat="46.46726" lon="5.24243">
        <ele>199</ele>
        <time>2021-10-30T11:48:11Z</time>
      </trkpt>
      <trkpt lat="46.46717" lon="5.24231">
        <ele>199</ele>
        <time>2021-10-30T11:48:13Z</time>
      </trkpt>
      <trkpt lat="46.46676" lon="5.24171">
        <ele>199.2</ele>
        <time>2021-10-30T11:48:22Z</time>
      </trkpt>
      <trkpt lat="46.46638" lon="5.24117">
        <ele>198.6</ele>
        <time>2021-10-30T11:48:30Z</time>
      </trkpt>
      <trkpt lat="46.46597" lon="5.24057">
        <ele>198.6</ele>
        <time>2021-10-30T11:48:39Z</time>
      </trkpt>
      <trkpt lat="46.46592" lon="5.2405">
        <ele>198.6</ele>
        <time>2021-10-30T11:48:40Z</time>
      </trkpt>
      <trkpt lat="46.46549" lon="5.2399">
        <ele>198.2</ele>
        <time>2021-10-30T11:48:49Z</time>
      </trkpt>
      <trkpt lat="46.46541" lon="5.23977">
        <ele>198.2</ele>
        <time>2021-10-30T11:48:51Z</time>
      </trkpt>
      <trkpt lat="46.46499" lon="5.23921">
        <ele>198.2</ele>
        <time>2021-10-30T11:48:59Z</time>
      </trkpt>
      <trkpt lat="46.46457" lon="5.23868">
        <ele>197.8</ele>
        <time>2021-10-30T11:49:06Z</time>
      </trkpt>
      <trkpt lat="46.46445" lon="5.23853">
        <ele>197.2</ele>
        <time>2021-10-30T11:49:08Z</time>
      </trkpt>
      <trkpt lat="46.46405" lon="5.23802">
        <ele>196.2</ele>
        <time>2021-10-30T11:49:15Z</time>
      </trkpt>
      <trkpt lat="46.46388" lon="5.23782">
        <ele>195.8</ele>
        <time>2021-10-30T11:49:18Z</time>
      </trkpt>
      <trkpt lat="46.46346" lon="5.23736">
        <ele>195.2</ele>
        <time>2021-10-30T11:49:25Z</time>
      </trkpt>
      <trkpt lat="46.46334" lon="5.23726">
        <ele>195</ele>
        <time>2021-10-30T11:49:27Z</time>
      </trkpt>
      <trkpt lat="46.46305" lon="5.23704">
        <ele>195.4</ele>
        <time>2021-10-30T11:49:32Z</time>
      </trkpt>
      <trkpt lat="46.46274" lon="5.23681">
        <ele>196</ele>
        <time>2021-10-30T11:49:38Z</time>
      </trkpt>
      <trkpt lat="46.4625" lon="5.23663">
        <ele>196.4</ele>
        <time>2021-10-30T11:49:43Z</time>
      </trkpt>
      <trkpt lat="46.46236" lon="5.23651">
        <ele>196.6</ele>
        <time>2021-10-30T11:49:46Z</time>
      </trkpt>
      <trkpt lat="46.46207" lon="5.23631">
        <ele>197.4</ele>
        <time>2021-10-30T11:49:52Z</time>
      </trkpt>
      <trkpt lat="46.46192" lon="5.23621">
        <ele>197.4</ele>
        <time>2021-10-30T11:49:55Z</time>
      </trkpt>
      <trkpt lat="46.46159" lon="5.23596">
        <ele>198.2</ele>
        <time>2021-10-30T11:50:02Z</time>
      </trkpt>
      <trkpt lat="46.46156" lon="5.23591">
        <ele>198.2</ele>
        <time>2021-10-30T11:50:03Z</time>
      </trkpt>
      <trkpt lat="46.46154" lon="5.23585">
        <ele>198.6</ele>
        <time>2021-10-30T11:50:04Z</time>
      </trkpt>
      <trkpt lat="46.46154" lon="5.23579">
        <ele>198.8</ele>
        <time>2021-10-30T11:50:05Z</time>
      </trkpt>
      <trkpt lat="46.46155" lon="5.23573">
        <ele>199</ele>
        <time>2021-10-30T11:50:06Z</time>
      </trkpt>
      <trkpt lat="46.46158" lon="5.2356">
        <ele>199.4</ele>
        <time>2021-10-30T11:50:09Z</time>
      </trkpt>
      <trkpt lat="46.4616" lon="5.23552">
        <ele>199.8</ele>
        <time>2021-10-30T11:50:11Z</time>
      </trkpt>
      <trkpt lat="46.46162" lon="5.23546">
        <ele>200</ele>
        <time>2021-10-30T11:50:14Z</time>
      </trkpt>
      <trkpt lat="46.46163" lon="5.23545">
        <ele>200.4</ele>
        <time>2021-10-30T11:50:16Z</time>
      </trkpt>
      <trkpt lat="46.4616" lon="5.2355">
        <ele>200.6</ele>
        <time>2021-10-30T11:51:17Z</time>
      </trkpt>
      <trkpt lat="46.46159" lon="5.23553">
        <ele>200.6</ele>
        <time>2021-10-30T11:51:18Z</time>
      </trkpt>
      <trkpt lat="46.4615" lon="5.23574">
        <ele>200.4</ele>
        <time>2021-10-30T11:51:24Z</time>
      </trkpt>
      <trkpt lat="46.46145" lon="5.23579">
        <ele>200</ele>
        <time>2021-10-30T11:51:26Z</time>
      </trkpt>
      <trkpt lat="46.46141" lon="5.23579">
        <ele>200</ele>
        <time>2021-10-30T11:51:27Z</time>
      </trkpt>
      <trkpt lat="46.46137" lon="5.23577">
        <ele>200</ele>
        <time>2021-10-30T11:51:28Z</time>
      </trkpt>
      <trkpt lat="46.46122" lon="5.23565">
        <ele>199.6</ele>
        <time>2021-10-30T11:51:31Z</time>
      </trkpt>
      <trkpt lat="46.46109" lon="5.23556">
        <ele>199.6</ele>
        <time>2021-10-30T11:51:33Z</time>
      </trkpt>
      <trkpt lat="46.46085" lon="5.23536">
        <ele>198.8</ele>
        <time>2021-10-30T11:51:37Z</time>
      </trkpt>
      <trkpt lat="46.46068" lon="5.23522">
        <ele>198.4</ele>
        <time>2021-10-30T11:51:40Z</time>
      </trkpt>
      <trkpt lat="46.46033" lon="5.23494">
        <ele>198</ele>
        <time>2021-10-30T11:51:45Z</time>
      </trkpt>
      <trkpt lat="46.46012" lon="5.23477">
        <ele>197.4</ele>
        <time>2021-10-30T11:51:48Z</time>
      </trkpt>
      <trkpt lat="46.45982" lon="5.23454">
        <ele>196.6</ele>
        <time>2021-10-30T11:51:52Z</time>
      </trkpt>
      <trkpt lat="46.45968" lon="5.23442">
        <ele>196.4</ele>
        <time>2021-10-30T11:51:54Z</time>
      </trkpt>
      <trkpt lat="46.45932" lon="5.23413">
        <ele>195.4</ele>
        <time>2021-10-30T11:51:59Z</time>
      </trkpt>
      <trkpt lat="46.45918" lon="5.23403">
        <ele>194.8</ele>
        <time>2021-10-30T11:52:01Z</time>
      </trkpt>
      <trkpt lat="46.45904" lon="5.23396">
        <ele>194.4</ele>
        <time>2021-10-30T11:52:03Z</time>
      </trkpt>
      <trkpt lat="46.45897" lon="5.23393">
        <ele>194.2</ele>
        <time>2021-10-30T11:52:04Z</time>
      </trkpt>
      <trkpt lat="46.45882" lon="5.23388">
        <ele>193.8</ele>
        <time>2021-10-30T11:52:06Z</time>
      </trkpt>
      <trkpt lat="46.45832" lon="5.23376">
        <ele>193.4</ele>
        <time>2021-10-30T11:52:13Z</time>
      </trkpt>
      <trkpt lat="46.45788" lon="5.23365">
        <ele>193.4</ele>
        <time>2021-10-30T11:52:20Z</time>
      </trkpt>
      <trkpt lat="46.45752" lon="5.23358">
        <ele>194.6</ele>
        <time>2021-10-30T11:52:26Z</time>
      </trkpt>
      <trkpt lat="46.45725" lon="5.2335">
        <ele>195.4</ele>
        <time>2021-10-30T11:52:31Z</time>
      </trkpt>
      <trkpt lat="46.45714" lon="5.23348">
        <ele>195.8</ele>
        <time>2021-10-30T11:52:33Z</time>
      </trkpt>
      <trkpt lat="46.45687" lon="5.23341">
        <ele>196.4</ele>
        <time>2021-10-30T11:52:38Z</time>
      </trkpt>
      <trkpt lat="46.45646" lon="5.23329">
        <ele>197.4</ele>
        <time>2021-10-30T11:52:45Z</time>
      </trkpt>
      <trkpt lat="46.4564" lon="5.23328">
        <ele>197.6</ele>
        <time>2021-10-30T11:52:46Z</time>
      </trkpt>
      <trkpt lat="46.45595" lon="5.23316">
        <ele>197.6</ele>
        <time>2021-10-30T11:52:53Z</time>
      </trkpt>
      <trkpt lat="46.45538" lon="5.23303">
        <ele>197</ele>
        <time>2021-10-30T11:53:02Z</time>
      </trkpt>
      <trkpt lat="46.45482" lon="5.23291">
        <ele>196.4</ele>
        <time>2021-10-30T11:53:11Z</time>
      </trkpt>
      <trkpt lat="46.45433" lon="5.23282">
        <ele>195.8</ele>
        <time>2021-10-30T11:53:19Z</time>
      </trkpt>
      <trkpt lat="46.4539" lon="5.23272">
        <ele>196.4</ele>
        <time>2021-10-30T11:53:27Z</time>
      </trkpt>
      <trkpt lat="46.45358" lon="5.23266">
        <ele>197.6</ele>
        <time>2021-10-30T11:53:33Z</time>
      </trkpt>
      <trkpt lat="46.45353" lon="5.23265">
        <ele>197.6</ele>
        <time>2021-10-30T11:53:34Z</time>
      </trkpt>
      <trkpt lat="46.45326" lon="5.2327">
        <ele>198</ele>
        <time>2021-10-30T11:53:39Z</time>
      </trkpt>
      <trkpt lat="46.453" lon="5.23291">
        <ele>198.4</ele>
        <time>2021-10-30T11:53:44Z</time>
      </trkpt>
      <trkpt lat="46.45255" lon="5.23336">
        <ele>198.4</ele>
        <time>2021-10-30T11:53:53Z</time>
      </trkpt>
      <trkpt lat="46.45243" lon="5.23347">
        <ele>198.6</ele>
        <time>2021-10-30T11:53:56Z</time>
      </trkpt>
      <trkpt lat="46.45226" lon="5.23364">
        <ele>199</ele>
        <time>2021-10-30T11:54:00Z</time>
      </trkpt>
      <trkpt lat="46.45199" lon="5.23383">
        <ele>199.6</ele>
        <time>2021-10-30T11:54:06Z</time>
      </trkpt>
      <trkpt lat="46.45194" lon="5.23385">
        <ele>199.8</ele>
        <time>2021-10-30T11:54:07Z</time>
      </trkpt>
      <trkpt lat="46.45176" lon="5.23384">
        <ele>200.2</ele>
        <time>2021-10-30T11:54:11Z</time>
      </trkpt>
      <trkpt lat="46.45167" lon="5.23379">
        <ele>200.6</ele>
        <time>2021-10-30T11:54:13Z</time>
      </trkpt>
      <trkpt lat="46.45164" lon="5.23376">
        <ele>201</ele>
        <time>2021-10-30T11:54:14Z</time>
      </trkpt>
      <trkpt lat="46.45157" lon="5.23369">
        <ele>201.4</ele>
        <time>2021-10-30T11:54:16Z</time>
      </trkpt>
      <trkpt lat="46.45146" lon="5.23357">
        <ele>202</ele>
        <time>2021-10-30T11:54:19Z</time>
      </trkpt>
      <trkpt lat="46.4513" lon="5.23337">
        <ele>203.2</ele>
        <time>2021-10-30T11:54:24Z</time>
      </trkpt>
      <trkpt lat="46.45106" lon="5.23308">
        <ele>204</ele>
        <time>2021-10-30T11:54:32Z</time>
      </trkpt>
      <trkpt lat="46.45104" lon="5.23304">
        <ele>204.4</ele>
        <time>2021-10-30T11:54:33Z</time>
      </trkpt>
      <trkpt lat="46.45091" lon="5.23287">
        <ele>205.6</ele>
        <time>2021-10-30T11:54:38Z</time>
      </trkpt>
      <trkpt lat="46.45088" lon="5.23284">
        <ele>205.6</ele>
        <time>2021-10-30T11:54:39Z</time>
      </trkpt>
      <trkpt lat="46.45077" lon="5.23271">
        <ele>206.6</ele>
        <time>2021-10-30T11:54:43Z</time>
      </trkpt>
      <trkpt lat="46.45058" lon="5.23254">
        <ele>208</ele>
        <time>2021-10-30T11:54:49Z</time>
      </trkpt>
      <trkpt lat="46.45045" lon="5.23247">
        <ele>209</ele>
        <time>2021-10-30T11:54:53Z</time>
      </trkpt>
      <trkpt lat="46.45033" lon="5.23244">
        <ele>209.6</ele>
        <time>2021-10-30T11:54:56Z</time>
      </trkpt>
      <trkpt lat="46.45026" lon="5.23243">
        <ele>210.2</ele>
        <time>2021-10-30T11:54:58Z</time>
      </trkpt>
      <trkpt lat="46.45008" lon="5.23246">
        <ele>211.4</ele>
        <time>2021-10-30T11:55:04Z</time>
      </trkpt>
      <trkpt lat="46.45004" lon="5.23248">
        <ele>211.4</ele>
        <time>2021-10-30T11:55:05Z</time>
      </trkpt>
      <trkpt lat="46.44986" lon="5.23254">
        <ele>212.4</ele>
        <time>2021-10-30T11:55:10Z</time>
      </trkpt>
      <trkpt lat="46.44969" lon="5.23262">
        <ele>213.4</ele>
        <time>2021-10-30T11:55:15Z</time>
      </trkpt>
      <trkpt lat="46.44965" lon="5.23263">
        <ele>213.6</ele>
        <time>2021-10-30T11:55:16Z</time>
      </trkpt>
      <trkpt lat="46.44944" lon="5.23271">
        <ele>214.8</ele>
        <time>2021-10-30T11:55:22Z</time>
      </trkpt>
      <trkpt lat="46.44937" lon="5.23273">
        <ele>215.4</ele>
        <time>2021-10-30T11:55:24Z</time>
      </trkpt>
      <trkpt lat="46.44933" lon="5.23274">
        <ele>216</ele>
        <time>2021-10-30T11:55:25Z</time>
      </trkpt>
      <trkpt lat="46.44914" lon="5.23277">
        <ele>217</ele>
        <time>2021-10-30T11:55:30Z</time>
      </trkpt>
      <trkpt lat="46.44902" lon="5.23279">
        <ele>217.2</ele>
        <time>2021-10-30T11:55:33Z</time>
      </trkpt>
      <trkpt lat="46.44887" lon="5.23277">
        <ele>217.6</ele>
        <time>2021-10-30T11:55:37Z</time>
      </trkpt>
      <trkpt lat="46.44884" lon="5.23273">
        <ele>218</ele>
        <time>2021-10-30T11:55:38Z</time>
      </trkpt>
      <trkpt lat="46.44884" lon="5.23269">
        <ele>218</ele>
        <time>2021-10-30T11:55:39Z</time>
      </trkpt>
      <trkpt lat="46.44886" lon="5.23258">
        <ele>218.2</ele>
        <time>2021-10-30T11:55:41Z</time>
      </trkpt>
      <trkpt lat="46.44897" lon="5.23229">
        <ele>218.6</ele>
        <time>2021-10-30T11:55:47Z</time>
      </trkpt>
      <trkpt lat="46.44905" lon="5.23205">
        <ele>219</ele>
        <time>2021-10-30T11:55:52Z</time>
      </trkpt>
      <trkpt lat="46.44908" lon="5.23198">
        <ele>219.2</ele>
        <time>2021-10-30T11:55:54Z</time>
      </trkpt>
      <trkpt lat="46.4491" lon="5.23192">
        <ele>219.4</ele>
        <time>2021-10-30T11:55:56Z</time>
      </trkpt>
      <trkpt lat="46.4491" lon="5.23189">
        <ele>219.6</ele>
        <time>2021-10-30T11:55:58Z</time>
      </trkpt>
      <trkpt lat="46.4491" lon="5.23188">
        <ele>219.6</ele>
        <time>2021-10-30T11:56:01Z</time>
      </trkpt>
      <trkpt lat="46.44912" lon="5.23181">
        <ele>219.8</ele>
        <time>2021-10-30T11:56:09Z</time>
      </trkpt>
      <trkpt lat="46.44914" lon="5.23178">
        <ele>219.8</ele>
        <time>2021-10-30T11:56:10Z</time>
      </trkpt>
      <trkpt lat="46.44918" lon="5.23165">
        <ele>220.2</ele>
        <time>2021-10-30T11:56:13Z</time>
      </trkpt>
      <trkpt lat="46.44923" lon="5.2315">
        <ele>220.4</ele>
        <time>2021-10-30T11:56:16Z</time>
      </trkpt>
      <trkpt lat="46.44935" lon="5.23122">
        <ele>220.8</ele>
        <time>2021-10-30T11:56:22Z</time>
      </trkpt>
      <trkpt lat="46.44943" lon="5.23107">
        <ele>221.2</ele>
        <time>2021-10-30T11:56:25Z</time>
      </trkpt>
      <trkpt lat="46.44949" lon="5.23095">
        <ele>221.4</ele>
        <time>2021-10-30T11:56:27Z</time>
      </trkpt>
      <trkpt lat="46.44954" lon="5.23083">
        <ele>221.4</ele>
        <time>2021-10-30T11:56:29Z</time>
      </trkpt>
      <trkpt lat="46.44958" lon="5.23068">
        <ele>221.4</ele>
        <time>2021-10-30T11:56:31Z</time>
      </trkpt>
      <trkpt lat="46.4496" lon="5.23059">
        <ele>221.4</ele>
        <time>2021-10-30T11:56:32Z</time>
      </trkpt>
      <trkpt lat="46.44967" lon="5.23011">
        <ele>221</ele>
        <time>2021-10-30T11:56:37Z</time>
      </trkpt>
      <trkpt lat="46.44977" lon="5.2295">
        <ele>220</ele>
        <time>2021-10-30T11:56:43Z</time>
      </trkpt>
      <trkpt lat="46.44979" lon="5.2294">
        <ele>220</ele>
        <time>2021-10-30T11:56:44Z</time>
      </trkpt>
      <trkpt lat="46.44983" lon="5.2292">
        <ele>219.8</ele>
        <time>2021-10-30T11:56:46Z</time>
      </trkpt>
      <trkpt lat="46.4499" lon="5.22903">
        <ele>219.8</ele>
        <time>2021-10-30T11:56:48Z</time>
      </trkpt>
      <trkpt lat="46.44993" lon="5.22897">
        <ele>219.8</ele>
        <time>2021-10-30T11:56:49Z</time>
      </trkpt>
      <trkpt lat="46.44998" lon="5.2289">
        <ele>219.8</ele>
        <time>2021-10-30T11:56:50Z</time>
      </trkpt>
      <trkpt lat="46.45015" lon="5.2287">
        <ele>219.8</ele>
        <time>2021-10-30T11:56:53Z</time>
      </trkpt>
      <trkpt lat="46.45052" lon="5.22847">
        <ele>220.2</ele>
        <time>2021-10-30T11:56:59Z</time>
      </trkpt>
      <trkpt lat="46.4507" lon="5.22833">
        <ele>220.4</ele>
        <time>2021-10-30T11:57:02Z</time>
      </trkpt>
      <trkpt lat="46.45075" lon="5.22826">
        <ele>220.4</ele>
        <time>2021-10-30T11:57:03Z</time>
      </trkpt>
      <trkpt lat="46.45077" lon="5.22819">
        <ele>220.6</ele>
        <time>2021-10-30T11:57:04Z</time>
      </trkpt>
      <trkpt lat="46.45081" lon="5.22798">
        <ele>220.6</ele>
        <time>2021-10-30T11:57:06Z</time>
      </trkpt>
      <trkpt lat="46.4509" lon="5.2274">
        <ele>221</ele>
        <time>2021-10-30T11:57:12Z</time>
      </trkpt>
      <trkpt lat="46.45098" lon="5.22706">
        <ele>221</ele>
        <time>2021-10-30T11:57:16Z</time>
      </trkpt>
      <trkpt lat="46.45102" lon="5.22696">
        <ele>221.2</ele>
        <time>2021-10-30T11:57:17Z</time>
      </trkpt>
      <trkpt lat="46.45105" lon="5.22687">
        <ele>221.2</ele>
        <time>2021-10-30T11:57:18Z</time>
      </trkpt>
      <trkpt lat="46.45131" lon="5.22621">
        <ele>221.2</ele>
        <time>2021-10-30T11:57:26Z</time>
      </trkpt>
      <trkpt lat="46.45142" lon="5.22575">
        <ele>221.4</ele>
        <time>2021-10-30T11:57:31Z</time>
      </trkpt>
      <trkpt lat="46.45162" lon="5.22498">
        <ele>221.2</ele>
        <time>2021-10-30T11:57:39Z</time>
      </trkpt>
      <trkpt lat="46.45169" lon="5.22471">
        <ele>221</ele>
        <time>2021-10-30T11:57:42Z</time>
      </trkpt>
      <trkpt lat="46.45189" lon="5.22414">
        <ele>221</ele>
        <time>2021-10-30T11:57:48Z</time>
      </trkpt>
      <trkpt lat="46.45207" lon="5.22362">
        <ele>221.2</ele>
        <time>2021-10-30T11:57:54Z</time>
      </trkpt>
      <trkpt lat="46.45221" lon="5.22327">
        <ele>221.2</ele>
        <time>2021-10-30T11:57:58Z</time>
      </trkpt>
      <trkpt lat="46.45225" lon="5.22319">
        <ele>221.2</ele>
        <time>2021-10-30T11:57:59Z</time>
      </trkpt>
      <trkpt lat="46.4523" lon="5.22314">
        <ele>221.2</ele>
        <time>2021-10-30T11:58:00Z</time>
      </trkpt>
      <trkpt lat="46.45249" lon="5.22297">
        <ele>221</ele>
        <time>2021-10-30T11:58:03Z</time>
      </trkpt>
      <trkpt lat="46.45301" lon="5.22264">
        <ele>220.8</ele>
        <time>2021-10-30T11:58:11Z</time>
      </trkpt>
      <trkpt lat="46.45355" lon="5.22234">
        <ele>220.8</ele>
        <time>2021-10-30T11:58:19Z</time>
      </trkpt>
      <trkpt lat="46.45368" lon="5.22226">
        <ele>220.8</ele>
        <time>2021-10-30T11:58:21Z</time>
      </trkpt>
      <trkpt lat="46.45411" lon="5.22196">
        <ele>220.6</ele>
        <time>2021-10-30T11:58:27Z</time>
      </trkpt>
      <trkpt lat="46.45418" lon="5.22187">
        <ele>220.4</ele>
        <time>2021-10-30T11:58:28Z</time>
      </trkpt>
      <trkpt lat="46.45434" lon="5.2216">
        <ele>220</ele>
        <time>2021-10-30T11:58:31Z</time>
      </trkpt>
      <trkpt lat="46.45443" lon="5.2214">
        <ele>219.8</ele>
        <time>2021-10-30T11:58:33Z</time>
      </trkpt>
      <trkpt lat="46.45462" lon="5.22088">
        <ele>219.4</ele>
        <time>2021-10-30T11:58:38Z</time>
      </trkpt>
      <trkpt lat="46.45485" lon="5.2202">
        <ele>219.2</ele>
        <time>2021-10-30T11:58:45Z</time>
      </trkpt>
      <trkpt lat="46.45511" lon="5.21953">
        <ele>219.6</ele>
        <time>2021-10-30T11:58:52Z</time>
      </trkpt>
      <trkpt lat="46.45528" lon="5.21908">
        <ele>219.8</ele>
        <time>2021-10-30T11:58:57Z</time>
      </trkpt>
      <trkpt lat="46.45531" lon="5.219">
        <ele>220</ele>
        <time>2021-10-30T11:58:58Z</time>
      </trkpt>
      <trkpt lat="46.45557" lon="5.21842">
        <ele>220.4</ele>
        <time>2021-10-30T11:59:05Z</time>
      </trkpt>
      <trkpt lat="46.45588" lon="5.21769">
        <ele>220.4</ele>
        <time>2021-10-30T11:59:13Z</time>
      </trkpt>
      <trkpt lat="46.45595" lon="5.21752">
        <ele>220.2</ele>
        <time>2021-10-30T11:59:15Z</time>
      </trkpt>
      <trkpt lat="46.45624" lon="5.21685">
        <ele>219.6</ele>
        <time>2021-10-30T11:59:22Z</time>
      </trkpt>
      <trkpt lat="46.45628" lon="5.21676">
        <ele>219.6</ele>
        <time>2021-10-30T11:59:23Z</time>
      </trkpt>
      <trkpt lat="46.45651" lon="5.21635">
        <ele>219.2</ele>
        <time>2021-10-30T11:59:28Z</time>
      </trkpt>
      <trkpt lat="46.45669" lon="5.21604">
        <ele>219</ele>
        <time>2021-10-30T11:59:32Z</time>
      </trkpt>
      <trkpt lat="46.45702" lon="5.21553">
        <ele>219.6</ele>
        <time>2021-10-30T11:59:39Z</time>
      </trkpt>
      <trkpt lat="46.45734" lon="5.21523">
        <ele>220.2</ele>
        <time>2021-10-30T11:59:45Z</time>
      </trkpt>
      <trkpt lat="46.45747" lon="5.21516">
        <ele>220.2</ele>
        <time>2021-10-30T11:59:47Z</time>
      </trkpt>
      <trkpt lat="46.45758" lon="5.2151">
        <ele>220.2</ele>
        <time>2021-10-30T11:59:49Z</time>
      </trkpt>
      <trkpt lat="46.45779" lon="5.21501">
        <ele>220.4</ele>
        <time>2021-10-30T11:59:52Z</time>
      </trkpt>
      <trkpt lat="46.45798" lon="5.21494">
        <ele>220.4</ele>
        <time>2021-10-30T11:59:55Z</time>
      </trkpt>
      <trkpt lat="46.45827" lon="5.21491">
        <ele>220.4</ele>
        <time>2021-10-30T11:59:59Z</time>
      </trkpt>
      <trkpt lat="46.45858" lon="5.21497">
        <ele>220.2</ele>
        <time>2021-10-30T12:00:03Z</time>
      </trkpt>
      <trkpt lat="46.45909" lon="5.21509">
        <ele>219.2</ele>
        <time>2021-10-30T12:00:09Z</time>
      </trkpt>
      <trkpt lat="46.45918" lon="5.21512">
        <ele>219</ele>
        <time>2021-10-30T12:00:10Z</time>
      </trkpt>
      <trkpt lat="46.45962" lon="5.2153">
        <ele>218.8</ele>
        <time>2021-10-30T12:00:15Z</time>
      </trkpt>
      <trkpt lat="46.46008" lon="5.21556">
        <ele>218.2</ele>
        <time>2021-10-30T12:00:20Z</time>
      </trkpt>
      <trkpt lat="46.46019" lon="5.21564">
        <ele>217.8</ele>
        <time>2021-10-30T12:00:21Z</time>
      </trkpt>
      <trkpt lat="46.46034" lon="5.21579">
        <ele>216.8</ele>
        <time>2021-10-30T12:00:23Z</time>
      </trkpt>
      <trkpt lat="46.46042" lon="5.21587">
        <ele>216.4</ele>
        <time>2021-10-30T12:00:24Z</time>
      </trkpt>
      <trkpt lat="46.46066" lon="5.21616">
        <ele>215.8</ele>
        <time>2021-10-30T12:00:27Z</time>
      </trkpt>
      <trkpt lat="46.46095" lon="5.21651">
        <ele>214.8</ele>
        <time>2021-10-30T12:00:31Z</time>
      </trkpt>
      <trkpt lat="46.46107" lon="5.21666">
        <ele>214.8</ele>
        <time>2021-10-30T12:00:33Z</time>
      </trkpt>
      <trkpt lat="46.46134" lon="5.21704">
        <ele>214.8</ele>
        <time>2021-10-30T12:00:37Z</time>
      </trkpt>
      <trkpt lat="46.46168" lon="5.21763">
        <ele>214.8</ele>
        <time>2021-10-30T12:00:43Z</time>
      </trkpt>
      <trkpt lat="46.46205" lon="5.21818">
        <ele>213.6</ele>
        <time>2021-10-30T12:00:48Z</time>
      </trkpt>
      <trkpt lat="46.46213" lon="5.21829">
        <ele>212.8</ele>
        <time>2021-10-30T12:00:49Z</time>
      </trkpt>
      <trkpt lat="46.46222" lon="5.21843">
        <ele>212.4</ele>
        <time>2021-10-30T12:00:50Z</time>
      </trkpt>
      <trkpt lat="46.46244" lon="5.21875">
        <ele>211</ele>
        <time>2021-10-30T12:00:53Z</time>
      </trkpt>
      <trkpt lat="46.4626" lon="5.219">
        <ele>210.4</ele>
        <time>2021-10-30T12:00:55Z</time>
      </trkpt>
      <trkpt lat="46.46276" lon="5.21921">
        <ele>210</ele>
        <time>2021-10-30T12:00:57Z</time>
      </trkpt>
      <trkpt lat="46.46292" lon="5.21935">
        <ele>209.8</ele>
        <time>2021-10-30T12:00:59Z</time>
      </trkpt>
      <trkpt lat="46.46327" lon="5.21957">
        <ele>210</ele>
        <time>2021-10-30T12:01:03Z</time>
      </trkpt>
      <trkpt lat="46.46361" lon="5.21976">
        <ele>211.2</ele>
        <time>2021-10-30T12:01:07Z</time>
      </trkpt>
      <trkpt lat="46.46376" lon="5.21984">
        <ele>211.8</ele>
        <time>2021-10-30T12:01:09Z</time>
      </trkpt>
      <trkpt lat="46.46386" lon="5.21989">
        <ele>212.2</ele>
        <time>2021-10-30T12:01:10Z</time>
      </trkpt>
      <trkpt lat="46.46409" lon="5.21995">
        <ele>212.8</ele>
        <time>2021-10-30T12:01:13Z</time>
      </trkpt>
      <trkpt lat="46.46418" lon="5.21997">
        <ele>213.2</ele>
        <time>2021-10-30T12:01:14Z</time>
      </trkpt>
      <trkpt lat="46.4645" lon="5.22001">
        <ele>214.2</ele>
        <time>2021-10-30T12:01:18Z</time>
      </trkpt>
      <trkpt lat="46.46475" lon="5.22007">
        <ele>215.4</ele>
        <time>2021-10-30T12:01:21Z</time>
      </trkpt>
      <trkpt lat="46.46522" lon="5.22021">
        <ele>215.8</ele>
        <time>2021-10-30T12:01:27Z</time>
      </trkpt>
      <trkpt lat="46.46564" lon="5.22033">
        <ele>216.2</ele>
        <time>2021-10-30T12:01:32Z</time>
      </trkpt>
      <trkpt lat="46.46573" lon="5.22033">
        <ele>216.2</ele>
        <time>2021-10-30T12:01:33Z</time>
      </trkpt>
      <trkpt lat="46.466" lon="5.22028">
        <ele>216</ele>
        <time>2021-10-30T12:01:36Z</time>
      </trkpt>
      <trkpt lat="46.46651" lon="5.22019">
        <ele>215</ele>
        <time>2021-10-30T12:01:42Z</time>
      </trkpt>
      <trkpt lat="46.46712" lon="5.22016">
        <ele>214</ele>
        <time>2021-10-30T12:01:49Z</time>
      </trkpt>
      <trkpt lat="46.46731" lon="5.22015">
        <ele>213</ele>
        <time>2021-10-30T12:01:51Z</time>
      </trkpt>
      <trkpt lat="46.4674" lon="5.22015">
        <ele>212.8</ele>
        <time>2021-10-30T12:01:52Z</time>
      </trkpt>
      <trkpt lat="46.46758" lon="5.22012">
        <ele>211.8</ele>
        <time>2021-10-30T12:01:54Z</time>
      </trkpt>
      <trkpt lat="46.46776" lon="5.22005">
        <ele>211</ele>
        <time>2021-10-30T12:01:56Z</time>
      </trkpt>
      <trkpt lat="46.46785" lon="5.22001">
        <ele>210.6</ele>
        <time>2021-10-30T12:01:57Z</time>
      </trkpt>
      <trkpt lat="46.46794" lon="5.21999">
        <ele>210</ele>
        <time>2021-10-30T12:01:58Z</time>
      </trkpt>
      <trkpt lat="46.46813" lon="5.22002">
        <ele>209.6</ele>
        <time>2021-10-30T12:02:00Z</time>
      </trkpt>
      <trkpt lat="46.4684" lon="5.22026">
        <ele>209</ele>
        <time>2021-10-30T12:02:03Z</time>
      </trkpt>
      <trkpt lat="46.46853" lon="5.22052">
        <ele>208</ele>
        <time>2021-10-30T12:02:05Z</time>
      </trkpt>
      <trkpt lat="46.46865" lon="5.22079">
        <ele>206.6</ele>
        <time>2021-10-30T12:02:07Z</time>
      </trkpt>
      <trkpt lat="46.46878" lon="5.22105">
        <ele>205.4</ele>
        <time>2021-10-30T12:02:09Z</time>
      </trkpt>
      <trkpt lat="46.46886" lon="5.22115">
        <ele>204.4</ele>
        <time>2021-10-30T12:02:10Z</time>
      </trkpt>
      <trkpt lat="46.46896" lon="5.22123">
        <ele>203.8</ele>
        <time>2021-10-30T12:02:11Z</time>
      </trkpt>
      <trkpt lat="46.46907" lon="5.22128">
        <ele>203</ele>
        <time>2021-10-30T12:02:12Z</time>
      </trkpt>
      <trkpt lat="46.46919" lon="5.2213">
        <ele>202.4</ele>
        <time>2021-10-30T12:02:13Z</time>
      </trkpt>
      <trkpt lat="46.4693" lon="5.22131">
        <ele>201.8</ele>
        <time>2021-10-30T12:02:14Z</time>
      </trkpt>
      <trkpt lat="46.46952" lon="5.22131">
        <ele>200.8</ele>
        <time>2021-10-30T12:02:16Z</time>
      </trkpt>
      <trkpt lat="46.47" lon="5.22129">
        <ele>199.8</ele>
        <time>2021-10-30T12:02:21Z</time>
      </trkpt>
      <trkpt lat="46.47039" lon="5.22128">
        <ele>202</ele>
        <time>2021-10-30T12:02:26Z</time>
      </trkpt>
      <trkpt lat="46.4706" lon="5.22132">
        <ele>203.4</ele>
        <time>2021-10-30T12:02:29Z</time>
      </trkpt>
      <trkpt lat="46.4708" lon="5.22138">
        <ele>204.8</ele>
        <time>2021-10-30T12:02:32Z</time>
      </trkpt>
      <trkpt lat="46.47107" lon="5.22149">
        <ele>205.8</ele>
        <time>2021-10-30T12:02:36Z</time>
      </trkpt>
      <trkpt lat="46.47134" lon="5.2216">
        <ele>206.8</ele>
        <time>2021-10-30T12:02:40Z</time>
      </trkpt>
      <trkpt lat="46.4714" lon="5.22162">
        <ele>207</ele>
        <time>2021-10-30T12:02:41Z</time>
      </trkpt>
      <trkpt lat="46.47181" lon="5.22177">
        <ele>207.8</ele>
        <time>2021-10-30T12:02:47Z</time>
      </trkpt>
      <trkpt lat="46.47187" lon="5.2218">
        <ele>208</ele>
        <time>2021-10-30T12:02:48Z</time>
      </trkpt>
      <trkpt lat="46.47225" lon="5.22194">
        <ele>208.8</ele>
        <time>2021-10-30T12:02:54Z</time>
      </trkpt>
      <trkpt lat="46.4723" lon="5.22196">
        <ele>209</ele>
        <time>2021-10-30T12:02:55Z</time>
      </trkpt>
      <trkpt lat="46.47248" lon="5.22202">
        <ele>209.2</ele>
        <time>2021-10-30T12:02:58Z</time>
      </trkpt>
      <trkpt lat="46.47264" lon="5.22208">
        <ele>210</ele>
        <time>2021-10-30T12:03:01Z</time>
      </trkpt>
      <trkpt lat="46.47269" lon="5.2221">
        <ele>210.2</ele>
        <time>2021-10-30T12:03:02Z</time>
      </trkpt>
      <trkpt lat="46.47294" lon="5.2222">
        <ele>211</ele>
        <time>2021-10-30T12:03:07Z</time>
      </trkpt>
      <trkpt lat="46.47299" lon="5.22222">
        <ele>211.4</ele>
        <time>2021-10-30T12:03:08Z</time>
      </trkpt>
      <trkpt lat="46.47313" lon="5.22228">
        <ele>212.2</ele>
        <time>2021-10-30T12:03:11Z</time>
      </trkpt>
      <trkpt lat="46.47323" lon="5.22231">
        <ele>212.4</ele>
        <time>2021-10-30T12:03:13Z</time>
      </trkpt>
      <trkpt lat="46.47332" lon="5.22234">
        <ele>212.6</ele>
        <time>2021-10-30T12:03:15Z</time>
      </trkpt>
      <trkpt lat="46.47345" lon="5.2224">
        <ele>213</ele>
        <time>2021-10-30T12:03:18Z</time>
      </trkpt>
      <trkpt lat="46.47367" lon="5.2225">
        <ele>213.4</ele>
        <time>2021-10-30T12:03:23Z</time>
      </trkpt>
      <trkpt lat="46.47372" lon="5.22252">
        <ele>213.4</ele>
        <time>2021-10-30T12:03:24Z</time>
      </trkpt>
      <trkpt lat="46.47381" lon="5.22257">
        <ele>213.6</ele>
        <time>2021-10-30T12:03:26Z</time>
      </trkpt>
      <trkpt lat="46.47416" lon="5.22275">
        <ele>214.4</ele>
        <time>2021-10-30T12:03:33Z</time>
      </trkpt>
      <trkpt lat="46.47427" lon="5.22281">
        <ele>214.4</ele>
        <time>2021-10-30T12:03:35Z</time>
      </trkpt>
      <trkpt lat="46.47433" lon="5.22284">
        <ele>214.4</ele>
        <time>2021-10-30T12:03:36Z</time>
      </trkpt>
      <trkpt lat="46.47456" lon="5.22296">
        <ele>214.4</ele>
        <time>2021-10-30T12:03:40Z</time>
      </trkpt>
      <trkpt lat="46.475" lon="5.2232">
        <ele>214.2</ele>
        <time>2021-10-30T12:03:47Z</time>
      </trkpt>
      <trkpt lat="46.47547" lon="5.22348">
        <ele>214.4</ele>
        <time>2021-10-30T12:03:55Z</time>
      </trkpt>
      <trkpt lat="46.47593" lon="5.22369">
        <ele>214.4</ele>
        <time>2021-10-30T12:04:03Z</time>
      </trkpt>
      <trkpt lat="46.4764" lon="5.22386">
        <ele>215</ele>
        <time>2021-10-30T12:04:11Z</time>
      </trkpt>
      <trkpt lat="46.47685" lon="5.22396">
        <ele>215.2</ele>
        <time>2021-10-30T12:04:19Z</time>
      </trkpt>
      <trkpt lat="46.47706" lon="5.22398">
        <ele>215.8</ele>
        <time>2021-10-30T12:04:23Z</time>
      </trkpt>
      <trkpt lat="46.47715" lon="5.22398">
        <ele>216.2</ele>
        <time>2021-10-30T12:04:25Z</time>
      </trkpt>
      <trkpt lat="46.47755" lon="5.224">
        <ele>216.6</ele>
        <time>2021-10-30T12:04:33Z</time>
      </trkpt>
      <trkpt lat="46.47768" lon="5.22402">
        <ele>216.2</ele>
        <time>2021-10-30T12:04:38Z</time>
      </trkpt>
      <trkpt lat="46.47768" lon="5.22402">
        <ele>216</ele>
        <time>2021-10-30T12:04:40Z</time>
      </trkpt>
      <trkpt lat="46.47776" lon="5.22396">
        <ele>216.2</ele>
        <time>2021-10-30T12:05:11Z</time>
      </trkpt>
      <trkpt lat="46.47775" lon="5.22387">
        <ele>216.2</ele>
        <time>2021-10-30T12:05:13Z</time>
      </trkpt>
      <trkpt lat="46.47771" lon="5.22361">
        <ele>215.2</ele>
        <time>2021-10-30T12:05:17Z</time>
      </trkpt>
      <trkpt lat="46.47768" lon="5.22347">
        <ele>214.8</ele>
        <time>2021-10-30T12:05:19Z</time>
      </trkpt>
      <trkpt lat="46.47767" lon="5.22339">
        <ele>214.6</ele>
        <time>2021-10-30T12:05:20Z</time>
      </trkpt>
      <trkpt lat="46.47767" lon="5.22331">
        <ele>214.6</ele>
        <time>2021-10-30T12:05:21Z</time>
      </trkpt>
      <trkpt lat="46.47769" lon="5.22324">
        <ele>214.4</ele>
        <time>2021-10-30T12:05:22Z</time>
      </trkpt>
      <trkpt lat="46.47772" lon="5.22318">
        <ele>214.4</ele>
        <time>2021-10-30T12:05:23Z</time>
      </trkpt>
      <trkpt lat="46.47782" lon="5.22312">
        <ele>214.4</ele>
        <time>2021-10-30T12:05:25Z</time>
      </trkpt>
      <trkpt lat="46.47817" lon="5.22307">
        <ele>214.4</ele>
        <time>2021-10-30T12:05:31Z</time>
      </trkpt>
      <trkpt lat="46.47864" lon="5.22302">
        <ele>214.8</ele>
        <time>2021-10-30T12:05:38Z</time>
      </trkpt>
      <trkpt lat="46.47881" lon="5.22299">
        <ele>214.8</ele>
        <time>2021-10-30T12:05:40Z</time>
      </trkpt>
      <trkpt lat="46.47912" lon="5.22295">
        <ele>214.6</ele>
        <time>2021-10-30T12:05:44Z</time>
      </trkpt>
      <trkpt lat="46.47962" lon="5.22287">
        <ele>213.6</ele>
        <time>2021-10-30T12:05:50Z</time>
      </trkpt>
      <trkpt lat="46.47971" lon="5.22287">
        <ele>213.6</ele>
        <time>2021-10-30T12:05:51Z</time>
      </trkpt>
      <trkpt lat="46.48028" lon="5.22285">
        <ele>212.4</ele>
        <time>2021-10-30T12:05:58Z</time>
      </trkpt>
      <trkpt lat="46.48051" lon="5.22276">
        <ele>212.2</ele>
        <time>2021-10-30T12:06:01Z</time>
      </trkpt>
      <trkpt lat="46.48058" lon="5.22271">
        <ele>212.2</ele>
        <time>2021-10-30T12:06:02Z</time>
      </trkpt>
      <trkpt lat="46.48093" lon="5.2224">
        <ele>211.4</ele>
        <time>2021-10-30T12:06:07Z</time>
      </trkpt>
      <trkpt lat="46.48101" lon="5.22235">
        <ele>211.4</ele>
        <time>2021-10-30T12:06:08Z</time>
      </trkpt>
      <trkpt lat="46.48125" lon="5.22227">
        <ele>211.2</ele>
        <time>2021-10-30T12:06:11Z</time>
      </trkpt>
      <trkpt lat="46.48183" lon="5.22214">
        <ele>211.2</ele>
        <time>2021-10-30T12:06:18Z</time>
      </trkpt>
      <trkpt lat="46.48216" lon="5.22208">
        <ele>211</ele>
        <time>2021-10-30T12:06:22Z</time>
      </trkpt>
      <trkpt lat="46.48232" lon="5.22209">
        <ele>211</ele>
        <time>2021-10-30T12:06:24Z</time>
      </trkpt>
      <trkpt lat="46.48288" lon="5.22223">
        <ele>211.2</ele>
        <time>2021-10-30T12:06:31Z</time>
      </trkpt>
      <trkpt lat="46.48334" lon="5.22225">
        <ele>211.8</ele>
        <time>2021-10-30T12:06:37Z</time>
      </trkpt>
      <trkpt lat="46.4835" lon="5.22228">
        <ele>212.6</ele>
        <time>2021-10-30T12:06:39Z</time>
      </trkpt>
      <trkpt lat="46.48372" lon="5.22235">
        <ele>213.2</ele>
        <time>2021-10-30T12:06:42Z</time>
      </trkpt>
      <trkpt lat="46.48379" lon="5.22239">
        <ele>213.4</ele>
        <time>2021-10-30T12:06:43Z</time>
      </trkpt>
      <trkpt lat="46.48386" lon="5.22244">
        <ele>213.6</ele>
        <time>2021-10-30T12:06:44Z</time>
      </trkpt>
      <trkpt lat="46.48417" lon="5.2227">
        <ele>214.2</ele>
        <time>2021-10-30T12:06:49Z</time>
      </trkpt>
      <trkpt lat="46.48449" lon="5.22312">
        <ele>214.8</ele>
        <time>2021-10-30T12:06:55Z</time>
      </trkpt>
      <trkpt lat="46.48482" lon="5.22353">
        <ele>215.4</ele>
        <time>2021-10-30T12:07:01Z</time>
      </trkpt>
      <trkpt lat="46.48488" lon="5.22359">
        <ele>215.4</ele>
        <time>2021-10-30T12:07:02Z</time>
      </trkpt>
      <trkpt lat="46.48528" lon="5.22386">
        <ele>215.2</ele>
        <time>2021-10-30T12:07:08Z</time>
      </trkpt>
      <trkpt lat="46.48581" lon="5.22427">
        <ele>215.2</ele>
        <time>2021-10-30T12:07:16Z</time>
      </trkpt>
      <trkpt lat="46.48632" lon="5.22474">
        <ele>215</ele>
        <time>2021-10-30T12:07:24Z</time>
      </trkpt>
      <trkpt lat="46.48645" lon="5.22488">
        <ele>215</ele>
        <time>2021-10-30T12:07:26Z</time>
      </trkpt>
      <trkpt lat="46.48683" lon="5.22533">
        <ele>213.8</ele>
        <time>2021-10-30T12:07:32Z</time>
      </trkpt>
      <trkpt lat="46.4869" lon="5.22539">
        <ele>213.6</ele>
        <time>2021-10-30T12:07:33Z</time>
      </trkpt>
      <trkpt lat="46.4873" lon="5.22563">
        <ele>212.8</ele>
        <time>2021-10-30T12:07:38Z</time>
      </trkpt>
      <trkpt lat="46.48745" lon="5.22572">
        <ele>212.4</ele>
        <time>2021-10-30T12:07:40Z</time>
      </trkpt>
      <trkpt lat="46.488" lon="5.22603">
        <ele>212</ele>
        <time>2021-10-30T12:07:47Z</time>
      </trkpt>
      <trkpt lat="46.48816" lon="5.22611">
        <ele>212</ele>
        <time>2021-10-30T12:07:49Z</time>
      </trkpt>
      <trkpt lat="46.48868" lon="5.2264">
        <ele>212.2</ele>
        <time>2021-10-30T12:07:56Z</time>
      </trkpt>
      <trkpt lat="46.48875" lon="5.22644">
        <ele>212.2</ele>
        <time>2021-10-30T12:07:57Z</time>
      </trkpt>
      <trkpt lat="46.48925" lon="5.22668">
        <ele>213.2</ele>
        <time>2021-10-30T12:08:04Z</time>
      </trkpt>
      <trkpt lat="46.4896" lon="5.22686">
        <ele>213.8</ele>
        <time>2021-10-30T12:08:09Z</time>
      </trkpt>
      <trkpt lat="46.4898" lon="5.22696">
        <ele>214.2</ele>
        <time>2021-10-30T12:08:12Z</time>
      </trkpt>
      <trkpt lat="46.49032" lon="5.22724">
        <ele>214.8</ele>
        <time>2021-10-30T12:08:20Z</time>
      </trkpt>
      <trkpt lat="46.49038" lon="5.22728">
        <ele>215</ele>
        <time>2021-10-30T12:08:21Z</time>
      </trkpt>
      <trkpt lat="46.49045" lon="5.22731">
        <ele>215</ele>
        <time>2021-10-30T12:08:22Z</time>
      </trkpt>
      <trkpt lat="46.49099" lon="5.22759">
        <ele>215.2</ele>
        <time>2021-10-30T12:08:30Z</time>
      </trkpt>
      <trkpt lat="46.49106" lon="5.22763">
        <ele>215.2</ele>
        <time>2021-10-30T12:08:31Z</time>
      </trkpt>
      <trkpt lat="46.49158" lon="5.2279">
        <ele>215.2</ele>
        <time>2021-10-30T12:08:39Z</time>
      </trkpt>
      <trkpt lat="46.49173" lon="5.22796">
        <ele>215.4</ele>
        <time>2021-10-30T12:08:41Z</time>
      </trkpt>
      <trkpt lat="46.4919" lon="5.22799">
        <ele>215.6</ele>
        <time>2021-10-30T12:08:44Z</time>
      </trkpt>
      <trkpt lat="46.49204" lon="5.22798">
        <ele>215.8</ele>
        <time>2021-10-30T12:08:46Z</time>
      </trkpt>
      <trkpt lat="46.49217" lon="5.22797">
        <ele>216</ele>
        <time>2021-10-30T12:08:48Z</time>
      </trkpt>
      <trkpt lat="46.4923" lon="5.22789">
        <ele>216</ele>
        <time>2021-10-30T12:08:50Z</time>
      </trkpt>
      <trkpt lat="46.49237" lon="5.22772">
        <ele>216</ele>
        <time>2021-10-30T12:08:52Z</time>
      </trkpt>
      <trkpt lat="46.49239" lon="5.22763">
        <ele>215.8</ele>
        <time>2021-10-30T12:08:53Z</time>
      </trkpt>
      <trkpt lat="46.49239" lon="5.22753">
        <ele>215.6</ele>
        <time>2021-10-30T12:08:54Z</time>
      </trkpt>
      <trkpt lat="46.49239" lon="5.22723">
        <ele>215.4</ele>
        <time>2021-10-30T12:08:57Z</time>
      </trkpt>
      <trkpt lat="46.49234" lon="5.22664">
        <ele>215.4</ele>
        <time>2021-10-30T12:09:03Z</time>
      </trkpt>
      <trkpt lat="46.49231" lon="5.22655">
        <ele>215.4</ele>
        <time>2021-10-30T12:09:04Z</time>
      </trkpt>
      <trkpt lat="46.49222" lon="5.22614">
        <ele>214.8</ele>
        <time>2021-10-30T12:09:08Z</time>
      </trkpt>
      <trkpt lat="46.49217" lon="5.22592">
        <ele>214.2</ele>
        <time>2021-10-30T12:09:10Z</time>
      </trkpt>
      <trkpt lat="46.49214" lon="5.2258">
        <ele>213.8</ele>
        <time>2021-10-30T12:09:11Z</time>
      </trkpt>
      <trkpt lat="46.49203" lon="5.22547">
        <ele>212.8</ele>
        <time>2021-10-30T12:09:14Z</time>
      </trkpt>
      <trkpt lat="46.49195" lon="5.22524">
        <ele>212.2</ele>
        <time>2021-10-30T12:09:16Z</time>
      </trkpt>
      <trkpt lat="46.4918" lon="5.2248">
        <ele>211.6</ele>
        <time>2021-10-30T12:09:20Z</time>
      </trkpt>
      <trkpt lat="46.49172" lon="5.22445">
        <ele>211.4</ele>
        <time>2021-10-30T12:09:23Z</time>
      </trkpt>
      <trkpt lat="46.49166" lon="5.22389">
        <ele>211.4</ele>
        <time>2021-10-30T12:09:28Z</time>
      </trkpt>
      <trkpt lat="46.49166" lon="5.22329">
        <ele>212.2</ele>
        <time>2021-10-30T12:09:34Z</time>
      </trkpt>
      <trkpt lat="46.49167" lon="5.22309">
        <ele>212.8</ele>
        <time>2021-10-30T12:09:36Z</time>
      </trkpt>
      <trkpt lat="46.49166" lon="5.22255">
        <ele>213.8</ele>
        <time>2021-10-30T12:09:42Z</time>
      </trkpt>
      <trkpt lat="46.49166" lon="5.22239">
        <ele>214.4</ele>
        <time>2021-10-30T12:09:44Z</time>
      </trkpt>
      <trkpt lat="46.49168" lon="5.22216">
        <ele>214.8</ele>
        <time>2021-10-30T12:09:47Z</time>
      </trkpt>
      <trkpt lat="46.49168" lon="5.22196">
        <ele>215</ele>
        <time>2021-10-30T12:09:49Z</time>
      </trkpt>
      <trkpt lat="46.4917" lon="5.2218">
        <ele>215.4</ele>
        <time>2021-10-30T12:09:51Z</time>
      </trkpt>
      <trkpt lat="46.49172" lon="5.22164">
        <ele>215.8</ele>
        <time>2021-10-30T12:09:53Z</time>
      </trkpt>
      <trkpt lat="46.49178" lon="5.22148">
        <ele>216</ele>
        <time>2021-10-30T12:09:55Z</time>
      </trkpt>
      <trkpt lat="46.49184" lon="5.22135">
        <ele>216.8</ele>
        <time>2021-10-30T12:09:57Z</time>
      </trkpt>
      <trkpt lat="46.49188" lon="5.22129">
        <ele>217</ele>
        <time>2021-10-30T12:09:58Z</time>
      </trkpt>
      <trkpt lat="46.49199" lon="5.22116">
        <ele>217.4</ele>
        <time>2021-10-30T12:10:00Z</time>
      </trkpt>
      <trkpt lat="46.49222" lon="5.22087">
        <ele>217.4</ele>
        <time>2021-10-30T12:10:05Z</time>
      </trkpt>
      <trkpt lat="46.49233" lon="5.22067">
        <ele>217.4</ele>
        <time>2021-10-30T12:10:08Z</time>
      </trkpt>
      <trkpt lat="46.49255" lon="5.22011">
        <ele>217</ele>
        <time>2021-10-30T12:10:15Z</time>
      </trkpt>
      <trkpt lat="46.4928" lon="5.21941">
        <ele>217.2</ele>
        <time>2021-10-30T12:10:23Z</time>
      </trkpt>
      <trkpt lat="46.49286" lon="5.21922">
        <ele>217</ele>
        <time>2021-10-30T12:10:25Z</time>
      </trkpt>
      <trkpt lat="46.49308" lon="5.21866">
        <ele>215.6</ele>
        <time>2021-10-30T12:10:31Z</time>
      </trkpt>
      <trkpt lat="46.4934" lon="5.21815">
        <ele>214.8</ele>
        <time>2021-10-30T12:10:37Z</time>
      </trkpt>
      <trkpt lat="46.49351" lon="5.21796">
        <ele>214.4</ele>
        <time>2021-10-30T12:10:39Z</time>
      </trkpt>
      <trkpt lat="46.49355" lon="5.21786">
        <ele>214.2</ele>
        <time>2021-10-30T12:10:40Z</time>
      </trkpt>
      <trkpt lat="46.49362" lon="5.21763">
        <ele>213.6</ele>
        <time>2021-10-30T12:10:42Z</time>
      </trkpt>
      <trkpt lat="46.49366" lon="5.21752">
        <ele>213</ele>
        <time>2021-10-30T12:10:43Z</time>
      </trkpt>
      <trkpt lat="46.49372" lon="5.21728">
        <ele>211.6</ele>
        <time>2021-10-30T12:10:46Z</time>
      </trkpt>
      <trkpt lat="46.49384" lon="5.21678">
        <ele>210.6</ele>
        <time>2021-10-30T12:10:49Z</time>
      </trkpt>
      <trkpt lat="46.4939" lon="5.21652">
        <ele>209.8</ele>
        <time>2021-10-30T12:10:51Z</time>
      </trkpt>
      <trkpt lat="46.49393" lon="5.21639">
        <ele>209.2</ele>
        <time>2021-10-30T12:10:52Z</time>
      </trkpt>
      <trkpt lat="46.49402" lon="5.216">
        <ele>208</ele>
        <time>2021-10-30T12:10:55Z</time>
      </trkpt>
      <trkpt lat="46.49406" lon="5.21587">
        <ele>208</ele>
        <time>2021-10-30T12:10:56Z</time>
      </trkpt>
      <trkpt lat="46.49422" lon="5.21534">
        <ele>206.8</ele>
        <time>2021-10-30T12:11:00Z</time>
      </trkpt>
      <trkpt lat="46.49427" lon="5.21521">
        <ele>206.8</ele>
        <time>2021-10-30T12:11:01Z</time>
      </trkpt>
      <trkpt lat="46.49431" lon="5.21512">
        <ele>206.6</ele>
        <time>2021-10-30T12:11:02Z</time>
      </trkpt>
      <trkpt lat="46.49447" lon="5.21473">
        <ele>206</ele>
        <time>2021-10-30T12:11:05Z</time>
      </trkpt>
      <trkpt lat="46.49451" lon="5.21459">
        <ele>205.4</ele>
        <time>2021-10-30T12:11:06Z</time>
      </trkpt>
      <trkpt lat="46.49453" lon="5.21449">
        <ele>205</ele>
        <time>2021-10-30T12:11:07Z</time>
      </trkpt>
      <trkpt lat="46.49468" lon="5.21369">
        <ele>204.6</ele>
        <time>2021-10-30T12:11:13Z</time>
      </trkpt>
      <trkpt lat="46.49481" lon="5.21304">
        <ele>204.6</ele>
        <time>2021-10-30T12:11:19Z</time>
      </trkpt>
      <trkpt lat="46.49489" lon="5.21245">
        <ele>205</ele>
        <time>2021-10-30T12:11:25Z</time>
      </trkpt>
      <trkpt lat="46.49489" lon="5.21235">
        <ele>205.2</ele>
        <time>2021-10-30T12:11:26Z</time>
      </trkpt>
      <trkpt lat="46.49489" lon="5.21226">
        <ele>205.2</ele>
        <time>2021-10-30T12:11:27Z</time>
      </trkpt>
      <trkpt lat="46.49486" lon="5.21187">
        <ele>205.8</ele>
        <time>2021-10-30T12:11:31Z</time>
      </trkpt>
      <trkpt lat="46.49484" lon="5.21158">
        <ele>206.4</ele>
        <time>2021-10-30T12:11:34Z</time>
      </trkpt>
      <trkpt lat="46.49481" lon="5.21105">
        <ele>207</ele>
        <time>2021-10-30T12:11:39Z</time>
      </trkpt>
      <trkpt lat="46.49479" lon="5.21076">
        <ele>207.4</ele>
        <time>2021-10-30T12:11:42Z</time>
      </trkpt>
      <trkpt lat="46.49478" lon="5.21068">
        <ele>207.4</ele>
        <time>2021-10-30T12:11:43Z</time>
      </trkpt>
      <trkpt lat="46.49477" lon="5.21027">
        <ele>207.6</ele>
        <time>2021-10-30T12:11:47Z</time>
      </trkpt>
      <trkpt lat="46.49472" lon="5.20962">
        <ele>208.4</ele>
        <time>2021-10-30T12:11:54Z</time>
      </trkpt>
      <trkpt lat="46.49471" lon="5.20931">
        <ele>208.6</ele>
        <time>2021-10-30T12:11:57Z</time>
      </trkpt>
      <trkpt lat="46.49466" lon="5.20857">
        <ele>208</ele>
        <time>2021-10-30T12:12:04Z</time>
      </trkpt>
      <trkpt lat="46.49464" lon="5.20832">
        <ele>207.4</ele>
        <time>2021-10-30T12:12:06Z</time>
      </trkpt>
      <trkpt lat="46.49464" lon="5.20785">
        <ele>206.6</ele>
        <time>2021-10-30T12:12:10Z</time>
      </trkpt>
      <trkpt lat="46.49464" lon="5.20773">
        <ele>206</ele>
        <time>2021-10-30T12:12:11Z</time>
      </trkpt>
      <trkpt lat="46.49474" lon="5.20713">
        <ele>204.6</ele>
        <time>2021-10-30T12:12:16Z</time>
      </trkpt>
      <trkpt lat="46.49484" lon="5.20664">
        <ele>203.4</ele>
        <time>2021-10-30T12:12:20Z</time>
      </trkpt>
      <trkpt lat="46.49494" lon="5.20613">
        <ele>202.2</ele>
        <time>2021-10-30T12:12:24Z</time>
      </trkpt>
      <trkpt lat="46.49505" lon="5.20562">
        <ele>201</ele>
        <time>2021-10-30T12:12:28Z</time>
      </trkpt>
      <trkpt lat="46.49519" lon="5.20491">
        <ele>200.2</ele>
        <time>2021-10-30T12:12:34Z</time>
      </trkpt>
      <trkpt lat="46.49527" lon="5.20446">
        <ele>200.2</ele>
        <time>2021-10-30T12:12:38Z</time>
      </trkpt>
      <trkpt lat="46.49528" lon="5.20425">
        <ele>200</ele>
        <time>2021-10-30T12:12:40Z</time>
      </trkpt>
      <trkpt lat="46.49528" lon="5.20405">
        <ele>200</ele>
        <time>2021-10-30T12:12:42Z</time>
      </trkpt>
      <trkpt lat="46.49527" lon="5.20372">
        <ele>200.4</ele>
        <time>2021-10-30T12:12:45Z</time>
      </trkpt>
      <trkpt lat="46.49515" lon="5.20293">
        <ele>201.4</ele>
        <time>2021-10-30T12:12:53Z</time>
      </trkpt>
      <trkpt lat="46.49513" lon="5.20284">
        <ele>201.4</ele>
        <time>2021-10-30T12:12:54Z</time>
      </trkpt>
      <trkpt lat="46.49507" lon="5.20259">
        <ele>202.2</ele>
        <time>2021-10-30T12:12:57Z</time>
      </trkpt>
      <trkpt lat="46.49501" lon="5.2023">
        <ele>202.8</ele>
        <time>2021-10-30T12:13:01Z</time>
      </trkpt>
      <trkpt lat="46.49498" lon="5.20217">
        <ele>203.2</ele>
        <time>2021-10-30T12:13:03Z</time>
      </trkpt>
      <trkpt lat="46.49493" lon="5.20198">
        <ele>204.4</ele>
        <time>2021-10-30T12:13:06Z</time>
      </trkpt>
      <trkpt lat="46.49489" lon="5.20179">
        <ele>205.4</ele>
        <time>2021-10-30T12:13:09Z</time>
      </trkpt>
      <trkpt lat="46.49488" lon="5.20173">
        <ele>205.6</ele>
        <time>2021-10-30T12:13:10Z</time>
      </trkpt>
      <trkpt lat="46.49482" lon="5.20149">
        <ele>206.8</ele>
        <time>2021-10-30T12:13:14Z</time>
      </trkpt>
      <trkpt lat="46.49481" lon="5.20143">
        <ele>207</ele>
        <time>2021-10-30T12:13:15Z</time>
      </trkpt>
      <trkpt lat="46.49478" lon="5.20132">
        <ele>207.8</ele>
        <time>2021-10-30T12:13:17Z</time>
      </trkpt>
      <trkpt lat="46.49477" lon="5.20126">
        <ele>208.2</ele>
        <time>2021-10-30T12:13:18Z</time>
      </trkpt>
      <trkpt lat="46.49473" lon="5.20105">
        <ele>209.4</ele>
        <time>2021-10-30T12:13:22Z</time>
      </trkpt>
      <trkpt lat="46.4947" lon="5.20094">
        <ele>210.2</ele>
        <time>2021-10-30T12:13:24Z</time>
      </trkpt>
      <trkpt lat="46.49469" lon="5.20088">
        <ele>210.6</ele>
        <time>2021-10-30T12:13:25Z</time>
      </trkpt>
      <trkpt lat="46.49462" lon="5.20038">
        <ele>211.6</ele>
        <time>2021-10-30T12:13:34Z</time>
      </trkpt>
      <trkpt lat="46.49456" lon="5.20001">
        <ele>212.6</ele>
        <time>2021-10-30T12:13:40Z</time>
      </trkpt>
      <trkpt lat="46.49456" lon="5.19995">
        <ele>212.8</ele>
        <time>2021-10-30T12:13:41Z</time>
      </trkpt>
      <trkpt lat="46.49454" lon="5.19963">
        <ele>213.8</ele>
        <time>2021-10-30T12:13:46Z</time>
      </trkpt>
      <trkpt lat="46.49453" lon="5.19943">
        <ele>214</ele>
        <time>2021-10-30T12:13:49Z</time>
      </trkpt>
      <trkpt lat="46.49452" lon="5.19882">
        <ele>214.6</ele>
        <time>2021-10-30T12:13:58Z</time>
      </trkpt>
      <trkpt lat="46.49453" lon="5.19833">
        <ele>214.6</ele>
        <time>2021-10-30T12:14:04Z</time>
      </trkpt>
      <trkpt lat="46.49456" lon="5.19766">
        <ele>213.2</ele>
        <time>2021-10-30T12:14:11Z</time>
      </trkpt>
      <trkpt lat="46.49456" lon="5.19755">
        <ele>212.8</ele>
        <time>2021-10-30T12:14:12Z</time>
      </trkpt>
      <trkpt lat="46.49455" lon="5.19707">
        <ele>211.8</ele>
        <time>2021-10-30T12:14:16Z</time>
      </trkpt>
      <trkpt lat="46.4945" lon="5.19643">
        <ele>210.8</ele>
        <time>2021-10-30T12:14:21Z</time>
      </trkpt>
      <trkpt lat="46.4945" lon="5.19618">
        <ele>210.4</ele>
        <time>2021-10-30T12:14:23Z</time>
      </trkpt>
      <trkpt lat="46.49452" lon="5.19567">
        <ele>209.6</ele>
        <time>2021-10-30T12:14:27Z</time>
      </trkpt>
      <trkpt lat="46.49455" lon="5.19526">
        <ele>209</ele>
        <time>2021-10-30T12:14:30Z</time>
      </trkpt>
      <trkpt lat="46.49458" lon="5.195">
        <ele>208.6</ele>
        <time>2021-10-30T12:14:32Z</time>
      </trkpt>
      <trkpt lat="46.49463" lon="5.19448">
        <ele>207.4</ele>
        <time>2021-10-30T12:14:36Z</time>
      </trkpt>
      <trkpt lat="46.49465" lon="5.19425">
        <ele>207</ele>
        <time>2021-10-30T12:14:38Z</time>
      </trkpt>
      <trkpt lat="46.49474" lon="5.19338">
        <ele>206.4</ele>
        <time>2021-10-30T12:14:45Z</time>
      </trkpt>
      <trkpt lat="46.49477" lon="5.19315">
        <ele>206.4</ele>
        <time>2021-10-30T12:14:47Z</time>
      </trkpt>
      <trkpt lat="46.49486" lon="5.19261">
        <ele>205.8</ele>
        <time>2021-10-30T12:14:52Z</time>
      </trkpt>
      <trkpt lat="46.49504" lon="5.1921">
        <ele>205.4</ele>
        <time>2021-10-30T12:14:57Z</time>
      </trkpt>
      <trkpt lat="46.49514" lon="5.19194">
        <ele>205.2</ele>
        <time>2021-10-30T12:14:59Z</time>
      </trkpt>
      <trkpt lat="46.49524" lon="5.19181">
        <ele>205</ele>
        <time>2021-10-30T12:15:01Z</time>
      </trkpt>
      <trkpt lat="46.49556" lon="5.19149">
        <ele>206.2</ele>
        <time>2021-10-30T12:15:07Z</time>
      </trkpt>
      <trkpt lat="46.49567" lon="5.19139">
        <ele>206.8</ele>
        <time>2021-10-30T12:15:09Z</time>
      </trkpt>
      <trkpt lat="46.49571" lon="5.19134">
        <ele>206.8</ele>
        <time>2021-10-30T12:15:10Z</time>
      </trkpt>
      <trkpt lat="46.49576" lon="5.19125">
        <ele>207.2</ele>
        <time>2021-10-30T12:15:12Z</time>
      </trkpt>
      <trkpt lat="46.49594" lon="5.19101">
        <ele>207.8</ele>
        <time>2021-10-30T12:15:17Z</time>
      </trkpt>
      <trkpt lat="46.49602" lon="5.19088">
        <ele>208.4</ele>
        <time>2021-10-30T12:15:19Z</time>
      </trkpt>
      <trkpt lat="46.49609" lon="5.19074">
        <ele>209</ele>
        <time>2021-10-30T12:15:21Z</time>
      </trkpt>
      <trkpt lat="46.49618" lon="5.19051">
        <ele>209.4</ele>
        <time>2021-10-30T12:15:24Z</time>
      </trkpt>
      <trkpt lat="46.49627" lon="5.19025">
        <ele>209.6</ele>
        <time>2021-10-30T12:15:27Z</time>
      </trkpt>
      <trkpt lat="46.49636" lon="5.19006">
        <ele>209.6</ele>
        <time>2021-10-30T12:15:29Z</time>
      </trkpt>
      <trkpt lat="46.49643" lon="5.18989">
        <ele>210</ele>
        <time>2021-10-30T12:15:31Z</time>
      </trkpt>
      <trkpt lat="46.49646" lon="5.18979">
        <ele>210</ele>
        <time>2021-10-30T12:15:32Z</time>
      </trkpt>
      <trkpt lat="46.49658" lon="5.1894">
        <ele>210</ele>
        <time>2021-10-30T12:15:36Z</time>
      </trkpt>
      <trkpt lat="46.49667" lon="5.18879">
        <ele>210</ele>
        <time>2021-10-30T12:15:42Z</time>
      </trkpt>
      <trkpt lat="46.49667" lon="5.18811">
        <ele>209.8</ele>
        <time>2021-10-30T12:15:49Z</time>
      </trkpt>
      <trkpt lat="46.49666" lon="5.18801">
        <ele>209.8</ele>
        <time>2021-10-30T12:15:50Z</time>
      </trkpt>
      <trkpt lat="46.4966" lon="5.18758">
        <ele>210.2</ele>
        <time>2021-10-30T12:15:55Z</time>
      </trkpt>
      <trkpt lat="46.49652" lon="5.18702">
        <ele>211.2</ele>
        <time>2021-10-30T12:16:02Z</time>
      </trkpt>
      <trkpt lat="46.4965" lon="5.18686">
        <ele>211.6</ele>
        <time>2021-10-30T12:16:04Z</time>
      </trkpt>
      <trkpt lat="46.49642" lon="5.18637">
        <ele>212</ele>
        <time>2021-10-30T12:16:10Z</time>
      </trkpt>
      <trkpt lat="46.49629" lon="5.18565">
        <ele>211.6</ele>
        <time>2021-10-30T12:16:18Z</time>
      </trkpt>
      <trkpt lat="46.49619" lon="5.18514">
        <ele>211.4</ele>
        <time>2021-10-30T12:16:23Z</time>
      </trkpt>
      <trkpt lat="46.49614" lon="5.18494">
        <ele>211.2</ele>
        <time>2021-10-30T12:16:25Z</time>
      </trkpt>
      <trkpt lat="46.49607" lon="5.1846">
        <ele>210.2</ele>
        <time>2021-10-30T12:16:28Z</time>
      </trkpt>
      <trkpt lat="46.49602" lon="5.18437">
        <ele>209.2</ele>
        <time>2021-10-30T12:16:30Z</time>
      </trkpt>
      <trkpt lat="46.49596" lon="5.18413">
        <ele>208</ele>
        <time>2021-10-30T12:16:32Z</time>
      </trkpt>
      <trkpt lat="46.49588" lon="5.18377">
        <ele>206.8</ele>
        <time>2021-10-30T12:16:35Z</time>
      </trkpt>
      <trkpt lat="46.49586" lon="5.18366">
        <ele>206.6</ele>
        <time>2021-10-30T12:16:36Z</time>
      </trkpt>
      <trkpt lat="46.49578" lon="5.18331">
        <ele>205.8</ele>
        <time>2021-10-30T12:16:39Z</time>
      </trkpt>
      <trkpt lat="46.4956" lon="5.18255">
        <ele>205.4</ele>
        <time>2021-10-30T12:16:46Z</time>
      </trkpt>
      <trkpt lat="46.49543" lon="5.18192">
        <ele>205.8</ele>
        <time>2021-10-30T12:16:53Z</time>
      </trkpt>
      <trkpt lat="46.49529" lon="5.18146">
        <ele>206</ele>
        <time>2021-10-30T12:16:59Z</time>
      </trkpt>
      <trkpt lat="46.49517" lon="5.18099">
        <ele>206.4</ele>
        <time>2021-10-30T12:17:06Z</time>
      </trkpt>
      <trkpt lat="46.49513" lon="5.18087">
        <ele>207</ele>
        <time>2021-10-30T12:17:08Z</time>
      </trkpt>
      <trkpt lat="46.49508" lon="5.18063">
        <ele>208.2</ele>
        <time>2021-10-30T12:17:12Z</time>
      </trkpt>
      <trkpt lat="46.49503" lon="5.18033">
        <ele>209.2</ele>
        <time>2021-10-30T12:17:17Z</time>
      </trkpt>
      <trkpt lat="46.49499" lon="5.18016">
        <ele>210</ele>
        <time>2021-10-30T12:17:20Z</time>
      </trkpt>
      <trkpt lat="46.49496" lon="5.18011">
        <ele>210.4</ele>
        <time>2021-10-30T12:17:21Z</time>
      </trkpt>
      <trkpt lat="46.4948" lon="5.17981">
        <ele>211.6</ele>
        <time>2021-10-30T12:17:27Z</time>
      </trkpt>
      <trkpt lat="46.49477" lon="5.17976">
        <ele>211.8</ele>
        <time>2021-10-30T12:17:28Z</time>
      </trkpt>
      <trkpt lat="46.49465" lon="5.17956">
        <ele>212.6</ele>
        <time>2021-10-30T12:17:32Z</time>
      </trkpt>
      <trkpt lat="46.49455" lon="5.17941">
        <ele>213</ele>
        <time>2021-10-30T12:17:35Z</time>
      </trkpt>
      <trkpt lat="46.49429" lon="5.17891">
        <ele>213</ele>
        <time>2021-10-30T12:17:44Z</time>
      </trkpt>
      <trkpt lat="46.49414" lon="5.17856">
        <ele>213</ele>
        <time>2021-10-30T12:17:50Z</time>
      </trkpt>
      <trkpt lat="46.49411" lon="5.1785">
        <ele>213</ele>
        <time>2021-10-30T12:17:51Z</time>
      </trkpt>
      <trkpt lat="46.49403" lon="5.17841">
        <ele>213.6</ele>
        <time>2021-10-30T12:17:53Z</time>
      </trkpt>
      <trkpt lat="46.49385" lon="5.17819">
        <ele>215</ele>
        <time>2021-10-30T12:17:58Z</time>
      </trkpt>
      <trkpt lat="46.49352" lon="5.17781">
        <ele>215.6</ele>
        <time>2021-10-30T12:18:07Z</time>
      </trkpt>
      <trkpt lat="46.49329" lon="5.17742">
        <ele>216.2</ele>
        <time>2021-10-30T12:18:14Z</time>
      </trkpt>
      <trkpt lat="46.49326" lon="5.17719">
        <ele>216.2</ele>
        <time>2021-10-30T12:18:17Z</time>
      </trkpt>
      <trkpt lat="46.49326" lon="5.17711">
        <ele>216.2</ele>
        <time>2021-10-30T12:18:18Z</time>
      </trkpt>
      <trkpt lat="46.49327" lon="5.17703">
        <ele>216.2</ele>
        <time>2021-10-30T12:18:19Z</time>
      </trkpt>
      <trkpt lat="46.49329" lon="5.17695">
        <ele>216.2</ele>
        <time>2021-10-30T12:18:20Z</time>
      </trkpt>
      <trkpt lat="46.49331" lon="5.17687">
        <ele>216.4</ele>
        <time>2021-10-30T12:18:21Z</time>
      </trkpt>
      <trkpt lat="46.49333" lon="5.1768">
        <ele>216.4</ele>
        <time>2021-10-30T12:18:22Z</time>
      </trkpt>
      <trkpt lat="46.49348" lon="5.17637">
        <ele>216.2</ele>
        <time>2021-10-30T12:18:27Z</time>
      </trkpt>
      <trkpt lat="46.49375" lon="5.17564">
        <ele>215.6</ele>
        <time>2021-10-30T12:18:35Z</time>
      </trkpt>
      <trkpt lat="46.49387" lon="5.17535">
        <ele>215.2</ele>
        <time>2021-10-30T12:18:38Z</time>
      </trkpt>
      <trkpt lat="46.49393" lon="5.17515">
        <ele>214.8</ele>
        <time>2021-10-30T12:18:40Z</time>
      </trkpt>
      <trkpt lat="46.49396" lon="5.17504">
        <ele>214.6</ele>
        <time>2021-10-30T12:18:41Z</time>
      </trkpt>
      <trkpt lat="46.49405" lon="5.17452">
        <ele>214</ele>
        <time>2021-10-30T12:18:46Z</time>
      </trkpt>
      <trkpt lat="46.49407" lon="5.1743">
        <ele>213.6</ele>
        <time>2021-10-30T12:18:48Z</time>
      </trkpt>
      <trkpt lat="46.49411" lon="5.17343">
        <ele>213.2</ele>
        <time>2021-10-30T12:18:56Z</time>
      </trkpt>
      <trkpt lat="46.49409" lon="5.17324">
        <ele>213.2</ele>
        <time>2021-10-30T12:18:58Z</time>
      </trkpt>
      <trkpt lat="46.49405" lon="5.17286">
        <ele>213.8</ele>
        <time>2021-10-30T12:19:02Z</time>
      </trkpt>
      <trkpt lat="46.49404" lon="5.17221">
        <ele>213.8</ele>
        <time>2021-10-30T12:19:08Z</time>
      </trkpt>
      <trkpt lat="46.49413" lon="5.17174">
        <ele>212.8</ele>
        <time>2021-10-30T12:19:12Z</time>
      </trkpt>
      <trkpt lat="46.49433" lon="5.17131">
        <ele>211.6</ele>
        <time>2021-10-30T12:19:16Z</time>
      </trkpt>
      <trkpt lat="46.49457" lon="5.17092">
        <ele>210.6</ele>
        <time>2021-10-30T12:19:20Z</time>
      </trkpt>
      <trkpt lat="46.49485" lon="5.17047">
        <ele>210</ele>
        <time>2021-10-30T12:19:25Z</time>
      </trkpt>
      <trkpt lat="46.49518" lon="5.16998">
        <ele>210</ele>
        <time>2021-10-30T12:19:31Z</time>
      </trkpt>
      <trkpt lat="46.49525" lon="5.1698">
        <ele>210.2</ele>
        <time>2021-10-30T12:19:33Z</time>
      </trkpt>
      <trkpt lat="46.49527" lon="5.1697">
        <ele>210.2</ele>
        <time>2021-10-30T12:19:34Z</time>
      </trkpt>
      <trkpt lat="46.49529" lon="5.16961">
        <ele>210.2</ele>
        <time>2021-10-30T12:19:35Z</time>
      </trkpt>
      <trkpt lat="46.4953" lon="5.16933">
        <ele>210.4</ele>
        <time>2021-10-30T12:19:38Z</time>
      </trkpt>
      <trkpt lat="46.49527" lon="5.16892">
        <ele>211</ele>
        <time>2021-10-30T12:19:43Z</time>
      </trkpt>
      <trkpt lat="46.49525" lon="5.16885">
        <ele>211.4</ele>
        <time>2021-10-30T12:19:44Z</time>
      </trkpt>
      <trkpt lat="46.49515" lon="5.16853">
        <ele>211.8</ele>
        <time>2021-10-30T12:19:49Z</time>
      </trkpt>
      <trkpt lat="46.49503" lon="5.1682">
        <ele>212.8</ele>
        <time>2021-10-30T12:19:55Z</time>
      </trkpt>
      <trkpt lat="46.49501" lon="5.16814">
        <ele>213</ele>
        <time>2021-10-30T12:19:56Z</time>
      </trkpt>
      <trkpt lat="46.49495" lon="5.16774">
        <ele>213.8</ele>
        <time>2021-10-30T12:20:02Z</time>
      </trkpt>
      <trkpt lat="46.49494" lon="5.16766">
        <ele>214</ele>
        <time>2021-10-30T12:20:03Z</time>
      </trkpt>
      <trkpt lat="46.4949" lon="5.16709">
        <ele>214.2</ele>
        <time>2021-10-30T12:20:10Z</time>
      </trkpt>
      <trkpt lat="46.49485" lon="5.16653">
        <ele>214</ele>
        <time>2021-10-30T12:20:17Z</time>
      </trkpt>
      <trkpt lat="46.49485" lon="5.16646">
        <ele>214</ele>
        <time>2021-10-30T12:20:18Z</time>
      </trkpt>
      <trkpt lat="46.49488" lon="5.16634">
        <ele>214.2</ele>
        <time>2021-10-30T12:20:20Z</time>
      </trkpt>
      <trkpt lat="46.49495" lon="5.16625">
        <ele>214.2</ele>
        <time>2021-10-30T12:20:22Z</time>
      </trkpt>
      <trkpt lat="46.495" lon="5.16622">
        <ele>214.2</ele>
        <time>2021-10-30T12:20:23Z</time>
      </trkpt>
      <trkpt lat="46.49525" lon="5.16613">
        <ele>214</ele>
        <time>2021-10-30T12:20:27Z</time>
      </trkpt>
      <trkpt lat="46.49569" lon="5.16597">
        <ele>214.4</ele>
        <time>2021-10-30T12:20:34Z</time>
      </trkpt>
      <trkpt lat="46.49606" lon="5.16583">
        <ele>215</ele>
        <time>2021-10-30T12:20:39Z</time>
      </trkpt>
      <trkpt lat="46.49647" lon="5.16568">
        <ele>214.2</ele>
        <time>2021-10-30T12:20:44Z</time>
      </trkpt>
      <trkpt lat="46.49674" lon="5.16558">
        <ele>212.2</ele>
        <time>2021-10-30T12:20:47Z</time>
      </trkpt>
      <trkpt lat="46.49693" lon="5.16554">
        <ele>211.2</ele>
        <time>2021-10-30T12:20:49Z</time>
      </trkpt>
      <trkpt lat="46.49703" lon="5.16551">
        <ele>211</ele>
        <time>2021-10-30T12:20:50Z</time>
      </trkpt>
      <trkpt lat="46.49714" lon="5.1655">
        <ele>210.8</ele>
        <time>2021-10-30T12:20:51Z</time>
      </trkpt>
      <trkpt lat="46.49736" lon="5.16551">
        <ele>210.4</ele>
        <time>2021-10-30T12:20:53Z</time>
      </trkpt>
      <trkpt lat="46.49759" lon="5.16554">
        <ele>210</ele>
        <time>2021-10-30T12:20:55Z</time>
      </trkpt>
      <trkpt lat="46.49792" lon="5.1656">
        <ele>208.4</ele>
        <time>2021-10-30T12:20:58Z</time>
      </trkpt>
      <trkpt lat="46.49803" lon="5.16562">
        <ele>208</ele>
        <time>2021-10-30T12:20:59Z</time>
      </trkpt>
      <trkpt lat="46.49824" lon="5.16565">
        <ele>207.2</ele>
        <time>2021-10-30T12:21:01Z</time>
      </trkpt>
      <trkpt lat="46.49855" lon="5.1657">
        <ele>206</ele>
        <time>2021-10-30T12:21:04Z</time>
      </trkpt>
      <trkpt lat="46.49885" lon="5.16574">
        <ele>205.6</ele>
        <time>2021-10-30T12:21:07Z</time>
      </trkpt>
      <trkpt lat="46.49915" lon="5.16579">
        <ele>204.8</ele>
        <time>2021-10-30T12:21:10Z</time>
      </trkpt>
      <trkpt lat="46.49955" lon="5.16589">
        <ele>204.4</ele>
        <time>2021-10-30T12:21:14Z</time>
      </trkpt>
      <trkpt lat="46.50016" lon="5.16608">
        <ele>203.8</ele>
        <time>2021-10-30T12:21:20Z</time>
      </trkpt>
      <trkpt lat="46.50026" lon="5.16612">
        <ele>203.6</ele>
        <time>2021-10-30T12:21:21Z</time>
      </trkpt>
      <trkpt lat="46.50078" lon="5.16627">
        <ele>202.6</ele>
        <time>2021-10-30T12:21:26Z</time>
      </trkpt>
      <trkpt lat="46.50111" lon="5.16633">
        <ele>201.8</ele>
        <time>2021-10-30T12:21:29Z</time>
      </trkpt>
      <trkpt lat="46.50122" lon="5.16634">
        <ele>201.4</ele>
        <time>2021-10-30T12:21:30Z</time>
      </trkpt>
      <trkpt lat="46.50167" lon="5.16633">
        <ele>200.6</ele>
        <time>2021-10-30T12:21:34Z</time>
      </trkpt>
      <trkpt lat="46.50179" lon="5.16632">
        <ele>200.4</ele>
        <time>2021-10-30T12:21:35Z</time>
      </trkpt>
      <trkpt lat="46.50234" lon="5.16628">
        <ele>200.2</ele>
        <time>2021-10-30T12:21:40Z</time>
      </trkpt>
      <trkpt lat="46.50244" lon="5.16628">
        <ele>200.4</ele>
        <time>2021-10-30T12:21:41Z</time>
      </trkpt>
      <trkpt lat="46.50276" lon="5.16628">
        <ele>200.6</ele>
        <time>2021-10-30T12:21:44Z</time>
      </trkpt>
      <trkpt lat="46.50287" lon="5.16631">
        <ele>200.6</ele>
        <time>2021-10-30T12:21:45Z</time>
      </trkpt>
      <trkpt lat="46.50297" lon="5.16637">
        <ele>200.6</ele>
        <time>2021-10-30T12:21:46Z</time>
      </trkpt>
      <trkpt lat="46.50314" lon="5.16654">
        <ele>200.6</ele>
        <time>2021-10-30T12:21:48Z</time>
      </trkpt>
      <trkpt lat="46.50339" lon="5.16682">
        <ele>200</ele>
        <time>2021-10-30T12:21:51Z</time>
      </trkpt>
      <trkpt lat="46.50349" lon="5.16688">
        <ele>199.8</ele>
        <time>2021-10-30T12:21:52Z</time>
      </trkpt>
      <trkpt lat="46.50368" lon="5.16698">
        <ele>199.6</ele>
        <time>2021-10-30T12:21:54Z</time>
      </trkpt>
      <trkpt lat="46.50398" lon="5.16708">
        <ele>199.6</ele>
        <time>2021-10-30T12:21:57Z</time>
      </trkpt>
      <trkpt lat="46.50438" lon="5.16717">
        <ele>199.8</ele>
        <time>2021-10-30T12:22:01Z</time>
      </trkpt>
      <trkpt lat="46.50458" lon="5.16714">
        <ele>200.2</ele>
        <time>2021-10-30T12:22:03Z</time>
      </trkpt>
      <trkpt lat="46.50494" lon="5.16694">
        <ele>200.6</ele>
        <time>2021-10-30T12:22:07Z</time>
      </trkpt>
      <trkpt lat="46.50544" lon="5.16663">
        <ele>201</ele>
        <time>2021-10-30T12:22:13Z</time>
      </trkpt>
      <trkpt lat="46.50553" lon="5.16658">
        <ele>201.2</ele>
        <time>2021-10-30T12:22:14Z</time>
      </trkpt>
      <trkpt lat="46.50603" lon="5.16624">
        <ele>201.2</ele>
        <time>2021-10-30T12:22:20Z</time>
      </trkpt>
      <trkpt lat="46.50611" lon="5.16618">
        <ele>201.2</ele>
        <time>2021-10-30T12:22:21Z</time>
      </trkpt>
      <trkpt lat="46.50661" lon="5.16575">
        <ele>201.2</ele>
        <time>2021-10-30T12:22:27Z</time>
      </trkpt>
      <trkpt lat="46.50669" lon="5.16568">
        <ele>201.2</ele>
        <time>2021-10-30T12:22:28Z</time>
      </trkpt>
      <trkpt lat="46.50687" lon="5.16555">
        <ele>201</ele>
        <time>2021-10-30T12:22:30Z</time>
      </trkpt>
      <trkpt lat="46.50714" lon="5.16541">
        <ele>200.8</ele>
        <time>2021-10-30T12:22:33Z</time>
      </trkpt>
      <trkpt lat="46.50751" lon="5.16532">
        <ele>200.6</ele>
        <time>2021-10-30T12:22:37Z</time>
      </trkpt>
      <trkpt lat="46.5076" lon="5.16533">
        <ele>200.6</ele>
        <time>2021-10-30T12:22:38Z</time>
      </trkpt>
      <trkpt lat="46.50796" lon="5.16543">
        <ele>200.6</ele>
        <time>2021-10-30T12:22:42Z</time>
      </trkpt>
      <trkpt lat="46.50849" lon="5.16563">
        <ele>200.4</ele>
        <time>2021-10-30T12:22:48Z</time>
      </trkpt>
      <trkpt lat="46.50876" lon="5.16569">
        <ele>200.4</ele>
        <time>2021-10-30T12:22:51Z</time>
      </trkpt>
      <trkpt lat="46.5092" lon="5.16565">
        <ele>200.6</ele>
        <time>2021-10-30T12:22:56Z</time>
      </trkpt>
      <trkpt lat="46.50973" lon="5.16561">
        <ele>200.8</ele>
        <time>2021-10-30T12:23:02Z</time>
      </trkpt>
      <trkpt lat="46.50982" lon="5.16563">
        <ele>200.8</ele>
        <time>2021-10-30T12:23:03Z</time>
      </trkpt>
      <trkpt lat="46.5099" lon="5.16567">
        <ele>200.8</ele>
        <time>2021-10-30T12:23:04Z</time>
      </trkpt>
      <trkpt lat="46.51005" lon="5.1658">
        <ele>200.8</ele>
        <time>2021-10-30T12:23:06Z</time>
      </trkpt>
      <trkpt lat="46.51028" lon="5.16599">
        <ele>201</ele>
        <time>2021-10-30T12:23:09Z</time>
      </trkpt>
      <trkpt lat="46.51044" lon="5.16607">
        <ele>201</ele>
        <time>2021-10-30T12:23:11Z</time>
      </trkpt>
      <trkpt lat="46.51086" lon="5.16622">
        <ele>201.4</ele>
        <time>2021-10-30T12:23:16Z</time>
      </trkpt>
      <trkpt lat="46.51103" lon="5.16632">
        <ele>201.4</ele>
        <time>2021-10-30T12:23:18Z</time>
      </trkpt>
      <trkpt lat="46.51118" lon="5.16646">
        <ele>201.6</ele>
        <time>2021-10-30T12:23:20Z</time>
      </trkpt>
      <trkpt lat="46.51155" lon="5.16696">
        <ele>201.8</ele>
        <time>2021-10-30T12:23:26Z</time>
      </trkpt>
      <trkpt lat="46.51166" lon="5.16711">
        <ele>201.8</ele>
        <time>2021-10-30T12:23:28Z</time>
      </trkpt>
      <trkpt lat="46.51202" lon="5.16757">
        <ele>202.2</ele>
        <time>2021-10-30T12:23:34Z</time>
      </trkpt>
      <trkpt lat="46.51215" lon="5.16769">
        <ele>202.6</ele>
        <time>2021-10-30T12:23:36Z</time>
      </trkpt>
      <trkpt lat="46.51229" lon="5.16777">
        <ele>202.8</ele>
        <time>2021-10-30T12:23:38Z</time>
      </trkpt>
      <trkpt lat="46.51237" lon="5.1678">
        <ele>203</ele>
        <time>2021-10-30T12:23:39Z</time>
      </trkpt>
      <trkpt lat="46.51244" lon="5.16781">
        <ele>203</ele>
        <time>2021-10-30T12:23:40Z</time>
      </trkpt>
      <trkpt lat="46.51259" lon="5.1678">
        <ele>203.6</ele>
        <time>2021-10-30T12:23:42Z</time>
      </trkpt>
      <trkpt lat="46.51267" lon="5.16778">
        <ele>204</ele>
        <time>2021-10-30T12:23:43Z</time>
      </trkpt>
      <trkpt lat="46.51275" lon="5.16774">
        <ele>204.4</ele>
        <time>2021-10-30T12:23:44Z</time>
      </trkpt>
      <trkpt lat="46.51289" lon="5.16766">
        <ele>204.6</ele>
        <time>2021-10-30T12:23:46Z</time>
      </trkpt>
      <trkpt lat="46.51326" lon="5.16742">
        <ele>205</ele>
        <time>2021-10-30T12:23:51Z</time>
      </trkpt>
      <trkpt lat="46.51349" lon="5.16726">
        <ele>205.6</ele>
        <time>2021-10-30T12:23:54Z</time>
      </trkpt>
      <trkpt lat="46.5139" lon="5.1669">
        <ele>205.8</ele>
        <time>2021-10-30T12:24:00Z</time>
      </trkpt>
      <trkpt lat="46.51422" lon="5.16672">
        <ele>205.6</ele>
        <time>2021-10-30T12:24:04Z</time>
      </trkpt>
      <trkpt lat="46.51456" lon="5.16674">
        <ele>205.4</ele>
        <time>2021-10-30T12:24:08Z</time>
      </trkpt>
      <trkpt lat="46.51508" lon="5.16687">
        <ele>204.8</ele>
        <time>2021-10-30T12:24:14Z</time>
      </trkpt>
      <trkpt lat="46.5154" lon="5.16701">
        <ele>204.8</ele>
        <time>2021-10-30T12:24:18Z</time>
      </trkpt>
      <trkpt lat="46.51557" lon="5.167">
        <ele>205.2</ele>
        <time>2021-10-30T12:24:20Z</time>
      </trkpt>
      <trkpt lat="46.51586" lon="5.16682">
        <ele>205.6</ele>
        <time>2021-10-30T12:24:24Z</time>
      </trkpt>
      <trkpt lat="46.51619" lon="5.16661">
        <ele>206.2</ele>
        <time>2021-10-30T12:24:29Z</time>
      </trkpt>
      <trkpt lat="46.51626" lon="5.16659">
        <ele>206.4</ele>
        <time>2021-10-30T12:24:30Z</time>
      </trkpt>
      <trkpt lat="46.51655" lon="5.16654">
        <ele>207.2</ele>
        <time>2021-10-30T12:24:34Z</time>
      </trkpt>
      <trkpt lat="46.5167" lon="5.16651">
        <ele>207.4</ele>
        <time>2021-10-30T12:24:36Z</time>
      </trkpt>
      <trkpt lat="46.51685" lon="5.16645">
        <ele>207.6</ele>
        <time>2021-10-30T12:24:38Z</time>
      </trkpt>
      <trkpt lat="46.51699" lon="5.16635">
        <ele>207.2</ele>
        <time>2021-10-30T12:24:40Z</time>
      </trkpt>
      <trkpt lat="46.51726" lon="5.16606">
        <ele>206.4</ele>
        <time>2021-10-30T12:24:44Z</time>
      </trkpt>
      <trkpt lat="46.51733" lon="5.16598">
        <ele>206.2</ele>
        <time>2021-10-30T12:24:45Z</time>
      </trkpt>
      <trkpt lat="46.51741" lon="5.1659">
        <ele>206</ele>
        <time>2021-10-30T12:24:46Z</time>
      </trkpt>
      <trkpt lat="46.51759" lon="5.1658">
        <ele>205.6</ele>
        <time>2021-10-30T12:24:48Z</time>
      </trkpt>
      <trkpt lat="46.51777" lon="5.16577">
        <ele>204.8</ele>
        <time>2021-10-30T12:24:50Z</time>
      </trkpt>
      <trkpt lat="46.51787" lon="5.16577">
        <ele>204.6</ele>
        <time>2021-10-30T12:24:51Z</time>
      </trkpt>
      <trkpt lat="46.51815" lon="5.1658">
        <ele>203.8</ele>
        <time>2021-10-30T12:24:54Z</time>
      </trkpt>
      <trkpt lat="46.51843" lon="5.16581">
        <ele>203.6</ele>
        <time>2021-10-30T12:24:57Z</time>
      </trkpt>
      <trkpt lat="46.51895" lon="5.16575">
        <ele>203.8</ele>
        <time>2021-10-30T12:25:03Z</time>
      </trkpt>
      <trkpt lat="46.51936" lon="5.16567">
        <ele>205</ele>
        <time>2021-10-30T12:25:08Z</time>
      </trkpt>
      <trkpt lat="46.51959" lon="5.16563">
        <ele>206.2</ele>
        <time>2021-10-30T12:25:11Z</time>
      </trkpt>
      <trkpt lat="46.5199" lon="5.16556">
        <ele>207.6</ele>
        <time>2021-10-30T12:25:15Z</time>
      </trkpt>
      <trkpt lat="46.52013" lon="5.16552">
        <ele>208.8</ele>
        <time>2021-10-30T12:25:18Z</time>
      </trkpt>
      <trkpt lat="46.52029" lon="5.16549">
        <ele>209.8</ele>
        <time>2021-10-30T12:25:20Z</time>
      </trkpt>
      <trkpt lat="46.52069" lon="5.16552">
        <ele>211.2</ele>
        <time>2021-10-30T12:25:25Z</time>
      </trkpt>
      <trkpt lat="46.52115" lon="5.16575">
        <ele>212</ele>
        <time>2021-10-30T12:25:31Z</time>
      </trkpt>
      <trkpt lat="46.52131" lon="5.16583">
        <ele>212.2</ele>
        <time>2021-10-30T12:25:33Z</time>
      </trkpt>
      <trkpt lat="46.52176" lon="5.16608">
        <ele>213</ele>
        <time>2021-10-30T12:25:39Z</time>
      </trkpt>
      <trkpt lat="46.52231" lon="5.1664">
        <ele>213.2</ele>
        <time>2021-10-30T12:25:46Z</time>
      </trkpt>
      <trkpt lat="46.52252" lon="5.16659">
        <ele>213</ele>
        <time>2021-10-30T12:25:49Z</time>
      </trkpt>
      <trkpt lat="46.52264" lon="5.16676">
        <ele>213</ele>
        <time>2021-10-30T12:25:51Z</time>
      </trkpt>
      <trkpt lat="46.52273" lon="5.16696">
        <ele>213.2</ele>
        <time>2021-10-30T12:25:53Z</time>
      </trkpt>
      <trkpt lat="46.52276" lon="5.16707">
        <ele>213.2</ele>
        <time>2021-10-30T12:25:54Z</time>
      </trkpt>
      <trkpt lat="46.52278" lon="5.16719">
        <ele>213.4</ele>
        <time>2021-10-30T12:25:55Z</time>
      </trkpt>
      <trkpt lat="46.52279" lon="5.1678">
        <ele>213.4</ele>
        <time>2021-10-30T12:26:00Z</time>
      </trkpt>
      <trkpt lat="46.52277" lon="5.16841">
        <ele>212.2</ele>
        <time>2021-10-30T12:26:05Z</time>
      </trkpt>
      <trkpt lat="46.52277" lon="5.16866">
        <ele>211.8</ele>
        <time>2021-10-30T12:26:07Z</time>
      </trkpt>
      <trkpt lat="46.52279" lon="5.16928">
        <ele>211.2</ele>
        <time>2021-10-30T12:26:12Z</time>
      </trkpt>
      <trkpt lat="46.52282" lon="5.1694">
        <ele>211.2</ele>
        <time>2021-10-30T12:26:13Z</time>
      </trkpt>
      <trkpt lat="46.52297" lon="5.16984">
        <ele>211.4</ele>
        <time>2021-10-30T12:26:17Z</time>
      </trkpt>
      <trkpt lat="46.52303" lon="5.16993">
        <ele>211.2</ele>
        <time>2021-10-30T12:26:18Z</time>
      </trkpt>
      <trkpt lat="46.52336" lon="5.17033">
        <ele>211.2</ele>
        <time>2021-10-30T12:26:23Z</time>
      </trkpt>
      <trkpt lat="46.52384" lon="5.17088">
        <ele>211.8</ele>
        <time>2021-10-30T12:26:30Z</time>
      </trkpt>
      <trkpt lat="46.52397" lon="5.17103">
        <ele>212.2</ele>
        <time>2021-10-30T12:26:32Z</time>
      </trkpt>
      <trkpt lat="46.52416" lon="5.17127">
        <ele>212.4</ele>
        <time>2021-10-30T12:26:35Z</time>
      </trkpt>
      <trkpt lat="46.52441" lon="5.17159">
        <ele>212.8</ele>
        <time>2021-10-30T12:26:39Z</time>
      </trkpt>
      <trkpt lat="46.5249" lon="5.17212">
        <ele>213.2</ele>
        <time>2021-10-30T12:26:46Z</time>
      </trkpt>
      <trkpt lat="46.52496" lon="5.1722">
        <ele>213.2</ele>
        <time>2021-10-30T12:26:47Z</time>
      </trkpt>
      <trkpt lat="46.52521" lon="5.17249">
        <ele>213.2</ele>
        <time>2021-10-30T12:26:51Z</time>
      </trkpt>
      <trkpt lat="46.52564" lon="5.17297">
        <ele>212.4</ele>
        <time>2021-10-30T12:26:57Z</time>
      </trkpt>
      <trkpt lat="46.52579" lon="5.17313">
        <ele>211.8</ele>
        <time>2021-10-30T12:26:59Z</time>
      </trkpt>
      <trkpt lat="46.52594" lon="5.17329">
        <ele>211.4</ele>
        <time>2021-10-30T12:27:01Z</time>
      </trkpt>
      <trkpt lat="46.52619" lon="5.17356">
        <ele>210</ele>
        <time>2021-10-30T12:27:04Z</time>
      </trkpt>
      <trkpt lat="46.52638" lon="5.17375">
        <ele>208.8</ele>
        <time>2021-10-30T12:27:06Z</time>
      </trkpt>
      <trkpt lat="46.52656" lon="5.17397">
        <ele>207.6</ele>
        <time>2021-10-30T12:27:08Z</time>
      </trkpt>
      <trkpt lat="46.52676" lon="5.17418">
        <ele>206.4</ele>
        <time>2021-10-30T12:27:10Z</time>
      </trkpt>
      <trkpt lat="46.52696" lon="5.17439">
        <ele>204.8</ele>
        <time>2021-10-30T12:27:12Z</time>
      </trkpt>
      <trkpt lat="46.52706" lon="5.1745">
        <ele>203.6</ele>
        <time>2021-10-30T12:27:13Z</time>
      </trkpt>
      <trkpt lat="46.52725" lon="5.17475">
        <ele>202.2</ele>
        <time>2021-10-30T12:27:15Z</time>
      </trkpt>
      <trkpt lat="46.52743" lon="5.175">
        <ele>200.8</ele>
        <time>2021-10-30T12:27:17Z</time>
      </trkpt>
      <trkpt lat="46.52751" lon="5.17513">
        <ele>200.2</ele>
        <time>2021-10-30T12:27:18Z</time>
      </trkpt>
      <trkpt lat="46.52759" lon="5.17526">
        <ele>199.6</ele>
        <time>2021-10-30T12:27:19Z</time>
      </trkpt>
      <trkpt lat="46.52773" lon="5.17551">
        <ele>198.2</ele>
        <time>2021-10-30T12:27:21Z</time>
      </trkpt>
      <trkpt lat="46.52787" lon="5.17575">
        <ele>197.6</ele>
        <time>2021-10-30T12:27:23Z</time>
      </trkpt>
      <trkpt lat="46.52805" lon="5.17607">
        <ele>197.2</ele>
        <time>2021-10-30T12:27:26Z</time>
      </trkpt>
      <trkpt lat="46.52816" lon="5.17627">
        <ele>197.2</ele>
        <time>2021-10-30T12:27:28Z</time>
      </trkpt>
      <trkpt lat="46.52823" lon="5.17635">
        <ele>197.2</ele>
        <time>2021-10-30T12:27:29Z</time>
      </trkpt>
      <trkpt lat="46.52837" lon="5.17647">
        <ele>197.6</ele>
        <time>2021-10-30T12:27:31Z</time>
      </trkpt>
      <trkpt lat="46.52862" lon="5.17658">
        <ele>198.2</ele>
        <time>2021-10-30T12:27:34Z</time>
      </trkpt>
      <trkpt lat="46.52871" lon="5.17662">
        <ele>198.4</ele>
        <time>2021-10-30T12:27:35Z</time>
      </trkpt>
      <trkpt lat="46.52889" lon="5.1767">
        <ele>199.4</ele>
        <time>2021-10-30T12:27:37Z</time>
      </trkpt>
      <trkpt lat="46.52917" lon="5.17682">
        <ele>200.2</ele>
        <time>2021-10-30T12:27:40Z</time>
      </trkpt>
      <trkpt lat="46.52927" lon="5.17687">
        <ele>200.4</ele>
        <time>2021-10-30T12:27:41Z</time>
      </trkpt>
      <trkpt lat="46.52983" lon="5.1771">
        <ele>201.6</ele>
        <time>2021-10-30T12:27:47Z</time>
      </trkpt>
      <trkpt lat="46.52992" lon="5.17714">
        <ele>201.6</ele>
        <time>2021-10-30T12:27:48Z</time>
      </trkpt>
      <trkpt lat="46.53046" lon="5.1773">
        <ele>202</ele>
        <time>2021-10-30T12:27:54Z</time>
      </trkpt>
      <trkpt lat="46.53055" lon="5.17732">
        <ele>202</ele>
        <time>2021-10-30T12:27:55Z</time>
      </trkpt>
      <trkpt lat="46.53097" lon="5.17739">
        <ele>202.4</ele>
        <time>2021-10-30T12:28:00Z</time>
      </trkpt>
      <trkpt lat="46.53105" lon="5.1774">
        <ele>202.6</ele>
        <time>2021-10-30T12:28:01Z</time>
      </trkpt>
      <trkpt lat="46.53136" lon="5.17745">
        <ele>203.8</ele>
        <time>2021-10-30T12:28:05Z</time>
      </trkpt>
      <trkpt lat="46.53151" lon="5.17748">
        <ele>204.4</ele>
        <time>2021-10-30T12:28:07Z</time>
      </trkpt>
      <trkpt lat="46.53159" lon="5.17749">
        <ele>204.8</ele>
        <time>2021-10-30T12:28:08Z</time>
      </trkpt>
      <trkpt lat="46.5318" lon="5.17754">
        <ele>206</ele>
        <time>2021-10-30T12:28:11Z</time>
      </trkpt>
      <trkpt lat="46.53202" lon="5.17758">
        <ele>207.2</ele>
        <time>2021-10-30T12:28:14Z</time>
      </trkpt>
      <trkpt lat="46.53216" lon="5.1776">
        <ele>207.6</ele>
        <time>2021-10-30T12:28:16Z</time>
      </trkpt>
      <trkpt lat="46.53238" lon="5.17764">
        <ele>208.2</ele>
        <time>2021-10-30T12:28:19Z</time>
      </trkpt>
      <trkpt lat="46.53272" lon="5.17766">
        <ele>208.6</ele>
        <time>2021-10-30T12:28:23Z</time>
      </trkpt>
      <trkpt lat="46.53328" lon="5.1776">
        <ele>207.8</ele>
        <time>2021-10-30T12:28:29Z</time>
      </trkpt>
      <trkpt lat="46.53347" lon="5.17755">
        <ele>207.4</ele>
        <time>2021-10-30T12:28:31Z</time>
      </trkpt>
      <trkpt lat="46.53356" lon="5.1775">
        <ele>207.2</ele>
        <time>2021-10-30T12:28:32Z</time>
      </trkpt>
      <trkpt lat="46.53365" lon="5.17745">
        <ele>207</ele>
        <time>2021-10-30T12:28:33Z</time>
      </trkpt>
      <trkpt lat="46.53406" lon="5.17713">
        <ele>206.2</ele>
        <time>2021-10-30T12:28:38Z</time>
      </trkpt>
      <trkpt lat="46.53423" lon="5.17701">
        <ele>206</ele>
        <time>2021-10-30T12:28:40Z</time>
      </trkpt>
      <trkpt lat="46.5347" lon="5.17665">
        <ele>206.8</ele>
        <time>2021-10-30T12:28:46Z</time>
      </trkpt>
      <trkpt lat="46.53486" lon="5.17653">
        <ele>207.6</ele>
        <time>2021-10-30T12:28:48Z</time>
      </trkpt>
      <trkpt lat="46.53543" lon="5.17614">
        <ele>208.6</ele>
        <time>2021-10-30T12:28:55Z</time>
      </trkpt>
      <trkpt lat="46.53552" lon="5.1761">
        <ele>208.6</ele>
        <time>2021-10-30T12:28:56Z</time>
      </trkpt>
      <trkpt lat="46.53608" lon="5.17595">
        <ele>208.4</ele>
        <time>2021-10-30T12:29:02Z</time>
      </trkpt>
      <trkpt lat="46.53664" lon="5.17583">
        <ele>208</ele>
        <time>2021-10-30T12:29:08Z</time>
      </trkpt>
      <trkpt lat="46.53709" lon="5.17573">
        <ele>208.2</ele>
        <time>2021-10-30T12:29:13Z</time>
      </trkpt>
      <trkpt lat="46.53765" lon="5.17561">
        <ele>208.2</ele>
        <time>2021-10-30T12:29:19Z</time>
      </trkpt>
      <trkpt lat="46.53793" lon="5.17555">
        <ele>208</ele>
        <time>2021-10-30T12:29:22Z</time>
      </trkpt>
      <trkpt lat="46.53854" lon="5.17541">
        <ele>207.6</ele>
        <time>2021-10-30T12:29:28Z</time>
      </trkpt>
      <trkpt lat="46.53864" lon="5.17537">
        <ele>207.2</ele>
        <time>2021-10-30T12:29:29Z</time>
      </trkpt>
      <trkpt lat="46.53893" lon="5.17521">
        <ele>206.4</ele>
        <time>2021-10-30T12:29:32Z</time>
      </trkpt>
      <trkpt lat="46.53903" lon="5.17514">
        <ele>206.4</ele>
        <time>2021-10-30T12:29:33Z</time>
      </trkpt>
      <trkpt lat="46.53945" lon="5.17481">
        <ele>205.8</ele>
        <time>2021-10-30T12:29:38Z</time>
      </trkpt>
      <trkpt lat="46.53994" lon="5.17444">
        <ele>207.4</ele>
        <time>2021-10-30T12:29:44Z</time>
      </trkpt>
      <trkpt lat="46.54002" lon="5.17438">
        <ele>207.8</ele>
        <time>2021-10-30T12:29:45Z</time>
      </trkpt>
      <trkpt lat="46.5401" lon="5.17432">
        <ele>208</ele>
        <time>2021-10-30T12:29:46Z</time>
      </trkpt>
      <trkpt lat="46.5406" lon="5.17395">
        <ele>208.4</ele>
        <time>2021-10-30T12:29:52Z</time>
      </trkpt>
      <trkpt lat="46.54076" lon="5.17383">
        <ele>208.4</ele>
        <time>2021-10-30T12:29:54Z</time>
      </trkpt>
      <trkpt lat="46.54127" lon="5.17345">
        <ele>208.2</ele>
        <time>2021-10-30T12:30:00Z</time>
      </trkpt>
      <trkpt lat="46.54145" lon="5.17331">
        <ele>207.8</ele>
        <time>2021-10-30T12:30:02Z</time>
      </trkpt>
      <trkpt lat="46.54184" lon="5.17303">
        <ele>206.2</ele>
        <time>2021-10-30T12:30:06Z</time>
      </trkpt>
      <trkpt lat="46.54194" lon="5.17296">
        <ele>206</ele>
        <time>2021-10-30T12:30:07Z</time>
      </trkpt>
      <trkpt lat="46.54204" lon="5.17288">
        <ele>205</ele>
        <time>2021-10-30T12:30:08Z</time>
      </trkpt>
      <trkpt lat="46.54224" lon="5.17272">
        <ele>203.8</ele>
        <time>2021-10-30T12:30:10Z</time>
      </trkpt>
      <trkpt lat="46.54234" lon="5.17264">
        <ele>202.6</ele>
        <time>2021-10-30T12:30:11Z</time>
      </trkpt>
      <trkpt lat="46.54264" lon="5.17242">
        <ele>202</ele>
        <time>2021-10-30T12:30:14Z</time>
      </trkpt>
      <trkpt lat="46.54308" lon="5.17209">
        <ele>202.6</ele>
        <time>2021-10-30T12:30:19Z</time>
      </trkpt>
      <trkpt lat="46.54349" lon="5.17177">
        <ele>204</ele>
        <time>2021-10-30T12:30:24Z</time>
      </trkpt>
      <trkpt lat="46.54365" lon="5.17164">
        <ele>204.4</ele>
        <time>2021-10-30T12:30:26Z</time>
      </trkpt>
      <trkpt lat="46.54389" lon="5.17146">
        <ele>205</ele>
        <time>2021-10-30T12:30:29Z</time>
      </trkpt>
      <trkpt lat="46.54406" lon="5.17138">
        <ele>205.2</ele>
        <time>2021-10-30T12:30:31Z</time>
      </trkpt>
      <trkpt lat="46.54414" lon="5.17135">
        <ele>205.4</ele>
        <time>2021-10-30T12:30:32Z</time>
      </trkpt>
      <trkpt lat="46.54423" lon="5.17134">
        <ele>205.6</ele>
        <time>2021-10-30T12:30:33Z</time>
      </trkpt>
      <trkpt lat="46.5445" lon="5.17134">
        <ele>206.2</ele>
        <time>2021-10-30T12:30:36Z</time>
      </trkpt>
      <trkpt lat="46.54459" lon="5.17134">
        <ele>206.2</ele>
        <time>2021-10-30T12:30:37Z</time>
      </trkpt>
      <trkpt lat="46.54514" lon="5.17135">
        <ele>206</ele>
        <time>2021-10-30T12:30:43Z</time>
      </trkpt>
      <trkpt lat="46.5455" lon="5.17135">
        <ele>205.6</ele>
        <time>2021-10-30T12:30:47Z</time>
      </trkpt>
      <trkpt lat="46.54576" lon="5.17135">
        <ele>205.2</ele>
        <time>2021-10-30T12:30:50Z</time>
      </trkpt>
      <trkpt lat="46.54637" lon="5.17136">
        <ele>204</ele>
        <time>2021-10-30T12:30:56Z</time>
      </trkpt>
      <trkpt lat="46.54667" lon="5.17137">
        <ele>203</ele>
        <time>2021-10-30T12:30:59Z</time>
      </trkpt>
      <trkpt lat="46.54708" lon="5.17141">
        <ele>202.2</ele>
        <time>2021-10-30T12:31:03Z</time>
      </trkpt>
      <trkpt lat="46.54718" lon="5.17143">
        <ele>201.4</ele>
        <time>2021-10-30T12:31:04Z</time>
      </trkpt>
      <trkpt lat="46.5476" lon="5.17153">
        <ele>200.2</ele>
        <time>2021-10-30T12:31:08Z</time>
      </trkpt>
      <trkpt lat="46.54794" lon="5.17158">
        <ele>198.4</ele>
        <time>2021-10-30T12:31:11Z</time>
      </trkpt>
      <trkpt lat="46.54817" lon="5.17162">
        <ele>197.2</ele>
        <time>2021-10-30T12:31:13Z</time>
      </trkpt>
      <trkpt lat="46.54841" lon="5.17162">
        <ele>195.4</ele>
        <time>2021-10-30T12:31:15Z</time>
      </trkpt>
      <trkpt lat="46.54853" lon="5.1716">
        <ele>195.2</ele>
        <time>2021-10-30T12:31:16Z</time>
      </trkpt>
      <trkpt lat="46.54864" lon="5.17156">
        <ele>194.6</ele>
        <time>2021-10-30T12:31:17Z</time>
      </trkpt>
      <trkpt lat="46.54874" lon="5.17149">
        <ele>193.8</ele>
        <time>2021-10-30T12:31:18Z</time>
      </trkpt>
      <trkpt lat="46.54883" lon="5.1714">
        <ele>193.6</ele>
        <time>2021-10-30T12:31:19Z</time>
      </trkpt>
      <trkpt lat="46.54916" lon="5.17101">
        <ele>193.2</ele>
        <time>2021-10-30T12:31:23Z</time>
      </trkpt>
      <trkpt lat="46.54926" lon="5.17094">
        <ele>193.2</ele>
        <time>2021-10-30T12:31:24Z</time>
      </trkpt>
      <trkpt lat="46.54936" lon="5.17089">
        <ele>193.2</ele>
        <time>2021-10-30T12:31:25Z</time>
      </trkpt>
      <trkpt lat="46.54954" lon="5.17086">
        <ele>193.2</ele>
        <time>2021-10-30T12:31:27Z</time>
      </trkpt>
      <trkpt lat="46.54973" lon="5.17084">
        <ele>193.2</ele>
        <time>2021-10-30T12:31:29Z</time>
      </trkpt>
      <trkpt lat="46.54982" lon="5.1708">
        <ele>193.4</ele>
        <time>2021-10-30T12:31:30Z</time>
      </trkpt>
      <trkpt lat="46.5499" lon="5.17074">
        <ele>193.6</ele>
        <time>2021-10-30T12:31:31Z</time>
      </trkpt>
      <trkpt lat="46.55009" lon="5.17056">
        <ele>194.6</ele>
        <time>2021-10-30T12:31:34Z</time>
      </trkpt>
      <trkpt lat="46.5502" lon="5.17047">
        <ele>195.4</ele>
        <time>2021-10-30T12:31:36Z</time>
      </trkpt>
      <trkpt lat="46.55032" lon="5.17036">
        <ele>196.6</ele>
        <time>2021-10-30T12:31:38Z</time>
      </trkpt>
      <trkpt lat="46.55037" lon="5.17031">
        <ele>196.8</ele>
        <time>2021-10-30T12:31:39Z</time>
      </trkpt>
      <trkpt lat="46.55044" lon="5.17017">
        <ele>197.6</ele>
        <time>2021-10-30T12:31:41Z</time>
      </trkpt>
      <trkpt lat="46.55047" lon="5.17009">
        <ele>197.8</ele>
        <time>2021-10-30T12:31:42Z</time>
      </trkpt>
      <trkpt lat="46.55049" lon="5.17">
        <ele>198.6</ele>
        <time>2021-10-30T12:31:43Z</time>
      </trkpt>
      <trkpt lat="46.5505" lon="5.1699">
        <ele>198.8</ele>
        <time>2021-10-30T12:31:44Z</time>
      </trkpt>
      <trkpt lat="46.55052" lon="5.16981">
        <ele>199</ele>
        <time>2021-10-30T12:31:45Z</time>
      </trkpt>
      <trkpt lat="46.55057" lon="5.16951">
        <ele>199.4</ele>
        <time>2021-10-30T12:31:48Z</time>
      </trkpt>
      <trkpt lat="46.55061" lon="5.16932">
        <ele>199.4</ele>
        <time>2021-10-30T12:31:50Z</time>
      </trkpt>
      <trkpt lat="46.55068" lon="5.16915">
        <ele>199.6</ele>
        <time>2021-10-30T12:31:52Z</time>
      </trkpt>
      <trkpt lat="46.55081" lon="5.16903">
        <ele>199.8</ele>
        <time>2021-10-30T12:31:54Z</time>
      </trkpt>
      <trkpt lat="46.55088" lon="5.16899">
        <ele>200</ele>
        <time>2021-10-30T12:31:55Z</time>
      </trkpt>
      <trkpt lat="46.55096" lon="5.16897">
        <ele>200</ele>
        <time>2021-10-30T12:31:56Z</time>
      </trkpt>
      <trkpt lat="46.55125" lon="5.16886">
        <ele>200.4</ele>
        <time>2021-10-30T12:32:00Z</time>
      </trkpt>
      <trkpt lat="46.55178" lon="5.16864">
        <ele>200</ele>
        <time>2021-10-30T12:32:07Z</time>
      </trkpt>
      <trkpt lat="46.55185" lon="5.1686">
        <ele>200</ele>
        <time>2021-10-30T12:32:08Z</time>
      </trkpt>
      <trkpt lat="46.55197" lon="5.16851">
        <ele>200</ele>
        <time>2021-10-30T12:32:10Z</time>
      </trkpt>
      <trkpt lat="46.55209" lon="5.16839">
        <ele>200</ele>
        <time>2021-10-30T12:32:12Z</time>
      </trkpt>
      <trkpt lat="46.55246" lon="5.16812">
        <ele>200.6</ele>
        <time>2021-10-30T12:32:17Z</time>
      </trkpt>
      <trkpt lat="46.55302" lon="5.16777">
        <ele>200.4</ele>
        <time>2021-10-30T12:32:25Z</time>
      </trkpt>
      <trkpt lat="46.5535" lon="5.16732">
        <ele>200.6</ele>
        <time>2021-10-30T12:32:32Z</time>
      </trkpt>
      <trkpt lat="46.55394" lon="5.16685">
        <ele>200.2</ele>
        <time>2021-10-30T12:32:39Z</time>
      </trkpt>
      <trkpt lat="46.55431" lon="5.16634">
        <ele>200.2</ele>
        <time>2021-10-30T12:32:45Z</time>
      </trkpt>
      <trkpt lat="46.55438" lon="5.16616">
        <ele>200.2</ele>
        <time>2021-10-30T12:32:47Z</time>
      </trkpt>
      <trkpt lat="46.55444" lon="5.16594">
        <ele>200.2</ele>
        <time>2021-10-30T12:32:49Z</time>
      </trkpt>
      <trkpt lat="46.55458" lon="5.16546">
        <ele>200.8</ele>
        <time>2021-10-30T12:32:54Z</time>
      </trkpt>
      <trkpt lat="46.55463" lon="5.16539">
        <ele>201</ele>
        <time>2021-10-30T12:32:55Z</time>
      </trkpt>
      <trkpt lat="46.55468" lon="5.16533">
        <ele>201</ele>
        <time>2021-10-30T12:32:56Z</time>
      </trkpt>
      <trkpt lat="46.55473" lon="5.16529">
        <ele>201.2</ele>
        <time>2021-10-30T12:32:57Z</time>
      </trkpt>
      <trkpt lat="46.55483" lon="5.1652">
        <ele>201.4</ele>
        <time>2021-10-30T12:32:59Z</time>
      </trkpt>
      <trkpt lat="46.55491" lon="5.16509">
        <ele>202.4</ele>
        <time>2021-10-30T12:33:01Z</time>
      </trkpt>
      <trkpt lat="46.55494" lon="5.16504">
        <ele>203</ele>
        <time>2021-10-30T12:33:02Z</time>
      </trkpt>
      <trkpt lat="46.55496" lon="5.16498">
        <ele>203.2</ele>
        <time>2021-10-30T12:33:03Z</time>
      </trkpt>
      <trkpt lat="46.55499" lon="5.16491">
        <ele>203.6</ele>
        <time>2021-10-30T12:33:04Z</time>
      </trkpt>
      <trkpt lat="46.55506" lon="5.16463">
        <ele>204.6</ele>
        <time>2021-10-30T12:33:09Z</time>
      </trkpt>
      <trkpt lat="46.55514" lon="5.16438">
        <ele>205.6</ele>
        <time>2021-10-30T12:33:14Z</time>
      </trkpt>
      <trkpt lat="46.55518" lon="5.16434">
        <ele>206</ele>
        <time>2021-10-30T12:33:15Z</time>
      </trkpt>
      <trkpt lat="46.55526" lon="5.16429">
        <ele>206.2</ele>
        <time>2021-10-30T12:33:17Z</time>
      </trkpt>
      <trkpt lat="46.55531" lon="5.16427">
        <ele>206.4</ele>
        <time>2021-10-30T12:33:18Z</time>
      </trkpt>
      <trkpt lat="46.5555" lon="5.1642">
        <ele>206.8</ele>
        <time>2021-10-30T12:33:22Z</time>
      </trkpt>
      <trkpt lat="46.55556" lon="5.16419">
        <ele>207</ele>
        <time>2021-10-30T12:33:23Z</time>
      </trkpt>
      <trkpt lat="46.55572" lon="5.16421">
        <ele>208</ele>
        <time>2021-10-30T12:33:26Z</time>
      </trkpt>
      <trkpt lat="46.55588" lon="5.16423">
        <ele>209.6</ele>
        <time>2021-10-30T12:33:29Z</time>
      </trkpt>
      <trkpt lat="46.55594" lon="5.16423">
        <ele>209.8</ele>
        <time>2021-10-30T12:33:30Z</time>
      </trkpt>
      <trkpt lat="46.55627" lon="5.16428">
        <ele>210.6</ele>
        <time>2021-10-30T12:33:36Z</time>
      </trkpt>
      <trkpt lat="46.55634" lon="5.16429">
        <ele>210.6</ele>
        <time>2021-10-30T12:33:37Z</time>
      </trkpt>
      <trkpt lat="46.55666" lon="5.16435">
        <ele>210.4</ele>
        <time>2021-10-30T12:33:42Z</time>
      </trkpt>
      <trkpt lat="46.55673" lon="5.16438">
        <ele>210.4</ele>
        <time>2021-10-30T12:33:43Z</time>
      </trkpt>
      <trkpt lat="46.55684" lon="5.16444">
        <ele>210</ele>
        <time>2021-10-30T12:33:45Z</time>
      </trkpt>
      <trkpt lat="46.55696" lon="5.16455">
        <ele>209.8</ele>
        <time>2021-10-30T12:33:47Z</time>
      </trkpt>
      <trkpt lat="46.557" lon="5.16462">
        <ele>209.8</ele>
        <time>2021-10-30T12:33:48Z</time>
      </trkpt>
      <trkpt lat="46.55702" lon="5.16469">
        <ele>209.8</ele>
        <time>2021-10-30T12:33:49Z</time>
      </trkpt>
      <trkpt lat="46.557" lon="5.1649">
        <ele>209.6</ele>
        <time>2021-10-30T12:33:51Z</time>
      </trkpt>
      <trkpt lat="46.55688" lon="5.16531">
        <ele>209.4</ele>
        <time>2021-10-30T12:33:55Z</time>
      </trkpt>
      <trkpt lat="46.55669" lon="5.16602">
        <ele>208.6</ele>
        <time>2021-10-30T12:34:01Z</time>
      </trkpt>
      <trkpt lat="46.55666" lon="5.16614">
        <ele>208.2</ele>
        <time>2021-10-30T12:34:02Z</time>
      </trkpt>
      <trkpt lat="46.55653" lon="5.16661">
        <ele>207.4</ele>
        <time>2021-10-30T12:34:06Z</time>
      </trkpt>
      <trkpt lat="46.55641" lon="5.16708">
        <ele>206.2</ele>
        <time>2021-10-30T12:34:10Z</time>
      </trkpt>
      <trkpt lat="46.55638" lon="5.1672">
        <ele>205.6</ele>
        <time>2021-10-30T12:34:11Z</time>
      </trkpt>
      <trkpt lat="46.55628" lon="5.16759">
        <ele>205.4</ele>
        <time>2021-10-30T12:34:15Z</time>
      </trkpt>
      <trkpt lat="46.55625" lon="5.16776">
        <ele>205.2</ele>
        <time>2021-10-30T12:34:17Z</time>
      </trkpt>
      <trkpt lat="46.55617" lon="5.16813">
        <ele>205.8</ele>
        <time>2021-10-30T12:34:21Z</time>
      </trkpt>
      <trkpt lat="46.55609" lon="5.16846">
        <ele>206.8</ele>
        <time>2021-10-30T12:34:25Z</time>
      </trkpt>
      <trkpt lat="46.55603" lon="5.16869">
        <ele>207.6</ele>
        <time>2021-10-30T12:34:28Z</time>
      </trkpt>
      <trkpt lat="46.55601" lon="5.16879">
        <ele>208.2</ele>
        <time>2021-10-30T12:34:29Z</time>
      </trkpt>
      <trkpt lat="46.55591" lon="5.16921">
        <ele>209.4</ele>
        <time>2021-10-30T12:34:34Z</time>
      </trkpt>
      <trkpt lat="46.55587" lon="5.16936">
        <ele>209.8</ele>
        <time>2021-10-30T12:34:36Z</time>
      </trkpt>
      <trkpt lat="46.55583" lon="5.16955">
        <ele>210.4</ele>
        <time>2021-10-30T12:34:38Z</time>
      </trkpt>
      <trkpt lat="46.55566" lon="5.17003">
        <ele>211</ele>
        <time>2021-10-30T12:34:44Z</time>
      </trkpt>
      <trkpt lat="46.55557" lon="5.17025">
        <ele>211.6</ele>
        <time>2021-10-30T12:34:47Z</time>
      </trkpt>
      <trkpt lat="46.55541" lon="5.17063">
        <ele>211.8</ele>
        <time>2021-10-30T12:34:52Z</time>
      </trkpt>
      <trkpt lat="46.55523" lon="5.17108">
        <ele>211.8</ele>
        <time>2021-10-30T12:34:58Z</time>
      </trkpt>
      <trkpt lat="46.55496" lon="5.17167">
        <ele>212</ele>
        <time>2021-10-30T12:35:06Z</time>
      </trkpt>
      <trkpt lat="46.55463" lon="5.17227">
        <ele>211.8</ele>
        <time>2021-10-30T12:35:15Z</time>
      </trkpt>
      <trkpt lat="46.55447" lon="5.17267">
        <ele>211.6</ele>
        <time>2021-10-30T12:35:21Z</time>
      </trkpt>
      <trkpt lat="46.55433" lon="5.17323">
        <ele>211.2</ele>
        <time>2021-10-30T12:35:27Z</time>
      </trkpt>
      <trkpt lat="46.55422" lon="5.17395">
        <ele>210.6</ele>
        <time>2021-10-30T12:35:34Z</time>
      </trkpt>
      <trkpt lat="46.55416" lon="5.17477">
        <ele>211.2</ele>
        <time>2021-10-30T12:35:42Z</time>
      </trkpt>
      <trkpt lat="46.55413" lon="5.17508">
        <ele>211.4</ele>
        <time>2021-10-30T12:35:45Z</time>
      </trkpt>
      <trkpt lat="46.5541" lon="5.17547">
        <ele>211.6</ele>
        <time>2021-10-30T12:35:49Z</time>
      </trkpt>
      <trkpt lat="46.55406" lon="5.17585">
        <ele>212.6</ele>
        <time>2021-10-30T12:35:53Z</time>
      </trkpt>
      <trkpt lat="46.554" lon="5.17668">
        <ele>213.4</ele>
        <time>2021-10-30T12:36:02Z</time>
      </trkpt>
      <trkpt lat="46.55393" lon="5.17746">
        <ele>213.6</ele>
        <time>2021-10-30T12:36:10Z</time>
      </trkpt>
      <trkpt lat="46.55393" lon="5.17765">
        <ele>213.6</ele>
        <time>2021-10-30T12:36:12Z</time>
      </trkpt>
      <trkpt lat="46.55392" lon="5.17775">
        <ele>213.8</ele>
        <time>2021-10-30T12:36:13Z</time>
      </trkpt>
      <trkpt lat="46.55392" lon="5.17829">
        <ele>213.4</ele>
        <time>2021-10-30T12:36:18Z</time>
      </trkpt>
      <trkpt lat="46.55393" lon="5.17852">
        <ele>212.8</ele>
        <time>2021-10-30T12:36:20Z</time>
      </trkpt>
      <trkpt lat="46.55394" lon="5.17914">
        <ele>211.8</ele>
        <time>2021-10-30T12:36:25Z</time>
      </trkpt>
      <trkpt lat="46.55395" lon="5.17939">
        <ele>211.4</ele>
        <time>2021-10-30T12:36:27Z</time>
      </trkpt>
      <trkpt lat="46.55401" lon="5.17988">
        <ele>210.8</ele>
        <time>2021-10-30T12:36:31Z</time>
      </trkpt>
      <trkpt lat="46.55407" lon="5.1801">
        <ele>210.6</ele>
        <time>2021-10-30T12:36:33Z</time>
      </trkpt>
      <trkpt lat="46.55416" lon="5.1803">
        <ele>210.6</ele>
        <time>2021-10-30T12:36:35Z</time>
      </trkpt>
      <trkpt lat="46.55445" lon="5.18073">
        <ele>210.8</ele>
        <time>2021-10-30T12:36:40Z</time>
      </trkpt>
      <trkpt lat="46.5548" lon="5.18124">
        <ele>211.4</ele>
        <time>2021-10-30T12:36:47Z</time>
      </trkpt>
      <trkpt lat="46.55518" lon="5.18176">
        <ele>212</ele>
        <time>2021-10-30T12:36:54Z</time>
      </trkpt>
      <trkpt lat="46.55548" lon="5.18231">
        <ele>212.6</ele>
        <time>2021-10-30T12:37:00Z</time>
      </trkpt>
      <trkpt lat="46.55565" lon="5.18288">
        <ele>212.6</ele>
        <time>2021-10-30T12:37:05Z</time>
      </trkpt>
      <trkpt lat="46.55579" lon="5.18364">
        <ele>212</ele>
        <time>2021-10-30T12:37:12Z</time>
      </trkpt>
      <trkpt lat="46.55589" lon="5.18417">
        <ele>211.6</ele>
        <time>2021-10-30T12:37:17Z</time>
      </trkpt>
      <trkpt lat="46.55598" lon="5.1847">
        <ele>211.6</ele>
        <time>2021-10-30T12:37:22Z</time>
      </trkpt>
      <trkpt lat="46.55612" lon="5.18551">
        <ele>212.4</ele>
        <time>2021-10-30T12:37:30Z</time>
      </trkpt>
      <trkpt lat="46.55614" lon="5.18561">
        <ele>212.4</ele>
        <time>2021-10-30T12:37:31Z</time>
      </trkpt>
      <trkpt lat="46.55621" lon="5.18602">
        <ele>212.6</ele>
        <time>2021-10-30T12:37:35Z</time>
      </trkpt>
      <trkpt lat="46.5563" lon="5.18652">
        <ele>212.6</ele>
        <time>2021-10-30T12:37:40Z</time>
      </trkpt>
      <trkpt lat="46.55644" lon="5.18733">
        <ele>212.2</ele>
        <time>2021-10-30T12:37:48Z</time>
      </trkpt>
      <trkpt lat="46.55648" lon="5.18753">
        <ele>212.2</ele>
        <time>2021-10-30T12:37:50Z</time>
      </trkpt>
      <trkpt lat="46.55661" lon="5.18832">
        <ele>212</ele>
        <time>2021-10-30T12:37:58Z</time>
      </trkpt>
      <trkpt lat="46.55667" lon="5.18864">
        <ele>212</ele>
        <time>2021-10-30T12:38:01Z</time>
      </trkpt>
      <trkpt lat="46.55676" lon="5.18918">
        <ele>211.6</ele>
        <time>2021-10-30T12:38:06Z</time>
      </trkpt>
      <trkpt lat="46.55682" lon="5.1895">
        <ele>211.4</ele>
        <time>2021-10-30T12:38:09Z</time>
      </trkpt>
      <trkpt lat="46.55697" lon="5.19035">
        <ele>211.4</ele>
        <time>2021-10-30T12:38:17Z</time>
      </trkpt>
      <trkpt lat="46.55702" lon="5.19067">
        <ele>211.8</ele>
        <time>2021-10-30T12:38:20Z</time>
      </trkpt>
      <trkpt lat="46.55715" lon="5.1915">
        <ele>212.4</ele>
        <time>2021-10-30T12:38:28Z</time>
      </trkpt>
      <trkpt lat="46.55721" lon="5.1922">
        <ele>212.4</ele>
        <time>2021-10-30T12:38:35Z</time>
      </trkpt>
      <trkpt lat="46.55725" lon="5.19305">
        <ele>211.8</ele>
        <time>2021-10-30T12:38:43Z</time>
      </trkpt>
      <trkpt lat="46.55726" lon="5.19327">
        <ele>211.8</ele>
        <time>2021-10-30T12:38:45Z</time>
      </trkpt>
      <trkpt lat="46.55731" lon="5.19412">
        <ele>211.8</ele>
        <time>2021-10-30T12:38:53Z</time>
      </trkpt>
      <trkpt lat="46.55732" lon="5.19432">
        <ele>211.8</ele>
        <time>2021-10-30T12:38:55Z</time>
      </trkpt>
      <trkpt lat="46.55735" lon="5.19502">
        <ele>211.4</ele>
        <time>2021-10-30T12:39:02Z</time>
      </trkpt>
      <trkpt lat="46.55736" lon="5.19512">
        <ele>211.4</ele>
        <time>2021-10-30T12:39:03Z</time>
      </trkpt>
      <trkpt lat="46.55741" lon="5.19599">
        <ele>211.4</ele>
        <time>2021-10-30T12:39:12Z</time>
      </trkpt>
      <trkpt lat="46.55748" lon="5.1964">
        <ele>211.6</ele>
        <time>2021-10-30T12:39:16Z</time>
      </trkpt>
      <trkpt lat="46.55751" lon="5.1965">
        <ele>211.8</ele>
        <time>2021-10-30T12:39:17Z</time>
      </trkpt>
      <trkpt lat="46.55772" lon="5.19694">
        <ele>211.8</ele>
        <time>2021-10-30T12:39:22Z</time>
      </trkpt>
      <trkpt lat="46.55786" lon="5.19719">
        <ele>211.8</ele>
        <time>2021-10-30T12:39:25Z</time>
      </trkpt>
      <trkpt lat="46.55798" lon="5.19747">
        <ele>211.6</ele>
        <time>2021-10-30T12:39:28Z</time>
      </trkpt>
      <trkpt lat="46.55808" lon="5.19798">
        <ele>211.6</ele>
        <time>2021-10-30T12:39:33Z</time>
      </trkpt>
      <trkpt lat="46.55819" lon="5.19868">
        <ele>212.2</ele>
        <time>2021-10-30T12:39:40Z</time>
      </trkpt>
      <trkpt lat="46.5583" lon="5.1995">
        <ele>212.6</ele>
        <time>2021-10-30T12:39:48Z</time>
      </trkpt>
      <trkpt lat="46.55832" lon="5.1996">
        <ele>212.6</ele>
        <time>2021-10-30T12:39:49Z</time>
      </trkpt>
      <trkpt lat="46.55845" lon="5.20044">
        <ele>211.8</ele>
        <time>2021-10-30T12:39:57Z</time>
      </trkpt>
      <trkpt lat="46.55846" lon="5.20054">
        <ele>211.8</ele>
        <time>2021-10-30T12:39:58Z</time>
      </trkpt>
      <trkpt lat="46.55859" lon="5.20139">
        <ele>212.2</ele>
        <time>2021-10-30T12:40:06Z</time>
      </trkpt>
      <trkpt lat="46.55872" lon="5.20224">
        <ele>211.8</ele>
        <time>2021-10-30T12:40:14Z</time>
      </trkpt>
      <trkpt lat="46.55879" lon="5.20267">
        <ele>211.2</ele>
        <time>2021-10-30T12:40:18Z</time>
      </trkpt>
      <trkpt lat="46.5589" lon="5.20348">
        <ele>211.2</ele>
        <time>2021-10-30T12:40:26Z</time>
      </trkpt>
      <trkpt lat="46.55892" lon="5.20358">
        <ele>211.4</ele>
        <time>2021-10-30T12:40:27Z</time>
      </trkpt>
      <trkpt lat="46.55895" lon="5.20407">
        <ele>211.6</ele>
        <time>2021-10-30T12:40:32Z</time>
      </trkpt>
      <trkpt lat="46.55905" lon="5.20472">
        <ele>211.6</ele>
        <time>2021-10-30T12:40:38Z</time>
      </trkpt>
      <trkpt lat="46.55911" lon="5.2054">
        <ele>211</ele>
        <time>2021-10-30T12:40:44Z</time>
      </trkpt>
      <trkpt lat="46.55909" lon="5.20562">
        <ele>210.8</ele>
        <time>2021-10-30T12:40:45Z</time>
      </trkpt>
      <trkpt lat="46.55907" lon="5.20573">
        <ele>210.6</ele>
        <time>2021-10-30T12:40:47Z</time>
      </trkpt>
      <trkpt lat="46.55905" lon="5.20583">
        <ele>210.6</ele>
        <time>2021-10-30T12:40:48Z</time>
      </trkpt>
      <trkpt lat="46.55885" lon="5.20632">
        <ele>210.2</ele>
        <time>2021-10-30T12:40:53Z</time>
      </trkpt>
      <trkpt lat="46.55852" lon="5.20703">
        <ele>210.4</ele>
        <time>2021-10-30T12:41:01Z</time>
      </trkpt>
      <trkpt lat="46.55848" lon="5.20712">
        <ele>210.6</ele>
        <time>2021-10-30T12:41:02Z</time>
      </trkpt>
      <trkpt lat="46.55842" lon="5.20731">
        <ele>210.8</ele>
        <time>2021-10-30T12:41:04Z</time>
      </trkpt>
      <trkpt lat="46.55836" lon="5.20757">
        <ele>210.8</ele>
        <time>2021-10-30T12:41:07Z</time>
      </trkpt>
      <trkpt lat="46.55835" lon="5.20767">
        <ele>210.6</ele>
        <time>2021-10-30T12:41:08Z</time>
      </trkpt>
      <trkpt lat="46.55835" lon="5.20808">
        <ele>210.6</ele>
        <time>2021-10-30T12:41:12Z</time>
      </trkpt>
      <trkpt lat="46.5584" lon="5.20871">
        <ele>210.6</ele>
        <time>2021-10-30T12:41:17Z</time>
      </trkpt>
      <trkpt lat="46.55847" lon="5.20955">
        <ele>211.4</ele>
        <time>2021-10-30T12:41:25Z</time>
      </trkpt>
      <trkpt lat="46.55849" lon="5.20976">
        <ele>211.4</ele>
        <time>2021-10-30T12:41:27Z</time>
      </trkpt>
      <trkpt lat="46.55852" lon="5.21007">
        <ele>211.8</ele>
        <time>2021-10-30T12:41:30Z</time>
      </trkpt>
      <trkpt lat="46.55857" lon="5.2107">
        <ele>211.6</ele>
        <time>2021-10-30T12:41:36Z</time>
      </trkpt>
      <trkpt lat="46.55861" lon="5.21142">
        <ele>211.2</ele>
        <time>2021-10-30T12:41:43Z</time>
      </trkpt>
      <trkpt lat="46.55861" lon="5.21201">
        <ele>210.6</ele>
        <time>2021-10-30T12:41:49Z</time>
      </trkpt>
      <trkpt lat="46.55861" lon="5.2122">
        <ele>210.4</ele>
        <time>2021-10-30T12:41:51Z</time>
      </trkpt>
      <trkpt lat="46.55862" lon="5.2128">
        <ele>210</ele>
        <time>2021-10-30T12:41:57Z</time>
      </trkpt>
      <trkpt lat="46.55861" lon="5.21361">
        <ele>210</ele>
        <time>2021-10-30T12:42:05Z</time>
      </trkpt>
      <trkpt lat="46.55861" lon="5.21391">
        <ele>210</ele>
        <time>2021-10-30T12:42:08Z</time>
      </trkpt>
      <trkpt lat="46.55861" lon="5.21467">
        <ele>209.6</ele>
        <time>2021-10-30T12:42:16Z</time>
      </trkpt>
      <trkpt lat="46.55864" lon="5.21544">
        <ele>208.4</ele>
        <time>2021-10-30T12:42:22Z</time>
      </trkpt>
      <trkpt lat="46.5587" lon="5.21601">
        <ele>207</ele>
        <time>2021-10-30T12:42:25Z</time>
      </trkpt>
      <trkpt lat="46.55875" lon="5.21644">
        <ele>205.8</ele>
        <time>2021-10-30T12:42:28Z</time>
      </trkpt>
      <trkpt lat="46.55877" lon="5.21659">
        <ele>205.2</ele>
        <time>2021-10-30T12:42:29Z</time>
      </trkpt>
      <trkpt lat="46.55878" lon="5.21673">
        <ele>204.6</ele>
        <time>2021-10-30T12:42:30Z</time>
      </trkpt>
      <trkpt lat="46.55881" lon="5.21703">
        <ele>203.2</ele>
        <time>2021-10-30T12:42:32Z</time>
      </trkpt>
      <trkpt lat="46.55885" lon="5.21732">
        <ele>202</ele>
        <time>2021-10-30T12:42:34Z</time>
      </trkpt>
      <trkpt lat="46.55889" lon="5.2176">
        <ele>201.2</ele>
        <time>2021-10-30T12:42:36Z</time>
      </trkpt>
      <trkpt lat="46.55892" lon="5.21774">
        <ele>200.8</ele>
        <time>2021-10-30T12:42:37Z</time>
      </trkpt>
      <trkpt lat="46.55899" lon="5.21803">
        <ele>199.6</ele>
        <time>2021-10-30T12:42:39Z</time>
      </trkpt>
      <trkpt lat="46.5591" lon="5.21843">
        <ele>198.8</ele>
        <time>2021-10-30T12:42:42Z</time>
      </trkpt>
      <trkpt lat="46.55914" lon="5.21856">
        <ele>198.4</ele>
        <time>2021-10-30T12:42:43Z</time>
      </trkpt>
      <trkpt lat="46.55925" lon="5.21893">
        <ele>197</ele>
        <time>2021-10-30T12:42:46Z</time>
      </trkpt>
      <trkpt lat="46.55932" lon="5.21917">
        <ele>196.8</ele>
        <time>2021-10-30T12:42:48Z</time>
      </trkpt>
      <trkpt lat="46.55954" lon="5.21992">
        <ele>196.2</ele>
        <time>2021-10-30T12:42:54Z</time>
      </trkpt>
      <trkpt lat="46.55965" lon="5.22027">
        <ele>196.2</ele>
        <time>2021-10-30T12:42:57Z</time>
      </trkpt>
      <trkpt lat="46.55993" lon="5.22117">
        <ele>196.6</ele>
        <time>2021-10-30T12:43:05Z</time>
      </trkpt>
      <trkpt lat="46.55996" lon="5.22128">
        <ele>196.8</ele>
        <time>2021-10-30T12:43:06Z</time>
      </trkpt>
      <trkpt lat="46.56021" lon="5.22209">
        <ele>197.2</ele>
        <time>2021-10-30T12:43:14Z</time>
      </trkpt>
      <trkpt lat="46.56044" lon="5.22283">
        <ele>197.2</ele>
        <time>2021-10-30T12:43:21Z</time>
      </trkpt>
      <trkpt lat="46.56061" lon="5.22339">
        <ele>196.6</ele>
        <time>2021-10-30T12:43:26Z</time>
      </trkpt>
      <trkpt lat="46.56083" lon="5.22416">
        <ele>196.4</ele>
        <time>2021-10-30T12:43:33Z</time>
      </trkpt>
      <trkpt lat="46.56097" lon="5.2246">
        <ele>196.4</ele>
        <time>2021-10-30T12:43:37Z</time>
      </trkpt>
      <trkpt lat="46.56122" lon="5.22546">
        <ele>196.6</ele>
        <time>2021-10-30T12:43:45Z</time>
      </trkpt>
      <trkpt lat="46.56132" lon="5.22577">
        <ele>196.6</ele>
        <time>2021-10-30T12:43:48Z</time>
      </trkpt>
      <trkpt lat="46.56161" lon="5.22657">
        <ele>196.6</ele>
        <time>2021-10-30T12:43:56Z</time>
      </trkpt>
      <trkpt lat="46.56175" lon="5.22696">
        <ele>196.2</ele>
        <time>2021-10-30T12:44:00Z</time>
      </trkpt>
      <trkpt lat="46.56195" lon="5.22749">
        <ele>196</ele>
        <time>2021-10-30T12:44:06Z</time>
      </trkpt>
      <trkpt lat="46.56214" lon="5.22802">
        <ele>197.6</ele>
        <time>2021-10-30T12:44:13Z</time>
      </trkpt>
      <trkpt lat="46.56222" lon="5.22822">
        <ele>199</ele>
        <time>2021-10-30T12:44:16Z</time>
      </trkpt>
      <trkpt lat="46.56233" lon="5.22849">
        <ele>200</ele>
        <time>2021-10-30T12:44:21Z</time>
      </trkpt>
      <trkpt lat="46.56238" lon="5.22862">
        <ele>200.4</ele>
        <time>2021-10-30T12:44:22Z</time>
      </trkpt>
      <trkpt lat="46.56246" lon="5.2288">
        <ele>201.4</ele>
        <time>2021-10-30T12:44:25Z</time>
      </trkpt>
      <trkpt lat="46.56253" lon="5.22897">
        <ele>202.4</ele>
        <time>2021-10-30T12:44:28Z</time>
      </trkpt>
      <trkpt lat="46.56255" lon="5.22903">
        <ele>202.6</ele>
        <time>2021-10-30T12:44:29Z</time>
      </trkpt>
      <trkpt lat="46.56258" lon="5.22922">
        <ele>203.8</ele>
        <time>2021-10-30T12:44:32Z</time>
      </trkpt>
      <trkpt lat="46.5626" lon="5.22928">
        <ele>204</ele>
        <time>2021-10-30T12:44:33Z</time>
      </trkpt>
      <trkpt lat="46.56264" lon="5.2294">
        <ele>205</ele>
        <time>2021-10-30T12:44:36Z</time>
      </trkpt>
      <trkpt lat="46.56268" lon="5.22952">
        <ele>205</ele>
        <time>2021-10-30T12:44:37Z</time>
      </trkpt>
      <trkpt lat="46.56272" lon="5.2297">
        <ele>206</ele>
        <time>2021-10-30T12:44:40Z</time>
      </trkpt>
      <trkpt lat="46.56279" lon="5.22988">
        <ele>206.8</ele>
        <time>2021-10-30T12:44:43Z</time>
      </trkpt>
      <trkpt lat="46.56283" lon="5.22999">
        <ele>207.4</ele>
        <time>2021-10-30T12:44:45Z</time>
      </trkpt>
      <trkpt lat="46.56286" lon="5.23005">
        <ele>207.8</ele>
        <time>2021-10-30T12:44:46Z</time>
      </trkpt>
      <trkpt lat="46.56293" lon="5.23024">
        <ele>208.4</ele>
        <time>2021-10-30T12:44:49Z</time>
      </trkpt>
      <trkpt lat="46.56298" lon="5.23035">
        <ele>209</ele>
        <time>2021-10-30T12:44:51Z</time>
      </trkpt>
      <trkpt lat="46.563" lon="5.23041">
        <ele>209.4</ele>
        <time>2021-10-30T12:44:52Z</time>
      </trkpt>
      <trkpt lat="46.56305" lon="5.23052">
        <ele>210.2</ele>
        <time>2021-10-30T12:44:54Z</time>
      </trkpt>
      <trkpt lat="46.56305" lon="5.23052">
        <ele>210.6</ele>
        <time>2021-10-30T12:44:55Z</time>
      </trkpt>
      <trkpt lat="46.5631" lon="5.23065">
        <ele>210.8</ele>
        <time>2021-10-30T12:44:56Z</time>
      </trkpt>
      <trkpt lat="46.56318" lon="5.23084">
        <ele>211.4</ele>
        <time>2021-10-30T12:44:59Z</time>
      </trkpt>
      <trkpt lat="46.5632" lon="5.23091">
        <ele>211.6</ele>
        <time>2021-10-30T12:45:00Z</time>
      </trkpt>
      <trkpt lat="46.56323" lon="5.23098">
        <ele>212</ele>
        <time>2021-10-30T12:45:01Z</time>
      </trkpt>
      <trkpt lat="46.56334" lon="5.23119">
        <ele>213</ele>
        <time>2021-10-30T12:45:04Z</time>
      </trkpt>
      <trkpt lat="46.56342" lon="5.23139">
        <ele>213.4</ele>
        <time>2021-10-30T12:45:08Z</time>
      </trkpt>
      <trkpt lat="46.56358" lon="5.23177">
        <ele>213.4</ele>
        <time>2021-10-30T12:45:12Z</time>
      </trkpt>
      <trkpt lat="46.56359" lon="5.23184">
        <ele>213.4</ele>
        <time>2021-10-30T12:45:13Z</time>
      </trkpt>
      <trkpt lat="46.56362" lon="5.23192">
        <ele>213.2</ele>
        <time>2021-10-30T12:45:14Z</time>
      </trkpt>
      <trkpt lat="46.56368" lon="5.23213">
        <ele>212.8</ele>
        <time>2021-10-30T12:45:17Z</time>
      </trkpt>
      <trkpt lat="46.56371" lon="5.23221">
        <ele>212.8</ele>
        <time>2021-10-30T12:45:18Z</time>
      </trkpt>
      <trkpt lat="46.56392" lon="5.23273">
        <ele>212.6</ele>
        <time>2021-10-30T12:45:24Z</time>
      </trkpt>
      <trkpt lat="46.56411" lon="5.23319">
        <ele>212.6</ele>
        <time>2021-10-30T12:45:29Z</time>
      </trkpt>
      <trkpt lat="46.56414" lon="5.23327">
        <ele>212.6</ele>
        <time>2021-10-30T12:45:30Z</time>
      </trkpt>
      <trkpt lat="46.56444" lon="5.23403">
        <ele>212.4</ele>
        <time>2021-10-30T12:45:38Z</time>
      </trkpt>
      <trkpt lat="46.56448" lon="5.23411">
        <ele>212.2</ele>
        <time>2021-10-30T12:45:39Z</time>
      </trkpt>
      <trkpt lat="46.56462" lon="5.23443">
        <ele>212.2</ele>
        <time>2021-10-30T12:45:43Z</time>
      </trkpt>
      <trkpt lat="46.56468" lon="5.23457">
        <ele>212.2</ele>
        <time>2021-10-30T12:45:45Z</time>
      </trkpt>
      <trkpt lat="46.56473" lon="5.23465">
        <ele>212.2</ele>
        <time>2021-10-30T12:45:46Z</time>
      </trkpt>
      <trkpt lat="46.56477" lon="5.23472">
        <ele>212.2</ele>
        <time>2021-10-30T12:45:47Z</time>
      </trkpt>
      <trkpt lat="46.56486" lon="5.23487">
        <ele>212.4</ele>
        <time>2021-10-30T12:45:49Z</time>
      </trkpt>
      <trkpt lat="46.56518" lon="5.2353">
        <ele>212.6</ele>
        <time>2021-10-30T12:45:55Z</time>
      </trkpt>
      <trkpt lat="46.56549" lon="5.23565">
        <ele>212.6</ele>
        <time>2021-10-30T12:46:00Z</time>
      </trkpt>
      <trkpt lat="46.56598" lon="5.23601">
        <ele>212.4</ele>
        <time>2021-10-30T12:46:07Z</time>
      </trkpt>
      <trkpt lat="46.56645" lon="5.23634">
        <ele>211.6</ele>
        <time>2021-10-30T12:46:13Z</time>
      </trkpt>
      <trkpt lat="46.56677" lon="5.23668">
        <ele>210.6</ele>
        <time>2021-10-30T12:46:18Z</time>
      </trkpt>
      <trkpt lat="46.5669" lon="5.23685">
        <ele>210.2</ele>
        <time>2021-10-30T12:46:20Z</time>
      </trkpt>
      <trkpt lat="46.56709" lon="5.23714">
        <ele>209.6</ele>
        <time>2021-10-30T12:46:23Z</time>
      </trkpt>
      <trkpt lat="46.56729" lon="5.23746">
        <ele>208.4</ele>
        <time>2021-10-30T12:46:26Z</time>
      </trkpt>
      <trkpt lat="46.56734" lon="5.23754">
        <ele>208</ele>
        <time>2021-10-30T12:46:27Z</time>
      </trkpt>
      <trkpt lat="46.56757" lon="5.23795">
        <ele>207.4</ele>
        <time>2021-10-30T12:46:31Z</time>
      </trkpt>
      <trkpt lat="46.56767" lon="5.23816">
        <ele>207.4</ele>
        <time>2021-10-30T12:46:33Z</time>
      </trkpt>
      <trkpt lat="46.56777" lon="5.23836">
        <ele>207.4</ele>
        <time>2021-10-30T12:46:35Z</time>
      </trkpt>
      <trkpt lat="46.5679" lon="5.23852">
        <ele>207.6</ele>
        <time>2021-10-30T12:46:37Z</time>
      </trkpt>
      <trkpt lat="46.56826" lon="5.23882">
        <ele>207.8</ele>
        <time>2021-10-30T12:46:42Z</time>
      </trkpt>
      <trkpt lat="46.56876" lon="5.23913">
        <ele>208.4</ele>
        <time>2021-10-30T12:46:49Z</time>
      </trkpt>
      <trkpt lat="46.56883" lon="5.23918">
        <ele>208.6</ele>
        <time>2021-10-30T12:46:50Z</time>
      </trkpt>
      <trkpt lat="46.56917" lon="5.23939">
        <ele>209.6</ele>
        <time>2021-10-30T12:46:55Z</time>
      </trkpt>
      <trkpt lat="46.56932" lon="5.23946">
        <ele>210.2</ele>
        <time>2021-10-30T12:46:57Z</time>
      </trkpt>
      <trkpt lat="46.56947" lon="5.23951">
        <ele>210.6</ele>
        <time>2021-10-30T12:47:00Z</time>
      </trkpt>
      <trkpt lat="46.56987" lon="5.23964">
        <ele>211</ele>
        <time>2021-10-30T12:47:04Z</time>
      </trkpt>
      <trkpt lat="46.57043" lon="5.23981">
        <ele>211.2</ele>
        <time>2021-10-30T12:47:11Z</time>
      </trkpt>
      <trkpt lat="46.57051" lon="5.23983">
        <ele>211.2</ele>
        <time>2021-10-30T12:47:12Z</time>
      </trkpt>
      <trkpt lat="46.57106" lon="5.24001">
        <ele>211.2</ele>
        <time>2021-10-30T12:47:19Z</time>
      </trkpt>
      <trkpt lat="46.57114" lon="5.24006">
        <ele>211.2</ele>
        <time>2021-10-30T12:47:20Z</time>
      </trkpt>
      <trkpt lat="46.57121" lon="5.24012">
        <ele>211.2</ele>
        <time>2021-10-30T12:47:21Z</time>
      </trkpt>
      <trkpt lat="46.5714" lon="5.24035">
        <ele>211</ele>
        <time>2021-10-30T12:47:24Z</time>
      </trkpt>
      <trkpt lat="46.57166" lon="5.24082">
        <ele>210.4</ele>
        <time>2021-10-30T12:47:29Z</time>
      </trkpt>
      <trkpt lat="46.57194" lon="5.24146">
        <ele>209.6</ele>
        <time>2021-10-30T12:47:34Z</time>
      </trkpt>
      <trkpt lat="46.57206" lon="5.24167">
        <ele>208.6</ele>
        <time>2021-10-30T12:47:36Z</time>
      </trkpt>
      <trkpt lat="46.57215" lon="5.24175">
        <ele>208.4</ele>
        <time>2021-10-30T12:47:37Z</time>
      </trkpt>
      <trkpt lat="46.57236" lon="5.24188">
        <ele>206.4</ele>
        <time>2021-10-30T12:47:39Z</time>
      </trkpt>
      <trkpt lat="46.57258" lon="5.24202">
        <ele>205.2</ele>
        <time>2021-10-30T12:47:41Z</time>
      </trkpt>
      <trkpt lat="46.57267" lon="5.24211">
        <ele>204.8</ele>
        <time>2021-10-30T12:47:42Z</time>
      </trkpt>
      <trkpt lat="46.57276" lon="5.24222">
        <ele>203.8</ele>
        <time>2021-10-30T12:47:43Z</time>
      </trkpt>
      <trkpt lat="46.57284" lon="5.24235">
        <ele>203.4</ele>
        <time>2021-10-30T12:47:44Z</time>
      </trkpt>
      <trkpt lat="46.5729" lon="5.24249">
        <ele>202.6</ele>
        <time>2021-10-30T12:47:45Z</time>
      </trkpt>
      <trkpt lat="46.57295" lon="5.24265">
        <ele>201.6</ele>
        <time>2021-10-30T12:47:46Z</time>
      </trkpt>
      <trkpt lat="46.57299" lon="5.24281">
        <ele>200.8</ele>
        <time>2021-10-30T12:47:47Z</time>
      </trkpt>
      <trkpt lat="46.57302" lon="5.24298">
        <ele>199.6</ele>
        <time>2021-10-30T12:47:48Z</time>
      </trkpt>
      <trkpt lat="46.57305" lon="5.24315">
        <ele>197.8</ele>
        <time>2021-10-30T12:47:50Z</time>
      </trkpt>
      <trkpt lat="46.57309" lon="5.24349">
        <ele>196.8</ele>
        <time>2021-10-30T12:47:51Z</time>
      </trkpt>
      <trkpt lat="46.57311" lon="5.24366">
        <ele>195.4</ele>
        <time>2021-10-30T12:47:52Z</time>
      </trkpt>
      <trkpt lat="46.57312" lon="5.24398">
        <ele>194</ele>
        <time>2021-10-30T12:47:54Z</time>
      </trkpt>
      <trkpt lat="46.57311" lon="5.24413">
        <ele>193.2</ele>
        <time>2021-10-30T12:47:55Z</time>
      </trkpt>
      <trkpt lat="46.57308" lon="5.24427">
        <ele>192.6</ele>
        <time>2021-10-30T12:47:56Z</time>
      </trkpt>
      <trkpt lat="46.57302" lon="5.24454">
        <ele>191.2</ele>
        <time>2021-10-30T12:47:58Z</time>
      </trkpt>
      <trkpt lat="46.57299" lon="5.24467">
        <ele>191</ele>
        <time>2021-10-30T12:47:59Z</time>
      </trkpt>
      <trkpt lat="46.57288" lon="5.24504">
        <ele>190.4</ele>
        <time>2021-10-30T12:48:02Z</time>
      </trkpt>
      <trkpt lat="46.5728" lon="5.24539">
        <ele>190.2</ele>
        <time>2021-10-30T12:48:05Z</time>
      </trkpt>
      <trkpt lat="46.57277" lon="5.24562">
        <ele>189.8</ele>
        <time>2021-10-30T12:48:07Z</time>
      </trkpt>
      <trkpt lat="46.57278" lon="5.24586">
        <ele>189.6</ele>
        <time>2021-10-30T12:48:09Z</time>
      </trkpt>
      <trkpt lat="46.5728" lon="5.2462">
        <ele>189.2</ele>
        <time>2021-10-30T12:48:12Z</time>
      </trkpt>
      <trkpt lat="46.57279" lon="5.24636">
        <ele>188.4</ele>
        <time>2021-10-30T12:48:14Z</time>
      </trkpt>
      <trkpt lat="46.57276" lon="5.24643">
        <ele>188.4</ele>
        <time>2021-10-30T12:48:17Z</time>
      </trkpt>
      <trkpt lat="46.57276" lon="5.24643">
        <ele>188.4</ele>
        <time>2021-10-30T12:48:18Z</time>
      </trkpt>
      <trkpt lat="46.57271" lon="5.24647">
        <ele>188.4</ele>
        <time>2021-10-30T12:48:24Z</time>
      </trkpt>
      <trkpt lat="46.57264" lon="5.2465">
        <ele>188.4</ele>
        <time>2021-10-30T12:48:26Z</time>
      </trkpt>
      <trkpt lat="46.57239" lon="5.24659">
        <ele>188.4</ele>
        <time>2021-10-30T12:48:31Z</time>
      </trkpt>
      <trkpt lat="46.57223" lon="5.24665">
        <ele>188.4</ele>
        <time>2021-10-30T12:48:34Z</time>
      </trkpt>
      <trkpt lat="46.57207" lon="5.2467">
        <ele>188.4</ele>
        <time>2021-10-30T12:48:37Z</time>
      </trkpt>
      <trkpt lat="46.57162" lon="5.24686">
        <ele>189</ele>
        <time>2021-10-30T12:48:46Z</time>
      </trkpt>
      <trkpt lat="46.57137" lon="5.24692">
        <ele>189.2</ele>
        <time>2021-10-30T12:48:51Z</time>
      </trkpt>
      <trkpt lat="46.57132" lon="5.24692">
        <ele>189.2</ele>
        <time>2021-10-30T12:48:52Z</time>
      </trkpt>
      <trkpt lat="46.57122" lon="5.2469">
        <ele>189.2</ele>
        <time>2021-10-30T12:48:54Z</time>
      </trkpt>
      <trkpt lat="46.57093" lon="5.24681">
        <ele>190.4</ele>
        <time>2021-10-30T12:49:00Z</time>
      </trkpt>
      <trkpt lat="46.57053" lon="5.24667">
        <ele>190.6</ele>
        <time>2021-10-30T12:49:09Z</time>
      </trkpt>
      <trkpt lat="46.57049" lon="5.24666">
        <ele>190.6</ele>
        <time>2021-10-30T12:49:10Z</time>
      </trkpt>
      <trkpt lat="46.57035" lon="5.24661">
        <ele>191.6</ele>
        <time>2021-10-30T12:49:13Z</time>
      </trkpt>
      <trkpt lat="46.57008" lon="5.24652">
        <ele>192.4</ele>
        <time>2021-10-30T12:49:19Z</time>
      </trkpt>
      <trkpt lat="46.57003" lon="5.2465">
        <ele>192.6</ele>
        <time>2021-10-30T12:49:20Z</time>
      </trkpt>
      <trkpt lat="46.56967" lon="5.24638">
        <ele>193.6</ele>
        <time>2021-10-30T12:49:28Z</time>
      </trkpt>
      <trkpt lat="46.56962" lon="5.24636">
        <ele>193.6</ele>
        <time>2021-10-30T12:49:29Z</time>
      </trkpt>
      <trkpt lat="46.56935" lon="5.24627">
        <ele>194.6</ele>
        <time>2021-10-30T12:49:35Z</time>
      </trkpt>
      <trkpt lat="46.56931" lon="5.24625">
        <ele>194.8</ele>
        <time>2021-10-30T12:49:36Z</time>
      </trkpt>
      <trkpt lat="46.56899" lon="5.24613">
        <ele>196</ele>
        <time>2021-10-30T12:49:43Z</time>
      </trkpt>
      <trkpt lat="46.56894" lon="5.24611">
        <ele>196</ele>
        <time>2021-10-30T12:49:44Z</time>
      </trkpt>
      <trkpt lat="46.56848" lon="5.24595">
        <ele>197</ele>
        <time>2021-10-30T12:49:54Z</time>
      </trkpt>
      <trkpt lat="46.56844" lon="5.24593">
        <ele>197.2</ele>
        <time>2021-10-30T12:49:55Z</time>
      </trkpt>
      <trkpt lat="46.56791" lon="5.24574">
        <ele>198.2</ele>
        <time>2021-10-30T12:50:06Z</time>
      </trkpt>
      <trkpt lat="46.56782" lon="5.24571">
        <ele>198.4</ele>
        <time>2021-10-30T12:50:08Z</time>
      </trkpt>
      <trkpt lat="46.56735" lon="5.24555">
        <ele>199</ele>
        <time>2021-10-30T12:50:18Z</time>
      </trkpt>
      <trkpt lat="46.56718" lon="5.24549">
        <ele>199.2</ele>
        <time>2021-10-30T12:50:22Z</time>
      </trkpt>
      <trkpt lat="46.56697" lon="5.24543">
        <ele>199.8</ele>
        <time>2021-10-30T12:50:27Z</time>
      </trkpt>
      <trkpt lat="46.5668" lon="5.24538">
        <ele>200.2</ele>
        <time>2021-10-30T12:50:31Z</time>
      </trkpt>
      <trkpt lat="46.56664" lon="5.24532">
        <ele>201</ele>
        <time>2021-10-30T12:50:35Z</time>
      </trkpt>
      <trkpt lat="46.56656" lon="5.24529">
        <ele>201.6</ele>
        <time>2021-10-30T12:50:37Z</time>
      </trkpt>
      <trkpt lat="46.56644" lon="5.24526">
        <ele>202.6</ele>
        <time>2021-10-30T12:50:40Z</time>
      </trkpt>
      <trkpt lat="46.56627" lon="5.2452">
        <ele>203.4</ele>
        <time>2021-10-30T12:50:44Z</time>
      </trkpt>
      <trkpt lat="46.56619" lon="5.24517">
        <ele>203.8</ele>
        <time>2021-10-30T12:50:46Z</time>
      </trkpt>
      <trkpt lat="46.56586" lon="5.24506">
        <ele>204.8</ele>
        <time>2021-10-30T12:50:54Z</time>
      </trkpt>
      <trkpt lat="46.56573" lon="5.24501">
        <ele>205.2</ele>
        <time>2021-10-30T12:50:57Z</time>
      </trkpt>
      <trkpt lat="46.56551" lon="5.24493">
        <ele>205.8</ele>
        <time>2021-10-30T12:51:02Z</time>
      </trkpt>
      <trkpt lat="46.56529" lon="5.24484">
        <ele>206.4</ele>
        <time>2021-10-30T12:51:07Z</time>
      </trkpt>
      <trkpt lat="46.56511" lon="5.24478">
        <ele>207</ele>
        <time>2021-10-30T12:51:11Z</time>
      </trkpt>
      <trkpt lat="46.5648" lon="5.24468">
        <ele>208</ele>
        <time>2021-10-30T12:51:18Z</time>
      </trkpt>
      <trkpt lat="46.56437" lon="5.24452">
        <ele>209</ele>
        <time>2021-10-30T12:51:28Z</time>
      </trkpt>
      <trkpt lat="46.56433" lon="5.24451">
        <ele>209.2</ele>
        <time>2021-10-30T12:51:29Z</time>
      </trkpt>
      <trkpt lat="46.56381" lon="5.24434">
        <ele>210.2</ele>
        <time>2021-10-30T12:51:41Z</time>
      </trkpt>
      <trkpt lat="46.56333" lon="5.24416">
        <ele>211.4</ele>
        <time>2021-10-30T12:51:52Z</time>
      </trkpt>
      <trkpt lat="46.56319" lon="5.24412">
        <ele>211.8</ele>
        <time>2021-10-30T12:51:55Z</time>
      </trkpt>
      <trkpt lat="46.56272" lon="5.24395">
        <ele>212.2</ele>
        <time>2021-10-30T12:52:05Z</time>
      </trkpt>
      <trkpt lat="46.56263" lon="5.24392">
        <ele>212.4</ele>
        <time>2021-10-30T12:52:07Z</time>
      </trkpt>
      <trkpt lat="46.56218" lon="5.24376">
        <ele>212.8</ele>
        <time>2021-10-30T12:52:16Z</time>
      </trkpt>
      <trkpt lat="46.56175" lon="5.24362">
        <ele>213.2</ele>
        <time>2021-10-30T12:52:24Z</time>
      </trkpt>
      <trkpt lat="46.56163" lon="5.24358">
        <ele>213.4</ele>
        <time>2021-10-30T12:52:26Z</time>
      </trkpt>
      <trkpt lat="46.56125" lon="5.24344">
        <ele>213.4</ele>
        <time>2021-10-30T12:52:33Z</time>
      </trkpt>
      <trkpt lat="46.56068" lon="5.24325">
        <ele>213.4</ele>
        <time>2021-10-30T12:52:43Z</time>
      </trkpt>
      <trkpt lat="46.56062" lon="5.24323">
        <ele>213.4</ele>
        <time>2021-10-30T12:52:44Z</time>
      </trkpt>
      <trkpt lat="46.56005" lon="5.24306">
        <ele>212.8</ele>
        <time>2021-10-30T12:52:54Z</time>
      </trkpt>
      <trkpt lat="46.55999" lon="5.24304">
        <ele>212.8</ele>
        <time>2021-10-30T12:52:55Z</time>
      </trkpt>
      <trkpt lat="46.55967" lon="5.24298">
        <ele>212.6</ele>
        <time>2021-10-30T12:53:00Z</time>
      </trkpt>
      <trkpt lat="46.55962" lon="5.24293">
        <ele>212.6</ele>
        <time>2021-10-30T12:53:01Z</time>
      </trkpt>
      <trkpt lat="46.55959" lon="5.24286">
        <ele>212.6</ele>
        <time>2021-10-30T12:53:02Z</time>
      </trkpt>
      <trkpt lat="46.55956" lon="5.24267">
        <ele>212.4</ele>
        <time>2021-10-30T12:53:04Z</time>
      </trkpt>
      <trkpt lat="46.55953" lon="5.24237">
        <ele>212.2</ele>
        <time>2021-10-30T12:53:07Z</time>
      </trkpt>
      <trkpt lat="46.55949" lon="5.24206">
        <ele>211.8</ele>
        <time>2021-10-30T12:53:10Z</time>
      </trkpt>
      <trkpt lat="46.55943" lon="5.24177">
        <ele>211.8</ele>
        <time>2021-10-30T12:53:13Z</time>
      </trkpt>
      <trkpt lat="46.55934" lon="5.24148">
        <ele>212</ele>
        <time>2021-10-30T12:53:16Z</time>
      </trkpt>
      <trkpt lat="46.55911" lon="5.24071">
        <ele>213</ele>
        <time>2021-10-30T12:53:24Z</time>
      </trkpt>
      <trkpt lat="46.55888" lon="5.23995">
        <ele>213</ele>
        <time>2021-10-30T12:53:32Z</time>
      </trkpt>
      <trkpt lat="46.55884" lon="5.23984">
        <ele>213.2</ele>
        <time>2021-10-30T12:53:33Z</time>
      </trkpt>
      <trkpt lat="46.55877" lon="5.23965">
        <ele>213.2</ele>
        <time>2021-10-30T12:53:35Z</time>
      </trkpt>
      <trkpt lat="46.5587" lon="5.23948">
        <ele>213.4</ele>
        <time>2021-10-30T12:53:37Z</time>
      </trkpt>
      <trkpt lat="46.5586" lon="5.23931">
        <ele>213.4</ele>
        <time>2021-10-30T12:53:39Z</time>
      </trkpt>
      <trkpt lat="46.55849" lon="5.2392">
        <ele>213.4</ele>
        <time>2021-10-30T12:53:41Z</time>
      </trkpt>
      <trkpt lat="46.5581" lon="5.2389">
        <ele>213.2</ele>
        <time>2021-10-30T12:53:47Z</time>
      </trkpt>
      <trkpt lat="46.55758" lon="5.23851">
        <ele>214</ele>
        <time>2021-10-30T12:53:55Z</time>
      </trkpt>
      <trkpt lat="46.55737" lon="5.23837">
        <ele>214.4</ele>
        <time>2021-10-30T12:53:58Z</time>
      </trkpt>
      <trkpt lat="46.55711" lon="5.23823">
        <ele>214.2</ele>
        <time>2021-10-30T12:54:02Z</time>
      </trkpt>
      <trkpt lat="46.55704" lon="5.23821">
        <ele>214.2</ele>
        <time>2021-10-30T12:54:03Z</time>
      </trkpt>
      <trkpt lat="46.55692" lon="5.23819">
        <ele>214</ele>
        <time>2021-10-30T12:54:05Z</time>
      </trkpt>
      <trkpt lat="46.55676" lon="5.23819">
        <ele>213.8</ele>
        <time>2021-10-30T12:54:07Z</time>
      </trkpt>
      <trkpt lat="46.55645" lon="5.23819">
        <ele>213</ele>
        <time>2021-10-30T12:54:11Z</time>
      </trkpt>
      <trkpt lat="46.55626" lon="5.2382">
        <ele>212.6</ele>
        <time>2021-10-30T12:54:13Z</time>
      </trkpt>
      <trkpt lat="46.55588" lon="5.23821">
        <ele>212</ele>
        <time>2021-10-30T12:54:17Z</time>
      </trkpt>
      <trkpt lat="46.55568" lon="5.23818">
        <ele>210.8</ele>
        <time>2021-10-30T12:54:19Z</time>
      </trkpt>
      <trkpt lat="46.55547" lon="5.23813">
        <ele>209.8</ele>
        <time>2021-10-30T12:54:21Z</time>
      </trkpt>
      <trkpt lat="46.55537" lon="5.23809">
        <ele>208.8</ele>
        <time>2021-10-30T12:54:22Z</time>
      </trkpt>
      <trkpt lat="46.55529" lon="5.23805">
        <ele>208.4</ele>
        <time>2021-10-30T12:54:23Z</time>
      </trkpt>
      <trkpt lat="46.55519" lon="5.23799">
        <ele>207.4</ele>
        <time>2021-10-30T12:54:24Z</time>
      </trkpt>
      <trkpt lat="46.555" lon="5.23786">
        <ele>206</ele>
        <time>2021-10-30T12:54:26Z</time>
      </trkpt>
      <trkpt lat="46.5548" lon="5.23773">
        <ele>204.2</ele>
        <time>2021-10-30T12:54:28Z</time>
      </trkpt>
      <trkpt lat="46.55461" lon="5.2376">
        <ele>203</ele>
        <time>2021-10-30T12:54:30Z</time>
      </trkpt>
      <trkpt lat="46.55452" lon="5.23753">
        <ele>202</ele>
        <time>2021-10-30T12:54:31Z</time>
      </trkpt>
      <trkpt lat="46.55423" lon="5.23734">
        <ele>200.6</ele>
        <time>2021-10-30T12:54:34Z</time>
      </trkpt>
      <trkpt lat="46.55404" lon="5.2372">
        <ele>199.2</ele>
        <time>2021-10-30T12:54:36Z</time>
      </trkpt>
      <trkpt lat="46.55395" lon="5.23715">
        <ele>199</ele>
        <time>2021-10-30T12:54:37Z</time>
      </trkpt>
      <trkpt lat="46.55387" lon="5.23709">
        <ele>198</ele>
        <time>2021-10-30T12:54:38Z</time>
      </trkpt>
      <trkpt lat="46.55358" lon="5.23688">
        <ele>196.8</ele>
        <time>2021-10-30T12:54:42Z</time>
      </trkpt>
      <trkpt lat="46.55351" lon="5.23683">
        <ele>196.6</ele>
        <time>2021-10-30T12:54:43Z</time>
      </trkpt>
      <trkpt lat="46.55312" lon="5.23654">
        <ele>196.4</ele>
        <time>2021-10-30T12:54:49Z</time>
      </trkpt>
      <trkpt lat="46.55273" lon="5.23623">
        <ele>196.4</ele>
        <time>2021-10-30T12:54:56Z</time>
      </trkpt>
      <trkpt lat="46.55233" lon="5.23589">
        <ele>196.8</ele>
        <time>2021-10-30T12:55:04Z</time>
      </trkpt>
      <trkpt lat="46.55191" lon="5.23554">
        <ele>197.4</ele>
        <time>2021-10-30T12:55:13Z</time>
      </trkpt>
      <trkpt lat="46.55149" lon="5.2352">
        <ele>197.8</ele>
        <time>2021-10-30T12:55:22Z</time>
      </trkpt>
      <trkpt lat="46.5513" lon="5.23503">
        <ele>197.8</ele>
        <time>2021-10-30T12:55:26Z</time>
      </trkpt>
      <trkpt lat="46.55106" lon="5.23481">
        <ele>198</ele>
        <time>2021-10-30T12:55:31Z</time>
      </trkpt>
      <trkpt lat="46.55063" lon="5.23428">
        <ele>197.6</ele>
        <time>2021-10-30T12:55:41Z</time>
      </trkpt>
      <trkpt lat="46.55031" lon="5.23376">
        <ele>197.2</ele>
        <time>2021-10-30T12:55:49Z</time>
      </trkpt>
      <trkpt lat="46.55015" lon="5.23328">
        <ele>197</ele>
        <time>2021-10-30T12:55:55Z</time>
      </trkpt>
      <trkpt lat="46.55003" lon="5.23285">
        <ele>197</ele>
        <time>2021-10-30T12:56:01Z</time>
      </trkpt>
      <trkpt lat="46.54997" lon="5.23265">
        <ele>197.4</ele>
        <time>2021-10-30T12:56:04Z</time>
      </trkpt>
      <trkpt lat="46.54991" lon="5.23247">
        <ele>198.4</ele>
        <time>2021-10-30T12:56:07Z</time>
      </trkpt>
      <trkpt lat="46.54986" lon="5.23233">
        <ele>198.6</ele>
        <time>2021-10-30T12:56:09Z</time>
      </trkpt>
      <trkpt lat="46.54975" lon="5.23212">
        <ele>198.6</ele>
        <time>2021-10-30T12:56:13Z</time>
      </trkpt>
      <trkpt lat="46.54972" lon="5.23207">
        <ele>198.6</ele>
        <time>2021-10-30T12:56:14Z</time>
      </trkpt>
      <trkpt lat="46.54958" lon="5.2319">
        <ele>198.4</ele>
        <time>2021-10-30T12:56:19Z</time>
      </trkpt>
      <trkpt lat="46.54944" lon="5.23177">
        <ele>198.8</ele>
        <time>2021-10-30T12:56:23Z</time>
      </trkpt>
      <trkpt lat="46.54931" lon="5.23166">
        <ele>199.6</ele>
        <time>2021-10-30T12:56:27Z</time>
      </trkpt>
      <trkpt lat="46.54928" lon="5.23163">
        <ele>200</ele>
        <time>2021-10-30T12:56:28Z</time>
      </trkpt>
      <trkpt lat="46.54915" lon="5.23151">
        <ele>200.8</ele>
        <time>2021-10-30T12:56:32Z</time>
      </trkpt>
      <trkpt lat="46.54905" lon="5.23141">
        <ele>201.8</ele>
        <time>2021-10-30T12:56:35Z</time>
      </trkpt>
      <trkpt lat="46.54902" lon="5.23138">
        <ele>202</ele>
        <time>2021-10-30T12:56:36Z</time>
      </trkpt>
      <trkpt lat="46.54892" lon="5.23128">
        <ele>203</ele>
        <time>2021-10-30T12:56:39Z</time>
      </trkpt>
      <trkpt lat="46.54883" lon="5.23118">
        <ele>204.2</ele>
        <time>2021-10-30T12:56:42Z</time>
      </trkpt>
      <trkpt lat="46.54877" lon="5.23112">
        <ele>205.2</ele>
        <time>2021-10-30T12:56:45Z</time>
      </trkpt>
      <trkpt lat="46.54868" lon="5.23102">
        <ele>205.8</ele>
        <time>2021-10-30T12:56:47Z</time>
      </trkpt>
      <trkpt lat="46.54861" lon="5.23096">
        <ele>206.4</ele>
        <time>2021-10-30T12:56:49Z</time>
      </trkpt>
      <trkpt lat="46.5484" lon="5.23074">
        <ele>207.6</ele>
        <time>2021-10-30T12:56:55Z</time>
      </trkpt>
      <trkpt lat="46.54833" lon="5.23068">
        <ele>208</ele>
        <time>2021-10-30T12:56:57Z</time>
      </trkpt>
      <trkpt lat="46.5482" lon="5.23054">
        <ele>208.8</ele>
        <time>2021-10-30T12:57:01Z</time>
      </trkpt>
      <trkpt lat="46.54798" lon="5.23034">
        <ele>209.4</ele>
        <time>2021-10-30T12:57:07Z</time>
      </trkpt>
      <trkpt lat="46.54778" lon="5.23015">
        <ele>209.8</ele>
        <time>2021-10-30T12:57:12Z</time>
      </trkpt>
      <trkpt lat="46.54766" lon="5.23003">
        <ele>210</ele>
        <time>2021-10-30T12:57:15Z</time>
      </trkpt>
      <trkpt lat="46.54726" lon="5.22963">
        <ele>209.8</ele>
        <time>2021-10-30T12:57:25Z</time>
      </trkpt>
      <trkpt lat="46.54697" lon="5.2294">
        <ele>210</ele>
        <time>2021-10-30T12:57:32Z</time>
      </trkpt>
      <trkpt lat="46.54688" lon="5.22934">
        <ele>210.2</ele>
        <time>2021-10-30T12:57:34Z</time>
      </trkpt>
      <trkpt lat="46.54671" lon="5.22925">
        <ele>210.6</ele>
        <time>2021-10-30T12:57:38Z</time>
      </trkpt>
      <trkpt lat="46.5463" lon="5.22903">
        <ele>210.8</ele>
        <time>2021-10-30T12:57:48Z</time>
      </trkpt>
      <trkpt lat="46.54626" lon="5.22901">
        <ele>210.8</ele>
        <time>2021-10-30T12:57:49Z</time>
      </trkpt>
      <trkpt lat="46.54589" lon="5.22881">
        <ele>211.8</ele>
        <time>2021-10-30T12:57:58Z</time>
      </trkpt>
      <trkpt lat="46.54585" lon="5.22879">
        <ele>211.8</ele>
        <time>2021-10-30T12:57:59Z</time>
      </trkpt>
      <trkpt lat="46.54559" lon="5.22865">
        <ele>212</ele>
        <time>2021-10-30T12:58:05Z</time>
      </trkpt>
      <trkpt lat="46.54548" lon="5.22859">
        <ele>212</ele>
        <time>2021-10-30T12:58:07Z</time>
      </trkpt>
      <trkpt lat="46.54539" lon="5.22854">
        <ele>212</ele>
        <time>2021-10-30T12:58:09Z</time>
      </trkpt>
      <trkpt lat="46.54525" lon="5.22842">
        <ele>212</ele>
        <time>2021-10-30T12:58:12Z</time>
      </trkpt>
      <trkpt lat="46.54521" lon="5.22837">
        <ele>212</ele>
        <time>2021-10-30T12:58:13Z</time>
      </trkpt>
      <trkpt lat="46.54499" lon="5.22796">
        <ele>212.2</ele>
        <time>2021-10-30T12:58:20Z</time>
      </trkpt>
      <trkpt lat="46.54466" lon="5.22733">
        <ele>212.6</ele>
        <time>2021-10-30T12:58:30Z</time>
      </trkpt>
      <trkpt lat="46.54429" lon="5.22688">
        <ele>212.2</ele>
        <time>2021-10-30T12:58:38Z</time>
      </trkpt>
      <trkpt lat="46.54399" lon="5.22658">
        <ele>211</ele>
        <time>2021-10-30T12:58:44Z</time>
      </trkpt>
      <trkpt lat="46.54383" lon="5.22643">
        <ele>210.4</ele>
        <time>2021-10-30T12:58:47Z</time>
      </trkpt>
      <trkpt lat="46.54354" lon="5.22615">
        <ele>210</ele>
        <time>2021-10-30T12:58:53Z</time>
      </trkpt>
      <trkpt lat="46.54314" lon="5.22574">
        <ele>210.2</ele>
        <time>2021-10-30T12:59:02Z</time>
      </trkpt>
      <trkpt lat="46.5428" lon="5.22537">
        <ele>211</ele>
        <time>2021-10-30T12:59:09Z</time>
      </trkpt>
      <trkpt lat="46.54271" lon="5.22515">
        <ele>211.6</ele>
        <time>2021-10-30T12:59:12Z</time>
      </trkpt>
      <trkpt lat="46.54269" lon="5.22506">
        <ele>211.6</ele>
        <time>2021-10-30T12:59:13Z</time>
      </trkpt>
      <trkpt lat="46.54268" lon="5.22494">
        <ele>211.6</ele>
        <time>2021-10-30T12:59:14Z</time>
      </trkpt>
      <trkpt lat="46.54268" lon="5.22465">
        <ele>211.6</ele>
        <time>2021-10-30T12:59:17Z</time>
      </trkpt>
      <trkpt lat="46.5427" lon="5.22419">
        <ele>211.2</ele>
        <time>2021-10-30T12:59:21Z</time>
      </trkpt>
      <trkpt lat="46.5427" lon="5.22407">
        <ele>211</ele>
        <time>2021-10-30T12:59:22Z</time>
      </trkpt>
      <trkpt lat="46.54272" lon="5.22355">
        <ele>209.8</ele>
        <time>2021-10-30T12:59:26Z</time>
      </trkpt>
      <trkpt lat="46.54273" lon="5.22324">
        <ele>209</ele>
        <time>2021-10-30T12:59:28Z</time>
      </trkpt>
      <trkpt lat="46.54274" lon="5.22296">
        <ele>208.4</ele>
        <time>2021-10-30T12:59:30Z</time>
      </trkpt>
      <trkpt lat="46.54276" lon="5.22254">
        <ele>206.8</ele>
        <time>2021-10-30T12:59:33Z</time>
      </trkpt>
      <trkpt lat="46.54277" lon="5.22229">
        <ele>205.8</ele>
        <time>2021-10-30T12:59:35Z</time>
      </trkpt>
      <trkpt lat="46.54279" lon="5.22187">
        <ele>204.4</ele>
        <time>2021-10-30T12:59:38Z</time>
      </trkpt>
      <trkpt lat="46.54279" lon="5.22165">
        <ele>204.2</ele>
        <time>2021-10-30T12:59:40Z</time>
      </trkpt>
      <trkpt lat="46.54278" lon="5.2214">
        <ele>204.2</ele>
        <time>2021-10-30T12:59:42Z</time>
      </trkpt>
      <trkpt lat="46.54273" lon="5.22117">
        <ele>204.2</ele>
        <time>2021-10-30T12:59:44Z</time>
      </trkpt>
      <trkpt lat="46.54252" lon="5.22066">
        <ele>204.8</ele>
        <time>2021-10-30T12:59:49Z</time>
      </trkpt>
      <trkpt lat="46.54222" lon="5.22004">
        <ele>205.4</ele>
        <time>2021-10-30T12:59:56Z</time>
      </trkpt>
      <trkpt lat="46.54215" lon="5.21987">
        <ele>205.6</ele>
        <time>2021-10-30T12:59:58Z</time>
      </trkpt>
      <trkpt lat="46.542" lon="5.21955">
        <ele>206.6</ele>
        <time>2021-10-30T13:00:02Z</time>
      </trkpt>
      <trkpt lat="46.54196" lon="5.21947">
        <ele>206.8</ele>
        <time>2021-10-30T13:00:03Z</time>
      </trkpt>
      <trkpt lat="46.54179" lon="5.21907">
        <ele>207.8</ele>
        <time>2021-10-30T13:00:08Z</time>
      </trkpt>
      <trkpt lat="46.54174" lon="5.21892">
        <ele>208.4</ele>
        <time>2021-10-30T13:00:10Z</time>
      </trkpt>
      <trkpt lat="46.54167" lon="5.21874">
        <ele>208.8</ele>
        <time>2021-10-30T13:00:12Z</time>
      </trkpt>
      <trkpt lat="46.5416" lon="5.21848">
        <ele>209.2</ele>
        <time>2021-10-30T13:00:15Z</time>
      </trkpt>
      <trkpt lat="46.54158" lon="5.2184">
        <ele>209.2</ele>
        <time>2021-10-30T13:00:16Z</time>
      </trkpt>
      <trkpt lat="46.54146" lon="5.21804">
        <ele>209.8</ele>
        <time>2021-10-30T13:00:20Z</time>
      </trkpt>
      <trkpt lat="46.54135" lon="5.21768">
        <ele>210</ele>
        <time>2021-10-30T13:00:24Z</time>
      </trkpt>
      <trkpt lat="46.54112" lon="5.21694">
        <ele>209.8</ele>
        <time>2021-10-30T13:00:32Z</time>
      </trkpt>
      <trkpt lat="46.54108" lon="5.21686">
        <ele>209.6</ele>
        <time>2021-10-30T13:00:33Z</time>
      </trkpt>
      <trkpt lat="46.541" lon="5.2167">
        <ele>209.4</ele>
        <time>2021-10-30T13:00:35Z</time>
      </trkpt>
      <trkpt lat="46.54086" lon="5.21652">
        <ele>209</ele>
        <time>2021-10-30T13:00:38Z</time>
      </trkpt>
      <trkpt lat="46.5404" lon="5.21609">
        <ele>208.8</ele>
        <time>2021-10-30T13:00:46Z</time>
      </trkpt>
      <trkpt lat="46.54024" lon="5.21594">
        <ele>208.6</ele>
        <time>2021-10-30T13:00:49Z</time>
      </trkpt>
      <trkpt lat="46.54005" lon="5.21575">
        <ele>208.6</ele>
        <time>2021-10-30T13:00:53Z</time>
      </trkpt>
      <trkpt lat="46.53968" lon="5.21539">
        <ele>208.6</ele>
        <time>2021-10-30T13:01:01Z</time>
      </trkpt>
      <trkpt lat="46.53929" lon="5.21502">
        <ele>209</ele>
        <time>2021-10-30T13:01:09Z</time>
      </trkpt>
      <trkpt lat="46.53921" lon="5.21491">
        <ele>209.8</ele>
        <time>2021-10-30T13:01:11Z</time>
      </trkpt>
      <trkpt lat="46.53902" lon="5.21466">
        <ele>210.6</ele>
        <time>2021-10-30T13:01:15Z</time>
      </trkpt>
      <trkpt lat="46.53864" lon="5.21407">
        <ele>210.6</ele>
        <time>2021-10-30T13:01:24Z</time>
      </trkpt>
      <trkpt lat="46.53841" lon="5.21372">
        <ele>211</ele>
        <time>2021-10-30T13:01:30Z</time>
      </trkpt>
      <trkpt lat="46.53833" lon="5.21359">
        <ele>211.4</ele>
        <time>2021-10-30T13:01:32Z</time>
      </trkpt>
      <trkpt lat="46.53813" lon="5.21328">
        <ele>212</ele>
        <time>2021-10-30T13:01:37Z</time>
      </trkpt>
      <trkpt lat="46.5379" lon="5.2129">
        <ele>212.2</ele>
        <time>2021-10-30T13:01:43Z</time>
      </trkpt>
      <trkpt lat="46.5377" lon="5.21258">
        <ele>212.2</ele>
        <time>2021-10-30T13:01:48Z</time>
      </trkpt>
      <trkpt lat="46.53763" lon="5.21247">
        <ele>212.4</ele>
        <time>2021-10-30T13:01:50Z</time>
      </trkpt>
      <trkpt lat="46.5373" lon="5.21206">
        <ele>212.4</ele>
        <time>2021-10-30T13:01:57Z</time>
      </trkpt>
      <trkpt lat="46.53701" lon="5.21174">
        <ele>211.8</ele>
        <time>2021-10-30T13:02:03Z</time>
      </trkpt>
      <trkpt lat="46.53697" lon="5.21169">
        <ele>211.6</ele>
        <time>2021-10-30T13:02:04Z</time>
      </trkpt>
      <trkpt lat="46.53658" lon="5.21131">
        <ele>211.4</ele>
        <time>2021-10-30T13:02:11Z</time>
      </trkpt>
      <trkpt lat="46.5363" lon="5.21105">
        <ele>211</ele>
        <time>2021-10-30T13:02:16Z</time>
      </trkpt>
      <trkpt lat="46.53617" lon="5.21087">
        <ele>211</ele>
        <time>2021-10-30T13:02:19Z</time>
      </trkpt>
      <trkpt lat="46.53605" lon="5.21065">
        <ele>210.8</ele>
        <time>2021-10-30T13:02:22Z</time>
      </trkpt>
      <trkpt lat="46.53596" lon="5.21044">
        <ele>210.8</ele>
        <time>2021-10-30T13:02:25Z</time>
      </trkpt>
      <trkpt lat="46.53593" lon="5.21036">
        <ele>210.8</ele>
        <time>2021-10-30T13:02:26Z</time>
      </trkpt>
      <trkpt lat="46.5359" lon="5.21021">
        <ele>210.8</ele>
        <time>2021-10-30T13:02:28Z</time>
      </trkpt>
      <trkpt lat="46.5359" lon="5.21012">
        <ele>210.8</ele>
        <time>2021-10-30T13:02:29Z</time>
      </trkpt>
      <trkpt lat="46.5359" lon="5.21002">
        <ele>210.8</ele>
        <time>2021-10-30T13:02:30Z</time>
      </trkpt>
      <trkpt lat="46.53592" lon="5.20958">
        <ele>211.4</ele>
        <time>2021-10-30T13:02:35Z</time>
      </trkpt>
      <trkpt lat="46.53588" lon="5.20907">
        <ele>211.6</ele>
        <time>2021-10-30T13:02:41Z</time>
      </trkpt>
      <trkpt lat="46.53577" lon="5.20851">
        <ele>211.6</ele>
        <time>2021-10-30T13:02:48Z</time>
      </trkpt>
      <trkpt lat="46.53575" lon="5.20843">
        <ele>211.6</ele>
        <time>2021-10-30T13:02:49Z</time>
      </trkpt>
      <trkpt lat="46.53571" lon="5.20835">
        <ele>211.6</ele>
        <time>2021-10-30T13:02:50Z</time>
      </trkpt>
      <trkpt lat="46.53563" lon="5.20822">
        <ele>211.4</ele>
        <time>2021-10-30T13:02:52Z</time>
      </trkpt>
      <trkpt lat="46.53558" lon="5.20817">
        <ele>211.4</ele>
        <time>2021-10-30T13:02:53Z</time>
      </trkpt>
      <trkpt lat="46.53515" lon="5.20787">
        <ele>210.2</ele>
        <time>2021-10-30T13:03:01Z</time>
      </trkpt>
      <trkpt lat="46.5351" lon="5.20782">
        <ele>209.8</ele>
        <time>2021-10-30T13:03:03Z</time>
      </trkpt>
      <trkpt lat="46.53474" lon="5.20744">
        <ele>208.8</ele>
        <time>2021-10-30T13:03:09Z</time>
      </trkpt>
      <trkpt lat="46.53469" lon="5.20739">
        <ele>208.6</ele>
        <time>2021-10-30T13:03:10Z</time>
      </trkpt>
      <trkpt lat="46.53444" lon="5.20712">
        <ele>207.4</ele>
        <time>2021-10-30T13:03:16Z</time>
      </trkpt>
      <trkpt lat="46.53426" lon="5.20691">
        <ele>206.6</ele>
        <time>2021-10-30T13:03:19Z</time>
      </trkpt>
      <trkpt lat="46.53418" lon="5.20682">
        <ele>206.2</ele>
        <time>2021-10-30T13:03:21Z</time>
      </trkpt>
      <trkpt lat="46.53409" lon="5.20672">
        <ele>206</ele>
        <time>2021-10-30T13:03:23Z</time>
      </trkpt>
      <trkpt lat="46.53405" lon="5.2067">
        <ele>206</ele>
        <time>2021-10-30T13:03:24Z</time>
      </trkpt>
      <trkpt lat="46.534" lon="5.20669">
        <ele>206</ele>
        <time>2021-10-30T13:03:25Z</time>
      </trkpt>
      <trkpt lat="46.53393" lon="5.20673">
        <ele>205.6</ele>
        <time>2021-10-30T13:03:27Z</time>
      </trkpt>
      <trkpt lat="46.53382" lon="5.20699">
        <ele>205.6</ele>
        <time>2021-10-30T13:03:31Z</time>
      </trkpt>
      <trkpt lat="46.53379" lon="5.20707">
        <ele>205.8</ele>
        <time>2021-10-30T13:03:32Z</time>
      </trkpt>
      <trkpt lat="46.53362" lon="5.20738">
        <ele>206</ele>
        <time>2021-10-30T13:03:36Z</time>
      </trkpt>
      <trkpt lat="46.5335" lon="5.20756">
        <ele>206.2</ele>
        <time>2021-10-30T13:03:39Z</time>
      </trkpt>
      <trkpt lat="46.53338" lon="5.20767">
        <ele>206.2</ele>
        <time>2021-10-30T13:03:41Z</time>
      </trkpt>
      <trkpt lat="46.53289" lon="5.20802">
        <ele>206.4</ele>
        <time>2021-10-30T13:03:49Z</time>
      </trkpt>
      <trkpt lat="46.53265" lon="5.20814">
        <ele>206.6</ele>
        <time>2021-10-30T13:03:53Z</time>
      </trkpt>
      <trkpt lat="46.53251" lon="5.20818">
        <ele>206.8</ele>
        <time>2021-10-30T13:03:55Z</time>
      </trkpt>
      <trkpt lat="46.53201" lon="5.20829">
        <ele>207.2</ele>
        <time>2021-10-30T13:04:03Z</time>
      </trkpt>
      <trkpt lat="46.53178" lon="5.2084">
        <ele>207</ele>
        <time>2021-10-30T13:04:07Z</time>
      </trkpt>
      <trkpt lat="46.53171" lon="5.20844">
        <ele>206.8</ele>
        <time>2021-10-30T13:04:08Z</time>
      </trkpt>
      <trkpt lat="46.53132" lon="5.20881">
        <ele>205.2</ele>
        <time>2021-10-30T13:04:15Z</time>
      </trkpt>
      <trkpt lat="46.53127" lon="5.20886">
        <ele>205</ele>
        <time>2021-10-30T13:04:16Z</time>
      </trkpt>
      <trkpt lat="46.53122" lon="5.20893">
        <ele>204.8</ele>
        <time>2021-10-30T13:04:17Z</time>
      </trkpt>
      <trkpt lat="46.53108" lon="5.20915">
        <ele>204.6</ele>
        <time>2021-10-30T13:04:20Z</time>
      </trkpt>
      <trkpt lat="46.53069" lon="5.20975">
        <ele>204.4</ele>
        <time>2021-10-30T13:04:28Z</time>
      </trkpt>
      <trkpt lat="46.53059" lon="5.20986">
        <ele>204.2</ele>
        <time>2021-10-30T13:04:30Z</time>
      </trkpt>
      <trkpt lat="46.53046" lon="5.20997">
        <ele>204</ele>
        <time>2021-10-30T13:04:32Z</time>
      </trkpt>
      <trkpt lat="46.53029" lon="5.21007">
        <ele>203.4</ele>
        <time>2021-10-30T13:04:35Z</time>
      </trkpt>
      <trkpt lat="46.53007" lon="5.21019">
        <ele>202.8</ele>
        <time>2021-10-30T13:04:39Z</time>
      </trkpt>
      <trkpt lat="46.52996" lon="5.21024">
        <ele>202.8</ele>
        <time>2021-10-30T13:04:41Z</time>
      </trkpt>
      <trkpt lat="46.52963" lon="5.21042">
        <ele>203</ele>
        <time>2021-10-30T13:04:48Z</time>
      </trkpt>
      <trkpt lat="46.52925" lon="5.21062">
        <ele>203.8</ele>
        <time>2021-10-30T13:04:56Z</time>
      </trkpt>
      <trkpt lat="46.5292" lon="5.21065">
        <ele>203.8</ele>
        <time>2021-10-30T13:04:57Z</time>
      </trkpt>
      <trkpt lat="46.52906" lon="5.21073">
        <ele>203.8</ele>
        <time>2021-10-30T13:05:00Z</time>
      </trkpt>
      <trkpt lat="46.52884" lon="5.21083">
        <ele>204</ele>
        <time>2021-10-30T13:05:04Z</time>
      </trkpt>
      <trkpt lat="46.52842" lon="5.21103">
        <ele>203.6</ele>
        <time>2021-10-30T13:05:11Z</time>
      </trkpt>
      <trkpt lat="46.52819" lon="5.21111">
        <ele>202.8</ele>
        <time>2021-10-30T13:05:15Z</time>
      </trkpt>
      <trkpt lat="46.52802" lon="5.21115">
        <ele>202.8</ele>
        <time>2021-10-30T13:05:18Z</time>
      </trkpt>
      <trkpt lat="46.52745" lon="5.21129">
        <ele>202.4</ele>
        <time>2021-10-30T13:05:29Z</time>
      </trkpt>
      <trkpt lat="46.52705" lon="5.21138">
        <ele>203</ele>
        <time>2021-10-30T13:05:38Z</time>
      </trkpt>
      <trkpt lat="46.52667" lon="5.21147">
        <ele>203.6</ele>
        <time>2021-10-30T13:05:47Z</time>
      </trkpt>
      <trkpt lat="46.52627" lon="5.21158">
        <ele>203.8</ele>
        <time>2021-10-30T13:05:56Z</time>
      </trkpt>
      <trkpt lat="46.52623" lon="5.2116">
        <ele>203.8</ele>
        <time>2021-10-30T13:05:57Z</time>
      </trkpt>
      <trkpt lat="46.52609" lon="5.21165">
        <ele>204</ele>
        <time>2021-10-30T13:06:00Z</time>
      </trkpt>
      <trkpt lat="46.52602" lon="5.21172">
        <ele>204.4</ele>
        <time>2021-10-30T13:06:02Z</time>
      </trkpt>
      <trkpt lat="46.52598" lon="5.21184">
        <ele>204.6</ele>
        <time>2021-10-30T13:06:04Z</time>
      </trkpt>
      <trkpt lat="46.52598" lon="5.21191">
        <ele>204.8</ele>
        <time>2021-10-30T13:06:05Z</time>
      </trkpt>
      <trkpt lat="46.52599" lon="5.21199">
        <ele>205</ele>
        <time>2021-10-30T13:06:06Z</time>
      </trkpt>
      <trkpt lat="46.52606" lon="5.21247">
        <ele>205.8</ele>
        <time>2021-10-30T13:06:13Z</time>
      </trkpt>
      <trkpt lat="46.52607" lon="5.21253">
        <ele>206.2</ele>
        <time>2021-10-30T13:06:14Z</time>
      </trkpt>
      <trkpt lat="46.52612" lon="5.2128">
        <ele>207.4</ele>
        <time>2021-10-30T13:06:18Z</time>
      </trkpt>
      <trkpt lat="46.52616" lon="5.21299">
        <ele>208.4</ele>
        <time>2021-10-30T13:06:21Z</time>
      </trkpt>
      <trkpt lat="46.52617" lon="5.21308">
        <ele>208.4</ele>
        <time>2021-10-30T13:06:22Z</time>
      </trkpt>
      <trkpt lat="46.52626" lon="5.21362">
        <ele>209.4</ele>
        <time>2021-10-30T13:06:29Z</time>
      </trkpt>
      <trkpt lat="46.52628" lon="5.2137">
        <ele>209.4</ele>
        <time>2021-10-30T13:06:30Z</time>
      </trkpt>
      <trkpt lat="46.52636" lon="5.21429">
        <ele>210.2</ele>
        <time>2021-10-30T13:06:37Z</time>
      </trkpt>
      <trkpt lat="46.52639" lon="5.21443">
        <ele>210.2</ele>
        <time>2021-10-30T13:06:39Z</time>
      </trkpt>
      <trkpt lat="46.52642" lon="5.21471">
        <ele>210.4</ele>
        <time>2021-10-30T13:06:42Z</time>
      </trkpt>
      <trkpt lat="46.52652" lon="5.21527">
        <ele>210.2</ele>
        <time>2021-10-30T13:06:49Z</time>
      </trkpt>
      <trkpt lat="46.52662" lon="5.21591">
        <ele>210.4</ele>
        <time>2021-10-30T13:06:57Z</time>
      </trkpt>
      <trkpt lat="46.52663" lon="5.21598">
        <ele>210.6</ele>
        <time>2021-10-30T13:06:58Z</time>
      </trkpt>
      <trkpt lat="46.52673" lon="5.21658">
        <ele>210.8</ele>
        <time>2021-10-30T13:07:05Z</time>
      </trkpt>
      <trkpt lat="46.52684" lon="5.21729">
        <ele>211.2</ele>
        <time>2021-10-30T13:07:13Z</time>
      </trkpt>
      <trkpt lat="46.52697" lon="5.21814">
        <ele>211.2</ele>
        <time>2021-10-30T13:07:22Z</time>
      </trkpt>
      <trkpt lat="46.52698" lon="5.21825">
        <ele>211.2</ele>
        <time>2021-10-30T13:07:23Z</time>
      </trkpt>
      <trkpt lat="46.52711" lon="5.21904">
        <ele>210.8</ele>
        <time>2021-10-30T13:07:31Z</time>
      </trkpt>
      <trkpt lat="46.52713" lon="5.21916">
        <ele>210.8</ele>
        <time>2021-10-30T13:07:32Z</time>
      </trkpt>
      <trkpt lat="46.52726" lon="5.22">
        <ele>210.4</ele>
        <time>2021-10-30T13:07:40Z</time>
      </trkpt>
      <trkpt lat="46.52727" lon="5.22011">
        <ele>210.4</ele>
        <time>2021-10-30T13:07:41Z</time>
      </trkpt>
      <trkpt lat="46.52728" lon="5.22056">
        <ele>209.6</ele>
        <time>2021-10-30T13:07:45Z</time>
      </trkpt>
      <trkpt lat="46.52726" lon="5.22068">
        <ele>209.2</ele>
        <time>2021-10-30T13:07:46Z</time>
      </trkpt>
      <trkpt lat="46.52717" lon="5.22116">
        <ele>208.4</ele>
        <time>2021-10-30T13:07:50Z</time>
      </trkpt>
      <trkpt lat="46.52714" lon="5.22128">
        <ele>208</ele>
        <time>2021-10-30T13:07:51Z</time>
      </trkpt>
      <trkpt lat="46.52705" lon="5.22168">
        <ele>207.2</ele>
        <time>2021-10-30T13:07:54Z</time>
      </trkpt>
      <trkpt lat="46.52694" lon="5.22209">
        <ele>206</ele>
        <time>2021-10-30T13:07:57Z</time>
      </trkpt>
      <trkpt lat="46.52684" lon="5.22251">
        <ele>203.6</ele>
        <time>2021-10-30T13:08:00Z</time>
      </trkpt>
      <trkpt lat="46.52678" lon="5.22278">
        <ele>202.2</ele>
        <time>2021-10-30T13:08:02Z</time>
      </trkpt>
      <trkpt lat="46.52674" lon="5.22292">
        <ele>201.8</ele>
        <time>2021-10-30T13:08:03Z</time>
      </trkpt>
      <trkpt lat="46.52671" lon="5.22305">
        <ele>201</ele>
        <time>2021-10-30T13:08:04Z</time>
      </trkpt>
      <trkpt lat="46.52661" lon="5.22345">
        <ele>199.8</ele>
        <time>2021-10-30T13:08:07Z</time>
      </trkpt>
      <trkpt lat="46.52653" lon="5.22383">
        <ele>199.4</ele>
        <time>2021-10-30T13:08:10Z</time>
      </trkpt>
      <trkpt lat="46.52644" lon="5.2242">
        <ele>198.8</ele>
        <time>2021-10-30T13:08:13Z</time>
      </trkpt>
      <trkpt lat="46.52635" lon="5.22457">
        <ele>198.2</ele>
        <time>2021-10-30T13:08:16Z</time>
      </trkpt>
      <trkpt lat="46.52623" lon="5.22526">
        <ele>198</ele>
        <time>2021-10-30T13:08:22Z</time>
      </trkpt>
      <trkpt lat="46.5262" lon="5.22591">
        <ele>198.6</ele>
        <time>2021-10-30T13:08:28Z</time>
      </trkpt>
      <trkpt lat="46.52619" lon="5.22602">
        <ele>198.8</ele>
        <time>2021-10-30T13:08:29Z</time>
      </trkpt>
      <trkpt lat="46.52617" lon="5.22634">
        <ele>199.2</ele>
        <time>2021-10-30T13:08:32Z</time>
      </trkpt>
      <trkpt lat="46.52616" lon="5.22699">
        <ele>199.6</ele>
        <time>2021-10-30T13:08:38Z</time>
      </trkpt>
      <trkpt lat="46.52614" lon="5.22779">
        <ele>199.4</ele>
        <time>2021-10-30T13:08:46Z</time>
      </trkpt>
      <trkpt lat="46.52613" lon="5.22839">
        <ele>199.6</ele>
        <time>2021-10-30T13:08:52Z</time>
      </trkpt>
      <trkpt lat="46.52612" lon="5.22896">
        <ele>199.8</ele>
        <time>2021-10-30T13:08:58Z</time>
      </trkpt>
      <trkpt lat="46.52611" lon="5.22922">
        <ele>200</ele>
        <time>2021-10-30T13:09:01Z</time>
      </trkpt>
      <trkpt lat="46.5261" lon="5.22953">
        <ele>201</ele>
        <time>2021-10-30T13:09:05Z</time>
      </trkpt>
      <trkpt lat="46.5261" lon="5.22976">
        <ele>201.4</ele>
        <time>2021-10-30T13:09:08Z</time>
      </trkpt>
      <trkpt lat="46.52609" lon="5.22997">
        <ele>202</ele>
        <time>2021-10-30T13:09:11Z</time>
      </trkpt>
      <trkpt lat="46.52607" lon="5.23031">
        <ele>203.2</ele>
        <time>2021-10-30T13:09:16Z</time>
      </trkpt>
      <trkpt lat="46.52601" lon="5.23063">
        <ele>204.2</ele>
        <time>2021-10-30T13:09:21Z</time>
      </trkpt>
      <trkpt lat="46.52599" lon="5.23069">
        <ele>204.2</ele>
        <time>2021-10-30T13:09:22Z</time>
      </trkpt>
      <trkpt lat="46.52594" lon="5.23083">
        <ele>204.6</ele>
        <time>2021-10-30T13:09:24Z</time>
      </trkpt>
      <trkpt lat="46.52586" lon="5.23102">
        <ele>205.4</ele>
        <time>2021-10-30T13:09:27Z</time>
      </trkpt>
      <trkpt lat="46.52583" lon="5.23108">
        <ele>205.8</ele>
        <time>2021-10-30T13:09:28Z</time>
      </trkpt>
      <trkpt lat="46.52579" lon="5.23115">
        <ele>206</ele>
        <time>2021-10-30T13:09:29Z</time>
      </trkpt>
      <trkpt lat="46.52574" lon="5.23127">
        <ele>206.4</ele>
        <time>2021-10-30T13:09:31Z</time>
      </trkpt>
      <trkpt lat="46.52564" lon="5.23149">
        <ele>207</ele>
        <time>2021-10-30T13:09:35Z</time>
      </trkpt>
      <trkpt lat="46.52557" lon="5.23167">
        <ele>207.6</ele>
        <time>2021-10-30T13:09:38Z</time>
      </trkpt>
      <trkpt lat="46.5255" lon="5.23185">
        <ele>208.6</ele>
        <time>2021-10-30T13:09:41Z</time>
      </trkpt>
      <trkpt lat="46.52545" lon="5.23197">
        <ele>209</ele>
        <time>2021-10-30T13:09:43Z</time>
      </trkpt>
      <trkpt lat="46.52539" lon="5.23215">
        <ele>209.6</ele>
        <time>2021-10-30T13:09:46Z</time>
      </trkpt>
      <trkpt lat="46.5253" lon="5.23239">
        <ele>210.6</ele>
        <time>2021-10-30T13:09:50Z</time>
      </trkpt>
      <trkpt lat="46.52527" lon="5.23245">
        <ele>210.8</ele>
        <time>2021-10-30T13:09:51Z</time>
      </trkpt>
      <trkpt lat="46.52506" lon="5.23299">
        <ele>211.6</ele>
        <time>2021-10-30T13:09:59Z</time>
      </trkpt>
      <trkpt lat="46.52489" lon="5.23332">
        <ele>211.8</ele>
        <time>2021-10-30T13:10:03Z</time>
      </trkpt>
      <trkpt lat="46.52486" lon="5.23339">
        <ele>211.6</ele>
        <time>2021-10-30T13:10:04Z</time>
      </trkpt>
      <trkpt lat="46.52461" lon="5.23398">
        <ele>211.6</ele>
        <time>2021-10-30T13:10:12Z</time>
      </trkpt>
      <trkpt lat="46.52431" lon="5.23467">
        <ele>210.6</ele>
        <time>2021-10-30T13:10:21Z</time>
      </trkpt>
      <trkpt lat="46.52418" lon="5.2351">
        <ele>210.8</ele>
        <time>2021-10-30T13:10:26Z</time>
      </trkpt>
      <trkpt lat="46.52417" lon="5.23519">
        <ele>210.6</ele>
        <time>2021-10-30T13:10:27Z</time>
      </trkpt>
      <trkpt lat="46.52416" lon="5.2353">
        <ele>210.8</ele>
        <time>2021-10-30T13:10:28Z</time>
      </trkpt>
      <trkpt lat="46.52418" lon="5.23549">
        <ele>210.6</ele>
        <time>2021-10-30T13:10:30Z</time>
      </trkpt>
      <trkpt lat="46.5242" lon="5.23559">
        <ele>210.6</ele>
        <time>2021-10-30T13:10:31Z</time>
      </trkpt>
      <trkpt lat="46.52435" lon="5.23619">
        <ele>210.6</ele>
        <time>2021-10-30T13:10:37Z</time>
      </trkpt>
      <trkpt lat="46.52437" lon="5.23627">
        <ele>210.6</ele>
        <time>2021-10-30T13:10:38Z</time>
      </trkpt>
      <trkpt lat="46.52454" lon="5.23697">
        <ele>210</ele>
        <time>2021-10-30T13:10:45Z</time>
      </trkpt>
      <trkpt lat="46.5247" lon="5.23761">
        <ele>209.8</ele>
        <time>2021-10-30T13:10:52Z</time>
      </trkpt>
      <trkpt lat="46.52491" lon="5.23843">
        <ele>210.8</ele>
        <time>2021-10-30T13:11:01Z</time>
      </trkpt>
      <trkpt lat="46.52501" lon="5.23908">
        <ele>211.2</ele>
        <time>2021-10-30T13:11:08Z</time>
      </trkpt>
      <trkpt lat="46.52497" lon="5.23965">
        <ele>211.2</ele>
        <time>2021-10-30T13:11:14Z</time>
      </trkpt>
      <trkpt lat="46.52486" lon="5.24037">
        <ele>211.8</ele>
        <time>2021-10-30T13:11:22Z</time>
      </trkpt>
      <trkpt lat="46.52485" lon="5.24048">
        <ele>212</ele>
        <time>2021-10-30T13:11:23Z</time>
      </trkpt>
      <trkpt lat="46.52483" lon="5.24056">
        <ele>212</ele>
        <time>2021-10-30T13:11:24Z</time>
      </trkpt>
      <trkpt lat="46.52479" lon="5.2408">
        <ele>212.2</ele>
        <time>2021-10-30T13:11:27Z</time>
      </trkpt>
      <trkpt lat="46.52474" lon="5.24109">
        <ele>212.4</ele>
        <time>2021-10-30T13:11:31Z</time>
      </trkpt>
      <trkpt lat="46.52472" lon="5.24113">
        <ele>212.4</ele>
        <time>2021-10-30T13:11:32Z</time>
      </trkpt>
      <trkpt lat="46.52465" lon="5.2412">
        <ele>212.6</ele>
        <time>2021-10-30T13:11:35Z</time>
      </trkpt>
      <trkpt lat="46.52461" lon="5.2412">
        <ele>212.2</ele>
        <time>2021-10-30T13:11:36Z</time>
      </trkpt>
      <trkpt lat="46.52452" lon="5.24118">
        <ele>212.2</ele>
        <time>2021-10-30T13:11:38Z</time>
      </trkpt>
      <trkpt lat="46.52442" lon="5.24115">
        <ele>212.2</ele>
        <time>2021-10-30T13:11:40Z</time>
      </trkpt>
      <trkpt lat="46.52406" lon="5.24106">
        <ele>211.8</ele>
        <time>2021-10-30T13:11:46Z</time>
      </trkpt>
      <trkpt lat="46.5237" lon="5.24096">
        <ele>212</ele>
        <time>2021-10-30T13:11:52Z</time>
      </trkpt>
      <trkpt lat="46.52365" lon="5.24091">
        <ele>212</ele>
        <time>2021-10-30T13:11:53Z</time>
      </trkpt>
      <trkpt lat="46.52361" lon="5.24083">
        <ele>212</ele>
        <time>2021-10-30T13:11:54Z</time>
      </trkpt>
      <trkpt lat="46.52352" lon="5.24059">
        <ele>211.6</ele>
        <time>2021-10-30T13:11:57Z</time>
      </trkpt>
      <trkpt lat="46.5233" lon="5.24003">
        <ele>212</ele>
        <time>2021-10-30T13:12:04Z</time>
      </trkpt>
      <trkpt lat="46.52305" lon="5.2394">
        <ele>212</ele>
        <time>2021-10-30T13:12:12Z</time>
      </trkpt>
      <trkpt lat="46.52282" lon="5.23894">
        <ele>211.8</ele>
        <time>2021-10-30T13:12:18Z</time>
      </trkpt>
      <trkpt lat="46.52249" lon="5.23842">
        <ele>211.2</ele>
        <time>2021-10-30T13:12:26Z</time>
      </trkpt>
      <trkpt lat="46.52218" lon="5.23794">
        <ele>211.6</ele>
        <time>2021-10-30T13:12:34Z</time>
      </trkpt>
      <trkpt lat="46.52193" lon="5.23753">
        <ele>211.6</ele>
        <time>2021-10-30T13:12:40Z</time>
      </trkpt>
      <trkpt lat="46.52153" lon="5.23694">
        <ele>211</ele>
        <time>2021-10-30T13:12:49Z</time>
      </trkpt>
      <trkpt lat="46.52138" lon="5.23677">
        <ele>211.2</ele>
        <time>2021-10-30T13:12:52Z</time>
      </trkpt>
      <trkpt lat="46.52123" lon="5.23667">
        <ele>211</ele>
        <time>2021-10-30T13:12:55Z</time>
      </trkpt>
      <trkpt lat="46.52111" lon="5.23663">
        <ele>210.8</ele>
        <time>2021-10-30T13:12:57Z</time>
      </trkpt>
      <trkpt lat="46.52105" lon="5.23662">
        <ele>210.8</ele>
        <time>2021-10-30T13:12:58Z</time>
      </trkpt>
      <trkpt lat="46.52093" lon="5.23662">
        <ele>210.6</ele>
        <time>2021-10-30T13:13:00Z</time>
      </trkpt>
      <trkpt lat="46.52081" lon="5.23664">
        <ele>210.2</ele>
        <time>2021-10-30T13:13:02Z</time>
      </trkpt>
      <trkpt lat="46.52032" lon="5.23672">
        <ele>210.2</ele>
        <time>2021-10-30T13:13:10Z</time>
      </trkpt>
      <trkpt lat="46.51991" lon="5.23684">
        <ele>210.4</ele>
        <time>2021-10-30T13:13:17Z</time>
      </trkpt>
      <trkpt lat="46.51946" lon="5.23694">
        <ele>210.4</ele>
        <time>2021-10-30T13:13:24Z</time>
      </trkpt>
      <trkpt lat="46.51886" lon="5.23698">
        <ele>210.2</ele>
        <time>2021-10-30T13:13:34Z</time>
      </trkpt>
      <trkpt lat="46.51827" lon="5.23708">
        <ele>210.4</ele>
        <time>2021-10-30T13:13:44Z</time>
      </trkpt>
      <trkpt lat="46.51773" lon="5.23718">
        <ele>210.4</ele>
        <time>2021-10-30T13:13:53Z</time>
      </trkpt>
      <trkpt lat="46.51716" lon="5.23727">
        <ele>210.6</ele>
        <time>2021-10-30T13:14:03Z</time>
      </trkpt>
      <trkpt lat="46.5171" lon="5.23728">
        <ele>210.6</ele>
        <time>2021-10-30T13:14:04Z</time>
      </trkpt>
      <trkpt lat="46.51664" lon="5.23734">
        <ele>211</ele>
        <time>2021-10-30T13:14:12Z</time>
      </trkpt>
      <trkpt lat="46.51616" lon="5.23728">
        <ele>211.4</ele>
        <time>2021-10-30T13:14:20Z</time>
      </trkpt>
      <trkpt lat="46.51604" lon="5.23725">
        <ele>211.6</ele>
        <time>2021-10-30T13:14:22Z</time>
      </trkpt>
      <trkpt lat="46.51557" lon="5.23709">
        <ele>211.8</ele>
        <time>2021-10-30T13:14:30Z</time>
      </trkpt>
      <trkpt lat="46.51505" lon="5.23691">
        <ele>212.6</ele>
        <time>2021-10-30T13:14:39Z</time>
      </trkpt>
      <trkpt lat="46.51499" lon="5.23689">
        <ele>212.6</ele>
        <time>2021-10-30T13:14:40Z</time>
      </trkpt>
      <trkpt lat="46.51484" lon="5.23684">
        <ele>212.6</ele>
        <time>2021-10-30T13:14:43Z</time>
      </trkpt>
      <trkpt lat="46.51456" lon="5.23675">
        <ele>212.6</ele>
        <time>2021-10-30T13:14:48Z</time>
      </trkpt>
      <trkpt lat="46.5142" lon="5.23661">
        <ele>212.8</ele>
        <time>2021-10-30T13:14:55Z</time>
      </trkpt>
      <trkpt lat="46.51373" lon="5.23635">
        <ele>213.4</ele>
        <time>2021-10-30T13:15:04Z</time>
      </trkpt>
      <trkpt lat="46.51339" lon="5.23597">
        <ele>213.4</ele>
        <time>2021-10-30T13:15:11Z</time>
      </trkpt>
      <trkpt lat="46.513" lon="5.23546">
        <ele>213.4</ele>
        <time>2021-10-30T13:15:19Z</time>
      </trkpt>
      <trkpt lat="46.51259" lon="5.23495">
        <ele>212.8</ele>
        <time>2021-10-30T13:15:27Z</time>
      </trkpt>
      <trkpt lat="46.51217" lon="5.23443">
        <ele>212.6</ele>
        <time>2021-10-30T13:15:35Z</time>
      </trkpt>
      <trkpt lat="46.51212" lon="5.23437">
        <ele>212.6</ele>
        <time>2021-10-30T13:15:36Z</time>
      </trkpt>
      <trkpt lat="46.51169" lon="5.23384">
        <ele>212.2</ele>
        <time>2021-10-30T13:15:44Z</time>
      </trkpt>
      <trkpt lat="46.51153" lon="5.23363">
        <ele>212.2</ele>
        <time>2021-10-30T13:15:47Z</time>
      </trkpt>
      <trkpt lat="46.51115" lon="5.23316">
        <ele>212.2</ele>
        <time>2021-10-30T13:15:55Z</time>
      </trkpt>
      <trkpt lat="46.5108" lon="5.23276">
        <ele>212.2</ele>
        <time>2021-10-30T13:16:02Z</time>
      </trkpt>
      <trkpt lat="46.51049" lon="5.23249">
        <ele>211.8</ele>
        <time>2021-10-30T13:16:08Z</time>
      </trkpt>
      <trkpt lat="46.5101" lon="5.23219">
        <ele>212.8</ele>
        <time>2021-10-30T13:16:15Z</time>
      </trkpt>
      <trkpt lat="46.50962" lon="5.23181">
        <ele>213.2</ele>
        <time>2021-10-30T13:16:24Z</time>
      </trkpt>
      <trkpt lat="46.50956" lon="5.23177">
        <ele>213.2</ele>
        <time>2021-10-30T13:16:25Z</time>
      </trkpt>
      <trkpt lat="46.50915" lon="5.2316">
        <ele>213.4</ele>
        <time>2021-10-30T13:16:32Z</time>
      </trkpt>
      <trkpt lat="46.50903" lon="5.23156">
        <ele>213.6</ele>
        <time>2021-10-30T13:16:34Z</time>
      </trkpt>
      <trkpt lat="46.50849" lon="5.23133">
        <ele>213.6</ele>
        <time>2021-10-30T13:16:43Z</time>
      </trkpt>
      <trkpt lat="46.50809" lon="5.23103">
        <ele>213.2</ele>
        <time>2021-10-30T13:16:50Z</time>
      </trkpt>
      <trkpt lat="46.50768" lon="5.23053">
        <ele>213.2</ele>
        <time>2021-10-30T13:16:58Z</time>
      </trkpt>
      <trkpt lat="46.50727" lon="5.22993">
        <ele>213.2</ele>
        <time>2021-10-30T13:17:07Z</time>
      </trkpt>
      <trkpt lat="46.50713" lon="5.22974">
        <ele>213.2</ele>
        <time>2021-10-30T13:17:10Z</time>
      </trkpt>
      <trkpt lat="46.5069" lon="5.2294">
        <ele>213.2</ele>
        <time>2021-10-30T13:17:15Z</time>
      </trkpt>
      <trkpt lat="46.50648" lon="5.22879">
        <ele>213.2</ele>
        <time>2021-10-30T13:17:24Z</time>
      </trkpt>
      <trkpt lat="46.50617" lon="5.22842">
        <ele>213</ele>
        <time>2021-10-30T13:17:30Z</time>
      </trkpt>
      <trkpt lat="46.50566" lon="5.22796">
        <ele>213</ele>
        <time>2021-10-30T13:17:39Z</time>
      </trkpt>
      <trkpt lat="46.5056" lon="5.22792">
        <ele>212.8</ele>
        <time>2021-10-30T13:17:40Z</time>
      </trkpt>
      <trkpt lat="46.50529" lon="5.22776">
        <ele>212.4</ele>
        <time>2021-10-30T13:17:45Z</time>
      </trkpt>
      <trkpt lat="46.50523" lon="5.22774">
        <ele>212.2</ele>
        <time>2021-10-30T13:17:46Z</time>
      </trkpt>
      <trkpt lat="46.50477" lon="5.22765">
        <ele>212</ele>
        <time>2021-10-30T13:17:53Z</time>
      </trkpt>
      <trkpt lat="46.50472" lon="5.22764">
        <ele>212</ele>
        <time>2021-10-30T13:17:54Z</time>
      </trkpt>
      <trkpt lat="46.50424" lon="5.22755">
        <ele>212.2</ele>
        <time>2021-10-30T13:18:02Z</time>
      </trkpt>
      <trkpt lat="46.50373" lon="5.22746">
        <ele>212.8</ele>
        <time>2021-10-30T13:18:11Z</time>
      </trkpt>
      <trkpt lat="46.50347" lon="5.22742">
        <ele>213.6</ele>
        <time>2021-10-30T13:18:16Z</time>
      </trkpt>
      <trkpt lat="46.50325" lon="5.22741">
        <ele>214.2</ele>
        <time>2021-10-30T13:18:20Z</time>
      </trkpt>
      <trkpt lat="46.50312" lon="5.2274">
        <ele>214.6</ele>
        <time>2021-10-30T13:18:22Z</time>
      </trkpt>
      <trkpt lat="46.50273" lon="5.22744">
        <ele>215</ele>
        <time>2021-10-30T13:18:29Z</time>
      </trkpt>
      <trkpt lat="46.50225" lon="5.22753">
        <ele>215.6</ele>
        <time>2021-10-30T13:18:37Z</time>
      </trkpt>
      <trkpt lat="46.50219" lon="5.22753">
        <ele>215.6</ele>
        <time>2021-10-30T13:18:38Z</time>
      </trkpt>
      <trkpt lat="46.50182" lon="5.22749">
        <ele>215.4</ele>
        <time>2021-10-30T13:18:44Z</time>
      </trkpt>
      <trkpt lat="46.50146" lon="5.22729">
        <ele>215.4</ele>
        <time>2021-10-30T13:18:50Z</time>
      </trkpt>
      <trkpt lat="46.5009" lon="5.22701">
        <ele>215.8</ele>
        <time>2021-10-30T13:18:59Z</time>
      </trkpt>
      <trkpt lat="46.50083" lon="5.22699">
        <ele>215.8</ele>
        <time>2021-10-30T13:19:00Z</time>
      </trkpt>
      <trkpt lat="46.50063" lon="5.22699">
        <ele>215.6</ele>
        <time>2021-10-30T13:19:03Z</time>
      </trkpt>
      <trkpt lat="46.50017" lon="5.22709">
        <ele>214.4</ele>
        <time>2021-10-30T13:19:09Z</time>
      </trkpt>
      <trkpt lat="46.49974" lon="5.22718">
        <ele>213.2</ele>
        <time>2021-10-30T13:19:14Z</time>
      </trkpt>
      <trkpt lat="46.49956" lon="5.22722">
        <ele>212.2</ele>
        <time>2021-10-30T13:19:16Z</time>
      </trkpt>
      <trkpt lat="46.49912" lon="5.22728">
        <ele>211</ele>
        <time>2021-10-30T13:19:21Z</time>
      </trkpt>
      <trkpt lat="46.49873" lon="5.22731">
        <ele>209.8</ele>
        <time>2021-10-30T13:19:25Z</time>
      </trkpt>
      <trkpt lat="46.49838" lon="5.22735">
        <ele>209.2</ele>
        <time>2021-10-30T13:19:29Z</time>
      </trkpt>
      <trkpt lat="46.49812" lon="5.22739">
        <ele>208.6</ele>
        <time>2021-10-30T13:19:32Z</time>
      </trkpt>
      <trkpt lat="46.49796" lon="5.22741">
        <ele>208</ele>
        <time>2021-10-30T13:19:34Z</time>
      </trkpt>
      <trkpt lat="46.49771" lon="5.22744">
        <ele>207.4</ele>
        <time>2021-10-30T13:19:37Z</time>
      </trkpt>
      <trkpt lat="46.49738" lon="5.22748">
        <ele>206.4</ele>
        <time>2021-10-30T13:19:41Z</time>
      </trkpt>
      <trkpt lat="46.4973" lon="5.22749">
        <ele>206.2</ele>
        <time>2021-10-30T13:19:42Z</time>
      </trkpt>
      <trkpt lat="46.49687" lon="5.22753">
        <ele>205.4</ele>
        <time>2021-10-30T13:19:47Z</time>
      </trkpt>
      <trkpt lat="46.49662" lon="5.22755">
        <ele>204.2</ele>
        <time>2021-10-30T13:19:50Z</time>
      </trkpt>
      <trkpt lat="46.49624" lon="5.22758">
        <ele>203.2</ele>
        <time>2021-10-30T13:19:54Z</time>
      </trkpt>
      <trkpt lat="46.49604" lon="5.2276">
        <ele>201.8</ele>
        <time>2021-10-30T13:19:56Z</time>
      </trkpt>
      <trkpt lat="46.49575" lon="5.22762">
        <ele>200.4</ele>
        <time>2021-10-30T13:19:59Z</time>
      </trkpt>
      <trkpt lat="46.49547" lon="5.22765">
        <ele>198.8</ele>
        <time>2021-10-30T13:20:02Z</time>
      </trkpt>
      <trkpt lat="46.49539" lon="5.22765">
        <ele>198.4</ele>
        <time>2021-10-30T13:20:03Z</time>
      </trkpt>
      <trkpt lat="46.49514" lon="5.22767">
        <ele>197.8</ele>
        <time>2021-10-30T13:20:06Z</time>
      </trkpt>
      <trkpt lat="46.495" lon="5.22768">
        <ele>197.6</ele>
        <time>2021-10-30T13:20:08Z</time>
      </trkpt>
      <trkpt lat="46.49469" lon="5.22771">
        <ele>198.8</ele>
        <time>2021-10-30T13:20:13Z</time>
      </trkpt>
      <trkpt lat="46.49464" lon="5.22772">
        <ele>199</ele>
        <time>2021-10-30T13:20:14Z</time>
      </trkpt>
      <trkpt lat="46.49442" lon="5.22774">
        <ele>200.2</ele>
        <time>2021-10-30T13:20:18Z</time>
      </trkpt>
      <trkpt lat="46.49422" lon="5.22776">
        <ele>201.6</ele>
        <time>2021-10-30T13:20:22Z</time>
      </trkpt>
      <trkpt lat="46.49394" lon="5.22777">
        <ele>202.6</ele>
        <time>2021-10-30T13:20:28Z</time>
      </trkpt>
      <trkpt lat="46.4938" lon="5.22778">
        <ele>203.4</ele>
        <time>2021-10-30T13:20:31Z</time>
      </trkpt>
      <trkpt lat="46.49375" lon="5.22779">
        <ele>203.6</ele>
        <time>2021-10-30T13:20:32Z</time>
      </trkpt>
      <trkpt lat="46.49348" lon="5.22782">
        <ele>204.8</ele>
        <time>2021-10-30T13:20:38Z</time>
      </trkpt>
      <trkpt lat="46.4933" lon="5.22784">
        <ele>205.4</ele>
        <time>2021-10-30T13:20:42Z</time>
      </trkpt>
      <trkpt lat="46.49316" lon="5.22786">
        <ele>206</ele>
        <time>2021-10-30T13:20:45Z</time>
      </trkpt>
      <trkpt lat="46.49293" lon="5.22787">
        <ele>207.2</ele>
        <time>2021-10-30T13:20:50Z</time>
      </trkpt>
      <trkpt lat="46.49277" lon="5.22788">
        <ele>208.2</ele>
        <time>2021-10-30T13:20:54Z</time>
      </trkpt>
      <trkpt lat="46.49273" lon="5.22788">
        <ele>208.6</ele>
        <time>2021-10-30T13:20:55Z</time>
      </trkpt>
      <trkpt lat="46.49261" lon="5.22788">
        <ele>209.2</ele>
        <time>2021-10-30T13:20:58Z</time>
      </trkpt>
      <trkpt lat="46.49257" lon="5.22788">
        <ele>209.4</ele>
        <time>2021-10-30T13:20:59Z</time>
      </trkpt>
      <trkpt lat="46.49238" lon="5.22789">
        <ele>210.8</ele>
        <time>2021-10-30T13:21:04Z</time>
      </trkpt>
      <trkpt lat="46.49231" lon="5.22788">
        <ele>211.8</ele>
        <time>2021-10-30T13:21:06Z</time>
      </trkpt>
      <trkpt lat="46.49227" lon="5.22788">
        <ele>211.8</ele>
        <time>2021-10-30T13:21:07Z</time>
      </trkpt>
      <trkpt lat="46.49214" lon="5.2279">
        <ele>213.2</ele>
        <time>2021-10-30T13:21:10Z</time>
      </trkpt>
      <trkpt lat="46.49206" lon="5.22791">
        <ele>213.8</ele>
        <time>2021-10-30T13:21:12Z</time>
      </trkpt>
      <trkpt lat="46.49193" lon="5.22791">
        <ele>214.2</ele>
        <time>2021-10-30T13:21:15Z</time>
      </trkpt>
      <trkpt lat="46.49164" lon="5.22787">
        <ele>214.4</ele>
        <time>2021-10-30T13:21:21Z</time>
      </trkpt>
      <trkpt lat="46.4913" lon="5.22772">
        <ele>215</ele>
        <time>2021-10-30T13:21:27Z</time>
      </trkpt>
      <trkpt lat="46.4909" lon="5.2275">
        <ele>214.6</ele>
        <time>2021-10-30T13:21:34Z</time>
      </trkpt>
      <trkpt lat="46.49044" lon="5.22726">
        <ele>214.2</ele>
        <time>2021-10-30T13:21:42Z</time>
      </trkpt>
      <trkpt lat="46.49032" lon="5.2272">
        <ele>214</ele>
        <time>2021-10-30T13:21:44Z</time>
      </trkpt>
      <trkpt lat="46.48983" lon="5.22694">
        <ele>214.2</ele>
        <time>2021-10-30T13:21:52Z</time>
      </trkpt>
      <trkpt lat="46.48944" lon="5.22671">
        <ele>213</ele>
        <time>2021-10-30T13:21:58Z</time>
      </trkpt>
      <trkpt lat="46.4893" lon="5.22665">
        <ele>212.4</ele>
        <time>2021-10-30T13:22:00Z</time>
      </trkpt>
      <trkpt lat="46.48903" lon="5.22653">
        <ele>212</ele>
        <time>2021-10-30T13:22:04Z</time>
      </trkpt>
      <trkpt lat="46.48889" lon="5.22646">
        <ele>211.8</ele>
        <time>2021-10-30T13:22:06Z</time>
      </trkpt>
      <trkpt lat="46.48833" lon="5.22616">
        <ele>211.4</ele>
        <time>2021-10-30T13:22:14Z</time>
      </trkpt>
      <trkpt lat="46.48827" lon="5.22612">
        <ele>211.2</ele>
        <time>2021-10-30T13:22:15Z</time>
      </trkpt>
      <trkpt lat="46.488" lon="5.22598">
        <ele>211</ele>
        <time>2021-10-30T13:22:19Z</time>
      </trkpt>
      <trkpt lat="46.4877" lon="5.22579">
        <ele>210.6</ele>
        <time>2021-10-30T13:22:24Z</time>
      </trkpt>
      <trkpt lat="46.48718" lon="5.2255">
        <ele>210</ele>
        <time>2021-10-30T13:22:33Z</time>
      </trkpt>
      <trkpt lat="46.48712" lon="5.22547">
        <ele>210</ele>
        <time>2021-10-30T13:22:34Z</time>
      </trkpt>
      <trkpt lat="46.48688" lon="5.22532">
        <ele>210</ele>
        <time>2021-10-30T13:22:38Z</time>
      </trkpt>
      <trkpt lat="46.4868" lon="5.22523">
        <ele>210</ele>
        <time>2021-10-30T13:22:40Z</time>
      </trkpt>
      <trkpt lat="46.48638" lon="5.22474">
        <ele>211.2</ele>
        <time>2021-10-30T13:22:49Z</time>
      </trkpt>
      <trkpt lat="46.48619" lon="5.22455">
        <ele>212</ele>
        <time>2021-10-30T13:22:53Z</time>
      </trkpt>
      <trkpt lat="46.48604" lon="5.22442">
        <ele>212.4</ele>
        <time>2021-10-30T13:22:56Z</time>
      </trkpt>
      <trkpt lat="46.48584" lon="5.22423">
        <ele>213</ele>
        <time>2021-10-30T13:23:00Z</time>
      </trkpt>
      <trkpt lat="46.48563" lon="5.22405">
        <ele>213.4</ele>
        <time>2021-10-30T13:23:04Z</time>
      </trkpt>
      <trkpt lat="46.48514" lon="5.22371">
        <ele>213</ele>
        <time>2021-10-30T13:23:13Z</time>
      </trkpt>
      <trkpt lat="46.48479" lon="5.22344">
        <ele>213.2</ele>
        <time>2021-10-30T13:23:20Z</time>
      </trkpt>
      <trkpt lat="46.48457" lon="5.22316">
        <ele>214</ele>
        <time>2021-10-30T13:23:25Z</time>
      </trkpt>
      <trkpt lat="46.48438" lon="5.22291">
        <ele>214.2</ele>
        <time>2021-10-30T13:23:29Z</time>
      </trkpt>
      <trkpt lat="46.48396" lon="5.22246">
        <ele>213.2</ele>
        <time>2021-10-30T13:23:37Z</time>
      </trkpt>
      <trkpt lat="46.4839" lon="5.22242">
        <ele>213</ele>
        <time>2021-10-30T13:23:38Z</time>
      </trkpt>
      <trkpt lat="46.48359" lon="5.22225">
        <ele>212.4</ele>
        <time>2021-10-30T13:23:43Z</time>
      </trkpt>
      <trkpt lat="46.4834" lon="5.22219">
        <ele>212</ele>
        <time>2021-10-30T13:23:46Z</time>
      </trkpt>
      <trkpt lat="46.48321" lon="5.22218">
        <ele>211.4</ele>
        <time>2021-10-30T13:23:49Z</time>
      </trkpt>
      <trkpt lat="46.48302" lon="5.22218">
        <ele>210.8</ele>
        <time>2021-10-30T13:23:52Z</time>
      </trkpt>
      <trkpt lat="46.48276" lon="5.22216">
        <ele>210.6</ele>
        <time>2021-10-30T13:23:56Z</time>
      </trkpt>
      <trkpt lat="46.48237" lon="5.22206">
        <ele>210.4</ele>
        <time>2021-10-30T13:24:02Z</time>
      </trkpt>
      <trkpt lat="46.48211" lon="5.22203">
        <ele>210</ele>
        <time>2021-10-30T13:24:06Z</time>
      </trkpt>
      <trkpt lat="46.48205" lon="5.22204">
        <ele>210</ele>
        <time>2021-10-30T13:24:07Z</time>
      </trkpt>
      <trkpt lat="46.48193" lon="5.22207">
        <ele>209.8</ele>
        <time>2021-10-30T13:24:09Z</time>
      </trkpt>
      <trkpt lat="46.48163" lon="5.22216">
        <ele>209.4</ele>
        <time>2021-10-30T13:24:14Z</time>
      </trkpt>
      <trkpt lat="46.48108" lon="5.22228">
        <ele>209.4</ele>
        <time>2021-10-30T13:24:23Z</time>
      </trkpt>
      <trkpt lat="46.48097" lon="5.22233">
        <ele>209.4</ele>
        <time>2021-10-30T13:24:25Z</time>
      </trkpt>
      <trkpt lat="46.48086" lon="5.2224">
        <ele>209.4</ele>
        <time>2021-10-30T13:24:27Z</time>
      </trkpt>
      <trkpt lat="46.48081" lon="5.22244">
        <ele>209.4</ele>
        <time>2021-10-30T13:24:28Z</time>
      </trkpt>
      <trkpt lat="46.48045" lon="5.22277">
        <ele>209.8</ele>
        <time>2021-10-30T13:24:35Z</time>
      </trkpt>
      <trkpt lat="46.48039" lon="5.22279">
        <ele>210</ele>
        <time>2021-10-30T13:24:36Z</time>
      </trkpt>
      <trkpt lat="46.48034" lon="5.22282">
        <ele>209.8</ele>
        <time>2021-10-30T13:24:37Z</time>
      </trkpt>
      <trkpt lat="46.48009" lon="5.22284">
        <ele>210.2</ele>
        <time>2021-10-30T13:24:41Z</time>
      </trkpt>
      <trkpt lat="46.47978" lon="5.22284">
        <ele>210.8</ele>
        <time>2021-10-30T13:24:46Z</time>
      </trkpt>
      <trkpt lat="46.47959" lon="5.22286">
        <ele>211</ele>
        <time>2021-10-30T13:24:49Z</time>
      </trkpt>
      <trkpt lat="46.47905" lon="5.22294">
        <ele>211.8</ele>
        <time>2021-10-30T13:24:58Z</time>
      </trkpt>
      <trkpt lat="46.47899" lon="5.22294">
        <ele>212.2</ele>
        <time>2021-10-30T13:24:59Z</time>
      </trkpt>
      <trkpt lat="46.47851" lon="5.22301">
        <ele>212.6</ele>
        <time>2021-10-30T13:25:08Z</time>
      </trkpt>
      <trkpt lat="46.47846" lon="5.22301">
        <ele>213</ele>
        <time>2021-10-30T13:25:09Z</time>
      </trkpt>
      <trkpt lat="46.47809" lon="5.22307">
        <ele>213.8</ele>
        <time>2021-10-30T13:25:16Z</time>
      </trkpt>
      <trkpt lat="46.47799" lon="5.22308">
        <ele>214</ele>
        <time>2021-10-30T13:25:18Z</time>
      </trkpt>
      <trkpt lat="46.47784" lon="5.22311">
        <ele>214</ele>
        <time>2021-10-30T13:25:21Z</time>
      </trkpt>
      <trkpt lat="46.47775" lon="5.22311">
        <ele>214</ele>
        <time>2021-10-30T13:25:23Z</time>
      </trkpt>
      <trkpt lat="46.47764" lon="5.22316">
        <ele>213.8</ele>
        <time>2021-10-30T13:25:27Z</time>
      </trkpt>
      <trkpt lat="46.47763" lon="5.22331">
        <ele>213.6</ele>
        <time>2021-10-30T13:25:30Z</time>
      </trkpt>
      <trkpt lat="46.47768" lon="5.22372">
        <ele>213.6</ele>
        <time>2021-10-30T13:25:36Z</time>
      </trkpt>
      <trkpt lat="46.47778" lon="5.22429">
        <ele>214.2</ele>
        <time>2021-10-30T13:25:43Z</time>
      </trkpt>
      <trkpt lat="46.4779" lon="5.22485">
        <ele>215</ele>
        <time>2021-10-30T13:25:50Z</time>
      </trkpt>
      <trkpt lat="46.47793" lon="5.22502">
        <ele>215</ele>
        <time>2021-10-30T13:25:52Z</time>
      </trkpt>
      <trkpt lat="46.47809" lon="5.22562">
        <ele>214.6</ele>
        <time>2021-10-30T13:25:59Z</time>
      </trkpt>
      <trkpt lat="46.47813" lon="5.2257">
        <ele>214.6</ele>
        <time>2021-10-30T13:26:00Z</time>
      </trkpt>
      <trkpt lat="46.47828" lon="5.22592">
        <ele>214.2</ele>
        <time>2021-10-30T13:26:03Z</time>
      </trkpt>
      <trkpt lat="46.4784" lon="5.22606">
        <ele>213.8</ele>
        <time>2021-10-30T13:26:05Z</time>
      </trkpt>
      <trkpt lat="46.47861" lon="5.22628">
        <ele>212.8</ele>
        <time>2021-10-30T13:26:08Z</time>
      </trkpt>
      <trkpt lat="46.47869" lon="5.22636">
        <ele>212.8</ele>
        <time>2021-10-30T13:26:09Z</time>
      </trkpt>
      <trkpt lat="46.47892" lon="5.2266">
        <ele>211.4</ele>
        <time>2021-10-30T13:26:12Z</time>
      </trkpt>
      <trkpt lat="46.47916" lon="5.22686">
        <ele>210.2</ele>
        <time>2021-10-30T13:26:15Z</time>
      </trkpt>
      <trkpt lat="46.47941" lon="5.22712">
        <ele>208.6</ele>
        <time>2021-10-30T13:26:18Z</time>
      </trkpt>
      <trkpt lat="46.47966" lon="5.22743">
        <ele>207.4</ele>
        <time>2021-10-30T13:26:21Z</time>
      </trkpt>
      <trkpt lat="46.47973" lon="5.22755">
        <ele>206.8</ele>
        <time>2021-10-30T13:26:22Z</time>
      </trkpt>
      <trkpt lat="46.47979" lon="5.22768">
        <ele>206.4</ele>
        <time>2021-10-30T13:26:23Z</time>
      </trkpt>
      <trkpt lat="46.47989" lon="5.22794">
        <ele>205.4</ele>
        <time>2021-10-30T13:26:25Z</time>
      </trkpt>
      <trkpt lat="46.47994" lon="5.22808">
        <ele>204.6</ele>
        <time>2021-10-30T13:26:26Z</time>
      </trkpt>
      <trkpt lat="46.48004" lon="5.22834">
        <ele>203.6</ele>
        <time>2021-10-30T13:26:28Z</time>
      </trkpt>
      <trkpt lat="46.48023" lon="5.22888">
        <ele>202.4</ele>
        <time>2021-10-30T13:26:32Z</time>
      </trkpt>
      <trkpt lat="46.48036" lon="5.22929">
        <ele>202</ele>
        <time>2021-10-30T13:26:35Z</time>
      </trkpt>
      <trkpt lat="46.48039" lon="5.22944">
        <ele>201.8</ele>
        <time>2021-10-30T13:26:36Z</time>
      </trkpt>
      <trkpt lat="46.48045" lon="5.2299">
        <ele>201.4</ele>
        <time>2021-10-30T13:26:39Z</time>
      </trkpt>
      <trkpt lat="46.48046" lon="5.2302">
        <ele>200.2</ele>
        <time>2021-10-30T13:26:41Z</time>
      </trkpt>
      <trkpt lat="46.48046" lon="5.2305">
        <ele>199.2</ele>
        <time>2021-10-30T13:26:43Z</time>
      </trkpt>
      <trkpt lat="46.48047" lon="5.23109">
        <ele>198.4</ele>
        <time>2021-10-30T13:26:47Z</time>
      </trkpt>
      <trkpt lat="46.48047" lon="5.23124">
        <ele>197.8</ele>
        <time>2021-10-30T13:26:48Z</time>
      </trkpt>
      <trkpt lat="46.48049" lon="5.23184">
        <ele>196.8</ele>
        <time>2021-10-30T13:26:52Z</time>
      </trkpt>
      <trkpt lat="46.48049" lon="5.23213">
        <ele>195.2</ele>
        <time>2021-10-30T13:26:54Z</time>
      </trkpt>
      <trkpt lat="46.48049" lon="5.23228">
        <ele>195</ele>
        <time>2021-10-30T13:26:55Z</time>
      </trkpt>
      <trkpt lat="46.4805" lon="5.23269">
        <ele>194</ele>
        <time>2021-10-30T13:26:58Z</time>
      </trkpt>
      <trkpt lat="46.48051" lon="5.23309">
        <ele>193.4</ele>
        <time>2021-10-30T13:27:01Z</time>
      </trkpt>
      <trkpt lat="46.48054" lon="5.23372">
        <ele>193</ele>
        <time>2021-10-30T13:27:06Z</time>
      </trkpt>
      <trkpt lat="46.48055" lon="5.23396">
        <ele>192.8</ele>
        <time>2021-10-30T13:27:08Z</time>
      </trkpt>
      <trkpt lat="46.48057" lon="5.2348">
        <ele>192</ele>
        <time>2021-10-30T13:27:15Z</time>
      </trkpt>
      <trkpt lat="46.48058" lon="5.23492">
        <ele>192</ele>
        <time>2021-10-30T13:27:16Z</time>
      </trkpt>
      <trkpt lat="46.48058" lon="5.23504">
        <ele>192</ele>
        <time>2021-10-30T13:27:17Z</time>
      </trkpt>
      <trkpt lat="46.4806" lon="5.23585">
        <ele>192</ele>
        <time>2021-10-30T13:27:24Z</time>
      </trkpt>
      <trkpt lat="46.4806" lon="5.23596">
        <ele>192</ele>
        <time>2021-10-30T13:27:25Z</time>
      </trkpt>
      <trkpt lat="46.48068" lon="5.23662">
        <ele>192</ele>
        <time>2021-10-30T13:27:31Z</time>
      </trkpt>
      <trkpt lat="46.48075" lon="5.23693">
        <ele>192</ele>
        <time>2021-10-30T13:27:34Z</time>
      </trkpt>
      <trkpt lat="46.48085" lon="5.23721">
        <ele>192.4</ele>
        <time>2021-10-30T13:27:37Z</time>
      </trkpt>
      <trkpt lat="46.48111" lon="5.23768">
        <ele>193</ele>
        <time>2021-10-30T13:27:43Z</time>
      </trkpt>
      <trkpt lat="46.48149" lon="5.23816">
        <ele>193.4</ele>
        <time>2021-10-30T13:27:50Z</time>
      </trkpt>
      <trkpt lat="46.4817" lon="5.23844">
        <ele>193.6</ele>
        <time>2021-10-30T13:27:54Z</time>
      </trkpt>
      <trkpt lat="46.48175" lon="5.23852">
        <ele>193.8</ele>
        <time>2021-10-30T13:27:55Z</time>
      </trkpt>
      <trkpt lat="46.48179" lon="5.23861">
        <ele>194</ele>
        <time>2021-10-30T13:27:56Z</time>
      </trkpt>
      <trkpt lat="46.48182" lon="5.2387">
        <ele>194</ele>
        <time>2021-10-30T13:27:57Z</time>
      </trkpt>
      <trkpt lat="46.48187" lon="5.23889">
        <ele>194</ele>
        <time>2021-10-30T13:27:59Z</time>
      </trkpt>
      <trkpt lat="46.48189" lon="5.23909">
        <ele>194.2</ele>
        <time>2021-10-30T13:28:01Z</time>
      </trkpt>
      <trkpt lat="46.48188" lon="5.23929">
        <ele>194.2</ele>
        <time>2021-10-30T13:28:03Z</time>
      </trkpt>
      <trkpt lat="46.48186" lon="5.23939">
        <ele>194.2</ele>
        <time>2021-10-30T13:28:04Z</time>
      </trkpt>
      <trkpt lat="46.48179" lon="5.23965">
        <ele>194.4</ele>
        <time>2021-10-30T13:28:07Z</time>
      </trkpt>
      <trkpt lat="46.48168" lon="5.23993">
        <ele>195.2</ele>
        <time>2021-10-30T13:28:11Z</time>
      </trkpt>
      <trkpt lat="46.48155" lon="5.24024">
        <ele>196.4</ele>
        <time>2021-10-30T13:28:16Z</time>
      </trkpt>
      <trkpt lat="46.48153" lon="5.24031">
        <ele>196.6</ele>
        <time>2021-10-30T13:28:17Z</time>
      </trkpt>
      <trkpt lat="46.48146" lon="5.24048">
        <ele>197.4</ele>
        <time>2021-10-30T13:28:20Z</time>
      </trkpt>
      <trkpt lat="46.48138" lon="5.24071">
        <ele>198.2</ele>
        <time>2021-10-30T13:28:24Z</time>
      </trkpt>
      <trkpt lat="46.48134" lon="5.24083">
        <ele>198.6</ele>
        <time>2021-10-30T13:28:26Z</time>
      </trkpt>
      <trkpt lat="46.48127" lon="5.241">
        <ele>199.6</ele>
        <time>2021-10-30T13:28:29Z</time>
      </trkpt>
      <trkpt lat="46.48119" lon="5.24124">
        <ele>200.8</ele>
        <time>2021-10-30T13:28:33Z</time>
      </trkpt>
      <trkpt lat="46.48112" lon="5.2414">
        <ele>201.8</ele>
        <time>2021-10-30T13:28:36Z</time>
      </trkpt>
      <trkpt lat="46.48104" lon="5.2416">
        <ele>203.4</ele>
        <time>2021-10-30T13:28:40Z</time>
      </trkpt>
      <trkpt lat="46.48102" lon="5.24165">
        <ele>203.6</ele>
        <time>2021-10-30T13:28:41Z</time>
      </trkpt>
      <trkpt lat="46.48096" lon="5.2418">
        <ele>204.4</ele>
        <time>2021-10-30T13:28:44Z</time>
      </trkpt>
      <trkpt lat="46.48087" lon="5.24206">
        <ele>205.6</ele>
        <time>2021-10-30T13:28:49Z</time>
      </trkpt>
      <trkpt lat="46.48083" lon="5.24215">
        <ele>206.2</ele>
        <time>2021-10-30T13:28:51Z</time>
      </trkpt>
      <trkpt lat="46.4808" lon="5.24225">
        <ele>206.8</ele>
        <time>2021-10-30T13:28:53Z</time>
      </trkpt>
      <trkpt lat="46.48074" lon="5.2425">
        <ele>207.8</ele>
        <time>2021-10-30T13:28:58Z</time>
      </trkpt>
      <trkpt lat="46.48072" lon="5.24255">
        <ele>208.2</ele>
        <time>2021-10-30T13:28:59Z</time>
      </trkpt>
      <trkpt lat="46.48072" lon="5.24278">
        <ele>209.2</ele>
        <time>2021-10-30T13:29:03Z</time>
      </trkpt>
      <trkpt lat="46.48072" lon="5.24284">
        <ele>209.4</ele>
        <time>2021-10-30T13:29:04Z</time>
      </trkpt>
      <trkpt lat="46.48082" lon="5.24314">
        <ele>210.4</ele>
        <time>2021-10-30T13:29:10Z</time>
      </trkpt>
      <trkpt lat="46.4809" lon="5.24326">
        <ele>211.4</ele>
        <time>2021-10-30T13:29:13Z</time>
      </trkpt>
      <trkpt lat="46.48097" lon="5.24332">
        <ele>212</ele>
        <time>2021-10-30T13:29:15Z</time>
      </trkpt>
      <trkpt lat="46.48103" lon="5.24339">
        <ele>212.4</ele>
        <time>2021-10-30T13:29:17Z</time>
      </trkpt>
      <trkpt lat="46.48107" lon="5.24348">
        <ele>213</ele>
        <time>2021-10-30T13:29:19Z</time>
      </trkpt>
      <trkpt lat="46.48105" lon="5.24364">
        <ele>213.6</ele>
        <time>2021-10-30T13:29:22Z</time>
      </trkpt>
      <trkpt lat="46.4809" lon="5.24379">
        <ele>214.4</ele>
        <time>2021-10-30T13:29:26Z</time>
      </trkpt>
      <trkpt lat="46.48086" lon="5.24383">
        <ele>214.6</ele>
        <time>2021-10-30T13:29:27Z</time>
      </trkpt>
      <trkpt lat="46.48082" lon="5.24387">
        <ele>214.4</ele>
        <time>2021-10-30T13:29:28Z</time>
      </trkpt>
      <trkpt lat="46.48057" lon="5.24406">
        <ele>214.8</ele>
        <time>2021-10-30T13:29:33Z</time>
      </trkpt>
      <trkpt lat="46.4802" lon="5.24431">
        <ele>214.6</ele>
        <time>2021-10-30T13:29:40Z</time>
      </trkpt>
      <trkpt lat="46.47971" lon="5.24464">
        <ele>215</ele>
        <time>2021-10-30T13:29:49Z</time>
      </trkpt>
      <trkpt lat="46.47933" lon="5.24489">
        <ele>215</ele>
        <time>2021-10-30T13:29:56Z</time>
      </trkpt>
      <trkpt lat="46.47922" lon="5.24495">
        <ele>215.2</ele>
        <time>2021-10-30T13:29:58Z</time>
      </trkpt>
      <trkpt lat="46.47916" lon="5.24497">
        <ele>215.4</ele>
        <time>2021-10-30T13:29:59Z</time>
      </trkpt>
      <trkpt lat="46.47905" lon="5.24499">
        <ele>215.6</ele>
        <time>2021-10-30T13:30:01Z</time>
      </trkpt>
      <trkpt lat="46.47857" lon="5.24498">
        <ele>215.8</ele>
        <time>2021-10-30T13:30:09Z</time>
      </trkpt>
      <trkpt lat="46.47799" lon="5.24498">
        <ele>215.2</ele>
        <time>2021-10-30T13:30:18Z</time>
      </trkpt>
      <trkpt lat="46.47745" lon="5.24509">
        <ele>214.6</ele>
        <time>2021-10-30T13:30:26Z</time>
      </trkpt>
      <trkpt lat="46.47739" lon="5.2451">
        <ele>214.2</ele>
        <time>2021-10-30T13:30:27Z</time>
      </trkpt>
      <trkpt lat="46.47681" lon="5.24531">
        <ele>213.8</ele>
        <time>2021-10-30T13:30:36Z</time>
      </trkpt>
      <trkpt lat="46.47633" lon="5.24558">
        <ele>214.2</ele>
        <time>2021-10-30T13:30:44Z</time>
      </trkpt>
      <trkpt lat="46.47576" lon="5.2459">
        <ele>214</ele>
        <time>2021-10-30T13:30:53Z</time>
      </trkpt>
      <trkpt lat="46.47529" lon="5.24617">
        <ele>213.4</ele>
        <time>2021-10-30T13:31:00Z</time>
      </trkpt>
      <trkpt lat="46.47514" lon="5.24625">
        <ele>213.2</ele>
        <time>2021-10-30T13:31:02Z</time>
      </trkpt>
      <trkpt lat="46.4747" lon="5.24637">
        <ele>212.2</ele>
        <time>2021-10-30T13:31:08Z</time>
      </trkpt>
      <trkpt lat="46.47463" lon="5.24638">
        <ele>212.2</ele>
        <time>2021-10-30T13:31:09Z</time>
      </trkpt>
      <trkpt lat="46.47414" lon="5.24642">
        <ele>211.4</ele>
        <time>2021-10-30T13:31:16Z</time>
      </trkpt>
      <trkpt lat="46.47355" lon="5.24647">
        <ele>211.4</ele>
        <time>2021-10-30T13:31:24Z</time>
      </trkpt>
      <trkpt lat="46.47315" lon="5.24651">
        <ele>211</ele>
        <time>2021-10-30T13:31:29Z</time>
      </trkpt>
      <trkpt lat="46.47299" lon="5.24652">
        <ele>210.8</ele>
        <time>2021-10-30T13:31:31Z</time>
      </trkpt>
      <trkpt lat="46.47265" lon="5.24653">
        <ele>209.8</ele>
        <time>2021-10-30T13:31:35Z</time>
      </trkpt>
      <trkpt lat="46.47239" lon="5.24653">
        <ele>208.6</ele>
        <time>2021-10-30T13:31:38Z</time>
      </trkpt>
      <trkpt lat="46.47206" lon="5.24652">
        <ele>207.4</ele>
        <time>2021-10-30T13:31:42Z</time>
      </trkpt>
      <trkpt lat="46.47183" lon="5.2465">
        <ele>206.2</ele>
        <time>2021-10-30T13:31:45Z</time>
      </trkpt>
      <trkpt lat="46.47175" lon="5.24649">
        <ele>206</ele>
        <time>2021-10-30T13:31:46Z</time>
      </trkpt>
      <trkpt lat="46.4716" lon="5.24646">
        <ele>205</ele>
        <time>2021-10-30T13:31:48Z</time>
      </trkpt>
      <trkpt lat="46.47138" lon="5.24639">
        <ele>204</ele>
        <time>2021-10-30T13:31:51Z</time>
      </trkpt>
      <trkpt lat="46.4713" lon="5.24636">
        <ele>203.4</ele>
        <time>2021-10-30T13:31:52Z</time>
      </trkpt>
      <trkpt lat="46.47115" lon="5.24628">
        <ele>203</ele>
        <time>2021-10-30T13:31:54Z</time>
      </trkpt>
      <trkpt lat="46.47107" lon="5.24628">
        <ele>202.6</ele>
        <time>2021-10-30T13:31:55Z</time>
      </trkpt>
      <trkpt lat="46.471" lon="5.24631">
        <ele>202.2</ele>
        <time>2021-10-30T13:31:56Z</time>
      </trkpt>
      <trkpt lat="46.47094" lon="5.24637">
        <ele>202</ele>
        <time>2021-10-30T13:31:57Z</time>
      </trkpt>
      <trkpt lat="46.47089" lon="5.24646">
        <ele>202</ele>
        <time>2021-10-30T13:31:58Z</time>
      </trkpt>
      <trkpt lat="46.47084" lon="5.24666">
        <ele>201.8</ele>
        <time>2021-10-30T13:32:00Z</time>
      </trkpt>
      <trkpt lat="46.47067" lon="5.24717">
        <ele>201.6</ele>
        <time>2021-10-30T13:32:05Z</time>
      </trkpt>
      <trkpt lat="46.47046" lon="5.24756">
        <ele>201.2</ele>
        <time>2021-10-30T13:32:09Z</time>
      </trkpt>
      <trkpt lat="46.47031" lon="5.24775">
        <ele>200.8</ele>
        <time>2021-10-30T13:32:11Z</time>
      </trkpt>
      <trkpt lat="46.47015" lon="5.24793">
        <ele>200</ele>
        <time>2021-10-30T13:32:13Z</time>
      </trkpt>
      <trkpt lat="46.46997" lon="5.2481">
        <ele>199</ele>
        <time>2021-10-30T13:32:15Z</time>
      </trkpt>
      <trkpt lat="46.46978" lon="5.24826">
        <ele>197.6</ele>
        <time>2021-10-30T13:32:17Z</time>
      </trkpt>
      <trkpt lat="46.4696" lon="5.24841">
        <ele>197</ele>
        <time>2021-10-30T13:32:19Z</time>
      </trkpt>
      <trkpt lat="46.46943" lon="5.24856">
        <ele>196.2</ele>
        <time>2021-10-30T13:32:21Z</time>
      </trkpt>
      <trkpt lat="46.46911" lon="5.24882">
        <ele>195.8</ele>
        <time>2021-10-30T13:32:25Z</time>
      </trkpt>
      <trkpt lat="46.4687" lon="5.24914">
        <ele>197.2</ele>
        <time>2021-10-30T13:32:31Z</time>
      </trkpt>
      <trkpt lat="46.46858" lon="5.24924">
        <ele>197.4</ele>
        <time>2021-10-30T13:32:33Z</time>
      </trkpt>
      <trkpt lat="46.46828" lon="5.24948">
        <ele>198.4</ele>
        <time>2021-10-30T13:32:38Z</time>
      </trkpt>
      <trkpt lat="46.46822" lon="5.24953">
        <ele>198.4</ele>
        <time>2021-10-30T13:32:39Z</time>
      </trkpt>
      <trkpt lat="46.46792" lon="5.24978">
        <ele>199</ele>
        <time>2021-10-30T13:32:45Z</time>
      </trkpt>
      <trkpt lat="46.46777" lon="5.2499">
        <ele>199.4</ele>
        <time>2021-10-30T13:32:48Z</time>
      </trkpt>
      <trkpt lat="46.46757" lon="5.25005">
        <ele>200.4</ele>
        <time>2021-10-30T13:32:52Z</time>
      </trkpt>
      <trkpt lat="46.46746" lon="5.25013">
        <ele>201</ele>
        <time>2021-10-30T13:32:54Z</time>
      </trkpt>
      <trkpt lat="46.46737" lon="5.25021">
        <ele>201.6</ele>
        <time>2021-10-30T13:32:56Z</time>
      </trkpt>
      <trkpt lat="46.46713" lon="5.25039">
        <ele>202</ele>
        <time>2021-10-30T13:33:00Z</time>
      </trkpt>
      <trkpt lat="46.46671" lon="5.25074">
        <ele>201.6</ele>
        <time>2021-10-30T13:33:07Z</time>
      </trkpt>
      <trkpt lat="46.46648" lon="5.25091">
        <ele>201.4</ele>
        <time>2021-10-30T13:33:11Z</time>
      </trkpt>
      <trkpt lat="46.46643" lon="5.25094">
        <ele>201.6</ele>
        <time>2021-10-30T13:33:12Z</time>
      </trkpt>
      <trkpt lat="46.46621" lon="5.25111">
        <ele>202.4</ele>
        <time>2021-10-30T13:33:17Z</time>
      </trkpt>
      <trkpt lat="46.46612" lon="5.2512">
        <ele>202.8</ele>
        <time>2021-10-30T13:33:19Z</time>
      </trkpt>
      <trkpt lat="46.46606" lon="5.25125">
        <ele>203</ele>
        <time>2021-10-30T13:33:20Z</time>
      </trkpt>
      <trkpt lat="46.46588" lon="5.25141">
        <ele>203</ele>
        <time>2021-10-30T13:33:23Z</time>
      </trkpt>
      <trkpt lat="46.46563" lon="5.25161">
        <ele>203.4</ele>
        <time>2021-10-30T13:33:28Z</time>
      </trkpt>
      <trkpt lat="46.46547" lon="5.25173">
        <ele>203.6</ele>
        <time>2021-10-30T13:33:31Z</time>
      </trkpt>
      <trkpt lat="46.46511" lon="5.25202">
        <ele>204.2</ele>
        <time>2021-10-30T13:33:38Z</time>
      </trkpt>
      <trkpt lat="46.46506" lon="5.25205">
        <ele>204.2</ele>
        <time>2021-10-30T13:33:39Z</time>
      </trkpt>
      <trkpt lat="46.46477" lon="5.25228">
        <ele>204.4</ele>
        <time>2021-10-30T13:33:45Z</time>
      </trkpt>
      <trkpt lat="46.46467" lon="5.25235">
        <ele>204.6</ele>
        <time>2021-10-30T13:33:47Z</time>
      </trkpt>
      <trkpt lat="46.46462" lon="5.25239">
        <ele>204.6</ele>
        <time>2021-10-30T13:33:48Z</time>
      </trkpt>
      <trkpt lat="46.46435" lon="5.25262">
        <ele>205.8</ele>
        <time>2021-10-30T13:33:54Z</time>
      </trkpt>
      <trkpt lat="46.46398" lon="5.25295">
        <ele>206.6</ele>
        <time>2021-10-30T13:34:02Z</time>
      </trkpt>
      <trkpt lat="46.4639" lon="5.25305">
        <ele>206.8</ele>
        <time>2021-10-30T13:34:04Z</time>
      </trkpt>
      <trkpt lat="46.46371" lon="5.25334">
        <ele>208</ele>
        <time>2021-10-30T13:34:10Z</time>
      </trkpt>
      <trkpt lat="46.46367" lon="5.2534">
        <ele>208.2</ele>
        <time>2021-10-30T13:34:11Z</time>
      </trkpt>
      <trkpt lat="46.46346" lon="5.25379">
        <ele>209</ele>
        <time>2021-10-30T13:34:18Z</time>
      </trkpt>
      <trkpt lat="46.46343" lon="5.25385">
        <ele>209.2</ele>
        <time>2021-10-30T13:34:19Z</time>
      </trkpt>
      <trkpt lat="46.46309" lon="5.25444">
        <ele>209.4</ele>
        <time>2021-10-30T13:34:29Z</time>
      </trkpt>
      <trkpt lat="46.46282" lon="5.2549">
        <ele>209.8</ele>
        <time>2021-10-30T13:34:37Z</time>
      </trkpt>
      <trkpt lat="46.46272" lon="5.25508">
        <ele>210.2</ele>
        <time>2021-10-30T13:34:40Z</time>
      </trkpt>
      <trkpt lat="46.46254" lon="5.25547">
        <ele>211</ele>
        <time>2021-10-30T13:34:46Z</time>
      </trkpt>
      <trkpt lat="46.46247" lon="5.2557">
        <ele>211.2</ele>
        <time>2021-10-30T13:34:49Z</time>
      </trkpt>
      <trkpt lat="46.46238" lon="5.25608">
        <ele>211.4</ele>
        <time>2021-10-30T13:34:54Z</time>
      </trkpt>
      <trkpt lat="46.46227" lon="5.25667">
        <ele>212</ele>
        <time>2021-10-30T13:35:01Z</time>
      </trkpt>
      <trkpt lat="46.46229" lon="5.25724">
        <ele>211.2</ele>
        <time>2021-10-30T13:35:06Z</time>
      </trkpt>
      <trkpt lat="46.46238" lon="5.25773">
        <ele>209.6</ele>
        <time>2021-10-30T13:35:10Z</time>
      </trkpt>
      <trkpt lat="46.4624" lon="5.25785">
        <ele>209.4</ele>
        <time>2021-10-30T13:35:11Z</time>
      </trkpt>
      <trkpt lat="46.4625" lon="5.25839">
        <ele>208.6</ele>
        <time>2021-10-30T13:35:16Z</time>
      </trkpt>
      <trkpt lat="46.46251" lon="5.25858">
        <ele>208.6</ele>
        <time>2021-10-30T13:35:18Z</time>
      </trkpt>
      <trkpt lat="46.4625" lon="5.25877">
        <ele>208.8</ele>
        <time>2021-10-30T13:35:20Z</time>
      </trkpt>
      <trkpt lat="46.4624" lon="5.25915">
        <ele>210.6</ele>
        <time>2021-10-30T13:35:25Z</time>
      </trkpt>
      <trkpt lat="46.46238" lon="5.25922">
        <ele>210.8</ele>
        <time>2021-10-30T13:35:26Z</time>
      </trkpt>
      <trkpt lat="46.46231" lon="5.25941">
        <ele>212</ele>
        <time>2021-10-30T13:35:29Z</time>
      </trkpt>
      <trkpt lat="46.46225" lon="5.25961">
        <ele>213</ele>
        <time>2021-10-30T13:35:32Z</time>
      </trkpt>
      <trkpt lat="46.46223" lon="5.25968">
        <ele>213.6</ele>
        <time>2021-10-30T13:35:33Z</time>
      </trkpt>
      <trkpt lat="46.46218" lon="5.25988">
        <ele>215</ele>
        <time>2021-10-30T13:35:36Z</time>
      </trkpt>
      <trkpt lat="46.46212" lon="5.26015">
        <ele>216</ele>
        <time>2021-10-30T13:35:40Z</time>
      </trkpt>
      <trkpt lat="46.4621" lon="5.26022">
        <ele>216.4</ele>
        <time>2021-10-30T13:35:41Z</time>
      </trkpt>
      <trkpt lat="46.46208" lon="5.26037">
        <ele>217.6</ele>
        <time>2021-10-30T13:35:43Z</time>
      </trkpt>
      <trkpt lat="46.46204" lon="5.26068">
        <ele>218.6</ele>
        <time>2021-10-30T13:35:47Z</time>
      </trkpt>
      <trkpt lat="46.46203" lon="5.26076">
        <ele>218.8</ele>
        <time>2021-10-30T13:35:48Z</time>
      </trkpt>
      <trkpt lat="46.46195" lon="5.26158">
        <ele>218.8</ele>
        <time>2021-10-30T13:35:57Z</time>
      </trkpt>
      <trkpt lat="46.46188" lon="5.26242">
        <ele>217.8</ele>
        <time>2021-10-30T13:36:05Z</time>
      </trkpt>
      <trkpt lat="46.46186" lon="5.26254">
        <ele>217.6</ele>
        <time>2021-10-30T13:36:06Z</time>
      </trkpt>
      <trkpt lat="46.46182" lon="5.26303">
        <ele>216.4</ele>
        <time>2021-10-30T13:36:10Z</time>
      </trkpt>
      <trkpt lat="46.46181" lon="5.26317">
        <ele>216</ele>
        <time>2021-10-30T13:36:11Z</time>
      </trkpt>
      <trkpt lat="46.4618" lon="5.26331">
        <ele>215.2</ele>
        <time>2021-10-30T13:36:12Z</time>
      </trkpt>
      <trkpt lat="46.46176" lon="5.26374">
        <ele>213.6</ele>
        <time>2021-10-30T13:36:15Z</time>
      </trkpt>
      <trkpt lat="46.46174" lon="5.26389">
        <ele>213.4</ele>
        <time>2021-10-30T13:36:16Z</time>
      </trkpt>
      <trkpt lat="46.46172" lon="5.2642">
        <ele>212.4</ele>
        <time>2021-10-30T13:36:18Z</time>
      </trkpt>
      <trkpt lat="46.46169" lon="5.26451">
        <ele>210.8</ele>
        <time>2021-10-30T13:36:20Z</time>
      </trkpt>
      <trkpt lat="46.46166" lon="5.26483">
        <ele>209.4</ele>
        <time>2021-10-30T13:36:22Z</time>
      </trkpt>
      <trkpt lat="46.46162" lon="5.26515">
        <ele>207.8</ele>
        <time>2021-10-30T13:36:24Z</time>
      </trkpt>
      <trkpt lat="46.46159" lon="5.26547">
        <ele>206.6</ele>
        <time>2021-10-30T13:36:26Z</time>
      </trkpt>
      <trkpt lat="46.46156" lon="5.2658">
        <ele>205.6</ele>
        <time>2021-10-30T13:36:28Z</time>
      </trkpt>
      <trkpt lat="46.46153" lon="5.26614">
        <ele>204.4</ele>
        <time>2021-10-30T13:36:30Z</time>
      </trkpt>
      <trkpt lat="46.46151" lon="5.26649">
        <ele>203.2</ele>
        <time>2021-10-30T13:36:32Z</time>
      </trkpt>
      <trkpt lat="46.46148" lon="5.26717">
        <ele>202</ele>
        <time>2021-10-30T13:36:36Z</time>
      </trkpt>
      <trkpt lat="46.46147" lon="5.26751">
        <ele>199.4</ele>
        <time>2021-10-30T13:36:38Z</time>
      </trkpt>
      <trkpt lat="46.46147" lon="5.26768">
        <ele>198.8</ele>
        <time>2021-10-30T13:36:39Z</time>
      </trkpt>
      <trkpt lat="46.46147" lon="5.26785">
        <ele>197.4</ele>
        <time>2021-10-30T13:36:40Z</time>
      </trkpt>
      <trkpt lat="46.46146" lon="5.2682">
        <ele>196.4</ele>
        <time>2021-10-30T13:36:42Z</time>
      </trkpt>
      <trkpt lat="46.46145" lon="5.26852">
        <ele>195.6</ele>
        <time>2021-10-30T13:36:44Z</time>
      </trkpt>
      <trkpt lat="46.46143" lon="5.26883">
        <ele>195.2</ele>
        <time>2021-10-30T13:36:46Z</time>
      </trkpt>
      <trkpt lat="46.46141" lon="5.26943">
        <ele>194.4</ele>
        <time>2021-10-30T13:36:50Z</time>
      </trkpt>
      <trkpt lat="46.4614" lon="5.27023">
        <ele>194.4</ele>
        <time>2021-10-30T13:36:56Z</time>
      </trkpt>
      <trkpt lat="46.46137" lon="5.27111">
        <ele>195</ele>
        <time>2021-10-30T13:37:03Z</time>
      </trkpt>
      <trkpt lat="46.46135" lon="5.27189">
        <ele>194.4</ele>
        <time>2021-10-30T13:37:09Z</time>
      </trkpt>
      <trkpt lat="46.46134" lon="5.27202">
        <ele>194.2</ele>
        <time>2021-10-30T13:37:10Z</time>
      </trkpt>
      <trkpt lat="46.46133" lon="5.27267">
        <ele>193.4</ele>
        <time>2021-10-30T13:37:15Z</time>
      </trkpt>
      <trkpt lat="46.46132" lon="5.27292">
        <ele>193.2</ele>
        <time>2021-10-30T13:37:17Z</time>
      </trkpt>
      <trkpt lat="46.46129" lon="5.27375">
        <ele>193</ele>
        <time>2021-10-30T13:37:24Z</time>
      </trkpt>
      <trkpt lat="46.46127" lon="5.27454">
        <ele>193.4</ele>
        <time>2021-10-30T13:37:31Z</time>
      </trkpt>
      <trkpt lat="46.46125" lon="5.27543">
        <ele>193.6</ele>
        <time>2021-10-30T13:37:39Z</time>
      </trkpt>
      <trkpt lat="46.46124" lon="5.27575">
        <ele>193.2</ele>
        <time>2021-10-30T13:37:42Z</time>
      </trkpt>
      <trkpt lat="46.46122" lon="5.27658">
        <ele>193</ele>
        <time>2021-10-30T13:37:50Z</time>
      </trkpt>
      <trkpt lat="46.4612" lon="5.27736">
        <ele>193.2</ele>
        <time>2021-10-30T13:37:58Z</time>
      </trkpt>
      <trkpt lat="46.46118" lon="5.27778">
        <ele>194.2</ele>
        <time>2021-10-30T13:38:03Z</time>
      </trkpt>
      <trkpt lat="46.46118" lon="5.27794">
        <ele>194.8</ele>
        <time>2021-10-30T13:38:05Z</time>
      </trkpt>
      <trkpt lat="46.46119" lon="5.27824">
        <ele>195.4</ele>
        <time>2021-10-30T13:38:09Z</time>
      </trkpt>
      <trkpt lat="46.46119" lon="5.27838">
        <ele>195.6</ele>
        <time>2021-10-30T13:38:11Z</time>
      </trkpt>
      <trkpt lat="46.4612" lon="5.27859">
        <ele>196.4</ele>
        <time>2021-10-30T13:38:14Z</time>
      </trkpt>
      <trkpt lat="46.46121" lon="5.27891">
        <ele>197.4</ele>
        <time>2021-10-30T13:38:19Z</time>
      </trkpt>
      <trkpt lat="46.46122" lon="5.27916">
        <ele>198.6</ele>
        <time>2021-10-30T13:38:23Z</time>
      </trkpt>
      <trkpt lat="46.46122" lon="5.27922">
        <ele>198.8</ele>
        <time>2021-10-30T13:38:24Z</time>
      </trkpt>
      <trkpt lat="46.46123" lon="5.27934">
        <ele>199.4</ele>
        <time>2021-10-30T13:38:26Z</time>
      </trkpt>
      <trkpt lat="46.46125" lon="5.27945">
        <ele>200</ele>
        <time>2021-10-30T13:38:28Z</time>
      </trkpt>
      <trkpt lat="46.46127" lon="5.2795">
        <ele>200.6</ele>
        <time>2021-10-30T13:38:29Z</time>
      </trkpt>
      <trkpt lat="46.46131" lon="5.2796">
        <ele>201</ele>
        <time>2021-10-30T13:38:31Z</time>
      </trkpt>
      <trkpt lat="46.46144" lon="5.27975">
        <ele>202.4</ele>
        <time>2021-10-30T13:38:35Z</time>
      </trkpt>
      <trkpt lat="46.46151" lon="5.27981">
        <ele>203.2</ele>
        <time>2021-10-30T13:38:37Z</time>
      </trkpt>
      <trkpt lat="46.46154" lon="5.27985">
        <ele>203.8</ele>
        <time>2021-10-30T13:38:38Z</time>
      </trkpt>
      <trkpt lat="46.46166" lon="5.27992">
        <ele>204.8</ele>
        <time>2021-10-30T13:38:41Z</time>
      </trkpt>
      <trkpt lat="46.46174" lon="5.27997">
        <ele>206</ele>
        <time>2021-10-30T13:38:43Z</time>
      </trkpt>
      <trkpt lat="46.46177" lon="5.27999">
        <ele>206.2</ele>
        <time>2021-10-30T13:38:44Z</time>
      </trkpt>
      <trkpt lat="46.46189" lon="5.28005">
        <ele>207.6</ele>
        <time>2021-10-30T13:38:47Z</time>
      </trkpt>
      <trkpt lat="46.46194" lon="5.28014">
        <ele>208.2</ele>
        <time>2021-10-30T13:38:49Z</time>
      </trkpt>
      <trkpt lat="46.46194" lon="5.2802">
        <ele>208.6</ele>
        <time>2021-10-30T13:38:50Z</time>
      </trkpt>
      <trkpt lat="46.46193" lon="5.28041">
        <ele>209</ele>
        <time>2021-10-30T13:38:53Z</time>
      </trkpt>
      <trkpt lat="46.4619" lon="5.28082">
        <ele>209.2</ele>
        <time>2021-10-30T13:38:58Z</time>
      </trkpt>
      <trkpt lat="46.46185" lon="5.28131">
        <ele>208.8</ele>
        <time>2021-10-30T13:39:04Z</time>
      </trkpt>
      <trkpt lat="46.46177" lon="5.2819">
        <ele>208.8</ele>
        <time>2021-10-30T13:39:12Z</time>
      </trkpt>
      <trkpt lat="46.4617" lon="5.28233">
        <ele>209</ele>
        <time>2021-10-30T13:39:17Z</time>
      </trkpt>
      <trkpt lat="46.46167" lon="5.28264">
        <ele>208.6</ele>
        <time>2021-10-30T13:39:20Z</time>
      </trkpt>
      <trkpt lat="46.46167" lon="5.28286">
        <ele>208.4</ele>
        <time>2021-10-30T13:39:22Z</time>
      </trkpt>
      <trkpt lat="46.4617" lon="5.2831">
        <ele>207.6</ele>
        <time>2021-10-30T13:39:24Z</time>
      </trkpt>
      <trkpt lat="46.46176" lon="5.2836">
        <ele>206.4</ele>
        <time>2021-10-30T13:39:28Z</time>
      </trkpt>
      <trkpt lat="46.4618" lon="5.28387">
        <ele>205.2</ele>
        <time>2021-10-30T13:39:30Z</time>
      </trkpt>
      <trkpt lat="46.46186" lon="5.28425">
        <ele>204</ele>
        <time>2021-10-30T13:39:33Z</time>
      </trkpt>
      <trkpt lat="46.46193" lon="5.28471">
        <ele>203.8</ele>
        <time>2021-10-30T13:39:37Z</time>
      </trkpt>
      <trkpt lat="46.46199" lon="5.28516">
        <ele>204.6</ele>
        <time>2021-10-30T13:39:42Z</time>
      </trkpt>
      <trkpt lat="46.462" lon="5.28524">
        <ele>205.2</ele>
        <time>2021-10-30T13:39:43Z</time>
      </trkpt>
      <trkpt lat="46.46204" lon="5.28548">
        <ele>206.4</ele>
        <time>2021-10-30T13:39:46Z</time>
      </trkpt>
      <trkpt lat="46.46209" lon="5.28578">
        <ele>207.2</ele>
        <time>2021-10-30T13:39:50Z</time>
      </trkpt>
      <trkpt lat="46.4621" lon="5.28586">
        <ele>207.6</ele>
        <time>2021-10-30T13:39:51Z</time>
      </trkpt>
      <trkpt lat="46.46214" lon="5.28622">
        <ele>209</ele>
        <time>2021-10-30T13:39:56Z</time>
      </trkpt>
      <trkpt lat="46.46216" lon="5.28638">
        <ele>209.8</ele>
        <time>2021-10-30T13:39:58Z</time>
      </trkpt>
      <trkpt lat="46.46217" lon="5.28645">
        <ele>210</ele>
        <time>2021-10-30T13:39:59Z</time>
      </trkpt>
      <trkpt lat="46.46222" lon="5.28676">
        <ele>211.4</ele>
        <time>2021-10-30T13:40:03Z</time>
      </trkpt>
      <trkpt lat="46.46224" lon="5.28684">
        <ele>211.6</ele>
        <time>2021-10-30T13:40:04Z</time>
      </trkpt>
      <trkpt lat="46.46227" lon="5.28691">
        <ele>212.4</ele>
        <time>2021-10-30T13:40:05Z</time>
      </trkpt>
      <trkpt lat="46.46231" lon="5.28696">
        <ele>212.8</ele>
        <time>2021-10-30T13:40:06Z</time>
      </trkpt>
      <trkpt lat="46.46236" lon="5.28702">
        <ele>213</ele>
        <time>2021-10-30T13:40:07Z</time>
      </trkpt>
      <trkpt lat="46.4625" lon="5.28714">
        <ele>214</ele>
        <time>2021-10-30T13:40:10Z</time>
      </trkpt>
      <trkpt lat="46.46263" lon="5.28724">
        <ele>215</ele>
        <time>2021-10-30T13:40:13Z</time>
      </trkpt>
      <trkpt lat="46.46268" lon="5.28726">
        <ele>215.4</ele>
        <time>2021-10-30T13:40:14Z</time>
      </trkpt>
      <trkpt lat="46.46277" lon="5.28732">
        <ele>216.4</ele>
        <time>2021-10-30T13:40:16Z</time>
      </trkpt>
      <trkpt lat="46.46291" lon="5.2874">
        <ele>217.4</ele>
        <time>2021-10-30T13:40:19Z</time>
      </trkpt>
      <trkpt lat="46.46309" lon="5.28753">
        <ele>218</ele>
        <time>2021-10-30T13:40:23Z</time>
      </trkpt>
      <trkpt lat="46.46319" lon="5.28759">
        <ele>218.2</ele>
        <time>2021-10-30T13:40:25Z</time>
      </trkpt>
      <trkpt lat="46.46342" lon="5.28775">
        <ele>219</ele>
        <time>2021-10-30T13:40:30Z</time>
      </trkpt>
      <trkpt lat="46.46347" lon="5.28778">
        <ele>219.4</ele>
        <time>2021-10-30T13:40:31Z</time>
      </trkpt>
      <trkpt lat="46.46369" lon="5.28796">
        <ele>220.6</ele>
        <time>2021-10-30T13:40:36Z</time>
      </trkpt>
      <trkpt lat="46.46378" lon="5.28804">
        <ele>221</ele>
        <time>2021-10-30T13:40:38Z</time>
      </trkpt>
      <trkpt lat="46.464" lon="5.28835">
        <ele>221.2</ele>
        <time>2021-10-30T13:40:43Z</time>
      </trkpt>
      <trkpt lat="46.46418" lon="5.2888">
        <ele>221.6</ele>
        <time>2021-10-30T13:40:49Z</time>
      </trkpt>
      <trkpt lat="46.46432" lon="5.2895">
        <ele>222.4</ele>
        <time>2021-10-30T13:40:57Z</time>
      </trkpt>
      <trkpt lat="46.46439" lon="5.28984">
        <ele>222.8</ele>
        <time>2021-10-30T13:41:01Z</time>
      </trkpt>
      <trkpt lat="46.4645" lon="5.29035">
        <ele>223.8</ele>
        <time>2021-10-30T13:41:07Z</time>
      </trkpt>
      <trkpt lat="46.46452" lon="5.29044">
        <ele>223.8</ele>
        <time>2021-10-30T13:41:08Z</time>
      </trkpt>
      <trkpt lat="46.46463" lon="5.29099">
        <ele>223.8</ele>
        <time>2021-10-30T13:41:14Z</time>
      </trkpt>
      <trkpt lat="46.46478" lon="5.29166">
        <ele>223.4</ele>
        <time>2021-10-30T13:41:21Z</time>
      </trkpt>
      <trkpt lat="46.46495" lon="5.29252">
        <ele>223.2</ele>
        <time>2021-10-30T13:41:29Z</time>
      </trkpt>
      <trkpt lat="46.4651" lon="5.29323">
        <ele>222.4</ele>
        <time>2021-10-30T13:41:35Z</time>
      </trkpt>
      <trkpt lat="46.46513" lon="5.29334">
        <ele>222.4</ele>
        <time>2021-10-30T13:41:36Z</time>
      </trkpt>
      <trkpt lat="46.46524" lon="5.29391">
        <ele>221.4</ele>
        <time>2021-10-30T13:41:41Z</time>
      </trkpt>
      <trkpt lat="46.46531" lon="5.29424">
        <ele>221</ele>
        <time>2021-10-30T13:41:44Z</time>
      </trkpt>
      <trkpt lat="46.46549" lon="5.29502">
        <ele>221.2</ele>
        <time>2021-10-30T13:41:51Z</time>
      </trkpt>
      <trkpt lat="46.46552" lon="5.29514">
        <ele>221.2</ele>
        <time>2021-10-30T13:41:52Z</time>
      </trkpt>
      <trkpt lat="46.46569" lon="5.29567">
        <ele>220.6</ele>
        <time>2021-10-30T13:41:57Z</time>
      </trkpt>
      <trkpt lat="46.46571" lon="5.29577">
        <ele>220.6</ele>
        <time>2021-10-30T13:41:58Z</time>
      </trkpt>
      <trkpt lat="46.46585" lon="5.29635">
        <ele>220.8</ele>
        <time>2021-10-30T13:42:04Z</time>
      </trkpt>
      <trkpt lat="46.46601" lon="5.29694">
        <ele>222.4</ele>
        <time>2021-10-30T13:42:10Z</time>
      </trkpt>
      <trkpt lat="46.46609" lon="5.29724">
        <ele>223</ele>
        <time>2021-10-30T13:42:13Z</time>
      </trkpt>
      <trkpt lat="46.46625" lon="5.29783">
        <ele>223.6</ele>
        <time>2021-10-30T13:42:19Z</time>
      </trkpt>
      <trkpt lat="46.46635" lon="5.29818">
        <ele>223.8</ele>
        <time>2021-10-30T13:42:23Z</time>
      </trkpt>
      <trkpt lat="46.46639" lon="5.29826">
        <ele>224</ele>
        <time>2021-10-30T13:42:24Z</time>
      </trkpt>
      <trkpt lat="46.46642" lon="5.29835">
        <ele>224.2</ele>
        <time>2021-10-30T13:42:25Z</time>
      </trkpt>
      <trkpt lat="46.46649" lon="5.29864">
        <ele>224.6</ele>
        <time>2021-10-30T13:42:28Z</time>
      </trkpt>
      <trkpt lat="46.46669" lon="5.29945">
        <ele>225.2</ele>
        <time>2021-10-30T13:42:36Z</time>
      </trkpt>
      <trkpt lat="46.46688" lon="5.3002">
        <ele>224.4</ele>
        <time>2021-10-30T13:42:43Z</time>
      </trkpt>
      <trkpt lat="46.467" lon="5.30063">
        <ele>223.2</ele>
        <time>2021-10-30T13:42:47Z</time>
      </trkpt>
      <trkpt lat="46.46706" lon="5.30085">
        <ele>222.8</ele>
        <time>2021-10-30T13:42:49Z</time>
      </trkpt>
      <trkpt lat="46.46726" lon="5.30167">
        <ele>222.4</ele>
        <time>2021-10-30T13:42:57Z</time>
      </trkpt>
      <trkpt lat="46.46736" lon="5.30204">
        <ele>223</ele>
        <time>2021-10-30T13:43:01Z</time>
      </trkpt>
      <trkpt lat="46.46744" lon="5.30221">
        <ele>223.2</ele>
        <time>2021-10-30T13:43:03Z</time>
      </trkpt>
      <trkpt lat="46.46771" lon="5.30254">
        <ele>223.6</ele>
        <time>2021-10-30T13:43:08Z</time>
      </trkpt>
      <trkpt lat="46.46817" lon="5.30308">
        <ele>223.4</ele>
        <time>2021-10-30T13:43:16Z</time>
      </trkpt>
      <trkpt lat="46.46864" lon="5.30365">
        <ele>223.4</ele>
        <time>2021-10-30T13:43:24Z</time>
      </trkpt>
      <trkpt lat="46.46899" lon="5.30388">
        <ele>223.2</ele>
        <time>2021-10-30T13:43:29Z</time>
      </trkpt>
      <trkpt lat="46.46955" lon="5.30411">
        <ele>223</ele>
        <time>2021-10-30T13:43:36Z</time>
      </trkpt>
      <trkpt lat="46.46998" lon="5.30444">
        <ele>222.4</ele>
        <time>2021-10-30T13:43:42Z</time>
      </trkpt>
      <trkpt lat="46.47046" lon="5.30485">
        <ele>223</ele>
        <time>2021-10-30T13:43:49Z</time>
      </trkpt>
      <trkpt lat="46.47052" lon="5.30491">
        <ele>223</ele>
        <time>2021-10-30T13:43:50Z</time>
      </trkpt>
      <trkpt lat="46.47099" lon="5.3053">
        <ele>223.8</ele>
        <time>2021-10-30T13:43:57Z</time>
      </trkpt>
      <trkpt lat="46.47144" lon="5.30554">
        <ele>224</ele>
        <time>2021-10-30T13:44:03Z</time>
      </trkpt>
      <trkpt lat="46.47183" lon="5.30562">
        <ele>224</ele>
        <time>2021-10-30T13:44:08Z</time>
      </trkpt>
      <trkpt lat="46.47216" lon="5.30559">
        <ele>224</ele>
        <time>2021-10-30T13:44:12Z</time>
      </trkpt>
      <trkpt lat="46.47233" lon="5.30562">
        <ele>224</ele>
        <time>2021-10-30T13:44:14Z</time>
      </trkpt>
      <trkpt lat="46.47263" lon="5.30583">
        <ele>223.2</ele>
        <time>2021-10-30T13:44:18Z</time>
      </trkpt>
      <trkpt lat="46.47293" lon="5.30621">
        <ele>223</ele>
        <time>2021-10-30T13:44:23Z</time>
      </trkpt>
      <trkpt lat="46.47306" lon="5.30636">
        <ele>223.2</ele>
        <time>2021-10-30T13:44:25Z</time>
      </trkpt>
      <trkpt lat="46.47315" lon="5.30657">
        <ele>223.2</ele>
        <time>2021-10-30T13:44:27Z</time>
      </trkpt>
      <trkpt lat="46.47318" lon="5.3068">
        <ele>223.4</ele>
        <time>2021-10-30T13:44:29Z</time>
      </trkpt>
      <trkpt lat="46.47318" lon="5.30692">
        <ele>223.4</ele>
        <time>2021-10-30T13:44:30Z</time>
      </trkpt>
      <trkpt lat="46.47322" lon="5.30777">
        <ele>222.6</ele>
        <time>2021-10-30T13:44:37Z</time>
      </trkpt>
      <trkpt lat="46.47322" lon="5.30786">
        <ele>222.6</ele>
        <time>2021-10-30T13:44:38Z</time>
      </trkpt>
      <trkpt lat="46.47327" lon="5.30844">
        <ele>222</ele>
        <time>2021-10-30T13:44:43Z</time>
      </trkpt>
      <trkpt lat="46.4733" lon="5.30868">
        <ele>221.8</ele>
        <time>2021-10-30T13:44:45Z</time>
      </trkpt>
      <trkpt lat="46.47331" lon="5.30879">
        <ele>221.8</ele>
        <time>2021-10-30T13:44:46Z</time>
      </trkpt>
      <trkpt lat="46.47338" lon="5.30894">
        <ele>221.8</ele>
        <time>2021-10-30T13:44:48Z</time>
      </trkpt>
      <trkpt lat="46.4735" lon="5.30898">
        <ele>222</ele>
        <time>2021-10-30T13:44:50Z</time>
      </trkpt>
      <trkpt lat="46.47379" lon="5.30889">
        <ele>222.8</ele>
        <time>2021-10-30T13:44:54Z</time>
      </trkpt>
      <trkpt lat="46.47386" lon="5.30886">
        <ele>223</ele>
        <time>2021-10-30T13:44:55Z</time>
      </trkpt>
      <trkpt lat="46.47425" lon="5.30868">
        <ele>223.2</ele>
        <time>2021-10-30T13:45:00Z</time>
      </trkpt>
      <trkpt lat="46.47478" lon="5.3084">
        <ele>223.2</ele>
        <time>2021-10-30T13:45:07Z</time>
      </trkpt>
      <trkpt lat="46.47508" lon="5.30825">
        <ele>223.2</ele>
        <time>2021-10-30T13:45:11Z</time>
      </trkpt>
      <trkpt lat="46.47543" lon="5.30811">
        <ele>224</ele>
        <time>2021-10-30T13:45:16Z</time>
      </trkpt>
      <trkpt lat="46.4755" lon="5.30809">
        <ele>224</ele>
        <time>2021-10-30T13:45:17Z</time>
      </trkpt>
      <trkpt lat="46.47606" lon="5.30801">
        <ele>224.8</ele>
        <time>2021-10-30T13:45:25Z</time>
      </trkpt>
      <trkpt lat="46.47622" lon="5.30799">
        <ele>224.8</ele>
        <time>2021-10-30T13:45:27Z</time>
      </trkpt>
      <trkpt lat="46.47682" lon="5.3079">
        <ele>224.8</ele>
        <time>2021-10-30T13:45:35Z</time>
      </trkpt>
      <trkpt lat="46.4769" lon="5.30788">
        <ele>224.8</ele>
        <time>2021-10-30T13:45:36Z</time>
      </trkpt>
      <trkpt lat="46.47747" lon="5.3078">
        <ele>224.6</ele>
        <time>2021-10-30T13:45:43Z</time>
      </trkpt>
      <trkpt lat="46.47763" lon="5.30777">
        <ele>224.4</ele>
        <time>2021-10-30T13:45:45Z</time>
      </trkpt>
      <trkpt lat="46.4782" lon="5.30772">
        <ele>223.4</ele>
        <time>2021-10-30T13:45:52Z</time>
      </trkpt>
      <trkpt lat="46.47827" lon="5.30773">
        <ele>223.4</ele>
        <time>2021-10-30T13:45:53Z</time>
      </trkpt>
      <trkpt lat="46.4784" lon="5.30779">
        <ele>223.6</ele>
        <time>2021-10-30T13:45:55Z</time>
      </trkpt>
      <trkpt lat="46.47844" lon="5.30785">
        <ele>223.6</ele>
        <time>2021-10-30T13:45:56Z</time>
      </trkpt>
      <trkpt lat="46.47849" lon="5.30795">
        <ele>224</ele>
        <time>2021-10-30T13:45:58Z</time>
      </trkpt>
      <trkpt lat="46.47852" lon="5.30799">
        <ele>224.8</ele>
        <time>2021-10-30T13:45:59Z</time>
      </trkpt>
      <trkpt lat="46.47857" lon="5.30801">
        <ele>225.8</ele>
        <time>2021-10-30T13:46:00Z</time>
      </trkpt>
      <trkpt lat="46.4787" lon="5.30802">
        <ele>226.2</ele>
        <time>2021-10-30T13:46:02Z</time>
      </trkpt>
      <trkpt lat="46.47886" lon="5.30804">
        <ele>226.4</ele>
        <time>2021-10-30T13:46:04Z</time>
      </trkpt>
      <trkpt lat="46.47895" lon="5.30807">
        <ele>226.4</ele>
        <time>2021-10-30T13:46:05Z</time>
      </trkpt>
      <trkpt lat="46.47943" lon="5.3082">
        <ele>225.2</ele>
        <time>2021-10-30T13:46:10Z</time>
      </trkpt>
      <trkpt lat="46.47954" lon="5.30819">
        <ele>224.2</ele>
        <time>2021-10-30T13:46:11Z</time>
      </trkpt>
      <trkpt lat="46.47975" lon="5.30814">
        <ele>223.2</ele>
        <time>2021-10-30T13:46:13Z</time>
      </trkpt>
      <trkpt lat="46.47994" lon="5.30805">
        <ele>222</ele>
        <time>2021-10-30T13:46:15Z</time>
      </trkpt>
      <trkpt lat="46.4802" lon="5.3079">
        <ele>221.6</ele>
        <time>2021-10-30T13:46:18Z</time>
      </trkpt>
      <trkpt lat="46.48077" lon="5.3076">
        <ele>222.2</ele>
        <time>2021-10-30T13:46:25Z</time>
      </trkpt>
      <trkpt lat="46.48125" lon="5.30734">
        <ele>223</ele>
        <time>2021-10-30T13:46:31Z</time>
      </trkpt>
      <trkpt lat="46.48142" lon="5.30724">
        <ele>223.2</ele>
        <time>2021-10-30T13:46:33Z</time>
      </trkpt>
      <trkpt lat="46.48195" lon="5.30695">
        <ele>222.8</ele>
        <time>2021-10-30T13:46:39Z</time>
      </trkpt>
      <trkpt lat="46.48204" lon="5.30691">
        <ele>222.6</ele>
        <time>2021-10-30T13:46:40Z</time>
      </trkpt>
      <trkpt lat="46.48224" lon="5.30686">
        <ele>222</ele>
        <time>2021-10-30T13:46:42Z</time>
      </trkpt>
      <trkpt lat="46.48235" lon="5.30687">
        <ele>222</ele>
        <time>2021-10-30T13:46:43Z</time>
      </trkpt>
      <trkpt lat="46.48265" lon="5.30694">
        <ele>220.6</ele>
        <time>2021-10-30T13:46:46Z</time>
      </trkpt>
      <trkpt lat="46.48286" lon="5.30699">
        <ele>219.8</ele>
        <time>2021-10-30T13:46:48Z</time>
      </trkpt>
      <trkpt lat="46.48297" lon="5.307">
        <ele>219.6</ele>
        <time>2021-10-30T13:46:49Z</time>
      </trkpt>
      <trkpt lat="46.48317" lon="5.30697">
        <ele>219.4</ele>
        <time>2021-10-30T13:46:51Z</time>
      </trkpt>
      <trkpt lat="46.48337" lon="5.30688">
        <ele>218.6</ele>
        <time>2021-10-30T13:46:53Z</time>
      </trkpt>
      <trkpt lat="46.48345" lon="5.30681">
        <ele>218.6</ele>
        <time>2021-10-30T13:46:54Z</time>
      </trkpt>
      <trkpt lat="46.48386" lon="5.30644">
        <ele>218.2</ele>
        <time>2021-10-30T13:46:59Z</time>
      </trkpt>
      <trkpt lat="46.48431" lon="5.306">
        <ele>218.6</ele>
        <time>2021-10-30T13:47:05Z</time>
      </trkpt>
      <trkpt lat="46.48438" lon="5.30593">
        <ele>218.6</ele>
        <time>2021-10-30T13:47:06Z</time>
      </trkpt>
      <trkpt lat="46.48484" lon="5.3055">
        <ele>219</ele>
        <time>2021-10-30T13:47:12Z</time>
      </trkpt>
      <trkpt lat="46.48506" lon="5.30528">
        <ele>219.6</ele>
        <time>2021-10-30T13:47:15Z</time>
      </trkpt>
      <trkpt lat="46.48529" lon="5.3051">
        <ele>220</ele>
        <time>2021-10-30T13:47:18Z</time>
      </trkpt>
      <trkpt lat="46.48553" lon="5.30496">
        <ele>220.4</ele>
        <time>2021-10-30T13:47:21Z</time>
      </trkpt>
      <trkpt lat="46.4857" lon="5.30491">
        <ele>220.6</ele>
        <time>2021-10-30T13:47:23Z</time>
      </trkpt>
      <trkpt lat="46.48587" lon="5.30491">
        <ele>220.2</ele>
        <time>2021-10-30T13:47:25Z</time>
      </trkpt>
      <trkpt lat="46.48646" lon="5.30501">
        <ele>219.8</ele>
        <time>2021-10-30T13:47:32Z</time>
      </trkpt>
      <trkpt lat="46.48695" lon="5.30498">
        <ele>219.6</ele>
        <time>2021-10-30T13:47:38Z</time>
      </trkpt>
      <trkpt lat="46.48703" lon="5.30498">
        <ele>219.4</ele>
        <time>2021-10-30T13:47:39Z</time>
      </trkpt>
      <trkpt lat="46.48711" lon="5.30499">
        <ele>219.4</ele>
        <time>2021-10-30T13:47:40Z</time>
      </trkpt>
      <trkpt lat="46.48719" lon="5.305">
        <ele>219.4</ele>
        <time>2021-10-30T13:47:41Z</time>
      </trkpt>
      <trkpt lat="46.48727" lon="5.30503">
        <ele>219.4</ele>
        <time>2021-10-30T13:47:42Z</time>
      </trkpt>
      <trkpt lat="46.48772" lon="5.30524">
        <ele>219.6</ele>
        <time>2021-10-30T13:47:48Z</time>
      </trkpt>
      <trkpt lat="46.48819" lon="5.30539">
        <ele>220</ele>
        <time>2021-10-30T13:47:54Z</time>
      </trkpt>
      <trkpt lat="46.48875" lon="5.30539">
        <ele>219.8</ele>
        <time>2021-10-30T13:48:01Z</time>
      </trkpt>
      <trkpt lat="46.48932" lon="5.30518">
        <ele>219.8</ele>
        <time>2021-10-30T13:48:08Z</time>
      </trkpt>
      <trkpt lat="46.48989" lon="5.30495">
        <ele>219.4</ele>
        <time>2021-10-30T13:48:15Z</time>
      </trkpt>
      <trkpt lat="46.48997" lon="5.30492">
        <ele>219.4</ele>
        <time>2021-10-30T13:48:16Z</time>
      </trkpt>
      <trkpt lat="46.49054" lon="5.30469">
        <ele>219.4</ele>
        <time>2021-10-30T13:48:23Z</time>
      </trkpt>
      <trkpt lat="46.49095" lon="5.30452">
        <ele>219.2</ele>
        <time>2021-10-30T13:48:28Z</time>
      </trkpt>
      <trkpt lat="46.49151" lon="5.30429">
        <ele>218.6</ele>
        <time>2021-10-30T13:48:35Z</time>
      </trkpt>
      <trkpt lat="46.49184" lon="5.30415">
        <ele>218.6</ele>
        <time>2021-10-30T13:48:39Z</time>
      </trkpt>
      <trkpt lat="46.49234" lon="5.30394">
        <ele>218.4</ele>
        <time>2021-10-30T13:48:45Z</time>
      </trkpt>
      <trkpt lat="46.49285" lon="5.30375">
        <ele>217.8</ele>
        <time>2021-10-30T13:48:51Z</time>
      </trkpt>
      <trkpt lat="46.49346" lon="5.30351">
        <ele>218</ele>
        <time>2021-10-30T13:48:58Z</time>
      </trkpt>
      <trkpt lat="46.49388" lon="5.30334">
        <ele>218</ele>
        <time>2021-10-30T13:49:03Z</time>
      </trkpt>
      <trkpt lat="46.49441" lon="5.30311">
        <ele>217.8</ele>
        <time>2021-10-30T13:49:09Z</time>
      </trkpt>
      <trkpt lat="46.49457" lon="5.30299">
        <ele>217.8</ele>
        <time>2021-10-30T13:49:11Z</time>
      </trkpt>
      <trkpt lat="46.49472" lon="5.30284">
        <ele>217.8</ele>
        <time>2021-10-30T13:49:13Z</time>
      </trkpt>
      <trkpt lat="46.49485" lon="5.30264">
        <ele>217.2</ele>
        <time>2021-10-30T13:49:15Z</time>
      </trkpt>
      <trkpt lat="46.49514" lon="5.30206">
        <ele>215.8</ele>
        <time>2021-10-30T13:49:20Z</time>
      </trkpt>
      <trkpt lat="46.4952" lon="5.30195">
        <ele>215.4</ele>
        <time>2021-10-30T13:49:21Z</time>
      </trkpt>
      <trkpt lat="46.49536" lon="5.30177">
        <ele>214.8</ele>
        <time>2021-10-30T13:49:23Z</time>
      </trkpt>
      <trkpt lat="46.49544" lon="5.3017">
        <ele>214.6</ele>
        <time>2021-10-30T13:49:24Z</time>
      </trkpt>
      <trkpt lat="46.49578" lon="5.30146">
        <ele>213.8</ele>
        <time>2021-10-30T13:49:28Z</time>
      </trkpt>
      <trkpt lat="46.49607" lon="5.3012">
        <ele>213.6</ele>
        <time>2021-10-30T13:49:32Z</time>
      </trkpt>
      <trkpt lat="46.49641" lon="5.3008">
        <ele>214</ele>
        <time>2021-10-30T13:49:37Z</time>
      </trkpt>
      <trkpt lat="46.49647" lon="5.30069">
        <ele>214</ele>
        <time>2021-10-30T13:49:38Z</time>
      </trkpt>
      <trkpt lat="46.49664" lon="5.30019">
        <ele>214</ele>
        <time>2021-10-30T13:49:42Z</time>
      </trkpt>
      <trkpt lat="46.4967" lon="5.29992">
        <ele>212.8</ele>
        <time>2021-10-30T13:49:44Z</time>
      </trkpt>
      <trkpt lat="46.49676" lon="5.29964">
        <ele>211.2</ele>
        <time>2021-10-30T13:49:46Z</time>
      </trkpt>
      <trkpt lat="46.49682" lon="5.29937">
        <ele>210.2</ele>
        <time>2021-10-30T13:49:48Z</time>
      </trkpt>
      <trkpt lat="46.49696" lon="5.29875">
        <ele>209.6</ele>
        <time>2021-10-30T13:49:53Z</time>
      </trkpt>
      <trkpt lat="46.49703" lon="5.29853">
        <ele>209.6</ele>
        <time>2021-10-30T13:49:55Z</time>
      </trkpt>
      <trkpt lat="46.49712" lon="5.29835">
        <ele>210</ele>
        <time>2021-10-30T13:49:57Z</time>
      </trkpt>
      <trkpt lat="46.49741" lon="5.29799">
        <ele>211.2</ele>
        <time>2021-10-30T13:50:02Z</time>
      </trkpt>
      <trkpt lat="46.49746" lon="5.29794">
        <ele>211.6</ele>
        <time>2021-10-30T13:50:03Z</time>
      </trkpt>
      <trkpt lat="46.4976" lon="5.2979">
        <ele>211.8</ele>
        <time>2021-10-30T13:50:05Z</time>
      </trkpt>
      <trkpt lat="46.49782" lon="5.29791">
        <ele>212.2</ele>
        <time>2021-10-30T13:50:08Z</time>
      </trkpt>
      <trkpt lat="46.49797" lon="5.29794">
        <ele>212.6</ele>
        <time>2021-10-30T13:50:10Z</time>
      </trkpt>
      <trkpt lat="46.49837" lon="5.29808">
        <ele>212.6</ele>
        <time>2021-10-30T13:50:16Z</time>
      </trkpt>
      <trkpt lat="46.49895" lon="5.29833">
        <ele>212</ele>
        <time>2021-10-30T13:50:23Z</time>
      </trkpt>
      <trkpt lat="46.4995" lon="5.29852">
        <ele>211.2</ele>
        <time>2021-10-30T13:50:29Z</time>
      </trkpt>
      <trkpt lat="46.49969" lon="5.29855">
        <ele>210.6</ele>
        <time>2021-10-30T13:50:31Z</time>
      </trkpt>
      <trkpt lat="46.49987" lon="5.29859">
        <ele>210</ele>
        <time>2021-10-30T13:50:33Z</time>
      </trkpt>
      <trkpt lat="46.50006" lon="5.29863">
        <ele>209.4</ele>
        <time>2021-10-30T13:50:35Z</time>
      </trkpt>
      <trkpt lat="46.50015" lon="5.29868">
        <ele>209.2</ele>
        <time>2021-10-30T13:50:36Z</time>
      </trkpt>
      <trkpt lat="46.50023" lon="5.29876">
        <ele>209.2</ele>
        <time>2021-10-30T13:50:37Z</time>
      </trkpt>
      <trkpt lat="46.50031" lon="5.29884">
        <ele>209</ele>
        <time>2021-10-30T13:50:38Z</time>
      </trkpt>
      <trkpt lat="46.50044" lon="5.299">
        <ele>208.8</ele>
        <time>2021-10-30T13:50:40Z</time>
      </trkpt>
      <trkpt lat="46.50067" lon="5.29937">
        <ele>209</ele>
        <time>2021-10-30T13:50:44Z</time>
      </trkpt>
      <trkpt lat="46.50078" lon="5.29969">
        <ele>209</ele>
        <time>2021-10-30T13:50:47Z</time>
      </trkpt>
      <trkpt lat="46.5008" lon="5.2998">
        <ele>209</ele>
        <time>2021-10-30T13:50:48Z</time>
      </trkpt>
      <trkpt lat="46.50086" lon="5.30035">
        <ele>209.4</ele>
        <time>2021-10-30T13:50:53Z</time>
      </trkpt>
      <trkpt lat="46.50087" lon="5.30114">
        <ele>210</ele>
        <time>2021-10-30T13:51:00Z</time>
      </trkpt>
      <trkpt lat="46.50086" lon="5.30148">
        <ele>210</ele>
        <time>2021-10-30T13:51:03Z</time>
      </trkpt>
      <trkpt lat="46.50084" lon="5.30215">
        <ele>209.6</ele>
        <time>2021-10-30T13:51:09Z</time>
      </trkpt>
      <trkpt lat="46.50084" lon="5.30236">
        <ele>209.4</ele>
        <time>2021-10-30T13:51:11Z</time>
      </trkpt>
      <trkpt lat="46.50084" lon="5.30275">
        <ele>209</ele>
        <time>2021-10-30T13:51:15Z</time>
      </trkpt>
      <trkpt lat="46.50083" lon="5.30286">
        <ele>209</ele>
        <time>2021-10-30T13:51:16Z</time>
      </trkpt>
      <trkpt lat="46.50083" lon="5.30296">
        <ele>209</ele>
        <time>2021-10-30T13:51:17Z</time>
      </trkpt>
      <trkpt lat="46.5009" lon="5.30314">
        <ele>208.8</ele>
        <time>2021-10-30T13:51:19Z</time>
      </trkpt>
      <trkpt lat="46.50103" lon="5.30319">
        <ele>208.8</ele>
        <time>2021-10-30T13:51:21Z</time>
      </trkpt>
      <trkpt lat="46.50141" lon="5.30307">
        <ele>208.6</ele>
        <time>2021-10-30T13:51:26Z</time>
      </trkpt>
      <trkpt lat="46.50182" lon="5.30296">
        <ele>209</ele>
        <time>2021-10-30T13:51:31Z</time>
      </trkpt>
      <trkpt lat="46.5022" lon="5.30277">
        <ele>210</ele>
        <time>2021-10-30T13:51:36Z</time>
      </trkpt>
      <trkpt lat="46.5025" lon="5.30262">
        <ele>211</ele>
        <time>2021-10-30T13:51:40Z</time>
      </trkpt>
      <trkpt lat="46.50287" lon="5.30249">
        <ele>212</ele>
        <time>2021-10-30T13:51:45Z</time>
      </trkpt>
      <trkpt lat="46.50301" lon="5.30245">
        <ele>212.6</ele>
        <time>2021-10-30T13:51:47Z</time>
      </trkpt>
      <trkpt lat="46.50323" lon="5.30241">
        <ele>213.2</ele>
        <time>2021-10-30T13:51:50Z</time>
      </trkpt>
      <trkpt lat="46.50358" lon="5.30236">
        <ele>213.8</ele>
        <time>2021-10-30T13:51:55Z</time>
      </trkpt>
      <trkpt lat="46.50387" lon="5.30231">
        <ele>214.2</ele>
        <time>2021-10-30T13:51:59Z</time>
      </trkpt>
      <trkpt lat="46.5043" lon="5.30223">
        <ele>214.4</ele>
        <time>2021-10-30T13:52:05Z</time>
      </trkpt>
      <trkpt lat="46.50475" lon="5.30207">
        <ele>214.4</ele>
        <time>2021-10-30T13:52:11Z</time>
      </trkpt>
      <trkpt lat="46.50526" lon="5.30181">
        <ele>213.8</ele>
        <time>2021-10-30T13:52:17Z</time>
      </trkpt>
      <trkpt lat="46.5055" lon="5.30168">
        <ele>213</ele>
        <time>2021-10-30T13:52:20Z</time>
      </trkpt>
      <trkpt lat="46.50583" lon="5.3015">
        <ele>212.8</ele>
        <time>2021-10-30T13:52:24Z</time>
      </trkpt>
      <trkpt lat="46.5064" lon="5.30122">
        <ele>212.8</ele>
        <time>2021-10-30T13:52:31Z</time>
      </trkpt>
      <trkpt lat="46.50665" lon="5.30112">
        <ele>212.8</ele>
        <time>2021-10-30T13:52:34Z</time>
      </trkpt>
      <trkpt lat="46.50719" lon="5.30099">
        <ele>212.4</ele>
        <time>2021-10-30T13:52:40Z</time>
      </trkpt>
      <trkpt lat="46.50765" lon="5.30094">
        <ele>212</ele>
        <time>2021-10-30T13:52:45Z</time>
      </trkpt>
      <trkpt lat="46.50777" lon="5.30094">
        <ele>212</ele>
        <time>2021-10-30T13:52:46Z</time>
      </trkpt>
      <trkpt lat="46.50832" lon="5.30099">
        <ele>211.2</ele>
        <time>2021-10-30T13:52:52Z</time>
      </trkpt>
      <trkpt lat="46.5085" lon="5.30102">
        <ele>211.4</ele>
        <time>2021-10-30T13:52:54Z</time>
      </trkpt>
      <trkpt lat="46.50895" lon="5.3012">
        <ele>211.8</ele>
        <time>2021-10-30T13:52:59Z</time>
      </trkpt>
      <trkpt lat="46.50948" lon="5.30147">
        <ele>212</ele>
        <time>2021-10-30T13:53:05Z</time>
      </trkpt>
      <trkpt lat="46.50976" lon="5.30162">
        <ele>212</ele>
        <time>2021-10-30T13:53:08Z</time>
      </trkpt>
      <trkpt lat="46.51023" lon="5.30193">
        <ele>210.8</ele>
        <time>2021-10-30T13:53:13Z</time>
      </trkpt>
      <trkpt lat="46.51054" lon="5.3022">
        <ele>209.4</ele>
        <time>2021-10-30T13:53:16Z</time>
      </trkpt>
      <trkpt lat="46.51073" lon="5.3024">
        <ele>208</ele>
        <time>2021-10-30T13:53:18Z</time>
      </trkpt>
      <trkpt lat="46.51083" lon="5.30251">
        <ele>206.6</ele>
        <time>2021-10-30T13:53:19Z</time>
      </trkpt>
      <trkpt lat="46.51102" lon="5.30274">
        <ele>205.6</ele>
        <time>2021-10-30T13:53:21Z</time>
      </trkpt>
      <trkpt lat="46.51111" lon="5.30285">
        <ele>204.4</ele>
        <time>2021-10-30T13:53:22Z</time>
      </trkpt>
      <trkpt lat="46.51132" lon="5.30306">
        <ele>203.2</ele>
        <time>2021-10-30T13:53:24Z</time>
      </trkpt>
      <trkpt lat="46.51167" lon="5.30328">
        <ele>202</ele>
        <time>2021-10-30T13:53:27Z</time>
      </trkpt>
      <trkpt lat="46.51191" lon="5.30335">
        <ele>199.8</ele>
        <time>2021-10-30T13:53:29Z</time>
      </trkpt>
      <trkpt lat="46.51214" lon="5.30339">
        <ele>198.4</ele>
        <time>2021-10-30T13:53:31Z</time>
      </trkpt>
      <trkpt lat="46.51226" lon="5.30337">
        <ele>198</ele>
        <time>2021-10-30T13:53:32Z</time>
      </trkpt>
      <trkpt lat="46.51238" lon="5.30334">
        <ele>196.8</ele>
        <time>2021-10-30T13:53:33Z</time>
      </trkpt>
      <trkpt lat="46.5125" lon="5.3033">
        <ele>196.2</ele>
        <time>2021-10-30T13:53:34Z</time>
      </trkpt>
      <trkpt lat="46.51262" lon="5.30326">
        <ele>195.8</ele>
        <time>2021-10-30T13:53:35Z</time>
      </trkpt>
      <trkpt lat="46.51315" lon="5.30304">
        <ele>195</ele>
        <time>2021-10-30T13:53:40Z</time>
      </trkpt>
      <trkpt lat="46.51325" lon="5.30298">
        <ele>194.8</ele>
        <time>2021-10-30T13:53:41Z</time>
      </trkpt>
      <trkpt lat="46.51343" lon="5.30281">
        <ele>194.8</ele>
        <time>2021-10-30T13:53:43Z</time>
      </trkpt>
      <trkpt lat="46.51362" lon="5.30268">
        <ele>194.8</ele>
        <time>2021-10-30T13:53:45Z</time>
      </trkpt>
      <trkpt lat="46.51373" lon="5.30266">
        <ele>194.8</ele>
        <time>2021-10-30T13:53:46Z</time>
      </trkpt>
      <trkpt lat="46.51385" lon="5.30267">
        <ele>194.8</ele>
        <time>2021-10-30T13:53:47Z</time>
      </trkpt>
      <trkpt lat="46.51394" lon="5.30273">
        <ele>194.8</ele>
        <time>2021-10-30T13:53:48Z</time>
      </trkpt>
      <trkpt lat="46.514" lon="5.30282">
        <ele>194.8</ele>
        <time>2021-10-30T13:53:49Z</time>
      </trkpt>
      <trkpt lat="46.51405" lon="5.30293">
        <ele>194.8</ele>
        <time>2021-10-30T13:53:50Z</time>
      </trkpt>
      <trkpt lat="46.5143" lon="5.30373">
        <ele>194.8</ele>
        <time>2021-10-30T13:53:57Z</time>
      </trkpt>
      <trkpt lat="46.51452" lon="5.3044">
        <ele>194.8</ele>
        <time>2021-10-30T13:54:03Z</time>
      </trkpt>
      <trkpt lat="46.51475" lon="5.30522">
        <ele>195</ele>
        <time>2021-10-30T13:54:10Z</time>
      </trkpt>
      <trkpt lat="46.51477" lon="5.30533">
        <ele>195</ele>
        <time>2021-10-30T13:54:11Z</time>
      </trkpt>
      <trkpt lat="46.51485" lon="5.30592">
        <ele>195</ele>
        <time>2021-10-30T13:54:16Z</time>
      </trkpt>
      <trkpt lat="46.51488" lon="5.306">
        <ele>195</ele>
        <time>2021-10-30T13:54:17Z</time>
      </trkpt>
      <trkpt lat="46.51492" lon="5.30613">
        <ele>195</ele>
        <time>2021-10-30T13:54:18Z</time>
      </trkpt>
      <trkpt lat="46.51506" lon="5.30642">
        <ele>195</ele>
        <time>2021-10-30T13:54:21Z</time>
      </trkpt>
      <trkpt lat="46.5154" lon="5.30696">
        <ele>195.2</ele>
        <time>2021-10-30T13:54:27Z</time>
      </trkpt>
      <trkpt lat="46.51579" lon="5.30756">
        <ele>194.8</ele>
        <time>2021-10-30T13:54:34Z</time>
      </trkpt>
      <trkpt lat="46.5159" lon="5.30773">
        <ele>194.8</ele>
        <time>2021-10-30T13:54:36Z</time>
      </trkpt>
      <trkpt lat="46.51619" lon="5.30833">
        <ele>195.6</ele>
        <time>2021-10-30T13:54:42Z</time>
      </trkpt>
      <trkpt lat="46.51628" lon="5.30862">
        <ele>195.8</ele>
        <time>2021-10-30T13:54:45Z</time>
      </trkpt>
      <trkpt lat="46.51632" lon="5.30881">
        <ele>196</ele>
        <time>2021-10-30T13:54:47Z</time>
      </trkpt>
      <trkpt lat="46.51642" lon="5.30939">
        <ele>197</ele>
        <time>2021-10-30T13:54:53Z</time>
      </trkpt>
      <trkpt lat="46.51644" lon="5.30948">
        <ele>197.6</ele>
        <time>2021-10-30T13:54:54Z</time>
      </trkpt>
      <trkpt lat="46.51646" lon="5.30966">
        <ele>198.2</ele>
        <time>2021-10-30T13:54:56Z</time>
      </trkpt>
      <trkpt lat="46.51651" lon="5.30994">
        <ele>199.4</ele>
        <time>2021-10-30T13:54:59Z</time>
      </trkpt>
      <trkpt lat="46.51656" lon="5.31029">
        <ele>200.6</ele>
        <time>2021-10-30T13:55:03Z</time>
      </trkpt>
      <trkpt lat="46.51661" lon="5.31062">
        <ele>201.8</ele>
        <time>2021-10-30T13:55:07Z</time>
      </trkpt>
      <trkpt lat="46.51663" lon="5.31085">
        <ele>202.4</ele>
        <time>2021-10-30T13:55:10Z</time>
      </trkpt>
      <trkpt lat="46.5166" lon="5.31093">
        <ele>202.4</ele>
        <time>2021-10-30T13:55:11Z</time>
      </trkpt>
      <trkpt lat="46.51657" lon="5.31098">
        <ele>202.8</ele>
        <time>2021-10-30T13:55:12Z</time>
      </trkpt>
      <trkpt lat="46.51647" lon="5.31104">
        <ele>203</ele>
        <time>2021-10-30T13:55:14Z</time>
      </trkpt>
      <trkpt lat="46.51635" lon="5.31104">
        <ele>203.2</ele>
        <time>2021-10-30T13:55:16Z</time>
      </trkpt>
      <trkpt lat="46.51628" lon="5.31101">
        <ele>203.2</ele>
        <time>2021-10-30T13:55:17Z</time>
      </trkpt>
      <trkpt lat="46.51587" lon="5.31081">
        <ele>201.8</ele>
        <time>2021-10-30T13:55:23Z</time>
      </trkpt>
      <trkpt lat="46.51573" lon="5.31077">
        <ele>200.6</ele>
        <time>2021-10-30T13:55:25Z</time>
      </trkpt>
      <trkpt lat="46.51538" lon="5.31073">
        <ele>199.6</ele>
        <time>2021-10-30T13:55:30Z</time>
      </trkpt>
      <trkpt lat="46.51531" lon="5.31073">
        <ele>199.6</ele>
        <time>2021-10-30T13:55:31Z</time>
      </trkpt>
      <trkpt lat="46.51477" lon="5.31069">
        <ele>199.4</ele>
        <time>2021-10-30T13:55:39Z</time>
      </trkpt>
      <trkpt lat="46.51424" lon="5.31069">
        <ele>199.4</ele>
        <time>2021-10-30T13:55:47Z</time>
      </trkpt>
      <trkpt lat="46.51366" lon="5.31072">
        <ele>199.2</ele>
        <time>2021-10-30T13:55:56Z</time>
      </trkpt>
      <trkpt lat="46.51353" lon="5.31072">
        <ele>199.2</ele>
        <time>2021-10-30T13:55:58Z</time>
      </trkpt>
      <trkpt lat="46.51293" lon="5.31075">
        <ele>199.4</ele>
        <time>2021-10-30T13:56:07Z</time>
      </trkpt>
      <trkpt lat="46.51287" lon="5.31075">
        <ele>199.4</ele>
        <time>2021-10-30T13:56:08Z</time>
      </trkpt>
      <trkpt lat="46.51258" lon="5.3108">
        <ele>199.2</ele>
        <time>2021-10-30T13:56:12Z</time>
      </trkpt>
      <trkpt lat="46.51246" lon="5.31087">
        <ele>199.2</ele>
        <time>2021-10-30T13:56:14Z</time>
      </trkpt>
      <trkpt lat="46.51226" lon="5.31109">
        <ele>199.2</ele>
        <time>2021-10-30T13:56:18Z</time>
      </trkpt>
      <trkpt lat="46.51199" lon="5.31141">
        <ele>200</ele>
        <time>2021-10-30T13:56:25Z</time>
      </trkpt>
      <trkpt lat="46.51183" lon="5.31154">
        <ele>200.8</ele>
        <time>2021-10-30T13:56:28Z</time>
      </trkpt>
      <trkpt lat="46.51179" lon="5.3116">
        <ele>201</ele>
        <time>2021-10-30T13:56:29Z</time>
      </trkpt>
      <trkpt lat="46.5117" lon="5.31172">
        <ele>201.4</ele>
        <time>2021-10-30T13:56:31Z</time>
      </trkpt>
      <trkpt lat="46.51141" lon="5.31209">
        <ele>202</ele>
        <time>2021-10-30T13:56:37Z</time>
      </trkpt>
      <trkpt lat="46.51137" lon="5.31214">
        <ele>202</ele>
        <time>2021-10-30T13:56:38Z</time>
      </trkpt>
      <trkpt lat="46.51113" lon="5.31244">
        <ele>202.4</ele>
        <time>2021-10-30T13:56:43Z</time>
      </trkpt>
      <trkpt lat="46.51109" lon="5.3125">
        <ele>202.6</ele>
        <time>2021-10-30T13:56:44Z</time>
      </trkpt>
      <trkpt lat="46.51097" lon="5.31269">
        <ele>203</ele>
        <time>2021-10-30T13:56:47Z</time>
      </trkpt>
      <trkpt lat="46.51077" lon="5.31295">
        <ele>203.6</ele>
        <time>2021-10-30T13:56:51Z</time>
      </trkpt>
      <trkpt lat="46.51065" lon="5.31328">
        <ele>204</ele>
        <time>2021-10-30T13:56:55Z</time>
      </trkpt>
      <trkpt lat="46.51064" lon="5.31338">
        <ele>204.2</ele>
        <time>2021-10-30T13:56:56Z</time>
      </trkpt>
      <trkpt lat="46.51063" lon="5.31356">
        <ele>204.8</ele>
        <time>2021-10-30T13:56:58Z</time>
      </trkpt>
      <trkpt lat="46.51064" lon="5.31362">
        <ele>205</ele>
        <time>2021-10-30T13:56:59Z</time>
      </trkpt>
      <trkpt lat="46.51065" lon="5.31371">
        <ele>205.4</ele>
        <time>2021-10-30T13:57:00Z</time>
      </trkpt>
      <trkpt lat="46.51066" lon="5.31388">
        <ele>205.8</ele>
        <time>2021-10-30T13:57:02Z</time>
      </trkpt>
      <trkpt lat="46.51065" lon="5.31404">
        <ele>206.2</ele>
        <time>2021-10-30T13:57:04Z</time>
      </trkpt>
      <trkpt lat="46.51063" lon="5.31413">
        <ele>206.4</ele>
        <time>2021-10-30T13:57:05Z</time>
      </trkpt>
      <trkpt lat="46.51059" lon="5.31436">
        <ele>207.2</ele>
        <time>2021-10-30T13:57:08Z</time>
      </trkpt>
      <trkpt lat="46.5105" lon="5.31476">
        <ele>208.4</ele>
        <time>2021-10-30T13:57:13Z</time>
      </trkpt>
      <trkpt lat="46.51042" lon="5.3151">
        <ele>209.4</ele>
        <time>2021-10-30T13:57:18Z</time>
      </trkpt>
      <trkpt lat="46.51041" lon="5.31517">
        <ele>209.8</ele>
        <time>2021-10-30T13:57:19Z</time>
      </trkpt>
      <trkpt lat="46.51039" lon="5.31525">
        <ele>209.8</ele>
        <time>2021-10-30T13:57:20Z</time>
      </trkpt>
      <trkpt lat="46.51035" lon="5.31538">
        <ele>210.4</ele>
        <time>2021-10-30T13:57:22Z</time>
      </trkpt>
      <trkpt lat="46.51026" lon="5.31556">
        <ele>211.2</ele>
        <time>2021-10-30T13:57:25Z</time>
      </trkpt>
      <trkpt lat="46.51018" lon="5.31567">
        <ele>211.4</ele>
        <time>2021-10-30T13:57:27Z</time>
      </trkpt>
      <trkpt lat="46.51013" lon="5.31573">
        <ele>211.8</ele>
        <time>2021-10-30T13:57:28Z</time>
      </trkpt>
      <trkpt lat="46.50998" lon="5.31588">
        <ele>212</ele>
        <time>2021-10-30T13:57:31Z</time>
      </trkpt>
      <trkpt lat="46.50966" lon="5.31622">
        <ele>211.6</ele>
        <time>2021-10-30T13:57:37Z</time>
      </trkpt>
      <trkpt lat="46.50917" lon="5.3167">
        <ele>210.8</ele>
        <time>2021-10-30T13:57:46Z</time>
      </trkpt>
      <trkpt lat="46.509" lon="5.31688">
        <ele>211</ele>
        <time>2021-10-30T13:57:50Z</time>
      </trkpt>
      <trkpt lat="46.50871" lon="5.31719">
        <ele>211.8</ele>
        <time>2021-10-30T13:57:56Z</time>
      </trkpt>
      <trkpt lat="46.50848" lon="5.31738">
        <ele>211.8</ele>
        <time>2021-10-30T13:58:00Z</time>
      </trkpt>
      <trkpt lat="46.50841" lon="5.31741">
        <ele>211.8</ele>
        <time>2021-10-30T13:58:01Z</time>
      </trkpt>
      <trkpt lat="46.50835" lon="5.31742">
        <ele>211.8</ele>
        <time>2021-10-30T13:58:02Z</time>
      </trkpt>
      <trkpt lat="46.50822" lon="5.31737">
        <ele>211.6</ele>
        <time>2021-10-30T13:58:04Z</time>
      </trkpt>
      <trkpt lat="46.50784" lon="5.31709">
        <ele>210.2</ele>
        <time>2021-10-30T13:58:10Z</time>
      </trkpt>
      <trkpt lat="46.50771" lon="5.31702">
        <ele>210</ele>
        <time>2021-10-30T13:58:12Z</time>
      </trkpt>
      <trkpt lat="46.50758" lon="5.317">
        <ele>209.8</ele>
        <time>2021-10-30T13:58:14Z</time>
      </trkpt>
      <trkpt lat="46.5071" lon="5.31705">
        <ele>209.6</ele>
        <time>2021-10-30T13:58:21Z</time>
      </trkpt>
      <trkpt lat="46.50671" lon="5.31709">
        <ele>209.8</ele>
        <time>2021-10-30T13:58:27Z</time>
      </trkpt>
      <trkpt lat="46.50659" lon="5.31714">
        <ele>210</ele>
        <time>2021-10-30T13:58:29Z</time>
      </trkpt>
      <trkpt lat="46.50648" lon="5.31725">
        <ele>210</ele>
        <time>2021-10-30T13:58:31Z</time>
      </trkpt>
      <trkpt lat="46.50639" lon="5.3174">
        <ele>210</ele>
        <time>2021-10-30T13:58:33Z</time>
      </trkpt>
      <trkpt lat="46.50624" lon="5.31781">
        <ele>210</ele>
        <time>2021-10-30T13:58:38Z</time>
      </trkpt>
      <trkpt lat="46.50602" lon="5.31845">
        <ele>209.8</ele>
        <time>2021-10-30T13:58:45Z</time>
      </trkpt>
      <trkpt lat="46.50584" lon="5.31889">
        <ele>209</ele>
        <time>2021-10-30T13:58:49Z</time>
      </trkpt>
      <trkpt lat="46.50577" lon="5.31909">
        <ele>208.6</ele>
        <time>2021-10-30T13:58:51Z</time>
      </trkpt>
      <trkpt lat="46.50569" lon="5.31932">
        <ele>207.4</ele>
        <time>2021-10-30T13:58:53Z</time>
      </trkpt>
      <trkpt lat="46.50561" lon="5.31956">
        <ele>206.2</ele>
        <time>2021-10-30T13:58:55Z</time>
      </trkpt>
      <trkpt lat="46.50556" lon="5.31968">
        <ele>205.6</ele>
        <time>2021-10-30T13:58:56Z</time>
      </trkpt>
      <trkpt lat="46.50547" lon="5.31992">
        <ele>205</ele>
        <time>2021-10-30T13:58:58Z</time>
      </trkpt>
      <trkpt lat="46.5054" lon="5.32003">
        <ele>204.6</ele>
        <time>2021-10-30T13:58:59Z</time>
      </trkpt>
      <trkpt lat="46.50534" lon="5.32013">
        <ele>204</ele>
        <time>2021-10-30T13:59:00Z</time>
      </trkpt>
      <trkpt lat="46.50513" lon="5.32043">
        <ele>202.6</ele>
        <time>2021-10-30T13:59:03Z</time>
      </trkpt>
      <trkpt lat="46.50502" lon="5.32061">
        <ele>202</ele>
        <time>2021-10-30T13:59:05Z</time>
      </trkpt>
      <trkpt lat="46.50492" lon="5.32081">
        <ele>201.4</ele>
        <time>2021-10-30T13:59:07Z</time>
      </trkpt>
      <trkpt lat="46.50479" lon="5.3211">
        <ele>201</ele>
        <time>2021-10-30T13:59:10Z</time>
      </trkpt>
      <trkpt lat="46.50464" lon="5.32159">
        <ele>201</ele>
        <time>2021-10-30T13:59:15Z</time>
      </trkpt>
      <trkpt lat="46.50461" lon="5.32168">
        <ele>201</ele>
        <time>2021-10-30T13:59:16Z</time>
      </trkpt>
      <trkpt lat="46.50454" lon="5.32183">
        <ele>201</ele>
        <time>2021-10-30T13:59:18Z</time>
      </trkpt>
      <trkpt lat="46.5044" lon="5.32193">
        <ele>201</ele>
        <time>2021-10-30T13:59:21Z</time>
      </trkpt>
      <trkpt lat="46.50435" lon="5.32195">
        <ele>200.8</ele>
        <time>2021-10-30T13:59:23Z</time>
      </trkpt>
      <trkpt lat="46.50433" lon="5.32194">
        <ele>200.6</ele>
        <time>2021-10-30T13:59:24Z</time>
      </trkpt>
      <trkpt lat="46.50431" lon="5.32194">
        <ele>200.6</ele>
        <time>2021-10-30T13:59:25Z</time>
      </trkpt>
      <trkpt lat="46.50427" lon="5.32201">
        <ele>200.6</ele>
        <time>2021-10-30T13:59:27Z</time>
      </trkpt>
      <trkpt lat="46.50428" lon="5.32238">
        <ele>200.6</ele>
        <time>2021-10-30T13:59:32Z</time>
      </trkpt>
      <trkpt lat="46.50432" lon="5.32291">
        <ele>200.6</ele>
        <time>2021-10-30T13:59:38Z</time>
      </trkpt>
      <trkpt lat="46.50445" lon="5.32356">
        <ele>201.4</ele>
        <time>2021-10-30T13:59:45Z</time>
      </trkpt>
      <trkpt lat="46.50461" lon="5.32434">
        <ele>201.4</ele>
        <time>2021-10-30T13:59:53Z</time>
      </trkpt>
      <trkpt lat="46.50469" lon="5.3251">
        <ele>201.4</ele>
        <time>2021-10-30T14:00:01Z</time>
      </trkpt>
      <trkpt lat="46.50473" lon="5.32567">
        <ele>201.8</ele>
        <time>2021-10-30T14:00:07Z</time>
      </trkpt>
      <trkpt lat="46.50474" lon="5.32594">
        <ele>202.4</ele>
        <time>2021-10-30T14:00:10Z</time>
      </trkpt>
      <trkpt lat="46.50474" lon="5.3263">
        <ele>202.8</ele>
        <time>2021-10-30T14:00:14Z</time>
      </trkpt>
      <trkpt lat="46.50473" lon="5.32708">
        <ele>203.8</ele>
        <time>2021-10-30T14:00:23Z</time>
      </trkpt>
      <trkpt lat="46.50473" lon="5.32716">
        <ele>204</ele>
        <time>2021-10-30T14:00:24Z</time>
      </trkpt>
      <trkpt lat="46.50471" lon="5.32793">
        <ele>204.8</ele>
        <time>2021-10-30T14:00:33Z</time>
      </trkpt>
      <trkpt lat="46.50471" lon="5.32809">
        <ele>204.8</ele>
        <time>2021-10-30T14:00:35Z</time>
      </trkpt>
      <trkpt lat="46.50469" lon="5.32879">
        <ele>205.6</ele>
        <time>2021-10-30T14:00:43Z</time>
      </trkpt>
      <trkpt lat="46.50469" lon="5.32899">
        <ele>205.8</ele>
        <time>2021-10-30T14:00:46Z</time>
      </trkpt>
      <trkpt lat="46.50469" lon="5.32927">
        <ele>207</ele>
        <time>2021-10-30T14:00:50Z</time>
      </trkpt>
      <trkpt lat="46.50468" lon="5.32947">
        <ele>208</ele>
        <time>2021-10-30T14:00:53Z</time>
      </trkpt>
      <trkpt lat="46.50468" lon="5.32985">
        <ele>209</ele>
        <time>2021-10-30T14:00:59Z</time>
      </trkpt>
      <trkpt lat="46.50467" lon="5.32991">
        <ele>209.4</ele>
        <time>2021-10-30T14:01:00Z</time>
      </trkpt>
      <trkpt lat="46.50467" lon="5.3302">
        <ele>210</ele>
        <time>2021-10-30T14:01:05Z</time>
      </trkpt>
      <trkpt lat="46.50467" lon="5.33045">
        <ele>211</ele>
        <time>2021-10-30T14:01:09Z</time>
      </trkpt>
      <trkpt lat="46.50467" lon="5.33052">
        <ele>211.4</ele>
        <time>2021-10-30T14:01:10Z</time>
      </trkpt>
      <trkpt lat="46.50467" lon="5.33083">
        <ele>212.6</ele>
        <time>2021-10-30T14:01:15Z</time>
      </trkpt>
      <trkpt lat="46.50467" lon="5.33102">
        <ele>213.6</ele>
        <time>2021-10-30T14:01:18Z</time>
      </trkpt>
      <trkpt lat="46.50466" lon="5.33114">
        <ele>214.2</ele>
        <time>2021-10-30T14:01:20Z</time>
      </trkpt>
      <trkpt lat="46.50466" lon="5.33134">
        <ele>214.8</ele>
        <time>2021-10-30T14:01:23Z</time>
      </trkpt>
      <trkpt lat="46.50467" lon="5.33172">
        <ele>216</ele>
        <time>2021-10-30T14:01:29Z</time>
      </trkpt>
      <trkpt lat="46.50466" lon="5.33206">
        <ele>217.2</ele>
        <time>2021-10-30T14:01:34Z</time>
      </trkpt>
      <trkpt lat="46.50465" lon="5.33232">
        <ele>217.6</ele>
        <time>2021-10-30T14:01:37Z</time>
      </trkpt>
      <trkpt lat="46.50464" lon="5.33296">
        <ele>217.8</ele>
        <time>2021-10-30T14:01:44Z</time>
      </trkpt>
      <trkpt lat="46.50461" lon="5.33345">
        <ele>217.6</ele>
        <time>2021-10-30T14:01:49Z</time>
      </trkpt>
      <trkpt lat="46.50456" lon="5.33379">
        <ele>217.2</ele>
        <time>2021-10-30T14:01:52Z</time>
      </trkpt>
      <trkpt lat="46.5045" lon="5.33398">
        <ele>217</ele>
        <time>2021-10-30T14:01:54Z</time>
      </trkpt>
      <trkpt lat="46.5043" lon="5.33436">
        <ele>216.8</ele>
        <time>2021-10-30T14:01:59Z</time>
      </trkpt>
      <trkpt lat="46.50405" lon="5.33461">
        <ele>217.2</ele>
        <time>2021-10-30T14:02:04Z</time>
      </trkpt>
      <trkpt lat="46.50392" lon="5.33476">
        <ele>218</ele>
        <time>2021-10-30T14:02:07Z</time>
      </trkpt>
      <trkpt lat="46.50387" lon="5.3348">
        <ele>218.2</ele>
        <time>2021-10-30T14:02:08Z</time>
      </trkpt>
      <trkpt lat="46.50379" lon="5.3349">
        <ele>218.4</ele>
        <time>2021-10-30T14:02:10Z</time>
      </trkpt>
      <trkpt lat="46.50369" lon="5.335">
        <ele>219</ele>
        <time>2021-10-30T14:02:12Z</time>
      </trkpt>
      <trkpt lat="46.50365" lon="5.33504">
        <ele>219</ele>
        <time>2021-10-30T14:02:13Z</time>
      </trkpt>
      <trkpt lat="46.50345" lon="5.33525">
        <ele>219.6</ele>
        <time>2021-10-30T14:02:17Z</time>
      </trkpt>
      <trkpt lat="46.5034" lon="5.3353">
        <ele>219.8</ele>
        <time>2021-10-30T14:02:18Z</time>
      </trkpt>
      <trkpt lat="46.5032" lon="5.33553">
        <ele>219.8</ele>
        <time>2021-10-30T14:02:22Z</time>
      </trkpt>
      <trkpt lat="46.5031" lon="5.33564">
        <ele>219.8</ele>
        <time>2021-10-30T14:02:24Z</time>
      </trkpt>
      <trkpt lat="46.5029" lon="5.33586">
        <ele>219.8</ele>
        <time>2021-10-30T14:02:28Z</time>
      </trkpt>
      <trkpt lat="46.50259" lon="5.3362">
        <ele>220.4</ele>
        <time>2021-10-30T14:02:34Z</time>
      </trkpt>
      <trkpt lat="46.50243" lon="5.33639">
        <ele>220.4</ele>
        <time>2021-10-30T14:02:37Z</time>
      </trkpt>
      <trkpt lat="46.50229" lon="5.33655">
        <ele>220.8</ele>
        <time>2021-10-30T14:02:40Z</time>
      </trkpt>
      <trkpt lat="46.50218" lon="5.33667">
        <ele>221</ele>
        <time>2021-10-30T14:02:42Z</time>
      </trkpt>
      <trkpt lat="46.50199" lon="5.33689">
        <ele>221.2</ele>
        <time>2021-10-30T14:02:46Z</time>
      </trkpt>
      <trkpt lat="46.50157" lon="5.33733">
        <ele>221.4</ele>
        <time>2021-10-30T14:02:55Z</time>
      </trkpt>
      <trkpt lat="46.50124" lon="5.33768">
        <ele>220.6</ele>
        <time>2021-10-30T14:03:01Z</time>
      </trkpt>
      <trkpt lat="46.50083" lon="5.33811">
        <ele>220.2</ele>
        <time>2021-10-30T14:03:08Z</time>
      </trkpt>
      <trkpt lat="46.50042" lon="5.33856">
        <ele>220.8</ele>
        <time>2021-10-30T14:03:16Z</time>
      </trkpt>
      <trkpt lat="46.50006" lon="5.33892">
        <ele>221.8</ele>
        <time>2021-10-30T14:03:23Z</time>
      </trkpt>
      <trkpt lat="46.50001" lon="5.33898">
        <ele>222</ele>
        <time>2021-10-30T14:03:24Z</time>
      </trkpt>
      <trkpt lat="46.49971" lon="5.3393">
        <ele>222.6</ele>
        <time>2021-10-30T14:03:30Z</time>
      </trkpt>
      <trkpt lat="46.49931" lon="5.33971">
        <ele>222.6</ele>
        <time>2021-10-30T14:03:37Z</time>
      </trkpt>
      <trkpt lat="46.49889" lon="5.34016">
        <ele>221.4</ele>
        <time>2021-10-30T14:03:44Z</time>
      </trkpt>
      <trkpt lat="46.49874" lon="5.34032">
        <ele>220.8</ele>
        <time>2021-10-30T14:03:46Z</time>
      </trkpt>
      <trkpt lat="46.49848" lon="5.34067">
        <ele>220</ele>
        <time>2021-10-30T14:03:50Z</time>
      </trkpt>
      <trkpt lat="46.49818" lon="5.34117">
        <ele>220</ele>
        <time>2021-10-30T14:03:56Z</time>
      </trkpt>
      <trkpt lat="46.49812" lon="5.34126">
        <ele>220.2</ele>
        <time>2021-10-30T14:03:57Z</time>
      </trkpt>
      <trkpt lat="46.49783" lon="5.34175">
        <ele>220.4</ele>
        <time>2021-10-30T14:04:03Z</time>
      </trkpt>
      <trkpt lat="46.49772" lon="5.34194">
        <ele>220.4</ele>
        <time>2021-10-30T14:04:05Z</time>
      </trkpt>
      <trkpt lat="46.4975" lon="5.34235">
        <ele>220.2</ele>
        <time>2021-10-30T14:04:10Z</time>
      </trkpt>
      <trkpt lat="46.49715" lon="5.34297">
        <ele>220</ele>
        <time>2021-10-30T14:04:17Z</time>
      </trkpt>
      <trkpt lat="46.49696" lon="5.34355">
        <ele>220.2</ele>
        <time>2021-10-30T14:04:23Z</time>
      </trkpt>
      <trkpt lat="46.49678" lon="5.34423">
        <ele>219.4</ele>
        <time>2021-10-30T14:04:29Z</time>
      </trkpt>
      <trkpt lat="46.49675" lon="5.34434">
        <ele>218.8</ele>
        <time>2021-10-30T14:04:30Z</time>
      </trkpt>
      <trkpt lat="46.49668" lon="5.34458">
        <ele>218.4</ele>
        <time>2021-10-30T14:04:32Z</time>
      </trkpt>
      <trkpt lat="46.49655" lon="5.34505">
        <ele>217.2</ele>
        <time>2021-10-30T14:04:36Z</time>
      </trkpt>
      <trkpt lat="46.49652" lon="5.34518">
        <ele>216.8</ele>
        <time>2021-10-30T14:04:37Z</time>
      </trkpt>
      <trkpt lat="46.49644" lon="5.34557">
        <ele>215.8</ele>
        <time>2021-10-30T14:04:40Z</time>
      </trkpt>
      <trkpt lat="46.49637" lon="5.34609">
        <ele>214.8</ele>
        <time>2021-10-30T14:04:44Z</time>
      </trkpt>
      <trkpt lat="46.49635" lon="5.34621">
        <ele>214.8</ele>
        <time>2021-10-30T14:04:45Z</time>
      </trkpt>
      <trkpt lat="46.4963" lon="5.34664">
        <ele>214.8</ele>
        <time>2021-10-30T14:04:49Z</time>
      </trkpt>
      <trkpt lat="46.49626" lon="5.347">
        <ele>215.4</ele>
        <time>2021-10-30T14:04:53Z</time>
      </trkpt>
      <trkpt lat="46.49625" lon="5.34717">
        <ele>215.8</ele>
        <time>2021-10-30T14:04:55Z</time>
      </trkpt>
      <trkpt lat="46.49624" lon="5.34725">
        <ele>216.2</ele>
        <time>2021-10-30T14:04:56Z</time>
      </trkpt>
      <trkpt lat="46.49623" lon="5.3475">
        <ele>217.4</ele>
        <time>2021-10-30T14:04:59Z</time>
      </trkpt>
      <trkpt lat="46.49623" lon="5.34766">
        <ele>218.4</ele>
        <time>2021-10-30T14:05:01Z</time>
      </trkpt>
      <trkpt lat="46.49624" lon="5.34783">
        <ele>219.4</ele>
        <time>2021-10-30T14:05:03Z</time>
      </trkpt>
      <trkpt lat="46.49628" lon="5.34813">
        <ele>220.6</ele>
        <time>2021-10-30T14:05:07Z</time>
      </trkpt>
      <trkpt lat="46.49632" lon="5.34836">
        <ele>221.2</ele>
        <time>2021-10-30T14:05:10Z</time>
      </trkpt>
      <trkpt lat="46.49637" lon="5.34868">
        <ele>221.8</ele>
        <time>2021-10-30T14:05:14Z</time>
      </trkpt>
      <trkpt lat="46.49647" lon="5.34916">
        <ele>222.6</ele>
        <time>2021-10-30T14:05:20Z</time>
      </trkpt>
      <trkpt lat="46.49662" lon="5.34989">
        <ele>222.6</ele>
        <time>2021-10-30T14:05:28Z</time>
      </trkpt>
      <trkpt lat="46.4968" lon="5.35075">
        <ele>221.6</ele>
        <time>2021-10-30T14:05:36Z</time>
      </trkpt>
      <trkpt lat="46.49692" lon="5.3513">
        <ele>220.6</ele>
        <time>2021-10-30T14:05:41Z</time>
      </trkpt>
      <trkpt lat="46.497" lon="5.35172">
        <ele>220.6</ele>
        <time>2021-10-30T14:05:45Z</time>
      </trkpt>
      <trkpt lat="46.49717" lon="5.3525">
        <ele>221.2</ele>
        <time>2021-10-30T14:05:53Z</time>
      </trkpt>
      <trkpt lat="46.49731" lon="5.35325">
        <ele>220.6</ele>
        <time>2021-10-30T14:06:00Z</time>
      </trkpt>
      <trkpt lat="46.49734" lon="5.35373">
        <ele>220</ele>
        <time>2021-10-30T14:06:04Z</time>
      </trkpt>
      <trkpt lat="46.49732" lon="5.35385">
        <ele>219.8</ele>
        <time>2021-10-30T14:06:05Z</time>
      </trkpt>
      <trkpt lat="46.4973" lon="5.35406">
        <ele>219.4</ele>
        <time>2021-10-30T14:06:07Z</time>
      </trkpt>
      <trkpt lat="46.49724" lon="5.35456">
        <ele>219</ele>
        <time>2021-10-30T14:06:12Z</time>
      </trkpt>
      <trkpt lat="46.49716" lon="5.35519">
        <ele>220</ele>
        <time>2021-10-30T14:06:19Z</time>
      </trkpt>
      <trkpt lat="46.49711" lon="5.35555">
        <ele>220.6</ele>
        <time>2021-10-30T14:06:23Z</time>
      </trkpt>
      <trkpt lat="46.49708" lon="5.35582">
        <ele>221</ele>
        <time>2021-10-30T14:06:26Z</time>
      </trkpt>
      <trkpt lat="46.497" lon="5.35632">
        <ele>221</ele>
        <time>2021-10-30T14:06:32Z</time>
      </trkpt>
      <trkpt lat="46.49697" lon="5.35639">
        <ele>221</ele>
        <time>2021-10-30T14:06:33Z</time>
      </trkpt>
      <trkpt lat="46.49692" lon="5.35643">
        <ele>221.2</ele>
        <time>2021-10-30T14:06:34Z</time>
      </trkpt>
      <trkpt lat="46.49686" lon="5.35645">
        <ele>221.4</ele>
        <time>2021-10-30T14:06:35Z</time>
      </trkpt>
      <trkpt lat="46.4968" lon="5.35644">
        <ele>221.4</ele>
        <time>2021-10-30T14:06:36Z</time>
      </trkpt>
      <trkpt lat="46.49663" lon="5.35638">
        <ele>221.8</ele>
        <time>2021-10-30T14:06:39Z</time>
      </trkpt>
      <trkpt lat="46.4962" lon="5.35624">
        <ele>223</ele>
        <time>2021-10-30T14:06:47Z</time>
      </trkpt>
      <trkpt lat="46.49604" lon="5.35618">
        <ele>223.4</ele>
        <time>2021-10-30T14:06:50Z</time>
      </trkpt>
      <trkpt lat="46.49583" lon="5.35612">
        <ele>224</ele>
        <time>2021-10-30T14:06:54Z</time>
      </trkpt>
      <trkpt lat="46.49562" lon="5.35604">
        <ele>224.4</ele>
        <time>2021-10-30T14:06:58Z</time>
      </trkpt>
      <trkpt lat="46.49516" lon="5.35586">
        <ele>225</ele>
        <time>2021-10-30T14:07:07Z</time>
      </trkpt>
      <trkpt lat="46.49505" lon="5.35582">
        <ele>225</ele>
        <time>2021-10-30T14:07:09Z</time>
      </trkpt>
      <trkpt lat="46.49468" lon="5.35566">
        <ele>226.2</ele>
        <time>2021-10-30T14:07:16Z</time>
      </trkpt>
      <trkpt lat="46.49462" lon="5.35564">
        <ele>226.2</ele>
        <time>2021-10-30T14:07:17Z</time>
      </trkpt>
      <trkpt lat="46.49415" lon="5.35544">
        <ele>226.4</ele>
        <time>2021-10-30T14:07:25Z</time>
      </trkpt>
      <trkpt lat="46.49378" lon="5.35532">
        <ele>226.6</ele>
        <time>2021-10-30T14:07:31Z</time>
      </trkpt>
      <trkpt lat="46.49348" lon="5.35532">
        <ele>227.2</ele>
        <time>2021-10-30T14:07:36Z</time>
      </trkpt>
      <trkpt lat="46.49337" lon="5.35532">
        <ele>227.4</ele>
        <time>2021-10-30T14:07:38Z</time>
      </trkpt>
      <trkpt lat="46.49304" lon="5.35532">
        <ele>227.8</ele>
        <time>2021-10-30T14:07:44Z</time>
      </trkpt>
      <trkpt lat="46.49269" lon="5.35533">
        <ele>228</ele>
        <time>2021-10-30T14:07:50Z</time>
      </trkpt>
      <trkpt lat="46.49263" lon="5.35533">
        <ele>228.2</ele>
        <time>2021-10-30T14:07:51Z</time>
      </trkpt>
      <trkpt lat="46.4925" lon="5.35534">
        <ele>228.4</ele>
        <time>2021-10-30T14:07:53Z</time>
      </trkpt>
      <trkpt lat="46.4923" lon="5.35536">
        <ele>228.4</ele>
        <time>2021-10-30T14:07:56Z</time>
      </trkpt>
      <trkpt lat="46.49217" lon="5.35536">
        <ele>228.4</ele>
        <time>2021-10-30T14:07:58Z</time>
      </trkpt>
      <trkpt lat="46.49191" lon="5.35538">
        <ele>228.2</ele>
        <time>2021-10-30T14:08:02Z</time>
      </trkpt>
      <trkpt lat="46.49165" lon="5.3554">
        <ele>228</ele>
        <time>2021-10-30T14:08:06Z</time>
      </trkpt>
      <trkpt lat="46.49158" lon="5.35541">
        <ele>228</ele>
        <time>2021-10-30T14:08:07Z</time>
      </trkpt>
      <trkpt lat="46.49128" lon="5.35545">
        <ele>227.6</ele>
        <time>2021-10-30T14:08:11Z</time>
      </trkpt>
      <trkpt lat="46.4912" lon="5.35545">
        <ele>227.6</ele>
        <time>2021-10-30T14:08:12Z</time>
      </trkpt>
      <trkpt lat="46.49093" lon="5.35547">
        <ele>227</ele>
        <time>2021-10-30T14:08:15Z</time>
      </trkpt>
      <trkpt lat="46.49085" lon="5.35547">
        <ele>226.6</ele>
        <time>2021-10-30T14:08:16Z</time>
      </trkpt>
      <trkpt lat="46.49077" lon="5.35548">
        <ele>226.4</ele>
        <time>2021-10-30T14:08:17Z</time>
      </trkpt>
      <trkpt lat="46.49059" lon="5.35549">
        <ele>225.8</ele>
        <time>2021-10-30T14:08:19Z</time>
      </trkpt>
      <trkpt lat="46.4904" lon="5.3555">
        <ele>225.4</ele>
        <time>2021-10-30T14:08:21Z</time>
      </trkpt>
      <trkpt lat="46.48988" lon="5.35553">
        <ele>224.8</ele>
        <time>2021-10-30T14:08:27Z</time>
      </trkpt>
      <trkpt lat="46.48932" lon="5.35556">
        <ele>224</ele>
        <time>2021-10-30T14:08:34Z</time>
      </trkpt>
      <trkpt lat="46.48925" lon="5.35557">
        <ele>224</ele>
        <time>2021-10-30T14:08:35Z</time>
      </trkpt>
      <trkpt lat="46.48884" lon="5.35558">
        <ele>225.2</ele>
        <time>2021-10-30T14:08:42Z</time>
      </trkpt>
      <trkpt lat="46.48849" lon="5.35563">
        <ele>226</ele>
        <time>2021-10-30T14:08:48Z</time>
      </trkpt>
      <trkpt lat="46.48839" lon="5.35571">
        <ele>226.4</ele>
        <time>2021-10-30T14:08:50Z</time>
      </trkpt>
      <trkpt lat="46.48834" lon="5.35577">
        <ele>226.8</ele>
        <time>2021-10-30T14:08:51Z</time>
      </trkpt>
      <trkpt lat="46.48831" lon="5.35582">
        <ele>227</ele>
        <time>2021-10-30T14:08:52Z</time>
      </trkpt>
      <trkpt lat="46.48821" lon="5.35601">
        <ele>227.4</ele>
        <time>2021-10-30T14:08:55Z</time>
      </trkpt>
      <trkpt lat="46.48811" lon="5.35626">
        <ele>227.6</ele>
        <time>2021-10-30T14:08:58Z</time>
      </trkpt>
      <trkpt lat="46.48807" lon="5.35634">
        <ele>227.6</ele>
        <time>2021-10-30T14:08:59Z</time>
      </trkpt>
      <trkpt lat="46.48791" lon="5.35668">
        <ele>227.4</ele>
        <time>2021-10-30T14:09:03Z</time>
      </trkpt>
      <trkpt lat="46.48763" lon="5.35733">
        <ele>227</ele>
        <time>2021-10-30T14:09:10Z</time>
      </trkpt>
      <trkpt lat="46.48733" lon="5.35801">
        <ele>227.4</ele>
        <time>2021-10-30T14:09:18Z</time>
      </trkpt>
      <trkpt lat="46.48729" lon="5.35809">
        <ele>227.4</ele>
        <time>2021-10-30T14:09:19Z</time>
      </trkpt>
      <trkpt lat="46.48702" lon="5.35873">
        <ele>227.4</ele>
        <time>2021-10-30T14:09:27Z</time>
      </trkpt>
      <trkpt lat="46.48691" lon="5.35901">
        <ele>228</ele>
        <time>2021-10-30T14:09:31Z</time>
      </trkpt>
      <trkpt lat="46.48687" lon="5.35916">
        <ele>228.6</ele>
        <time>2021-10-30T14:09:33Z</time>
      </trkpt>
      <trkpt lat="46.48683" lon="5.35933">
        <ele>229</ele>
        <time>2021-10-30T14:09:35Z</time>
      </trkpt>
      <trkpt lat="46.48682" lon="5.35941">
        <ele>229.2</ele>
        <time>2021-10-30T14:09:36Z</time>
      </trkpt>
      <trkpt lat="46.48679" lon="5.35965">
        <ele>229.6</ele>
        <time>2021-10-30T14:09:39Z</time>
      </trkpt>
      <trkpt lat="46.4867" lon="5.3602">
        <ele>230</ele>
        <time>2021-10-30T14:09:45Z</time>
      </trkpt>
      <trkpt lat="46.48659" lon="5.36069">
        <ele>229.6</ele>
        <time>2021-10-30T14:09:50Z</time>
      </trkpt>
      <trkpt lat="46.48643" lon="5.36147">
        <ele>228</ele>
        <time>2021-10-30T14:09:57Z</time>
      </trkpt>
      <trkpt lat="46.48636" lon="5.36228">
        <ele>227.8</ele>
        <time>2021-10-30T14:10:05Z</time>
      </trkpt>
      <trkpt lat="46.4863" lon="5.36278">
        <ele>228.6</ele>
        <time>2021-10-30T14:10:11Z</time>
      </trkpt>
      <trkpt lat="46.48627" lon="5.36294">
        <ele>229</ele>
        <time>2021-10-30T14:10:13Z</time>
      </trkpt>
      <trkpt lat="46.48621" lon="5.36307">
        <ele>229.6</ele>
        <time>2021-10-30T14:10:15Z</time>
      </trkpt>
      <trkpt lat="46.48618" lon="5.36313">
        <ele>229.8</ele>
        <time>2021-10-30T14:10:16Z</time>
      </trkpt>
      <trkpt lat="46.48609" lon="5.36319">
        <ele>230</ele>
        <time>2021-10-30T14:10:18Z</time>
      </trkpt>
      <trkpt lat="46.48599" lon="5.36322">
        <ele>230.2</ele>
        <time>2021-10-30T14:10:20Z</time>
      </trkpt>
      <trkpt lat="46.48585" lon="5.36323">
        <ele>231.2</ele>
        <time>2021-10-30T14:10:24Z</time>
      </trkpt>
      <trkpt lat="46.48575" lon="5.36325">
        <ele>231.6</ele>
        <time>2021-10-30T14:10:25Z</time>
      </trkpt>
      <trkpt lat="46.48547" lon="5.36329">
        <ele>232.6</ele>
        <time>2021-10-30T14:10:31Z</time>
      </trkpt>
      <trkpt lat="46.48538" lon="5.3633">
        <ele>233</ele>
        <time>2021-10-30T14:10:33Z</time>
      </trkpt>
      <trkpt lat="46.48528" lon="5.36332">
        <ele>233.8</ele>
        <time>2021-10-30T14:10:35Z</time>
      </trkpt>
      <trkpt lat="46.48508" lon="5.36335">
        <ele>235</ele>
        <time>2021-10-30T14:10:39Z</time>
      </trkpt>
      <trkpt lat="46.48487" lon="5.36339">
        <ele>235</ele>
        <time>2021-10-30T14:10:43Z</time>
      </trkpt>
      <trkpt lat="46.48435" lon="5.36347">
        <ele>234.4</ele>
        <time>2021-10-30T14:10:53Z</time>
      </trkpt>
      <trkpt lat="46.48425" lon="5.3635">
        <ele>234.8</ele>
        <time>2021-10-30T14:10:55Z</time>
      </trkpt>
      <trkpt lat="46.4841" lon="5.36358">
        <ele>235</ele>
        <time>2021-10-30T14:10:58Z</time>
      </trkpt>
      <trkpt lat="46.48405" lon="5.36362">
        <ele>235</ele>
        <time>2021-10-30T14:10:59Z</time>
      </trkpt>
      <trkpt lat="46.48379" lon="5.36387">
        <ele>234.8</ele>
        <time>2021-10-30T14:11:05Z</time>
      </trkpt>
      <trkpt lat="46.48349" lon="5.3642">
        <ele>235</ele>
        <time>2021-10-30T14:11:12Z</time>
      </trkpt>
      <trkpt lat="46.48338" lon="5.36433">
        <ele>236.2</ele>
        <time>2021-10-30T14:11:15Z</time>
      </trkpt>
      <trkpt lat="46.48326" lon="5.36447">
        <ele>237.2</ele>
        <time>2021-10-30T14:11:18Z</time>
      </trkpt>
      <trkpt lat="46.48311" lon="5.36463">
        <ele>237.6</ele>
        <time>2021-10-30T14:11:22Z</time>
      </trkpt>
      <trkpt lat="46.4827" lon="5.36508">
        <ele>238.4</ele>
        <time>2021-10-30T14:11:33Z</time>
      </trkpt>
      <trkpt lat="46.48243" lon="5.36538">
        <ele>239.6</ele>
        <time>2021-10-30T14:11:41Z</time>
      </trkpt>
      <trkpt lat="46.48227" lon="5.36554">
        <ele>240.6</ele>
        <time>2021-10-30T14:11:46Z</time>
      </trkpt>
      <trkpt lat="46.4822" lon="5.36558">
        <ele>240.6</ele>
        <time>2021-10-30T14:11:48Z</time>
      </trkpt>
      <trkpt lat="46.482" lon="5.36555">
        <ele>241</ele>
        <time>2021-10-30T14:11:53Z</time>
      </trkpt>
      <trkpt lat="46.48191" lon="5.36566">
        <ele>241.4</ele>
        <time>2021-10-30T14:11:56Z</time>
      </trkpt>
      <trkpt lat="46.48189" lon="5.36572">
        <ele>241.4</ele>
        <time>2021-10-30T14:11:57Z</time>
      </trkpt>
      <trkpt lat="46.48187" lon="5.36578">
        <ele>241.6</ele>
        <time>2021-10-30T14:11:58Z</time>
      </trkpt>
      <trkpt lat="46.48185" lon="5.36592">
        <ele>241.8</ele>
        <time>2021-10-30T14:12:00Z</time>
      </trkpt>
      <trkpt lat="46.4818" lon="5.36604">
        <ele>241.8</ele>
        <time>2021-10-30T14:12:02Z</time>
      </trkpt>
      <trkpt lat="46.48157" lon="5.3663">
        <ele>242</ele>
        <time>2021-10-30T14:12:08Z</time>
      </trkpt>
      <trkpt lat="46.48143" lon="5.36647">
        <ele>242.6</ele>
        <time>2021-10-30T14:12:11Z</time>
      </trkpt>
      <trkpt lat="46.48134" lon="5.36657">
        <ele>243</ele>
        <time>2021-10-30T14:12:13Z</time>
      </trkpt>
      <trkpt lat="46.48126" lon="5.36667">
        <ele>243.2</ele>
        <time>2021-10-30T14:12:16Z</time>
      </trkpt>
      <trkpt lat="46.48115" lon="5.36678">
        <ele>243.2</ele>
        <time>2021-10-30T14:12:19Z</time>
      </trkpt>
      <trkpt lat="46.48111" lon="5.36681">
        <ele>243.2</ele>
        <time>2021-10-30T14:12:20Z</time>
      </trkpt>
      <trkpt lat="46.48104" lon="5.36693">
        <ele>243.2</ele>
        <time>2021-10-30T14:12:23Z</time>
      </trkpt>
      <trkpt lat="46.48105" lon="5.36704">
        <ele>243.4</ele>
        <time>2021-10-30T14:12:25Z</time>
      </trkpt>
      <trkpt lat="46.48108" lon="5.36708">
        <ele>243.4</ele>
        <time>2021-10-30T14:12:26Z</time>
      </trkpt>
      <trkpt lat="46.48117" lon="5.36714">
        <ele>243.6</ele>
        <time>2021-10-30T14:12:28Z</time>
      </trkpt>
      <trkpt lat="46.4813" lon="5.36724">
        <ele>244.2</ele>
        <time>2021-10-30T14:12:31Z</time>
      </trkpt>
      <trkpt lat="46.48143" lon="5.36734">
        <ele>244.8</ele>
        <time>2021-10-30T14:12:34Z</time>
      </trkpt>
      <trkpt lat="46.48164" lon="5.36752">
        <ele>246</ele>
        <time>2021-10-30T14:12:39Z</time>
      </trkpt>
      <trkpt lat="46.48172" lon="5.36759">
        <ele>246.6</ele>
        <time>2021-10-30T14:12:41Z</time>
      </trkpt>
      <trkpt lat="46.4818" lon="5.36765">
        <ele>247.2</ele>
        <time>2021-10-30T14:12:43Z</time>
      </trkpt>
      <trkpt lat="46.48198" lon="5.3678">
        <ele>248.4</ele>
        <time>2021-10-30T14:12:48Z</time>
      </trkpt>
      <trkpt lat="46.48206" lon="5.36786">
        <ele>248.8</ele>
        <time>2021-10-30T14:12:50Z</time>
      </trkpt>
      <trkpt lat="46.4822" lon="5.36798">
        <ele>249.8</ele>
        <time>2021-10-30T14:12:54Z</time>
      </trkpt>
      <trkpt lat="46.48237" lon="5.36812">
        <ele>251</ele>
        <time>2021-10-30T14:12:59Z</time>
      </trkpt>
      <trkpt lat="46.48241" lon="5.36815">
        <ele>251.4</ele>
        <time>2021-10-30T14:13:00Z</time>
      </trkpt>
      <trkpt lat="46.48254" lon="5.36826">
        <ele>252.4</ele>
        <time>2021-10-30T14:13:04Z</time>
      </trkpt>
    </trkseg>
  </trk>
</gpx>